<?xml version="1.0" encoding="UTF-8" standalone="no" ?>
<gpx xmlns="http://www.topografix.com/GPX/1/1" xmlns:xsi="http://www.w3.org/2001/XMLSchema-instance" xsi:schemaLocation="http://www.topografix.com/GPX/1/1 http://www.topografix.com/GPX/1/1/gpx.xsd" version="1.1" creator="VisuGPX - https://www.visugpx.com">
  <metadata>
    <name>Morzine XCM 2023</name>
  </metadata>
  <trk>
    <name><![CDATA[
Morzine%20XCM
]]></name>
    <extensions>
      <line xmlns="http://www.topografix.com/GPX/gpx_style/0/2">
        <color>0000FF</color>
        <width>4</width>
      </line>
    </extensions>
    <trkseg>
      <trkpt lat="46.18356" lon="6.7052">
        <ele>940.5</ele>
        <time>2023-09-10T13:23:08.612Z</time>
      </trkpt>
      <trkpt lat="46.18343" lon="6.70536">
        <ele>940.5</ele>
        <time>2023-09-10T13:23:09.612Z</time>
      </trkpt>
      <trkpt lat="46.18297" lon="6.70581">
        <ele>942.3</ele>
        <time>2023-09-10T13:23:10.612Z</time>
      </trkpt>
      <trkpt lat="46.18242" lon="6.70625">
        <ele>944.6</ele>
        <time>2023-09-10T13:23:11.612Z</time>
      </trkpt>
      <trkpt lat="46.18215" lon="6.7064">
        <ele>945.4</ele>
        <time>2023-09-10T13:23:12.612Z</time>
      </trkpt>
      <trkpt lat="46.18198" lon="6.70652">
        <ele>946.2</ele>
        <time>2023-09-10T13:23:13.612Z</time>
      </trkpt>
      <trkpt lat="46.18159" lon="6.70689">
        <ele>946.8</ele>
        <time>2023-09-10T13:23:14.612Z</time>
      </trkpt>
      <trkpt lat="46.18115" lon="6.70742">
        <ele>949.2</ele>
        <time>2023-09-10T13:23:15.612Z</time>
      </trkpt>
      <trkpt lat="46.18098" lon="6.70756">
        <ele>949.9</ele>
        <time>2023-09-10T13:23:16.612Z</time>
      </trkpt>
      <trkpt lat="46.1808" lon="6.70768">
        <ele>951.2</ele>
        <time>2023-09-10T13:23:17.612Z</time>
      </trkpt>
      <trkpt lat="46.18044" lon="6.70789">
        <ele>952.5</ele>
        <time>2023-09-10T13:23:18.612Z</time>
      </trkpt>
      <trkpt lat="46.17994" lon="6.70832">
        <ele>953.7</ele>
        <time>2023-09-10T13:23:19.612Z</time>
      </trkpt>
      <trkpt lat="46.17978" lon="6.70849">
        <ele>955</ele>
        <time>2023-09-10T13:23:20.612Z</time>
      </trkpt>
      <trkpt lat="46.17962" lon="6.70862">
        <ele>955.7</ele>
        <time>2023-09-10T13:23:21.612Z</time>
      </trkpt>
      <trkpt lat="46.17943" lon="6.70868">
        <ele>955.5</ele>
        <time>2023-09-10T13:23:22.612Z</time>
      </trkpt>
      <trkpt lat="46.179" lon="6.70874">
        <ele>957.4</ele>
        <time>2023-09-10T13:23:23.612Z</time>
      </trkpt>
      <trkpt lat="46.17892" lon="6.70879">
        <ele>958.4</ele>
        <time>2023-09-10T13:23:24.612Z</time>
      </trkpt>
      <trkpt lat="46.17875" lon="6.70894">
        <ele>959.1</ele>
        <time>2023-09-10T13:23:25.612Z</time>
      </trkpt>
      <trkpt lat="46.17866" lon="6.70898">
        <ele>959.3</ele>
        <time>2023-09-10T13:23:26.612Z</time>
      </trkpt>
      <trkpt lat="46.17833" lon="6.70907">
        <ele>959.3</ele>
        <time>2023-09-10T13:23:27.612Z</time>
      </trkpt>
      <trkpt lat="46.17802" lon="6.70913">
        <ele>960.2</ele>
        <time>2023-09-10T13:23:28.612Z</time>
      </trkpt>
      <trkpt lat="46.17782" lon="6.70913">
        <ele>961.6</ele>
        <time>2023-09-10T13:23:29.612Z</time>
      </trkpt>
      <trkpt lat="46.1773" lon="6.70895">
        <ele>961.3</ele>
        <time>2023-09-10T13:23:30.612Z</time>
      </trkpt>
      <trkpt lat="46.1772" lon="6.70893">
        <ele>961.7</ele>
        <time>2023-09-10T13:23:31.612Z</time>
      </trkpt>
      <trkpt lat="46.1771" lon="6.70895">
        <ele>962.8</ele>
        <time>2023-09-10T13:23:32.612Z</time>
      </trkpt>
      <trkpt lat="46.17701" lon="6.70901">
        <ele>963.9</ele>
        <time>2023-09-10T13:23:33.612Z</time>
      </trkpt>
      <trkpt lat="46.17685" lon="6.70919">
        <ele>965.1</ele>
        <time>2023-09-10T13:23:34.612Z</time>
      </trkpt>
      <trkpt lat="46.17671" lon="6.7094">
        <ele>965.8</ele>
        <time>2023-09-10T13:23:35.612Z</time>
      </trkpt>
      <trkpt lat="46.17638" lon="6.71">
        <ele>971</ele>
        <time>2023-09-10T13:23:36.612Z</time>
      </trkpt>
      <trkpt lat="46.17626" lon="6.71017">
        <ele>972.7</ele>
        <time>2023-09-10T13:23:37.612Z</time>
      </trkpt>
      <trkpt lat="46.17619" lon="6.71024">
        <ele>973.1</ele>
        <time>2023-09-10T13:23:38.612Z</time>
      </trkpt>
      <trkpt lat="46.17607" lon="6.71029">
        <ele>973.6</ele>
        <time>2023-09-10T13:23:39.612Z</time>
      </trkpt>
      <trkpt lat="46.17598" lon="6.71031">
        <ele>974.6</ele>
        <time>2023-09-10T13:23:40.612Z</time>
      </trkpt>
      <trkpt lat="46.17589" lon="6.71028">
        <ele>974.6</ele>
        <time>2023-09-10T13:23:41.612Z</time>
      </trkpt>
      <trkpt lat="46.17583" lon="6.71021">
        <ele>974</ele>
        <time>2023-09-10T13:23:42.612Z</time>
      </trkpt>
      <trkpt lat="46.17578" lon="6.7101">
        <ele>972</ele>
        <time>2023-09-10T13:23:43.612Z</time>
      </trkpt>
      <trkpt lat="46.17574" lon="6.7099">
        <ele>970.2</ele>
        <time>2023-09-10T13:23:44.612Z</time>
      </trkpt>
      <trkpt lat="46.17569" lon="6.7098">
        <ele>971</ele>
        <time>2023-09-10T13:23:45.612Z</time>
      </trkpt>
      <trkpt lat="46.17557" lon="6.7098">
        <ele>972.2</ele>
        <time>2023-09-10T13:23:46.612Z</time>
      </trkpt>
      <trkpt lat="46.17545" lon="6.70986">
        <ele>972</ele>
        <time>2023-09-10T13:23:47.612Z</time>
      </trkpt>
      <trkpt lat="46.17516" lon="6.70992">
        <ele>973.5</ele>
        <time>2023-09-10T13:23:48.612Z</time>
      </trkpt>
      <trkpt lat="46.17484" lon="6.71004">
        <ele>974</ele>
        <time>2023-09-10T13:23:49.612Z</time>
      </trkpt>
      <trkpt lat="46.17456" lon="6.71008">
        <ele>976.1</ele>
        <time>2023-09-10T13:23:50.612Z</time>
      </trkpt>
      <trkpt lat="46.17447" lon="6.71012">
        <ele>976.2</ele>
        <time>2023-09-10T13:23:51.612Z</time>
      </trkpt>
      <trkpt lat="46.17426" lon="6.71026">
        <ele>975.3</ele>
        <time>2023-09-10T13:23:52.612Z</time>
      </trkpt>
      <trkpt lat="46.17394" lon="6.71052">
        <ele>975.8</ele>
        <time>2023-09-10T13:23:53.612Z</time>
      </trkpt>
      <trkpt lat="46.17314" lon="6.71086">
        <ele>979.6</ele>
        <time>2023-09-10T13:23:54.612Z</time>
      </trkpt>
      <trkpt lat="46.17302" lon="6.71087">
        <ele>979.9</ele>
        <time>2023-09-10T13:23:55.612Z</time>
      </trkpt>
      <trkpt lat="46.1729" lon="6.71085">
        <ele>980</ele>
        <time>2023-09-10T13:23:56.612Z</time>
      </trkpt>
      <trkpt lat="46.17261" lon="6.71069">
        <ele>982.5</ele>
        <time>2023-09-10T13:23:57.612Z</time>
      </trkpt>
      <trkpt lat="46.17249" lon="6.71066">
        <ele>982.6</ele>
        <time>2023-09-10T13:23:58.612Z</time>
      </trkpt>
      <trkpt lat="46.17228" lon="6.71067">
        <ele>984.1</ele>
        <time>2023-09-10T13:23:59.612Z</time>
      </trkpt>
      <trkpt lat="46.17219" lon="6.7107">
        <ele>984.4</ele>
        <time>2023-09-10T13:24:00.612Z</time>
      </trkpt>
      <trkpt lat="46.172" lon="6.71081">
        <ele>983.4</ele>
        <time>2023-09-10T13:24:01.612Z</time>
      </trkpt>
      <trkpt lat="46.17165" lon="6.71109">
        <ele>984</ele>
        <time>2023-09-10T13:24:02.612Z</time>
      </trkpt>
      <trkpt lat="46.17119" lon="6.71154">
        <ele>985.5</ele>
        <time>2023-09-10T13:24:03.612Z</time>
      </trkpt>
      <trkpt lat="46.17068" lon="6.71187">
        <ele>988.3</ele>
        <time>2023-09-10T13:24:04.612Z</time>
      </trkpt>
      <trkpt lat="46.1705" lon="6.71195">
        <ele>988</ele>
        <time>2023-09-10T13:24:05.612Z</time>
      </trkpt>
      <trkpt lat="46.17041" lon="6.71195">
        <ele>988</ele>
        <time>2023-09-10T13:24:06.612Z</time>
      </trkpt>
      <trkpt lat="46.17032" lon="6.71191">
        <ele>988.9</ele>
        <time>2023-09-10T13:24:07.612Z</time>
      </trkpt>
      <trkpt lat="46.16985" lon="6.71162">
        <ele>992.1</ele>
        <time>2023-09-10T13:24:08.612Z</time>
      </trkpt>
      <trkpt lat="46.16963" lon="6.7116">
        <ele>993.3</ele>
        <time>2023-09-10T13:24:09.612Z</time>
      </trkpt>
      <trkpt lat="46.16951" lon="6.71164">
        <ele>993.1</ele>
        <time>2023-09-10T13:24:10.612Z</time>
      </trkpt>
      <trkpt lat="46.16929" lon="6.7119">
        <ele>994.6</ele>
        <time>2023-09-10T13:24:11.612Z</time>
      </trkpt>
      <trkpt lat="46.1691" lon="6.71222">
        <ele>994.4</ele>
        <time>2023-09-10T13:24:12.612Z</time>
      </trkpt>
      <trkpt lat="46.169" lon="6.71242">
        <ele>996.6</ele>
        <time>2023-09-10T13:24:13.612Z</time>
      </trkpt>
      <trkpt lat="46.16886" lon="6.71284">
        <ele>997.1</ele>
        <time>2023-09-10T13:24:14.612Z</time>
      </trkpt>
      <trkpt lat="46.16871" lon="6.71311">
        <ele>998.4</ele>
        <time>2023-09-10T13:24:15.612Z</time>
      </trkpt>
      <trkpt lat="46.1686" lon="6.71338">
        <ele>999.3</ele>
        <time>2023-09-10T13:24:16.612Z</time>
      </trkpt>
      <trkpt lat="46.16855" lon="6.71346">
        <ele>1000.3</ele>
        <time>2023-09-10T13:24:17.612Z</time>
      </trkpt>
      <trkpt lat="46.16847" lon="6.71353">
        <ele>1001.2</ele>
        <time>2023-09-10T13:24:18.612Z</time>
      </trkpt>
      <trkpt lat="46.16837" lon="6.71356">
        <ele>1002.2</ele>
        <time>2023-09-10T13:24:19.612Z</time>
      </trkpt>
      <trkpt lat="46.16827" lon="6.71351">
        <ele>1004.1</ele>
        <time>2023-09-10T13:24:20.612Z</time>
      </trkpt>
      <trkpt lat="46.16818" lon="6.71343">
        <ele>1004.8</ele>
        <time>2023-09-10T13:24:21.612Z</time>
      </trkpt>
      <trkpt lat="46.16809" lon="6.71338">
        <ele>1003.6</ele>
        <time>2023-09-10T13:24:22.612Z</time>
      </trkpt>
      <trkpt lat="46.16789" lon="6.71334">
        <ele>1003.6</ele>
        <time>2023-09-10T13:24:23.612Z</time>
      </trkpt>
      <trkpt lat="46.16778" lon="6.71336">
        <ele>1004</ele>
        <time>2023-09-10T13:24:24.612Z</time>
      </trkpt>
      <trkpt lat="46.16767" lon="6.7134">
        <ele>1006.3</ele>
        <time>2023-09-10T13:24:25.612Z</time>
      </trkpt>
      <trkpt lat="46.16737" lon="6.71358">
        <ele>1009</ele>
        <time>2023-09-10T13:24:26.612Z</time>
      </trkpt>
      <trkpt lat="46.16731" lon="6.71367">
        <ele>1009.2</ele>
        <time>2023-09-10T13:24:27.612Z</time>
      </trkpt>
      <trkpt lat="46.16716" lon="6.71382">
        <ele>1010.2</ele>
        <time>2023-09-10T13:24:28.612Z</time>
      </trkpt>
      <trkpt lat="46.16705" lon="6.71386">
        <ele>1009.7</ele>
        <time>2023-09-10T13:24:29.612Z</time>
      </trkpt>
      <trkpt lat="46.16696" lon="6.71379">
        <ele>1010.8</ele>
        <time>2023-09-10T13:24:30.612Z</time>
      </trkpt>
      <trkpt lat="46.16685" lon="6.71354">
        <ele>1014.8</ele>
        <time>2023-09-10T13:24:31.612Z</time>
      </trkpt>
      <trkpt lat="46.16679" lon="6.71344">
        <ele>1015.4</ele>
        <time>2023-09-10T13:24:32.612Z</time>
      </trkpt>
      <trkpt lat="46.16655" lon="6.71318">
        <ele>1017.6</ele>
        <time>2023-09-10T13:24:33.612Z</time>
      </trkpt>
      <trkpt lat="46.16642" lon="6.71301">
        <ele>1017.2</ele>
        <time>2023-09-10T13:24:34.612Z</time>
      </trkpt>
      <trkpt lat="46.16619" lon="6.71249">
        <ele>1020.7</ele>
        <time>2023-09-10T13:24:35.612Z</time>
      </trkpt>
      <trkpt lat="46.16598" lon="6.71225">
        <ele>1025.5</ele>
        <time>2023-09-10T13:24:36.612Z</time>
      </trkpt>
      <trkpt lat="46.16594" lon="6.71214">
        <ele>1027.4</ele>
        <time>2023-09-10T13:24:37.612Z</time>
      </trkpt>
      <trkpt lat="46.16598" lon="6.71204">
        <ele>1030.8</ele>
        <time>2023-09-10T13:24:38.612Z</time>
      </trkpt>
      <trkpt lat="46.16638" lon="6.71208">
        <ele>1037</ele>
        <time>2023-09-10T13:24:39.612Z</time>
      </trkpt>
      <trkpt lat="46.16647" lon="6.71206">
        <ele>1038.4</ele>
        <time>2023-09-10T13:24:40.612Z</time>
      </trkpt>
      <trkpt lat="46.16656" lon="6.71201">
        <ele>1040.1</ele>
        <time>2023-09-10T13:24:41.612Z</time>
      </trkpt>
      <trkpt lat="46.16671" lon="6.71186">
        <ele>1043.3</ele>
        <time>2023-09-10T13:24:42.612Z</time>
      </trkpt>
      <trkpt lat="46.16687" lon="6.71174">
        <ele>1046.7</ele>
        <time>2023-09-10T13:24:43.612Z</time>
      </trkpt>
      <trkpt lat="46.16704" lon="6.71164">
        <ele>1049.7</ele>
        <time>2023-09-10T13:24:44.612Z</time>
      </trkpt>
      <trkpt lat="46.1671" lon="6.71155">
        <ele>1051.4</ele>
        <time>2023-09-10T13:24:45.612Z</time>
      </trkpt>
      <trkpt lat="46.16724" lon="6.71106">
        <ele>1055.8</ele>
        <time>2023-09-10T13:24:46.612Z</time>
      </trkpt>
      <trkpt lat="46.16721" lon="6.71097">
        <ele>1057.8</ele>
        <time>2023-09-10T13:24:47.612Z</time>
      </trkpt>
      <trkpt lat="46.16713" lon="6.71092">
        <ele>1060.1</ele>
        <time>2023-09-10T13:24:48.612Z</time>
      </trkpt>
      <trkpt lat="46.16711" lon="6.71083">
        <ele>1062.1</ele>
        <time>2023-09-10T13:24:49.612Z</time>
      </trkpt>
      <trkpt lat="46.16714" lon="6.71074">
        <ele>1064.3</ele>
        <time>2023-09-10T13:24:50.612Z</time>
      </trkpt>
      <trkpt lat="46.1672" lon="6.71067">
        <ele>1065.6</ele>
        <time>2023-09-10T13:24:51.612Z</time>
      </trkpt>
      <trkpt lat="46.16729" lon="6.71062">
        <ele>1067.6</ele>
        <time>2023-09-10T13:24:52.612Z</time>
      </trkpt>
      <trkpt lat="46.16737" lon="6.71053">
        <ele>1070.9</ele>
        <time>2023-09-10T13:24:53.612Z</time>
      </trkpt>
      <trkpt lat="46.16742" lon="6.71042">
        <ele>1072.1</ele>
        <time>2023-09-10T13:24:54.612Z</time>
      </trkpt>
      <trkpt lat="46.16748" lon="6.71022">
        <ele>1072.1</ele>
        <time>2023-09-10T13:24:55.612Z</time>
      </trkpt>
      <trkpt lat="46.16753" lon="6.71013">
        <ele>1071.8</ele>
        <time>2023-09-10T13:24:56.612Z</time>
      </trkpt>
      <trkpt lat="46.1678" lon="6.7098">
        <ele>1073.2</ele>
        <time>2023-09-10T13:24:57.612Z</time>
      </trkpt>
      <trkpt lat="46.16794" lon="6.70957">
        <ele>1076.1</ele>
        <time>2023-09-10T13:24:58.612Z</time>
      </trkpt>
      <trkpt lat="46.16803" lon="6.70935">
        <ele>1076</ele>
        <time>2023-09-10T13:24:59.612Z</time>
      </trkpt>
      <trkpt lat="46.16814" lon="6.70879">
        <ele>1079.5</ele>
        <time>2023-09-10T13:25:00.612Z</time>
      </trkpt>
      <trkpt lat="46.16811" lon="6.70858">
        <ele>1085.8</ele>
        <time>2023-09-10T13:25:01.612Z</time>
      </trkpt>
      <trkpt lat="46.16812" lon="6.70807">
        <ele>1091.9</ele>
        <time>2023-09-10T13:25:02.612Z</time>
      </trkpt>
      <trkpt lat="46.16817" lon="6.70797">
        <ele>1092.7</ele>
        <time>2023-09-10T13:25:03.612Z</time>
      </trkpt>
      <trkpt lat="46.16826" lon="6.70796">
        <ele>1092.3</ele>
        <time>2023-09-10T13:25:04.612Z</time>
      </trkpt>
      <trkpt lat="46.16837" lon="6.70799">
        <ele>1090.5</ele>
        <time>2023-09-10T13:25:05.612Z</time>
      </trkpt>
      <trkpt lat="46.16845" lon="6.70793">
        <ele>1091.2</ele>
        <time>2023-09-10T13:25:06.612Z</time>
      </trkpt>
      <trkpt lat="46.16876" lon="6.70762">
        <ele>1094.6</ele>
        <time>2023-09-10T13:25:07.612Z</time>
      </trkpt>
      <trkpt lat="46.16894" lon="6.70751">
        <ele>1094.8</ele>
        <time>2023-09-10T13:25:08.612Z</time>
      </trkpt>
      <trkpt lat="46.16902" lon="6.70744">
        <ele>1095</ele>
        <time>2023-09-10T13:25:09.612Z</time>
      </trkpt>
      <trkpt lat="46.16908" lon="6.70736">
        <ele>1095.9</ele>
        <time>2023-09-10T13:25:10.612Z</time>
      </trkpt>
      <trkpt lat="46.16915" lon="6.7073">
        <ele>1096.3</ele>
        <time>2023-09-10T13:25:11.612Z</time>
      </trkpt>
      <trkpt lat="46.16916" lon="6.70721">
        <ele>1098.4</ele>
        <time>2023-09-10T13:25:12.612Z</time>
      </trkpt>
      <trkpt lat="46.16907" lon="6.70719">
        <ele>1100.4</ele>
        <time>2023-09-10T13:25:13.612Z</time>
      </trkpt>
      <trkpt lat="46.16897" lon="6.70719">
        <ele>1101.8</ele>
        <time>2023-09-10T13:25:14.612Z</time>
      </trkpt>
      <trkpt lat="46.16879" lon="6.70723">
        <ele>1102.9</ele>
        <time>2023-09-10T13:25:15.612Z</time>
      </trkpt>
      <trkpt lat="46.16835" lon="6.70737">
        <ele>1109.3</ele>
        <time>2023-09-10T13:25:16.612Z</time>
      </trkpt>
      <trkpt lat="46.16823" lon="6.70739">
        <ele>1109.9</ele>
        <time>2023-09-10T13:25:17.612Z</time>
      </trkpt>
      <trkpt lat="46.16789" lon="6.70733">
        <ele>1112.6</ele>
        <time>2023-09-10T13:25:18.612Z</time>
      </trkpt>
      <trkpt lat="46.16778" lon="6.70737">
        <ele>1112</ele>
        <time>2023-09-10T13:25:19.612Z</time>
      </trkpt>
      <trkpt lat="46.16764" lon="6.70756">
        <ele>1117.9</ele>
        <time>2023-09-10T13:25:20.612Z</time>
      </trkpt>
      <trkpt lat="46.16754" lon="6.70773">
        <ele>1119.3</ele>
        <time>2023-09-10T13:25:21.612Z</time>
      </trkpt>
      <trkpt lat="46.16742" lon="6.70787">
        <ele>1121.4</ele>
        <time>2023-09-10T13:25:22.612Z</time>
      </trkpt>
      <trkpt lat="46.16712" lon="6.70809">
        <ele>1126</ele>
        <time>2023-09-10T13:25:23.612Z</time>
      </trkpt>
      <trkpt lat="46.16703" lon="6.70818">
        <ele>1127.2</ele>
        <time>2023-09-10T13:25:24.612Z</time>
      </trkpt>
      <trkpt lat="46.16696" lon="6.7083">
        <ele>1127.9</ele>
        <time>2023-09-10T13:25:25.612Z</time>
      </trkpt>
      <trkpt lat="46.1669" lon="6.70848">
        <ele>1130.1</ele>
        <time>2023-09-10T13:25:26.612Z</time>
      </trkpt>
      <trkpt lat="46.16689" lon="6.70859">
        <ele>1131</ele>
        <time>2023-09-10T13:25:27.612Z</time>
      </trkpt>
      <trkpt lat="46.16684" lon="6.70879">
        <ele>1132.7</ele>
        <time>2023-09-10T13:25:28.612Z</time>
      </trkpt>
      <trkpt lat="46.1668" lon="6.70888">
        <ele>1133.6</ele>
        <time>2023-09-10T13:25:29.612Z</time>
      </trkpt>
      <trkpt lat="46.16672" lon="6.70898">
        <ele>1134.8</ele>
        <time>2023-09-10T13:25:30.612Z</time>
      </trkpt>
      <trkpt lat="46.16651" lon="6.7091">
        <ele>1137.6</ele>
        <time>2023-09-10T13:25:31.612Z</time>
      </trkpt>
      <trkpt lat="46.16618" lon="6.70923">
        <ele>1142.1</ele>
        <time>2023-09-10T13:25:32.612Z</time>
      </trkpt>
      <trkpt lat="46.16598" lon="6.70929">
        <ele>1144.8</ele>
        <time>2023-09-10T13:25:33.612Z</time>
      </trkpt>
      <trkpt lat="46.16565" lon="6.70932">
        <ele>1149.9</ele>
        <time>2023-09-10T13:25:34.612Z</time>
      </trkpt>
      <trkpt lat="46.16541" lon="6.70936">
        <ele>1151.4</ele>
        <time>2023-09-10T13:25:35.612Z</time>
      </trkpt>
      <trkpt lat="46.1653" lon="6.70935">
        <ele>1153.2</ele>
        <time>2023-09-10T13:25:36.612Z</time>
      </trkpt>
      <trkpt lat="46.1652" lon="6.70928">
        <ele>1152.8</ele>
        <time>2023-09-10T13:25:37.612Z</time>
      </trkpt>
      <trkpt lat="46.16512" lon="6.70918">
        <ele>1154.9</ele>
        <time>2023-09-10T13:25:38.612Z</time>
      </trkpt>
      <trkpt lat="46.16505" lon="6.709">
        <ele>1156.3</ele>
        <time>2023-09-10T13:25:39.612Z</time>
      </trkpt>
      <trkpt lat="46.16499" lon="6.70869">
        <ele>1161</ele>
        <time>2023-09-10T13:25:40.612Z</time>
      </trkpt>
      <trkpt lat="46.16497" lon="6.70838">
        <ele>1163.6</ele>
        <time>2023-09-10T13:25:41.612Z</time>
      </trkpt>
      <trkpt lat="46.16499" lon="6.70818">
        <ele>1165.3</ele>
        <time>2023-09-10T13:25:42.612Z</time>
      </trkpt>
      <trkpt lat="46.16505" lon="6.70787">
        <ele>1164.5</ele>
        <time>2023-09-10T13:25:43.612Z</time>
      </trkpt>
      <trkpt lat="46.16517" lon="6.70758">
        <ele>1167.2</ele>
        <time>2023-09-10T13:25:44.612Z</time>
      </trkpt>
      <trkpt lat="46.1653" lon="6.70741">
        <ele>1173.5</ele>
        <time>2023-09-10T13:25:45.612Z</time>
      </trkpt>
      <trkpt lat="46.16556" lon="6.70723">
        <ele>1176.7</ele>
        <time>2023-09-10T13:25:46.612Z</time>
      </trkpt>
      <trkpt lat="46.16573" lon="6.70709">
        <ele>1179.2</ele>
        <time>2023-09-10T13:25:47.612Z</time>
      </trkpt>
      <trkpt lat="46.166" lon="6.70691">
        <ele>1182.2</ele>
        <time>2023-09-10T13:25:48.612Z</time>
      </trkpt>
      <trkpt lat="46.16608" lon="6.70684">
        <ele>1183.3</ele>
        <time>2023-09-10T13:25:49.612Z</time>
      </trkpt>
      <trkpt lat="46.1663" lon="6.70658">
        <ele>1186.8</ele>
        <time>2023-09-10T13:25:50.612Z</time>
      </trkpt>
      <trkpt lat="46.16637" lon="6.70647">
        <ele>1187.8</ele>
        <time>2023-09-10T13:25:51.612Z</time>
      </trkpt>
      <trkpt lat="46.16639" lon="6.70635">
        <ele>1189.4</ele>
        <time>2023-09-10T13:25:52.612Z</time>
      </trkpt>
      <trkpt lat="46.1664" lon="6.70626">
        <ele>1190.2</ele>
        <time>2023-09-10T13:25:53.612Z</time>
      </trkpt>
      <trkpt lat="46.16636" lon="6.70608">
        <ele>1192.3</ele>
        <time>2023-09-10T13:25:54.612Z</time>
      </trkpt>
      <trkpt lat="46.1663" lon="6.70598">
        <ele>1193.3</ele>
        <time>2023-09-10T13:25:55.612Z</time>
      </trkpt>
      <trkpt lat="46.16621" lon="6.70591">
        <ele>1194.9</ele>
        <time>2023-09-10T13:25:56.612Z</time>
      </trkpt>
      <trkpt lat="46.1661" lon="6.7059">
        <ele>1196.7</ele>
        <time>2023-09-10T13:25:57.612Z</time>
      </trkpt>
      <trkpt lat="46.16561" lon="6.70606">
        <ele>1203.6</ele>
        <time>2023-09-10T13:25:58.612Z</time>
      </trkpt>
      <trkpt lat="46.16541" lon="6.70609">
        <ele>1205.9</ele>
        <time>2023-09-10T13:25:59.612Z</time>
      </trkpt>
      <trkpt lat="46.16523" lon="6.70605">
        <ele>1207.8</ele>
        <time>2023-09-10T13:26:00.612Z</time>
      </trkpt>
      <trkpt lat="46.16514" lon="6.70599">
        <ele>1208.4</ele>
        <time>2023-09-10T13:26:01.612Z</time>
      </trkpt>
      <trkpt lat="46.16499" lon="6.70581">
        <ele>1211.2</ele>
        <time>2023-09-10T13:26:02.612Z</time>
      </trkpt>
      <trkpt lat="46.16451" lon="6.70512">
        <ele>1219.8</ele>
        <time>2023-09-10T13:26:03.612Z</time>
      </trkpt>
      <trkpt lat="46.16418" lon="6.70457">
        <ele>1226.4</ele>
        <time>2023-09-10T13:26:04.612Z</time>
      </trkpt>
      <trkpt lat="46.16403" lon="6.70436">
        <ele>1228.4</ele>
        <time>2023-09-10T13:26:05.612Z</time>
      </trkpt>
      <trkpt lat="46.16386" lon="6.70418">
        <ele>1229.5</ele>
        <time>2023-09-10T13:26:06.612Z</time>
      </trkpt>
      <trkpt lat="46.16376" lon="6.7041">
        <ele>1230.8</ele>
        <time>2023-09-10T13:26:07.612Z</time>
      </trkpt>
      <trkpt lat="46.16346" lon="6.7039">
        <ele>1232.1</ele>
        <time>2023-09-10T13:26:08.612Z</time>
      </trkpt>
      <trkpt lat="46.16328" lon="6.70376">
        <ele>1231.7</ele>
        <time>2023-09-10T13:26:09.612Z</time>
      </trkpt>
      <trkpt lat="46.16317" lon="6.70359">
        <ele>1231.6</ele>
        <time>2023-09-10T13:26:10.612Z</time>
      </trkpt>
      <trkpt lat="46.16296" lon="6.70307">
        <ele>1233.7</ele>
        <time>2023-09-10T13:26:11.612Z</time>
      </trkpt>
      <trkpt lat="46.16274" lon="6.70286">
        <ele>1234.5</ele>
        <time>2023-09-10T13:26:12.612Z</time>
      </trkpt>
      <trkpt lat="46.16285" lon="6.70282">
        <ele>1237.3</ele>
        <time>2023-09-10T13:26:13.612Z</time>
      </trkpt>
      <trkpt lat="46.16304" lon="6.70291">
        <ele>1238.8</ele>
        <time>2023-09-10T13:26:14.612Z</time>
      </trkpt>
      <trkpt lat="46.16329" lon="6.70306">
        <ele>1243.6</ele>
        <time>2023-09-10T13:26:15.612Z</time>
      </trkpt>
      <trkpt lat="46.1636" lon="6.70334">
        <ele>1245.7</ele>
        <time>2023-09-10T13:26:16.612Z</time>
      </trkpt>
      <trkpt lat="46.16381" lon="6.70349">
        <ele>1244.9</ele>
        <time>2023-09-10T13:26:17.612Z</time>
      </trkpt>
      <trkpt lat="46.16403" lon="6.70363">
        <ele>1244.6</ele>
        <time>2023-09-10T13:26:18.612Z</time>
      </trkpt>
      <trkpt lat="46.16434" lon="6.70378">
        <ele>1244.6</ele>
        <time>2023-09-10T13:26:19.612Z</time>
      </trkpt>
      <trkpt lat="46.16458" lon="6.70386">
        <ele>1244.5</ele>
        <time>2023-09-10T13:26:20.612Z</time>
      </trkpt>
      <trkpt lat="46.16494" lon="6.70393">
        <ele>1244.9</ele>
        <time>2023-09-10T13:26:21.612Z</time>
      </trkpt>
      <trkpt lat="46.16528" lon="6.70395">
        <ele>1245.7</ele>
        <time>2023-09-10T13:26:22.612Z</time>
      </trkpt>
      <trkpt lat="46.16549" lon="6.70392">
        <ele>1246.3</ele>
        <time>2023-09-10T13:26:23.612Z</time>
      </trkpt>
      <trkpt lat="46.16559" lon="6.70389">
        <ele>1246.5</ele>
        <time>2023-09-10T13:26:24.612Z</time>
      </trkpt>
      <trkpt lat="46.16578" lon="6.70376">
        <ele>1245.7</ele>
        <time>2023-09-10T13:26:25.612Z</time>
      </trkpt>
      <trkpt lat="46.16588" lon="6.70368">
        <ele>1245.5</ele>
        <time>2023-09-10T13:26:26.612Z</time>
      </trkpt>
      <trkpt lat="46.16601" lon="6.70354">
        <ele>1246.1</ele>
        <time>2023-09-10T13:26:27.612Z</time>
      </trkpt>
      <trkpt lat="46.16647" lon="6.70315">
        <ele>1248.1</ele>
        <time>2023-09-10T13:26:28.612Z</time>
      </trkpt>
      <trkpt lat="46.16678" lon="6.70294">
        <ele>1248</ele>
        <time>2023-09-10T13:26:29.612Z</time>
      </trkpt>
      <trkpt lat="46.16712" lon="6.70267">
        <ele>1249.2</ele>
        <time>2023-09-10T13:26:30.612Z</time>
      </trkpt>
      <trkpt lat="46.16731" lon="6.70255">
        <ele>1249.8</ele>
        <time>2023-09-10T13:26:31.612Z</time>
      </trkpt>
      <trkpt lat="46.16783" lon="6.70217">
        <ele>1249.8</ele>
        <time>2023-09-10T13:26:32.612Z</time>
      </trkpt>
      <trkpt lat="46.1681" lon="6.70195">
        <ele>1249</ele>
        <time>2023-09-10T13:26:33.612Z</time>
      </trkpt>
      <trkpt lat="46.16886" lon="6.7015">
        <ele>1250.4</ele>
        <time>2023-09-10T13:26:34.612Z</time>
      </trkpt>
      <trkpt lat="46.16907" lon="6.70134">
        <ele>1248.6</ele>
        <time>2023-09-10T13:26:35.612Z</time>
      </trkpt>
      <trkpt lat="46.16919" lon="6.70127">
        <ele>1247.2</ele>
        <time>2023-09-10T13:26:36.612Z</time>
      </trkpt>
      <trkpt lat="46.16947" lon="6.70115">
        <ele>1245.6</ele>
        <time>2023-09-10T13:26:37.612Z</time>
      </trkpt>
      <trkpt lat="46.17003" lon="6.70098">
        <ele>1244.3</ele>
        <time>2023-09-10T13:26:38.612Z</time>
      </trkpt>
      <trkpt lat="46.17029" lon="6.70093">
        <ele>1243.9</ele>
        <time>2023-09-10T13:26:39.612Z</time>
      </trkpt>
      <trkpt lat="46.17056" lon="6.7009">
        <ele>1242.7</ele>
        <time>2023-09-10T13:26:40.612Z</time>
      </trkpt>
      <trkpt lat="46.17083" lon="6.70084">
        <ele>1242</ele>
        <time>2023-09-10T13:26:41.612Z</time>
      </trkpt>
      <trkpt lat="46.17157" lon="6.70074">
        <ele>1244</ele>
        <time>2023-09-10T13:26:42.612Z</time>
      </trkpt>
      <trkpt lat="46.17169" lon="6.70071">
        <ele>1244.8</ele>
        <time>2023-09-10T13:26:43.612Z</time>
      </trkpt>
      <trkpt lat="46.1718" lon="6.70064">
        <ele>1245.1</ele>
        <time>2023-09-10T13:26:44.612Z</time>
      </trkpt>
      <trkpt lat="46.17187" lon="6.70055">
        <ele>1246.1</ele>
        <time>2023-09-10T13:26:45.612Z</time>
      </trkpt>
      <trkpt lat="46.17191" lon="6.70043">
        <ele>1247.4</ele>
        <time>2023-09-10T13:26:46.612Z</time>
      </trkpt>
      <trkpt lat="46.17196" lon="6.70034">
        <ele>1248.3</ele>
        <time>2023-09-10T13:26:47.612Z</time>
      </trkpt>
      <trkpt lat="46.17223" lon="6.70019">
        <ele>1251.1</ele>
        <time>2023-09-10T13:26:48.612Z</time>
      </trkpt>
      <trkpt lat="46.17238" lon="6.70007">
        <ele>1252.5</ele>
        <time>2023-09-10T13:26:49.612Z</time>
      </trkpt>
      <trkpt lat="46.17245" lon="6.69998">
        <ele>1253.9</ele>
        <time>2023-09-10T13:26:50.612Z</time>
      </trkpt>
      <trkpt lat="46.17289" lon="6.69923">
        <ele>1262.2</ele>
        <time>2023-09-10T13:26:51.612Z</time>
      </trkpt>
      <trkpt lat="46.17308" lon="6.69881">
        <ele>1267.5</ele>
        <time>2023-09-10T13:26:52.612Z</time>
      </trkpt>
      <trkpt lat="46.17311" lon="6.69872">
        <ele>1268.3</ele>
        <time>2023-09-10T13:26:53.612Z</time>
      </trkpt>
      <trkpt lat="46.17316" lon="6.69843">
        <ele>1272.5</ele>
        <time>2023-09-10T13:26:54.612Z</time>
      </trkpt>
      <trkpt lat="46.17333" lon="6.69787">
        <ele>1278</ele>
        <time>2023-09-10T13:26:55.612Z</time>
      </trkpt>
      <trkpt lat="46.17339" lon="6.69757">
        <ele>1280.4</ele>
        <time>2023-09-10T13:26:56.612Z</time>
      </trkpt>
      <trkpt lat="46.17342" lon="6.69725">
        <ele>1282</ele>
        <time>2023-09-10T13:26:57.612Z</time>
      </trkpt>
      <trkpt lat="46.17344" lon="6.69587">
        <ele>1290.2</ele>
        <time>2023-09-10T13:26:58.612Z</time>
      </trkpt>
      <trkpt lat="46.17354" lon="6.69558">
        <ele>1292.8</ele>
        <time>2023-09-10T13:26:59.612Z</time>
      </trkpt>
      <trkpt lat="46.17378" lon="6.69526">
        <ele>1295.3</ele>
        <time>2023-09-10T13:27:00.612Z</time>
      </trkpt>
      <trkpt lat="46.17389" lon="6.69508">
        <ele>1297.2</ele>
        <time>2023-09-10T13:27:01.612Z</time>
      </trkpt>
      <trkpt lat="46.17393" lon="6.69497">
        <ele>1298.2</ele>
        <time>2023-09-10T13:27:02.612Z</time>
      </trkpt>
      <trkpt lat="46.17382" lon="6.69502">
        <ele>1299.8</ele>
        <time>2023-09-10T13:27:03.612Z</time>
      </trkpt>
      <trkpt lat="46.1736" lon="6.69523">
        <ele>1299.4</ele>
        <time>2023-09-10T13:27:04.612Z</time>
      </trkpt>
      <trkpt lat="46.17347" lon="6.69538">
        <ele>1299.7</ele>
        <time>2023-09-10T13:27:05.612Z</time>
      </trkpt>
      <trkpt lat="46.17318" lon="6.69583">
        <ele>1299.6</ele>
        <time>2023-09-10T13:27:06.612Z</time>
      </trkpt>
      <trkpt lat="46.17296" lon="6.69643">
        <ele>1301.1</ele>
        <time>2023-09-10T13:27:07.612Z</time>
      </trkpt>
      <trkpt lat="46.17291" lon="6.69652">
        <ele>1301.8</ele>
        <time>2023-09-10T13:27:08.612Z</time>
      </trkpt>
      <trkpt lat="46.17278" lon="6.69672">
        <ele>1302.4</ele>
        <time>2023-09-10T13:27:09.612Z</time>
      </trkpt>
      <trkpt lat="46.17251" lon="6.69705">
        <ele>1303.9</ele>
        <time>2023-09-10T13:27:10.612Z</time>
      </trkpt>
      <trkpt lat="46.17242" lon="6.69712">
        <ele>1303.7</ele>
        <time>2023-09-10T13:27:11.612Z</time>
      </trkpt>
      <trkpt lat="46.17189" lon="6.69733">
        <ele>1303.5</ele>
        <time>2023-09-10T13:27:12.612Z</time>
      </trkpt>
      <trkpt lat="46.17165" lon="6.69749">
        <ele>1301.7</ele>
        <time>2023-09-10T13:27:13.612Z</time>
      </trkpt>
      <trkpt lat="46.17132" lon="6.6978">
        <ele>1301.1</ele>
        <time>2023-09-10T13:27:14.612Z</time>
      </trkpt>
      <trkpt lat="46.17122" lon="6.69786">
        <ele>1301.9</ele>
        <time>2023-09-10T13:27:15.612Z</time>
      </trkpt>
      <trkpt lat="46.17111" lon="6.6979">
        <ele>1302.9</ele>
        <time>2023-09-10T13:27:16.612Z</time>
      </trkpt>
      <trkpt lat="46.1708" lon="6.69793">
        <ele>1307.3</ele>
        <time>2023-09-10T13:27:17.612Z</time>
      </trkpt>
      <trkpt lat="46.1704" lon="6.698">
        <ele>1312.6</ele>
        <time>2023-09-10T13:27:18.612Z</time>
      </trkpt>
      <trkpt lat="46.17031" lon="6.69797">
        <ele>1314.7</ele>
        <time>2023-09-10T13:27:19.612Z</time>
      </trkpt>
      <trkpt lat="46.17002" lon="6.69781">
        <ele>1319.8</ele>
        <time>2023-09-10T13:27:20.612Z</time>
      </trkpt>
      <trkpt lat="46.16963" lon="6.69769">
        <ele>1323.2</ele>
        <time>2023-09-10T13:27:21.612Z</time>
      </trkpt>
      <trkpt lat="46.16952" lon="6.69764">
        <ele>1323.8</ele>
        <time>2023-09-10T13:27:22.612Z</time>
      </trkpt>
      <trkpt lat="46.16934" lon="6.69753">
        <ele>1326.1</ele>
        <time>2023-09-10T13:27:23.612Z</time>
      </trkpt>
      <trkpt lat="46.16914" lon="6.69745">
        <ele>1327.8</ele>
        <time>2023-09-10T13:27:24.612Z</time>
      </trkpt>
      <trkpt lat="46.16879" lon="6.69723">
        <ele>1333.8</ele>
        <time>2023-09-10T13:27:25.612Z</time>
      </trkpt>
      <trkpt lat="46.16859" lon="6.69717">
        <ele>1337</ele>
        <time>2023-09-10T13:27:26.612Z</time>
      </trkpt>
      <trkpt lat="46.16851" lon="6.6971">
        <ele>1338.1</ele>
        <time>2023-09-10T13:27:27.612Z</time>
      </trkpt>
      <trkpt lat="46.16846" lon="6.69702">
        <ele>1339.4</ele>
        <time>2023-09-10T13:27:28.612Z</time>
      </trkpt>
      <trkpt lat="46.16837" lon="6.69681">
        <ele>1342.7</ele>
        <time>2023-09-10T13:27:29.612Z</time>
      </trkpt>
      <trkpt lat="46.16831" lon="6.69673">
        <ele>1343.9</ele>
        <time>2023-09-10T13:27:30.612Z</time>
      </trkpt>
      <trkpt lat="46.16808" lon="6.69653">
        <ele>1349</ele>
        <time>2023-09-10T13:27:31.612Z</time>
      </trkpt>
      <trkpt lat="46.1679" lon="6.69649">
        <ele>1350.5</ele>
        <time>2023-09-10T13:27:32.612Z</time>
      </trkpt>
      <trkpt lat="46.1676" lon="6.69652">
        <ele>1353.1</ele>
        <time>2023-09-10T13:27:33.612Z</time>
      </trkpt>
      <trkpt lat="46.16741" lon="6.69646">
        <ele>1357.1</ele>
        <time>2023-09-10T13:27:34.612Z</time>
      </trkpt>
      <trkpt lat="46.1672" lon="6.69645">
        <ele>1359.7</ele>
        <time>2023-09-10T13:27:35.612Z</time>
      </trkpt>
      <trkpt lat="46.1671" lon="6.69643">
        <ele>1362.4</ele>
        <time>2023-09-10T13:27:36.612Z</time>
      </trkpt>
      <trkpt lat="46.16701" lon="6.69641">
        <ele>1365</ele>
        <time>2023-09-10T13:27:37.612Z</time>
      </trkpt>
      <trkpt lat="46.16675" lon="6.69628">
        <ele>1373.6</ele>
        <time>2023-09-10T13:27:38.612Z</time>
      </trkpt>
      <trkpt lat="46.16666" lon="6.69625">
        <ele>1375.5</ele>
        <time>2023-09-10T13:27:39.612Z</time>
      </trkpt>
      <trkpt lat="46.16656" lon="6.69622">
        <ele>1376.9</ele>
        <time>2023-09-10T13:27:40.612Z</time>
      </trkpt>
      <trkpt lat="46.16637" lon="6.69623">
        <ele>1377.7</ele>
        <time>2023-09-10T13:27:41.612Z</time>
      </trkpt>
      <trkpt lat="46.16628" lon="6.69617">
        <ele>1379.9</ele>
        <time>2023-09-10T13:27:42.612Z</time>
      </trkpt>
      <trkpt lat="46.16623" lon="6.69608">
        <ele>1382.3</ele>
        <time>2023-09-10T13:27:43.612Z</time>
      </trkpt>
      <trkpt lat="46.16622" lon="6.69599">
        <ele>1384.4</ele>
        <time>2023-09-10T13:27:44.612Z</time>
      </trkpt>
      <trkpt lat="46.16624" lon="6.69589">
        <ele>1386.7</ele>
        <time>2023-09-10T13:27:45.612Z</time>
      </trkpt>
      <trkpt lat="46.1663" lon="6.69581">
        <ele>1389.1</ele>
        <time>2023-09-10T13:27:46.612Z</time>
      </trkpt>
      <trkpt lat="46.16638" lon="6.69575">
        <ele>1391.6</ele>
        <time>2023-09-10T13:27:47.612Z</time>
      </trkpt>
      <trkpt lat="46.16694" lon="6.6955">
        <ele>1400</ele>
        <time>2023-09-10T13:27:48.612Z</time>
      </trkpt>
      <trkpt lat="46.16787" lon="6.695">
        <ele>1414.3</ele>
        <time>2023-09-10T13:27:49.612Z</time>
      </trkpt>
      <trkpt lat="46.16815" lon="6.69487">
        <ele>1419.7</ele>
        <time>2023-09-10T13:27:50.612Z</time>
      </trkpt>
      <trkpt lat="46.16872" lon="6.69468">
        <ele>1430.3</ele>
        <time>2023-09-10T13:27:51.612Z</time>
      </trkpt>
      <trkpt lat="46.16938" lon="6.6945">
        <ele>1438.8</ele>
        <time>2023-09-10T13:27:52.612Z</time>
      </trkpt>
      <trkpt lat="46.16948" lon="6.69446">
        <ele>1440.3</ele>
        <time>2023-09-10T13:27:53.612Z</time>
      </trkpt>
      <trkpt lat="46.16975" lon="6.69428">
        <ele>1443.6</ele>
        <time>2023-09-10T13:27:54.612Z</time>
      </trkpt>
      <trkpt lat="46.16998" lon="6.69407">
        <ele>1447.7</ele>
        <time>2023-09-10T13:27:55.612Z</time>
      </trkpt>
      <trkpt lat="46.17007" lon="6.69388">
        <ele>1448.4</ele>
        <time>2023-09-10T13:27:56.612Z</time>
      </trkpt>
      <trkpt lat="46.17015" lon="6.69358">
        <ele>1451.9</ele>
        <time>2023-09-10T13:27:57.612Z</time>
      </trkpt>
      <trkpt lat="46.17016" lon="6.69347">
        <ele>1454.2</ele>
        <time>2023-09-10T13:27:58.612Z</time>
      </trkpt>
      <trkpt lat="46.17015" lon="6.69307">
        <ele>1462.9</ele>
        <time>2023-09-10T13:27:59.612Z</time>
      </trkpt>
      <trkpt lat="46.17018" lon="6.69285">
        <ele>1467.1</ele>
        <time>2023-09-10T13:28:00.612Z</time>
      </trkpt>
      <trkpt lat="46.17029" lon="6.69257">
        <ele>1469.1</ele>
        <time>2023-09-10T13:28:01.612Z</time>
      </trkpt>
      <trkpt lat="46.17035" lon="6.69248">
        <ele>1469.4</ele>
        <time>2023-09-10T13:28:02.612Z</time>
      </trkpt>
      <trkpt lat="46.17039" lon="6.69238">
        <ele>1471.1</ele>
        <time>2023-09-10T13:28:03.612Z</time>
      </trkpt>
      <trkpt lat="46.17045" lon="6.69207">
        <ele>1477.7</ele>
        <time>2023-09-10T13:28:04.612Z</time>
      </trkpt>
      <trkpt lat="46.17059" lon="6.69179">
        <ele>1479.7</ele>
        <time>2023-09-10T13:28:05.612Z</time>
      </trkpt>
      <trkpt lat="46.1706" lon="6.69169">
        <ele>1481</ele>
        <time>2023-09-10T13:28:06.612Z</time>
      </trkpt>
      <trkpt lat="46.17057" lon="6.69159">
        <ele>1482.8</ele>
        <time>2023-09-10T13:28:07.612Z</time>
      </trkpt>
      <trkpt lat="46.1705" lon="6.69152">
        <ele>1484.4</ele>
        <time>2023-09-10T13:28:08.612Z</time>
      </trkpt>
      <trkpt lat="46.17042" lon="6.69147">
        <ele>1485.8</ele>
        <time>2023-09-10T13:28:09.612Z</time>
      </trkpt>
      <trkpt lat="46.17017" lon="6.69164">
        <ele>1489.5</ele>
        <time>2023-09-10T13:28:10.612Z</time>
      </trkpt>
      <trkpt lat="46.17007" lon="6.69169">
        <ele>1491</ele>
        <time>2023-09-10T13:28:11.612Z</time>
      </trkpt>
      <trkpt lat="46.16969" lon="6.69204">
        <ele>1495.9</ele>
        <time>2023-09-10T13:28:12.612Z</time>
      </trkpt>
      <trkpt lat="46.16953" lon="6.69215">
        <ele>1497.8</ele>
        <time>2023-09-10T13:28:13.612Z</time>
      </trkpt>
      <trkpt lat="46.16944" lon="6.69219">
        <ele>1498.4</ele>
        <time>2023-09-10T13:28:14.612Z</time>
      </trkpt>
      <trkpt lat="46.16924" lon="6.69219">
        <ele>1502.5</ele>
        <time>2023-09-10T13:28:15.612Z</time>
      </trkpt>
      <trkpt lat="46.16914" lon="6.69221">
        <ele>1504.5</ele>
        <time>2023-09-10T13:28:16.612Z</time>
      </trkpt>
      <trkpt lat="46.16895" lon="6.69232">
        <ele>1507.6</ele>
        <time>2023-09-10T13:28:17.612Z</time>
      </trkpt>
      <trkpt lat="46.16882" lon="6.69247">
        <ele>1509</ele>
        <time>2023-09-10T13:28:18.612Z</time>
      </trkpt>
      <trkpt lat="46.16873" lon="6.69251">
        <ele>1510.4</ele>
        <time>2023-09-10T13:28:19.612Z</time>
      </trkpt>
      <trkpt lat="46.16852" lon="6.69252">
        <ele>1512.6</ele>
        <time>2023-09-10T13:28:20.612Z</time>
      </trkpt>
      <trkpt lat="46.16843" lon="6.69254">
        <ele>1513.5</ele>
        <time>2023-09-10T13:28:21.612Z</time>
      </trkpt>
      <trkpt lat="46.16797" lon="6.69266">
        <ele>1520.3</ele>
        <time>2023-09-10T13:28:22.612Z</time>
      </trkpt>
      <trkpt lat="46.16732" lon="6.69289">
        <ele>1523.5</ele>
        <time>2023-09-10T13:28:23.612Z</time>
      </trkpt>
      <trkpt lat="46.16694" lon="6.69295">
        <ele>1526.5</ele>
        <time>2023-09-10T13:28:24.612Z</time>
      </trkpt>
      <trkpt lat="46.16665" lon="6.69294">
        <ele>1527.6</ele>
        <time>2023-09-10T13:28:25.612Z</time>
      </trkpt>
      <trkpt lat="46.16644" lon="6.69296">
        <ele>1530</ele>
        <time>2023-09-10T13:28:26.612Z</time>
      </trkpt>
      <trkpt lat="46.16606" lon="6.69304">
        <ele>1533.4</ele>
        <time>2023-09-10T13:28:27.612Z</time>
      </trkpt>
      <trkpt lat="46.16574" lon="6.69306">
        <ele>1532.8</ele>
        <time>2023-09-10T13:28:28.612Z</time>
      </trkpt>
      <trkpt lat="46.16563" lon="6.69305">
        <ele>1533.2</ele>
        <time>2023-09-10T13:28:29.612Z</time>
      </trkpt>
      <trkpt lat="46.16541" lon="6.69308">
        <ele>1532.8</ele>
        <time>2023-09-10T13:28:30.612Z</time>
      </trkpt>
      <trkpt lat="46.165" lon="6.69303">
        <ele>1534.1</ele>
        <time>2023-09-10T13:28:31.612Z</time>
      </trkpt>
      <trkpt lat="46.16488" lon="6.69303">
        <ele>1534.8</ele>
        <time>2023-09-10T13:28:32.612Z</time>
      </trkpt>
      <trkpt lat="46.16452" lon="6.69309">
        <ele>1535.8</ele>
        <time>2023-09-10T13:28:33.612Z</time>
      </trkpt>
      <trkpt lat="46.16416" lon="6.69319">
        <ele>1536.1</ele>
        <time>2023-09-10T13:28:34.612Z</time>
      </trkpt>
      <trkpt lat="46.16327" lon="6.69372">
        <ele>1540.6</ele>
        <time>2023-09-10T13:28:35.612Z</time>
      </trkpt>
      <trkpt lat="46.16318" lon="6.6938">
        <ele>1541.2</ele>
        <time>2023-09-10T13:28:36.612Z</time>
      </trkpt>
      <trkpt lat="46.16304" lon="6.69397">
        <ele>1543.7</ele>
        <time>2023-09-10T13:28:37.612Z</time>
      </trkpt>
      <trkpt lat="46.16269" lon="6.69446">
        <ele>1546.2</ele>
        <time>2023-09-10T13:28:38.612Z</time>
      </trkpt>
      <trkpt lat="46.16252" lon="6.69462">
        <ele>1546.8</ele>
        <time>2023-09-10T13:28:39.612Z</time>
      </trkpt>
      <trkpt lat="46.16212" lon="6.69486">
        <ele>1545.6</ele>
        <time>2023-09-10T13:28:40.612Z</time>
      </trkpt>
      <trkpt lat="46.16192" lon="6.69493">
        <ele>1546.4</ele>
        <time>2023-09-10T13:28:41.612Z</time>
      </trkpt>
      <trkpt lat="46.16174" lon="6.69491">
        <ele>1544.5</ele>
        <time>2023-09-10T13:28:42.612Z</time>
      </trkpt>
      <trkpt lat="46.16159" lon="6.69476">
        <ele>1543.9</ele>
        <time>2023-09-10T13:28:43.612Z</time>
      </trkpt>
      <trkpt lat="46.16149" lon="6.69471">
        <ele>1542.6</ele>
        <time>2023-09-10T13:28:44.612Z</time>
      </trkpt>
      <trkpt lat="46.16091" lon="6.69454">
        <ele>1532.4</ele>
        <time>2023-09-10T13:28:45.612Z</time>
      </trkpt>
      <trkpt lat="46.1608" lon="6.69448">
        <ele>1530.1</ele>
        <time>2023-09-10T13:28:46.612Z</time>
      </trkpt>
      <trkpt lat="46.16074" lon="6.69462">
        <ele>1525.9</ele>
        <time>2023-09-10T13:28:47.612Z</time>
      </trkpt>
      <trkpt lat="46.16072" lon="6.69473">
        <ele>1523.8</ele>
        <time>2023-09-10T13:28:48.612Z</time>
      </trkpt>
      <trkpt lat="46.16061" lon="6.69464">
        <ele>1520</ele>
        <time>2023-09-10T13:28:49.612Z</time>
      </trkpt>
      <trkpt lat="46.1605" lon="6.69443">
        <ele>1516.2</ele>
        <time>2023-09-10T13:28:50.612Z</time>
      </trkpt>
      <trkpt lat="46.16043" lon="6.69425">
        <ele>1514.6</ele>
        <time>2023-09-10T13:28:51.612Z</time>
      </trkpt>
      <trkpt lat="46.16016" lon="6.69383">
        <ele>1505.9</ele>
        <time>2023-09-10T13:28:52.612Z</time>
      </trkpt>
      <trkpt lat="46.16009" lon="6.69364">
        <ele>1505.2</ele>
        <time>2023-09-10T13:28:53.612Z</time>
      </trkpt>
      <trkpt lat="46.16" lon="6.69355">
        <ele>1503.9</ele>
        <time>2023-09-10T13:28:54.612Z</time>
      </trkpt>
      <trkpt lat="46.1598" lon="6.69348">
        <ele>1503.3</ele>
        <time>2023-09-10T13:28:55.612Z</time>
      </trkpt>
      <trkpt lat="46.15962" lon="6.69345">
        <ele>1502.4</ele>
        <time>2023-09-10T13:28:56.612Z</time>
      </trkpt>
      <trkpt lat="46.1594" lon="6.69335">
        <ele>1500.7</ele>
        <time>2023-09-10T13:28:57.612Z</time>
      </trkpt>
      <trkpt lat="46.15911" lon="6.69297">
        <ele>1491.2</ele>
        <time>2023-09-10T13:28:58.612Z</time>
      </trkpt>
      <trkpt lat="46.15889" lon="6.69277">
        <ele>1492.1</ele>
        <time>2023-09-10T13:28:59.612Z</time>
      </trkpt>
      <trkpt lat="46.15852" lon="6.69261">
        <ele>1492</ele>
        <time>2023-09-10T13:29:00.612Z</time>
      </trkpt>
      <trkpt lat="46.15828" lon="6.69262">
        <ele>1491.9</ele>
        <time>2023-09-10T13:29:01.612Z</time>
      </trkpt>
      <trkpt lat="46.15799" lon="6.69257">
        <ele>1494.9</ele>
        <time>2023-09-10T13:29:02.612Z</time>
      </trkpt>
      <trkpt lat="46.15781" lon="6.69268">
        <ele>1497.9</ele>
        <time>2023-09-10T13:29:03.612Z</time>
      </trkpt>
      <trkpt lat="46.15754" lon="6.69279">
        <ele>1502.6</ele>
        <time>2023-09-10T13:29:04.612Z</time>
      </trkpt>
      <trkpt lat="46.15724" lon="6.69287">
        <ele>1506.9</ele>
        <time>2023-09-10T13:29:05.612Z</time>
      </trkpt>
      <trkpt lat="46.15712" lon="6.69302">
        <ele>1511.9</ele>
        <time>2023-09-10T13:29:06.612Z</time>
      </trkpt>
      <trkpt lat="46.15709" lon="6.69322">
        <ele>1512.4</ele>
        <time>2023-09-10T13:29:07.612Z</time>
      </trkpt>
      <trkpt lat="46.15704" lon="6.69341">
        <ele>1513.7</ele>
        <time>2023-09-10T13:29:08.612Z</time>
      </trkpt>
      <trkpt lat="46.15697" lon="6.69348">
        <ele>1517.5</ele>
        <time>2023-09-10T13:29:09.612Z</time>
      </trkpt>
      <trkpt lat="46.15688" lon="6.69351">
        <ele>1519.9</ele>
        <time>2023-09-10T13:29:10.612Z</time>
      </trkpt>
      <trkpt lat="46.15658" lon="6.69353">
        <ele>1524.1</ele>
        <time>2023-09-10T13:29:11.612Z</time>
      </trkpt>
      <trkpt lat="46.15612" lon="6.6936">
        <ele>1524.2</ele>
        <time>2023-09-10T13:29:12.612Z</time>
      </trkpt>
      <trkpt lat="46.15598" lon="6.69367">
        <ele>1522.6</ele>
        <time>2023-09-10T13:29:13.612Z</time>
      </trkpt>
      <trkpt lat="46.15585" lon="6.69376">
        <ele>1522.2</ele>
        <time>2023-09-10T13:29:14.612Z</time>
      </trkpt>
      <trkpt lat="46.1556" lon="6.69397">
        <ele>1519.9</ele>
        <time>2023-09-10T13:29:15.612Z</time>
      </trkpt>
      <trkpt lat="46.15533" lon="6.69417">
        <ele>1519.8</ele>
        <time>2023-09-10T13:29:16.612Z</time>
      </trkpt>
      <trkpt lat="46.15522" lon="6.69424">
        <ele>1519.6</ele>
        <time>2023-09-10T13:29:17.612Z</time>
      </trkpt>
      <trkpt lat="46.15512" lon="6.69428">
        <ele>1519.9</ele>
        <time>2023-09-10T13:29:18.612Z</time>
      </trkpt>
      <trkpt lat="46.1549" lon="6.6943">
        <ele>1521.3</ele>
        <time>2023-09-10T13:29:19.612Z</time>
      </trkpt>
      <trkpt lat="46.1545" lon="6.69424">
        <ele>1522.4</ele>
        <time>2023-09-10T13:29:20.612Z</time>
      </trkpt>
      <trkpt lat="46.15429" lon="6.69431">
        <ele>1521.7</ele>
        <time>2023-09-10T13:29:21.612Z</time>
      </trkpt>
      <trkpt lat="46.15408" lon="6.69454">
        <ele>1517.2</ele>
        <time>2023-09-10T13:29:22.612Z</time>
      </trkpt>
      <trkpt lat="46.15384" lon="6.69484">
        <ele>1506.7</ele>
        <time>2023-09-10T13:29:23.612Z</time>
      </trkpt>
      <trkpt lat="46.15367" lon="6.69497">
        <ele>1499</ele>
        <time>2023-09-10T13:29:24.612Z</time>
      </trkpt>
      <trkpt lat="46.15374" lon="6.69503">
        <ele>1498.4</ele>
        <time>2023-09-10T13:29:25.612Z</time>
      </trkpt>
      <trkpt lat="46.15395" lon="6.6951">
        <ele>1499.1</ele>
        <time>2023-09-10T13:29:26.612Z</time>
      </trkpt>
      <trkpt lat="46.15388" lon="6.6952">
        <ele>1495.4</ele>
        <time>2023-09-10T13:29:27.612Z</time>
      </trkpt>
      <trkpt lat="46.15399" lon="6.69539">
        <ele>1490.2</ele>
        <time>2023-09-10T13:29:28.612Z</time>
      </trkpt>
      <trkpt lat="46.15394" lon="6.69548">
        <ele>1486.4</ele>
        <time>2023-09-10T13:29:29.612Z</time>
      </trkpt>
      <trkpt lat="46.15383" lon="6.69551">
        <ele>1484.1</ele>
        <time>2023-09-10T13:29:30.612Z</time>
      </trkpt>
      <trkpt lat="46.1534" lon="6.69537">
        <ele>1483.3</ele>
        <time>2023-09-10T13:29:31.612Z</time>
      </trkpt>
      <trkpt lat="46.15329" lon="6.69537">
        <ele>1482</ele>
        <time>2023-09-10T13:29:32.612Z</time>
      </trkpt>
      <trkpt lat="46.15327" lon="6.69546">
        <ele>1479.1</ele>
        <time>2023-09-10T13:29:33.612Z</time>
      </trkpt>
      <trkpt lat="46.15332" lon="6.69556">
        <ele>1476.7</ele>
        <time>2023-09-10T13:29:34.612Z</time>
      </trkpt>
      <trkpt lat="46.15338" lon="6.69564">
        <ele>1475.1</ele>
        <time>2023-09-10T13:29:35.612Z</time>
      </trkpt>
      <trkpt lat="46.15348" lon="6.69571">
        <ele>1474.1</ele>
        <time>2023-09-10T13:29:36.612Z</time>
      </trkpt>
      <trkpt lat="46.15347" lon="6.6958">
        <ele>1471.1</ele>
        <time>2023-09-10T13:29:37.612Z</time>
      </trkpt>
      <trkpt lat="46.15338" lon="6.6958">
        <ele>1470.3</ele>
        <time>2023-09-10T13:29:38.612Z</time>
      </trkpt>
      <trkpt lat="46.15335" lon="6.69593">
        <ele>1465.6</ele>
        <time>2023-09-10T13:29:39.612Z</time>
      </trkpt>
      <trkpt lat="46.15349" lon="6.69606">
        <ele>1461.5</ele>
        <time>2023-09-10T13:29:40.612Z</time>
      </trkpt>
      <trkpt lat="46.15341" lon="6.69618">
        <ele>1456.4</ele>
        <time>2023-09-10T13:29:41.612Z</time>
      </trkpt>
      <trkpt lat="46.15332" lon="6.69624">
        <ele>1453.8</ele>
        <time>2023-09-10T13:29:42.612Z</time>
      </trkpt>
      <trkpt lat="46.1532" lon="6.69622">
        <ele>1453.9</ele>
        <time>2023-09-10T13:29:43.612Z</time>
      </trkpt>
      <trkpt lat="46.15318" lon="6.69634">
        <ele>1449.3</ele>
        <time>2023-09-10T13:29:44.612Z</time>
      </trkpt>
      <trkpt lat="46.15309" lon="6.69639">
        <ele>1447.1</ele>
        <time>2023-09-10T13:29:45.612Z</time>
      </trkpt>
      <trkpt lat="46.15315" lon="6.6965">
        <ele>1443.1</ele>
        <time>2023-09-10T13:29:46.612Z</time>
      </trkpt>
      <trkpt lat="46.15326" lon="6.69654">
        <ele>1441.5</ele>
        <time>2023-09-10T13:29:47.612Z</time>
      </trkpt>
      <trkpt lat="46.15389" lon="6.69658">
        <ele>1435</ele>
        <time>2023-09-10T13:29:48.612Z</time>
      </trkpt>
      <trkpt lat="46.15402" lon="6.69656">
        <ele>1433.6</ele>
        <time>2023-09-10T13:29:49.612Z</time>
      </trkpt>
      <trkpt lat="46.15425" lon="6.69648">
        <ele>1432.7</ele>
        <time>2023-09-10T13:29:50.612Z</time>
      </trkpt>
      <trkpt lat="46.15434" lon="6.69651">
        <ele>1429.2</ele>
        <time>2023-09-10T13:29:51.612Z</time>
      </trkpt>
      <trkpt lat="46.15413" lon="6.69674">
        <ele>1423.3</ele>
        <time>2023-09-10T13:29:52.612Z</time>
      </trkpt>
      <trkpt lat="46.15397" lon="6.69688">
        <ele>1420.6</ele>
        <time>2023-09-10T13:29:53.612Z</time>
      </trkpt>
      <trkpt lat="46.15339" lon="6.69717">
        <ele>1415.8</ele>
        <time>2023-09-10T13:29:54.612Z</time>
      </trkpt>
      <trkpt lat="46.15319" lon="6.6972">
        <ele>1416.4</ele>
        <time>2023-09-10T13:29:55.612Z</time>
      </trkpt>
      <trkpt lat="46.15321" lon="6.69729">
        <ele>1413.1</ele>
        <time>2023-09-10T13:29:56.612Z</time>
      </trkpt>
      <trkpt lat="46.15319" lon="6.69742">
        <ele>1409.1</ele>
        <time>2023-09-10T13:29:57.612Z</time>
      </trkpt>
      <trkpt lat="46.15325" lon="6.69749">
        <ele>1406.2</ele>
        <time>2023-09-10T13:29:58.612Z</time>
      </trkpt>
      <trkpt lat="46.15354" lon="6.69755">
        <ele>1400.7</ele>
        <time>2023-09-10T13:29:59.612Z</time>
      </trkpt>
      <trkpt lat="46.15372" lon="6.69764">
        <ele>1394.2</ele>
        <time>2023-09-10T13:30:00.612Z</time>
      </trkpt>
      <trkpt lat="46.15381" lon="6.69764">
        <ele>1392.7</ele>
        <time>2023-09-10T13:30:01.612Z</time>
      </trkpt>
      <trkpt lat="46.15379" lon="6.69777">
        <ele>1387.7</ele>
        <time>2023-09-10T13:30:02.612Z</time>
      </trkpt>
      <trkpt lat="46.1537" lon="6.69785">
        <ele>1386.2</ele>
        <time>2023-09-10T13:30:03.612Z</time>
      </trkpt>
      <trkpt lat="46.15361" lon="6.69788">
        <ele>1386.3</ele>
        <time>2023-09-10T13:30:04.612Z</time>
      </trkpt>
      <trkpt lat="46.15353" lon="6.69793">
        <ele>1385.5</ele>
        <time>2023-09-10T13:30:05.612Z</time>
      </trkpt>
      <trkpt lat="46.1536" lon="6.69802">
        <ele>1381.4</ele>
        <time>2023-09-10T13:30:06.612Z</time>
      </trkpt>
      <trkpt lat="46.15371" lon="6.69801">
        <ele>1380.5</ele>
        <time>2023-09-10T13:30:07.612Z</time>
      </trkpt>
      <trkpt lat="46.1538" lon="6.69798">
        <ele>1380.5</ele>
        <time>2023-09-10T13:30:08.612Z</time>
      </trkpt>
      <trkpt lat="46.15373" lon="6.69809">
        <ele>1377.7</ele>
        <time>2023-09-10T13:30:09.612Z</time>
      </trkpt>
      <trkpt lat="46.15365" lon="6.69814">
        <ele>1377.1</ele>
        <time>2023-09-10T13:30:10.612Z</time>
      </trkpt>
      <trkpt lat="46.15358" lon="6.69821">
        <ele>1375.8</ele>
        <time>2023-09-10T13:30:11.612Z</time>
      </trkpt>
      <trkpt lat="46.15372" lon="6.69825">
        <ele>1373.2</ele>
        <time>2023-09-10T13:30:12.612Z</time>
      </trkpt>
      <trkpt lat="46.15402" lon="6.69813">
        <ele>1372</ele>
        <time>2023-09-10T13:30:13.612Z</time>
      </trkpt>
      <trkpt lat="46.15411" lon="6.69814">
        <ele>1369.8</ele>
        <time>2023-09-10T13:30:14.612Z</time>
      </trkpt>
      <trkpt lat="46.1539" lon="6.69841">
        <ele>1366.6</ele>
        <time>2023-09-10T13:30:15.612Z</time>
      </trkpt>
      <trkpt lat="46.15359" lon="6.69864">
        <ele>1363.9</ele>
        <time>2023-09-10T13:30:16.612Z</time>
      </trkpt>
      <trkpt lat="46.15367" lon="6.6987">
        <ele>1361.3</ele>
        <time>2023-09-10T13:30:17.612Z</time>
      </trkpt>
      <trkpt lat="46.15381" lon="6.69868">
        <ele>1359.9</ele>
        <time>2023-09-10T13:30:18.612Z</time>
      </trkpt>
      <trkpt lat="46.15416" lon="6.69858">
        <ele>1356.9</ele>
        <time>2023-09-10T13:30:19.612Z</time>
      </trkpt>
      <trkpt lat="46.15413" lon="6.6987">
        <ele>1354.1</ele>
        <time>2023-09-10T13:30:20.612Z</time>
      </trkpt>
      <trkpt lat="46.15397" lon="6.69882">
        <ele>1353</ele>
        <time>2023-09-10T13:30:21.612Z</time>
      </trkpt>
      <trkpt lat="46.15386" lon="6.69893">
        <ele>1351.2</ele>
        <time>2023-09-10T13:30:22.612Z</time>
      </trkpt>
      <trkpt lat="46.15363" lon="6.69911">
        <ele>1347.9</ele>
        <time>2023-09-10T13:30:23.612Z</time>
      </trkpt>
      <trkpt lat="46.15353" lon="6.69916">
        <ele>1346.2</ele>
        <time>2023-09-10T13:30:24.612Z</time>
      </trkpt>
      <trkpt lat="46.15333" lon="6.6993">
        <ele>1343.7</ele>
        <time>2023-09-10T13:30:25.612Z</time>
      </trkpt>
      <trkpt lat="46.15304" lon="6.69956">
        <ele>1343.6</ele>
        <time>2023-09-10T13:30:26.612Z</time>
      </trkpt>
      <trkpt lat="46.15274" lon="6.69978">
        <ele>1341.9</ele>
        <time>2023-09-10T13:30:27.612Z</time>
      </trkpt>
      <trkpt lat="46.15266" lon="6.69988">
        <ele>1341.9</ele>
        <time>2023-09-10T13:30:28.612Z</time>
      </trkpt>
      <trkpt lat="46.15245" lon="6.70021">
        <ele>1339.4</ele>
        <time>2023-09-10T13:30:29.612Z</time>
      </trkpt>
      <trkpt lat="46.15209" lon="6.7007">
        <ele>1335.8</ele>
        <time>2023-09-10T13:30:30.612Z</time>
      </trkpt>
      <trkpt lat="46.15199" lon="6.70085">
        <ele>1333.5</ele>
        <time>2023-09-10T13:30:31.612Z</time>
      </trkpt>
      <trkpt lat="46.15195" lon="6.70094">
        <ele>1333.2</ele>
        <time>2023-09-10T13:30:32.612Z</time>
      </trkpt>
      <trkpt lat="46.1519" lon="6.70113">
        <ele>1332.8</ele>
        <time>2023-09-10T13:30:33.612Z</time>
      </trkpt>
      <trkpt lat="46.1519" lon="6.70133">
        <ele>1333.1</ele>
        <time>2023-09-10T13:30:34.612Z</time>
      </trkpt>
      <trkpt lat="46.15204" lon="6.70194">
        <ele>1329.7</ele>
        <time>2023-09-10T13:30:35.612Z</time>
      </trkpt>
      <trkpt lat="46.15211" lon="6.70254">
        <ele>1327.1</ele>
        <time>2023-09-10T13:30:36.612Z</time>
      </trkpt>
      <trkpt lat="46.15217" lon="6.70287">
        <ele>1325.7</ele>
        <time>2023-09-10T13:30:37.612Z</time>
      </trkpt>
      <trkpt lat="46.15225" lon="6.70318">
        <ele>1324.5</ele>
        <time>2023-09-10T13:30:38.612Z</time>
      </trkpt>
      <trkpt lat="46.15227" lon="6.70339">
        <ele>1323.6</ele>
        <time>2023-09-10T13:30:39.612Z</time>
      </trkpt>
      <trkpt lat="46.15227" lon="6.70361">
        <ele>1322</ele>
        <time>2023-09-10T13:30:40.612Z</time>
      </trkpt>
      <trkpt lat="46.15223" lon="6.70384">
        <ele>1321.1</ele>
        <time>2023-09-10T13:30:41.612Z</time>
      </trkpt>
      <trkpt lat="46.15206" lon="6.70438">
        <ele>1320</ele>
        <time>2023-09-10T13:30:42.612Z</time>
      </trkpt>
      <trkpt lat="46.15202" lon="6.70458">
        <ele>1321.2</ele>
        <time>2023-09-10T13:30:43.612Z</time>
      </trkpt>
      <trkpt lat="46.15202" lon="6.70467">
        <ele>1321.7</ele>
        <time>2023-09-10T13:30:44.612Z</time>
      </trkpt>
      <trkpt lat="46.15206" lon="6.70481">
        <ele>1324.6</ele>
        <time>2023-09-10T13:30:45.612Z</time>
      </trkpt>
      <trkpt lat="46.15215" lon="6.70484">
        <ele>1325.9</ele>
        <time>2023-09-10T13:30:46.612Z</time>
      </trkpt>
      <trkpt lat="46.15231" lon="6.7047">
        <ele>1322.5</ele>
        <time>2023-09-10T13:30:47.612Z</time>
      </trkpt>
      <trkpt lat="46.15252" lon="6.70468">
        <ele>1323.4</ele>
        <time>2023-09-10T13:30:48.612Z</time>
      </trkpt>
      <trkpt lat="46.15263" lon="6.70462">
        <ele>1323.4</ele>
        <time>2023-09-10T13:30:49.612Z</time>
      </trkpt>
      <trkpt lat="46.1527" lon="6.70454">
        <ele>1322.4</ele>
        <time>2023-09-10T13:30:50.612Z</time>
      </trkpt>
      <trkpt lat="46.15282" lon="6.70431">
        <ele>1319.2</ele>
        <time>2023-09-10T13:30:51.612Z</time>
      </trkpt>
      <trkpt lat="46.1529" lon="6.70423">
        <ele>1318.7</ele>
        <time>2023-09-10T13:30:52.612Z</time>
      </trkpt>
      <trkpt lat="46.15315" lon="6.70406">
        <ele>1315.8</ele>
        <time>2023-09-10T13:30:53.612Z</time>
      </trkpt>
      <trkpt lat="46.15337" lon="6.70396">
        <ele>1315.3</ele>
        <time>2023-09-10T13:30:54.612Z</time>
      </trkpt>
      <trkpt lat="46.15345" lon="6.70389">
        <ele>1315</ele>
        <time>2023-09-10T13:30:55.612Z</time>
      </trkpt>
      <trkpt lat="46.1536" lon="6.70371">
        <ele>1312.3</ele>
        <time>2023-09-10T13:30:56.612Z</time>
      </trkpt>
      <trkpt lat="46.15369" lon="6.70364">
        <ele>1309.2</ele>
        <time>2023-09-10T13:30:57.612Z</time>
      </trkpt>
      <trkpt lat="46.15402" lon="6.7037">
        <ele>1307.7</ele>
        <time>2023-09-10T13:30:58.612Z</time>
      </trkpt>
      <trkpt lat="46.15437" lon="6.7037">
        <ele>1305.4</ele>
        <time>2023-09-10T13:30:59.612Z</time>
      </trkpt>
      <trkpt lat="46.15457" lon="6.7036">
        <ele>1305.4</ele>
        <time>2023-09-10T13:31:00.612Z</time>
      </trkpt>
      <trkpt lat="46.15482" lon="6.70339">
        <ele>1303.2</ele>
        <time>2023-09-10T13:31:01.612Z</time>
      </trkpt>
      <trkpt lat="46.15531" lon="6.70306">
        <ele>1299.1</ele>
        <time>2023-09-10T13:31:02.612Z</time>
      </trkpt>
      <trkpt lat="46.15549" lon="6.70297">
        <ele>1297</ele>
        <time>2023-09-10T13:31:03.612Z</time>
      </trkpt>
      <trkpt lat="46.15558" lon="6.70297">
        <ele>1297.4</ele>
        <time>2023-09-10T13:31:04.612Z</time>
      </trkpt>
      <trkpt lat="46.156" lon="6.7031">
        <ele>1297.5</ele>
        <time>2023-09-10T13:31:05.612Z</time>
      </trkpt>
      <trkpt lat="46.15676" lon="6.70337">
        <ele>1293.9</ele>
        <time>2023-09-10T13:31:06.612Z</time>
      </trkpt>
      <trkpt lat="46.15719" lon="6.70348">
        <ele>1292</ele>
        <time>2023-09-10T13:31:07.612Z</time>
      </trkpt>
      <trkpt lat="46.158" lon="6.70384">
        <ele>1280.2</ele>
        <time>2023-09-10T13:31:08.612Z</time>
      </trkpt>
      <trkpt lat="46.15836" lon="6.70382">
        <ele>1270.2</ele>
        <time>2023-09-10T13:31:09.612Z</time>
      </trkpt>
      <trkpt lat="46.15856" lon="6.70379">
        <ele>1266</ele>
        <time>2023-09-10T13:31:10.612Z</time>
      </trkpt>
      <trkpt lat="46.15909" lon="6.70392">
        <ele>1259.1</ele>
        <time>2023-09-10T13:31:11.612Z</time>
      </trkpt>
      <trkpt lat="46.15961" lon="6.704">
        <ele>1250.3</ele>
        <time>2023-09-10T13:31:12.612Z</time>
      </trkpt>
      <trkpt lat="46.15974" lon="6.70407">
        <ele>1248.3</ele>
        <time>2023-09-10T13:31:13.612Z</time>
      </trkpt>
      <trkpt lat="46.16009" lon="6.70434">
        <ele>1243.9</ele>
        <time>2023-09-10T13:31:14.612Z</time>
      </trkpt>
      <trkpt lat="46.16023" lon="6.70439">
        <ele>1243</ele>
        <time>2023-09-10T13:31:15.612Z</time>
      </trkpt>
      <trkpt lat="46.16049" lon="6.70452">
        <ele>1241.1</ele>
        <time>2023-09-10T13:31:16.612Z</time>
      </trkpt>
      <trkpt lat="46.16075" lon="6.7047">
        <ele>1237.6</ele>
        <time>2023-09-10T13:31:17.612Z</time>
      </trkpt>
      <trkpt lat="46.16088" lon="6.70477">
        <ele>1236.9</ele>
        <time>2023-09-10T13:31:18.612Z</time>
      </trkpt>
      <trkpt lat="46.161" lon="6.70481">
        <ele>1235</ele>
        <time>2023-09-10T13:31:19.612Z</time>
      </trkpt>
      <trkpt lat="46.1613" lon="6.70486">
        <ele>1228.4</ele>
        <time>2023-09-10T13:31:20.612Z</time>
      </trkpt>
      <trkpt lat="46.16143" lon="6.70491">
        <ele>1224.9</ele>
        <time>2023-09-10T13:31:21.612Z</time>
      </trkpt>
      <trkpt lat="46.16156" lon="6.70496">
        <ele>1221.3</ele>
        <time>2023-09-10T13:31:22.612Z</time>
      </trkpt>
      <trkpt lat="46.16179" lon="6.70512">
        <ele>1215.2</ele>
        <time>2023-09-10T13:31:23.612Z</time>
      </trkpt>
      <trkpt lat="46.16194" lon="6.70533">
        <ele>1211.9</ele>
        <time>2023-09-10T13:31:24.612Z</time>
      </trkpt>
      <trkpt lat="46.16218" lon="6.70591">
        <ele>1211.5</ele>
        <time>2023-09-10T13:31:25.612Z</time>
      </trkpt>
      <trkpt lat="46.16234" lon="6.70624">
        <ele>1206.5</ele>
        <time>2023-09-10T13:31:26.612Z</time>
      </trkpt>
      <trkpt lat="46.16242" lon="6.7064">
        <ele>1205</ele>
        <time>2023-09-10T13:31:27.612Z</time>
      </trkpt>
      <trkpt lat="46.16273" lon="6.70692">
        <ele>1199.1</ele>
        <time>2023-09-10T13:31:28.612Z</time>
      </trkpt>
      <trkpt lat="46.1632" lon="6.70754">
        <ele>1188.5</ele>
        <time>2023-09-10T13:31:29.612Z</time>
      </trkpt>
      <trkpt lat="46.1634" lon="6.70784">
        <ele>1183.5</ele>
        <time>2023-09-10T13:31:30.612Z</time>
      </trkpt>
      <trkpt lat="46.16359" lon="6.70809">
        <ele>1179.6</ele>
        <time>2023-09-10T13:31:31.612Z</time>
      </trkpt>
      <trkpt lat="46.16412" lon="6.70859">
        <ele>1164.3</ele>
        <time>2023-09-10T13:31:32.612Z</time>
      </trkpt>
      <trkpt lat="46.16419" lon="6.7087">
        <ele>1160.9</ele>
        <time>2023-09-10T13:31:33.612Z</time>
      </trkpt>
      <trkpt lat="46.16423" lon="6.70882">
        <ele>1158.1</ele>
        <time>2023-09-10T13:31:34.612Z</time>
      </trkpt>
      <trkpt lat="46.16425" lon="6.70895">
        <ele>1155.3</ele>
        <time>2023-09-10T13:31:35.612Z</time>
      </trkpt>
      <trkpt lat="46.16424" lon="6.70923">
        <ele>1148.8</ele>
        <time>2023-09-10T13:31:36.612Z</time>
      </trkpt>
      <trkpt lat="46.1642" lon="6.7095">
        <ele>1145.5</ele>
        <time>2023-09-10T13:31:37.612Z</time>
      </trkpt>
      <trkpt lat="46.1642" lon="6.71023">
        <ele>1133.1</ele>
        <time>2023-09-10T13:31:38.612Z</time>
      </trkpt>
      <trkpt lat="46.16425" lon="6.71095">
        <ele>1122</ele>
        <time>2023-09-10T13:31:39.612Z</time>
      </trkpt>
      <trkpt lat="46.16432" lon="6.7112">
        <ele>1117.2</ele>
        <time>2023-09-10T13:31:40.612Z</time>
      </trkpt>
      <trkpt lat="46.16449" lon="6.71156">
        <ele>1104.8</ele>
        <time>2023-09-10T13:31:41.612Z</time>
      </trkpt>
      <trkpt lat="46.16455" lon="6.71181">
        <ele>1099.6</ele>
        <time>2023-09-10T13:31:42.612Z</time>
      </trkpt>
      <trkpt lat="46.16457" lon="6.712">
        <ele>1097</ele>
        <time>2023-09-10T13:31:43.612Z</time>
      </trkpt>
      <trkpt lat="46.16457" lon="6.71212">
        <ele>1094.6</ele>
        <time>2023-09-10T13:31:44.612Z</time>
      </trkpt>
      <trkpt lat="46.16449" lon="6.71262">
        <ele>1085.7</ele>
        <time>2023-09-10T13:31:45.612Z</time>
      </trkpt>
      <trkpt lat="46.16443" lon="6.71289">
        <ele>1084.4</ele>
        <time>2023-09-10T13:31:46.612Z</time>
      </trkpt>
      <trkpt lat="46.16438" lon="6.71325">
        <ele>1080.7</ele>
        <time>2023-09-10T13:31:47.612Z</time>
      </trkpt>
      <trkpt lat="46.16435" lon="6.71371">
        <ele>1072.7</ele>
        <time>2023-09-10T13:31:48.612Z</time>
      </trkpt>
      <trkpt lat="46.16436" lon="6.71396">
        <ele>1068.1</ele>
        <time>2023-09-10T13:31:49.612Z</time>
      </trkpt>
      <trkpt lat="46.1644" lon="6.7141">
        <ele>1065.7</ele>
        <time>2023-09-10T13:31:50.612Z</time>
      </trkpt>
      <trkpt lat="46.16447" lon="6.71424">
        <ele>1063.5</ele>
        <time>2023-09-10T13:31:51.612Z</time>
      </trkpt>
      <trkpt lat="46.16456" lon="6.71437">
        <ele>1061.8</ele>
        <time>2023-09-10T13:31:52.612Z</time>
      </trkpt>
      <trkpt lat="46.16467" lon="6.71447">
        <ele>1059.9</ele>
        <time>2023-09-10T13:31:53.612Z</time>
      </trkpt>
      <trkpt lat="46.16494" lon="6.71467">
        <ele>1055.5</ele>
        <time>2023-09-10T13:31:54.612Z</time>
      </trkpt>
      <trkpt lat="46.165" lon="6.71474">
        <ele>1053.7</ele>
        <time>2023-09-10T13:31:55.612Z</time>
      </trkpt>
      <trkpt lat="46.16506" lon="6.71485">
        <ele>1051.1</ele>
        <time>2023-09-10T13:31:56.612Z</time>
      </trkpt>
      <trkpt lat="46.16507" lon="6.71495">
        <ele>1049.5</ele>
        <time>2023-09-10T13:31:57.612Z</time>
      </trkpt>
      <trkpt lat="46.1649" lon="6.71541">
        <ele>1044.9</ele>
        <time>2023-09-10T13:31:58.612Z</time>
      </trkpt>
      <trkpt lat="46.16488" lon="6.71552">
        <ele>1041.8</ele>
        <time>2023-09-10T13:31:59.612Z</time>
      </trkpt>
      <trkpt lat="46.1649" lon="6.71561">
        <ele>1040.5</ele>
        <time>2023-09-10T13:32:00.612Z</time>
      </trkpt>
      <trkpt lat="46.16498" lon="6.71566">
        <ele>1039</ele>
        <time>2023-09-10T13:32:01.612Z</time>
      </trkpt>
      <trkpt lat="46.16532" lon="6.71581">
        <ele>1028.5</ele>
        <time>2023-09-10T13:32:02.612Z</time>
      </trkpt>
      <trkpt lat="46.16552" lon="6.71587">
        <ele>1023.6</ele>
        <time>2023-09-10T13:32:03.612Z</time>
      </trkpt>
      <trkpt lat="46.16571" lon="6.71596">
        <ele>1018.7</ele>
        <time>2023-09-10T13:32:04.612Z</time>
      </trkpt>
      <trkpt lat="46.1658" lon="6.71605">
        <ele>1016.7</ele>
        <time>2023-09-10T13:32:05.612Z</time>
      </trkpt>
      <trkpt lat="46.16593" lon="6.71635">
        <ele>1016</ele>
        <time>2023-09-10T13:32:06.612Z</time>
      </trkpt>
      <trkpt lat="46.16592" lon="6.71656">
        <ele>1016.4</ele>
        <time>2023-09-10T13:32:07.612Z</time>
      </trkpt>
      <trkpt lat="46.16579" lon="6.71686">
        <ele>1017.2</ele>
        <time>2023-09-10T13:32:08.612Z</time>
      </trkpt>
      <trkpt lat="46.16561" lon="6.71736">
        <ele>1019.2</ele>
        <time>2023-09-10T13:32:09.612Z</time>
      </trkpt>
      <trkpt lat="46.16541" lon="6.71785">
        <ele>1024.6</ele>
        <time>2023-09-10T13:32:10.612Z</time>
      </trkpt>
      <trkpt lat="46.16504" lon="6.71849">
        <ele>1025</ele>
        <time>2023-09-10T13:32:11.612Z</time>
      </trkpt>
      <trkpt lat="46.16492" lon="6.71864">
        <ele>1025.5</ele>
        <time>2023-09-10T13:32:12.612Z</time>
      </trkpt>
      <trkpt lat="46.16475" lon="6.71877">
        <ele>1026.5</ele>
        <time>2023-09-10T13:32:13.612Z</time>
      </trkpt>
      <trkpt lat="46.16453" lon="6.71884">
        <ele>1026.7</ele>
        <time>2023-09-10T13:32:14.612Z</time>
      </trkpt>
      <trkpt lat="46.16442" lon="6.71885">
        <ele>1026.7</ele>
        <time>2023-09-10T13:32:15.612Z</time>
      </trkpt>
      <trkpt lat="46.1642" lon="6.71891">
        <ele>1028.3</ele>
        <time>2023-09-10T13:32:16.612Z</time>
      </trkpt>
      <trkpt lat="46.1641" lon="6.71897">
        <ele>1029.2</ele>
        <time>2023-09-10T13:32:17.612Z</time>
      </trkpt>
      <trkpt lat="46.16399" lon="6.71905">
        <ele>1029.8</ele>
        <time>2023-09-10T13:32:18.612Z</time>
      </trkpt>
      <trkpt lat="46.1639" lon="6.71914">
        <ele>1029.9</ele>
        <time>2023-09-10T13:32:19.612Z</time>
      </trkpt>
      <trkpt lat="46.16367" lon="6.7194">
        <ele>1030.9</ele>
        <time>2023-09-10T13:32:20.612Z</time>
      </trkpt>
      <trkpt lat="46.16358" lon="6.71943">
        <ele>1029.4</ele>
        <time>2023-09-10T13:32:21.612Z</time>
      </trkpt>
      <trkpt lat="46.16334" lon="6.71945">
        <ele>1032.9</ele>
        <time>2023-09-10T13:32:22.612Z</time>
      </trkpt>
      <trkpt lat="46.16322" lon="6.71949">
        <ele>1033.1</ele>
        <time>2023-09-10T13:32:23.612Z</time>
      </trkpt>
      <trkpt lat="46.16299" lon="6.71967">
        <ele>1034</ele>
        <time>2023-09-10T13:32:24.612Z</time>
      </trkpt>
      <trkpt lat="46.16281" lon="6.71993">
        <ele>1035.1</ele>
        <time>2023-09-10T13:32:25.612Z</time>
      </trkpt>
      <trkpt lat="46.16254" lon="6.72052">
        <ele>1036.9</ele>
        <time>2023-09-10T13:32:26.612Z</time>
      </trkpt>
      <trkpt lat="46.1624" lon="6.7209">
        <ele>1039.7</ele>
        <time>2023-09-10T13:32:27.612Z</time>
      </trkpt>
      <trkpt lat="46.16235" lon="6.72122">
        <ele>1041.1</ele>
        <time>2023-09-10T13:32:28.612Z</time>
      </trkpt>
      <trkpt lat="46.16221" lon="6.72172">
        <ele>1042.3</ele>
        <time>2023-09-10T13:32:29.612Z</time>
      </trkpt>
      <trkpt lat="46.1621" lon="6.72192">
        <ele>1043.6</ele>
        <time>2023-09-10T13:32:30.612Z</time>
      </trkpt>
      <trkpt lat="46.16202" lon="6.72201">
        <ele>1044.4</ele>
        <time>2023-09-10T13:32:31.612Z</time>
      </trkpt>
      <trkpt lat="46.16165" lon="6.72223">
        <ele>1046.2</ele>
        <time>2023-09-10T13:32:32.612Z</time>
      </trkpt>
      <trkpt lat="46.16139" lon="6.72242">
        <ele>1049.3</ele>
        <time>2023-09-10T13:32:33.612Z</time>
      </trkpt>
      <trkpt lat="46.16124" lon="6.72259">
        <ele>1051</ele>
        <time>2023-09-10T13:32:34.612Z</time>
      </trkpt>
      <trkpt lat="46.16094" lon="6.723">
        <ele>1053.2</ele>
        <time>2023-09-10T13:32:35.612Z</time>
      </trkpt>
      <trkpt lat="46.16071" lon="6.72322">
        <ele>1056.7</ele>
        <time>2023-09-10T13:32:36.612Z</time>
      </trkpt>
      <trkpt lat="46.16057" lon="6.72341">
        <ele>1056</ele>
        <time>2023-09-10T13:32:37.612Z</time>
      </trkpt>
      <trkpt lat="46.16051" lon="6.7237">
        <ele>1056.9</ele>
        <time>2023-09-10T13:32:38.612Z</time>
      </trkpt>
      <trkpt lat="46.1605" lon="6.72408">
        <ele>1059.2</ele>
        <time>2023-09-10T13:32:39.612Z</time>
      </trkpt>
      <trkpt lat="46.16059" lon="6.72435">
        <ele>1058.7</ele>
        <time>2023-09-10T13:32:40.612Z</time>
      </trkpt>
      <trkpt lat="46.16065" lon="6.72465">
        <ele>1060.7</ele>
        <time>2023-09-10T13:32:41.612Z</time>
      </trkpt>
      <trkpt lat="46.16067" lon="6.72476">
        <ele>1061.5</ele>
        <time>2023-09-10T13:32:42.612Z</time>
      </trkpt>
      <trkpt lat="46.16066" lon="6.72495">
        <ele>1063.3</ele>
        <time>2023-09-10T13:32:43.612Z</time>
      </trkpt>
      <trkpt lat="46.16061" lon="6.72505">
        <ele>1063.6</ele>
        <time>2023-09-10T13:32:44.612Z</time>
      </trkpt>
      <trkpt lat="46.16034" lon="6.72524">
        <ele>1065.5</ele>
        <time>2023-09-10T13:32:45.612Z</time>
      </trkpt>
      <trkpt lat="46.16028" lon="6.72534">
        <ele>1065</ele>
        <time>2023-09-10T13:32:46.612Z</time>
      </trkpt>
      <trkpt lat="46.16014" lon="6.72549">
        <ele>1068</ele>
        <time>2023-09-10T13:32:47.612Z</time>
      </trkpt>
      <trkpt lat="46.15997" lon="6.72564">
        <ele>1068.5</ele>
        <time>2023-09-10T13:32:48.612Z</time>
      </trkpt>
      <trkpt lat="46.15957" lon="6.72594">
        <ele>1075.8</ele>
        <time>2023-09-10T13:32:49.612Z</time>
      </trkpt>
      <trkpt lat="46.15952" lon="6.72602">
        <ele>1075.8</ele>
        <time>2023-09-10T13:32:50.612Z</time>
      </trkpt>
      <trkpt lat="46.15949" lon="6.7262">
        <ele>1074.7</ele>
        <time>2023-09-10T13:32:51.612Z</time>
      </trkpt>
      <trkpt lat="46.15951" lon="6.72648">
        <ele>1076</ele>
        <time>2023-09-10T13:32:52.612Z</time>
      </trkpt>
      <trkpt lat="46.1595" lon="6.72692">
        <ele>1079.2</ele>
        <time>2023-09-10T13:32:53.612Z</time>
      </trkpt>
      <trkpt lat="46.15946" lon="6.72726">
        <ele>1080.5</ele>
        <time>2023-09-10T13:32:54.612Z</time>
      </trkpt>
      <trkpt lat="46.15948" lon="6.72756">
        <ele>1082.8</ele>
        <time>2023-09-10T13:32:55.612Z</time>
      </trkpt>
      <trkpt lat="46.15945" lon="6.72775">
        <ele>1082.2</ele>
        <time>2023-09-10T13:32:56.612Z</time>
      </trkpt>
      <trkpt lat="46.15932" lon="6.72795">
        <ele>1087.5</ele>
        <time>2023-09-10T13:32:57.612Z</time>
      </trkpt>
      <trkpt lat="46.15918" lon="6.72821">
        <ele>1087.9</ele>
        <time>2023-09-10T13:32:58.612Z</time>
      </trkpt>
      <trkpt lat="46.15909" lon="6.72829">
        <ele>1089.3</ele>
        <time>2023-09-10T13:32:59.612Z</time>
      </trkpt>
      <trkpt lat="46.15874" lon="6.72875">
        <ele>1092.6</ele>
        <time>2023-09-10T13:33:00.612Z</time>
      </trkpt>
      <trkpt lat="46.15856" lon="6.72892">
        <ele>1092.8</ele>
        <time>2023-09-10T13:33:01.612Z</time>
      </trkpt>
      <trkpt lat="46.15849" lon="6.72901">
        <ele>1095.6</ele>
        <time>2023-09-10T13:33:02.612Z</time>
      </trkpt>
      <trkpt lat="46.15843" lon="6.72912">
        <ele>1095.9</ele>
        <time>2023-09-10T13:33:03.612Z</time>
      </trkpt>
      <trkpt lat="46.15825" lon="6.72961">
        <ele>1095.3</ele>
        <time>2023-09-10T13:33:04.612Z</time>
      </trkpt>
      <trkpt lat="46.15808" lon="6.72989">
        <ele>1095.8</ele>
        <time>2023-09-10T13:33:05.612Z</time>
      </trkpt>
      <trkpt lat="46.15782" lon="6.73022">
        <ele>1096.8</ele>
        <time>2023-09-10T13:33:06.612Z</time>
      </trkpt>
      <trkpt lat="46.15778" lon="6.73033">
        <ele>1096</ele>
        <time>2023-09-10T13:33:07.612Z</time>
      </trkpt>
      <trkpt lat="46.15774" lon="6.73058">
        <ele>1096.1</ele>
        <time>2023-09-10T13:33:08.612Z</time>
      </trkpt>
      <trkpt lat="46.1577" lon="6.73069">
        <ele>1096.4</ele>
        <time>2023-09-10T13:33:09.612Z</time>
      </trkpt>
      <trkpt lat="46.15764" lon="6.73078">
        <ele>1096.9</ele>
        <time>2023-09-10T13:33:10.612Z</time>
      </trkpt>
      <trkpt lat="46.15716" lon="6.73114">
        <ele>1098.5</ele>
        <time>2023-09-10T13:33:11.612Z</time>
      </trkpt>
      <trkpt lat="46.15704" lon="6.73117">
        <ele>1099.2</ele>
        <time>2023-09-10T13:33:12.612Z</time>
      </trkpt>
      <trkpt lat="46.15695" lon="6.73117">
        <ele>1099.8</ele>
        <time>2023-09-10T13:33:13.612Z</time>
      </trkpt>
      <trkpt lat="46.15684" lon="6.73121">
        <ele>1100.4</ele>
        <time>2023-09-10T13:33:14.612Z</time>
      </trkpt>
      <trkpt lat="46.15675" lon="6.73131">
        <ele>1100.7</ele>
        <time>2023-09-10T13:33:15.612Z</time>
      </trkpt>
      <trkpt lat="46.1566" lon="6.73158">
        <ele>1101.4</ele>
        <time>2023-09-10T13:33:16.612Z</time>
      </trkpt>
      <trkpt lat="46.15654" lon="6.73166">
        <ele>1101.9</ele>
        <time>2023-09-10T13:33:17.612Z</time>
      </trkpt>
      <trkpt lat="46.1562" lon="6.73195">
        <ele>1104</ele>
        <time>2023-09-10T13:33:18.612Z</time>
      </trkpt>
      <trkpt lat="46.15607" lon="6.7321">
        <ele>1105.7</ele>
        <time>2023-09-10T13:33:19.612Z</time>
      </trkpt>
      <trkpt lat="46.15574" lon="6.73262">
        <ele>1106.8</ele>
        <time>2023-09-10T13:33:20.612Z</time>
      </trkpt>
      <trkpt lat="46.15549" lon="6.73286">
        <ele>1108.2</ele>
        <time>2023-09-10T13:33:21.612Z</time>
      </trkpt>
      <trkpt lat="46.15544" lon="6.73294">
        <ele>1108.4</ele>
        <time>2023-09-10T13:33:22.612Z</time>
      </trkpt>
      <trkpt lat="46.15536" lon="6.73313">
        <ele>1107.7</ele>
        <time>2023-09-10T13:33:23.612Z</time>
      </trkpt>
      <trkpt lat="46.15531" lon="6.73336">
        <ele>1107.8</ele>
        <time>2023-09-10T13:33:24.612Z</time>
      </trkpt>
      <trkpt lat="46.1553" lon="6.7336">
        <ele>1108</ele>
        <time>2023-09-10T13:33:25.612Z</time>
      </trkpt>
      <trkpt lat="46.15534" lon="6.73405">
        <ele>1108.7</ele>
        <time>2023-09-10T13:33:26.612Z</time>
      </trkpt>
      <trkpt lat="46.15529" lon="6.73427">
        <ele>1108.7</ele>
        <time>2023-09-10T13:33:27.612Z</time>
      </trkpt>
      <trkpt lat="46.15504" lon="6.73476">
        <ele>1113.1</ele>
        <time>2023-09-10T13:33:28.612Z</time>
      </trkpt>
      <trkpt lat="46.15492" lon="6.73507">
        <ele>1113.8</ele>
        <time>2023-09-10T13:33:29.612Z</time>
      </trkpt>
      <trkpt lat="46.15482" lon="6.73527">
        <ele>1115.9</ele>
        <time>2023-09-10T13:33:30.612Z</time>
      </trkpt>
      <trkpt lat="46.15445" lon="6.7359">
        <ele>1115.5</ele>
        <time>2023-09-10T13:33:31.612Z</time>
      </trkpt>
      <trkpt lat="46.15432" lon="6.73603">
        <ele>1115.6</ele>
        <time>2023-09-10T13:33:32.612Z</time>
      </trkpt>
      <trkpt lat="46.15413" lon="6.73614">
        <ele>1116.8</ele>
        <time>2023-09-10T13:33:33.612Z</time>
      </trkpt>
      <trkpt lat="46.15386" lon="6.73633">
        <ele>1118.4</ele>
        <time>2023-09-10T13:33:34.612Z</time>
      </trkpt>
      <trkpt lat="46.15377" lon="6.73643">
        <ele>1119.8</ele>
        <time>2023-09-10T13:33:35.612Z</time>
      </trkpt>
      <trkpt lat="46.15372" lon="6.73656">
        <ele>1121</ele>
        <time>2023-09-10T13:33:36.612Z</time>
      </trkpt>
      <trkpt lat="46.15364" lon="6.73731">
        <ele>1122.1</ele>
        <time>2023-09-10T13:33:37.612Z</time>
      </trkpt>
      <trkpt lat="46.15333" lon="6.73818">
        <ele>1125.7</ele>
        <time>2023-09-10T13:33:38.612Z</time>
      </trkpt>
      <trkpt lat="46.15316" lon="6.73859">
        <ele>1126.5</ele>
        <time>2023-09-10T13:33:39.612Z</time>
      </trkpt>
      <trkpt lat="46.1531" lon="6.73868">
        <ele>1127.2</ele>
        <time>2023-09-10T13:33:40.612Z</time>
      </trkpt>
      <trkpt lat="46.15301" lon="6.73877">
        <ele>1127.3</ele>
        <time>2023-09-10T13:33:41.612Z</time>
      </trkpt>
      <trkpt lat="46.15279" lon="6.73892">
        <ele>1128.5</ele>
        <time>2023-09-10T13:33:42.612Z</time>
      </trkpt>
      <trkpt lat="46.15256" lon="6.73904">
        <ele>1130.1</ele>
        <time>2023-09-10T13:33:43.612Z</time>
      </trkpt>
      <trkpt lat="46.15232" lon="6.7391">
        <ele>1130.8</ele>
        <time>2023-09-10T13:33:44.612Z</time>
      </trkpt>
      <trkpt lat="46.15221" lon="6.73919">
        <ele>1130.1</ele>
        <time>2023-09-10T13:33:45.612Z</time>
      </trkpt>
      <trkpt lat="46.15216" lon="6.73931">
        <ele>1130.1</ele>
        <time>2023-09-10T13:33:46.612Z</time>
      </trkpt>
      <trkpt lat="46.15207" lon="6.7397">
        <ele>1129.6</ele>
        <time>2023-09-10T13:33:47.612Z</time>
      </trkpt>
      <trkpt lat="46.15202" lon="6.73981">
        <ele>1129.7</ele>
        <time>2023-09-10T13:33:48.612Z</time>
      </trkpt>
      <trkpt lat="46.15183" lon="6.7401">
        <ele>1131.4</ele>
        <time>2023-09-10T13:33:49.612Z</time>
      </trkpt>
      <trkpt lat="46.15168" lon="6.74042">
        <ele>1131.9</ele>
        <time>2023-09-10T13:33:50.612Z</time>
      </trkpt>
      <trkpt lat="46.15127" lon="6.74111">
        <ele>1135.7</ele>
        <time>2023-09-10T13:33:51.612Z</time>
      </trkpt>
      <trkpt lat="46.15123" lon="6.7412">
        <ele>1136.1</ele>
        <time>2023-09-10T13:33:52.612Z</time>
      </trkpt>
      <trkpt lat="46.15105" lon="6.74144">
        <ele>1136.4</ele>
        <time>2023-09-10T13:33:53.612Z</time>
      </trkpt>
      <trkpt lat="46.1509" lon="6.7416">
        <ele>1136.4</ele>
        <time>2023-09-10T13:33:54.612Z</time>
      </trkpt>
      <trkpt lat="46.1508" lon="6.74179">
        <ele>1136.3</ele>
        <time>2023-09-10T13:33:55.612Z</time>
      </trkpt>
      <trkpt lat="46.15073" lon="6.74188">
        <ele>1136.6</ele>
        <time>2023-09-10T13:33:56.612Z</time>
      </trkpt>
      <trkpt lat="46.15047" lon="6.74208">
        <ele>1140.6</ele>
        <time>2023-09-10T13:33:57.612Z</time>
      </trkpt>
      <trkpt lat="46.15042" lon="6.74217">
        <ele>1141.5</ele>
        <time>2023-09-10T13:33:58.612Z</time>
      </trkpt>
      <trkpt lat="46.15033" lon="6.74248">
        <ele>1140.8</ele>
        <time>2023-09-10T13:33:59.612Z</time>
      </trkpt>
      <trkpt lat="46.15031" lon="6.74269">
        <ele>1140.5</ele>
        <time>2023-09-10T13:34:00.612Z</time>
      </trkpt>
      <trkpt lat="46.15018" lon="6.74308">
        <ele>1144.2</ele>
        <time>2023-09-10T13:34:01.612Z</time>
      </trkpt>
      <trkpt lat="46.15006" lon="6.74351">
        <ele>1143.1</ele>
        <time>2023-09-10T13:34:02.612Z</time>
      </trkpt>
      <trkpt lat="46.14989" lon="6.74389">
        <ele>1145.2</ele>
        <time>2023-09-10T13:34:03.612Z</time>
      </trkpt>
      <trkpt lat="46.14947" lon="6.74463">
        <ele>1146.5</ele>
        <time>2023-09-10T13:34:04.612Z</time>
      </trkpt>
      <trkpt lat="46.14941" lon="6.74482">
        <ele>1147.4</ele>
        <time>2023-09-10T13:34:05.612Z</time>
      </trkpt>
      <trkpt lat="46.14938" lon="6.74503">
        <ele>1147.8</ele>
        <time>2023-09-10T13:34:06.612Z</time>
      </trkpt>
      <trkpt lat="46.14947" lon="6.74549">
        <ele>1148.6</ele>
        <time>2023-09-10T13:34:07.612Z</time>
      </trkpt>
      <trkpt lat="46.14946" lon="6.74558">
        <ele>1149</ele>
        <time>2023-09-10T13:34:08.612Z</time>
      </trkpt>
      <trkpt lat="46.1494" lon="6.74568">
        <ele>1149.8</ele>
        <time>2023-09-10T13:34:09.612Z</time>
      </trkpt>
      <trkpt lat="46.14932" lon="6.74574">
        <ele>1150.9</ele>
        <time>2023-09-10T13:34:10.612Z</time>
      </trkpt>
      <trkpt lat="46.14917" lon="6.7459">
        <ele>1153.2</ele>
        <time>2023-09-10T13:34:11.612Z</time>
      </trkpt>
      <trkpt lat="46.14902" lon="6.74602">
        <ele>1154.9</ele>
        <time>2023-09-10T13:34:12.612Z</time>
      </trkpt>
      <trkpt lat="46.14893" lon="6.74606">
        <ele>1156.1</ele>
        <time>2023-09-10T13:34:13.612Z</time>
      </trkpt>
      <trkpt lat="46.14853" lon="6.74616">
        <ele>1160.8</ele>
        <time>2023-09-10T13:34:14.612Z</time>
      </trkpt>
      <trkpt lat="46.14844" lon="6.74621">
        <ele>1162.4</ele>
        <time>2023-09-10T13:34:15.612Z</time>
      </trkpt>
      <trkpt lat="46.14837" lon="6.74629">
        <ele>1163.2</ele>
        <time>2023-09-10T13:34:16.612Z</time>
      </trkpt>
      <trkpt lat="46.14833" lon="6.74638">
        <ele>1163.3</ele>
        <time>2023-09-10T13:34:17.612Z</time>
      </trkpt>
      <trkpt lat="46.14821" lon="6.74688">
        <ele>1169.3</ele>
        <time>2023-09-10T13:34:18.612Z</time>
      </trkpt>
      <trkpt lat="46.14814" lon="6.74727">
        <ele>1170</ele>
        <time>2023-09-10T13:34:19.612Z</time>
      </trkpt>
      <trkpt lat="46.14815" lon="6.74736">
        <ele>1170.3</ele>
        <time>2023-09-10T13:34:20.612Z</time>
      </trkpt>
      <trkpt lat="46.14825" lon="6.74754">
        <ele>1170.1</ele>
        <time>2023-09-10T13:34:21.612Z</time>
      </trkpt>
      <trkpt lat="46.14828" lon="6.74766">
        <ele>1170.3</ele>
        <time>2023-09-10T13:34:22.612Z</time>
      </trkpt>
      <trkpt lat="46.14829" lon="6.74799">
        <ele>1171.4</ele>
        <time>2023-09-10T13:34:23.612Z</time>
      </trkpt>
      <trkpt lat="46.14837" lon="6.74828">
        <ele>1170.3</ele>
        <time>2023-09-10T13:34:24.612Z</time>
      </trkpt>
      <trkpt lat="46.14844" lon="6.74836">
        <ele>1168.9</ele>
        <time>2023-09-10T13:34:25.612Z</time>
      </trkpt>
      <trkpt lat="46.14852" lon="6.74841">
        <ele>1167.2</ele>
        <time>2023-09-10T13:34:26.612Z</time>
      </trkpt>
      <trkpt lat="46.1487" lon="6.74844">
        <ele>1164.5</ele>
        <time>2023-09-10T13:34:27.612Z</time>
      </trkpt>
      <trkpt lat="46.14876" lon="6.74853">
        <ele>1164.1</ele>
        <time>2023-09-10T13:34:28.612Z</time>
      </trkpt>
      <trkpt lat="46.14878" lon="6.74863">
        <ele>1164.4</ele>
        <time>2023-09-10T13:34:29.612Z</time>
      </trkpt>
      <trkpt lat="46.1488" lon="6.74885">
        <ele>1164.3</ele>
        <time>2023-09-10T13:34:30.612Z</time>
      </trkpt>
      <trkpt lat="46.14866" lon="6.74926">
        <ele>1164.9</ele>
        <time>2023-09-10T13:34:31.612Z</time>
      </trkpt>
      <trkpt lat="46.14859" lon="6.74964">
        <ele>1164.3</ele>
        <time>2023-09-10T13:34:32.612Z</time>
      </trkpt>
      <trkpt lat="46.14858" lon="6.74975">
        <ele>1164.4</ele>
        <time>2023-09-10T13:34:33.612Z</time>
      </trkpt>
      <trkpt lat="46.14863" lon="6.74986">
        <ele>1163.8</ele>
        <time>2023-09-10T13:34:34.612Z</time>
      </trkpt>
      <trkpt lat="46.14886" lon="6.75006">
        <ele>1161.9</ele>
        <time>2023-09-10T13:34:35.612Z</time>
      </trkpt>
      <trkpt lat="46.14896" lon="6.75009">
        <ele>1162.3</ele>
        <time>2023-09-10T13:34:36.612Z</time>
      </trkpt>
      <trkpt lat="46.14906" lon="6.75003">
        <ele>1162.4</ele>
        <time>2023-09-10T13:34:37.612Z</time>
      </trkpt>
      <trkpt lat="46.14915" lon="6.75005">
        <ele>1163.1</ele>
        <time>2023-09-10T13:34:38.612Z</time>
      </trkpt>
      <trkpt lat="46.14944" lon="6.75026">
        <ele>1163.9</ele>
        <time>2023-09-10T13:34:39.612Z</time>
      </trkpt>
      <trkpt lat="46.14954" lon="6.75015">
        <ele>1163.2</ele>
        <time>2023-09-10T13:34:40.612Z</time>
      </trkpt>
      <trkpt lat="46.14985" lon="6.74933">
        <ele>1159.6</ele>
        <time>2023-09-10T13:34:41.612Z</time>
      </trkpt>
      <trkpt lat="46.14994" lon="6.74925">
        <ele>1159.3</ele>
        <time>2023-09-10T13:34:42.612Z</time>
      </trkpt>
      <trkpt lat="46.15006" lon="6.74926">
        <ele>1159.3</ele>
        <time>2023-09-10T13:34:43.612Z</time>
      </trkpt>
      <trkpt lat="46.15048" lon="6.74936">
        <ele>1161.2</ele>
        <time>2023-09-10T13:34:44.612Z</time>
      </trkpt>
      <trkpt lat="46.15058" lon="6.74941">
        <ele>1162.1</ele>
        <time>2023-09-10T13:34:45.612Z</time>
      </trkpt>
      <trkpt lat="46.15064" lon="6.7495">
        <ele>1162.9</ele>
        <time>2023-09-10T13:34:46.612Z</time>
      </trkpt>
      <trkpt lat="46.15053" lon="6.74991">
        <ele>1163.8</ele>
        <time>2023-09-10T13:34:47.612Z</time>
      </trkpt>
      <trkpt lat="46.15037" lon="6.7504">
        <ele>1165.1</ele>
        <time>2023-09-10T13:34:48.612Z</time>
      </trkpt>
      <trkpt lat="46.1503" lon="6.75077">
        <ele>1166.9</ele>
        <time>2023-09-10T13:34:49.612Z</time>
      </trkpt>
      <trkpt lat="46.15015" lon="6.75121">
        <ele>1169.6</ele>
        <time>2023-09-10T13:34:50.612Z</time>
      </trkpt>
      <trkpt lat="46.14978" lon="6.75209">
        <ele>1173.6</ele>
        <time>2023-09-10T13:34:51.612Z</time>
      </trkpt>
      <trkpt lat="46.14964" lon="6.75259">
        <ele>1175.9</ele>
        <time>2023-09-10T13:34:52.612Z</time>
      </trkpt>
      <trkpt lat="46.1495" lon="6.75376">
        <ele>1182.5</ele>
        <time>2023-09-10T13:34:53.612Z</time>
      </trkpt>
      <trkpt lat="46.14938" lon="6.75421">
        <ele>1185.1</ele>
        <time>2023-09-10T13:34:54.612Z</time>
      </trkpt>
      <trkpt lat="46.14937" lon="6.75433">
        <ele>1185.9</ele>
        <time>2023-09-10T13:34:55.612Z</time>
      </trkpt>
      <trkpt lat="46.14937" lon="6.75464">
        <ele>1188.1</ele>
        <time>2023-09-10T13:34:56.612Z</time>
      </trkpt>
      <trkpt lat="46.14942" lon="6.75548">
        <ele>1194.3</ele>
        <time>2023-09-10T13:34:57.612Z</time>
      </trkpt>
      <trkpt lat="46.14945" lon="6.7556">
        <ele>1195.4</ele>
        <time>2023-09-10T13:34:58.612Z</time>
      </trkpt>
      <trkpt lat="46.14962" lon="6.75589">
        <ele>1198.5</ele>
        <time>2023-09-10T13:34:59.612Z</time>
      </trkpt>
      <trkpt lat="46.14985" lon="6.75644">
        <ele>1203.8</ele>
        <time>2023-09-10T13:35:00.612Z</time>
      </trkpt>
      <trkpt lat="46.14987" lon="6.75664">
        <ele>1205.3</ele>
        <time>2023-09-10T13:35:01.612Z</time>
      </trkpt>
      <trkpt lat="46.14987" lon="6.75696">
        <ele>1209.2</ele>
        <time>2023-09-10T13:35:02.612Z</time>
      </trkpt>
      <trkpt lat="46.14984" lon="6.75719">
        <ele>1211.5</ele>
        <time>2023-09-10T13:35:03.612Z</time>
      </trkpt>
      <trkpt lat="46.14976" lon="6.7575">
        <ele>1213.3</ele>
        <time>2023-09-10T13:35:04.612Z</time>
      </trkpt>
      <trkpt lat="46.14986" lon="6.75797">
        <ele>1218.2</ele>
        <time>2023-09-10T13:35:05.612Z</time>
      </trkpt>
      <trkpt lat="46.14993" lon="6.75826">
        <ele>1220.6</ele>
        <time>2023-09-10T13:35:06.612Z</time>
      </trkpt>
      <trkpt lat="46.14998" lon="6.75836">
        <ele>1221.4</ele>
        <time>2023-09-10T13:35:07.612Z</time>
      </trkpt>
      <trkpt lat="46.15005" lon="6.75844">
        <ele>1223.2</ele>
        <time>2023-09-10T13:35:08.612Z</time>
      </trkpt>
      <trkpt lat="46.15008" lon="6.75854">
        <ele>1224.9</ele>
        <time>2023-09-10T13:35:09.612Z</time>
      </trkpt>
      <trkpt lat="46.15013" lon="6.75863">
        <ele>1226.6</ele>
        <time>2023-09-10T13:35:10.612Z</time>
      </trkpt>
      <trkpt lat="46.1502" lon="6.75871">
        <ele>1228.3</ele>
        <time>2023-09-10T13:35:11.612Z</time>
      </trkpt>
      <trkpt lat="46.15029" lon="6.75877">
        <ele>1230</ele>
        <time>2023-09-10T13:35:12.612Z</time>
      </trkpt>
      <trkpt lat="46.15034" lon="6.75885">
        <ele>1231.7</ele>
        <time>2023-09-10T13:35:13.612Z</time>
      </trkpt>
      <trkpt lat="46.15031" lon="6.75894">
        <ele>1232.1</ele>
        <time>2023-09-10T13:35:14.612Z</time>
      </trkpt>
      <trkpt lat="46.15024" lon="6.75904">
        <ele>1232.4</ele>
        <time>2023-09-10T13:35:15.612Z</time>
      </trkpt>
      <trkpt lat="46.15017" lon="6.75911">
        <ele>1232.6</ele>
        <time>2023-09-10T13:35:16.612Z</time>
      </trkpt>
      <trkpt lat="46.14999" lon="6.75922">
        <ele>1232.5</ele>
        <time>2023-09-10T13:35:17.612Z</time>
      </trkpt>
      <trkpt lat="46.1499" lon="6.75932">
        <ele>1232.4</ele>
        <time>2023-09-10T13:35:18.612Z</time>
      </trkpt>
      <trkpt lat="46.14984" lon="6.75941">
        <ele>1232.4</ele>
        <time>2023-09-10T13:35:19.612Z</time>
      </trkpt>
      <trkpt lat="46.14975" lon="6.75964">
        <ele>1232.2</ele>
        <time>2023-09-10T13:35:20.612Z</time>
      </trkpt>
      <trkpt lat="46.14963" lon="6.75981">
        <ele>1233.8</ele>
        <time>2023-09-10T13:35:21.612Z</time>
      </trkpt>
      <trkpt lat="46.14952" lon="6.75985">
        <ele>1235</ele>
        <time>2023-09-10T13:35:22.612Z</time>
      </trkpt>
      <trkpt lat="46.14942" lon="6.75985">
        <ele>1236</ele>
        <time>2023-09-10T13:35:23.612Z</time>
      </trkpt>
      <trkpt lat="46.14933" lon="6.75981">
        <ele>1237.3</ele>
        <time>2023-09-10T13:35:24.612Z</time>
      </trkpt>
      <trkpt lat="46.14917" lon="6.75969">
        <ele>1237.1</ele>
        <time>2023-09-10T13:35:25.612Z</time>
      </trkpt>
      <trkpt lat="46.14905" lon="6.75955">
        <ele>1237.7</ele>
        <time>2023-09-10T13:35:26.612Z</time>
      </trkpt>
      <trkpt lat="46.14887" lon="6.75947">
        <ele>1241.6</ele>
        <time>2023-09-10T13:35:27.612Z</time>
      </trkpt>
      <trkpt lat="46.14877" lon="6.75947">
        <ele>1241.9</ele>
        <time>2023-09-10T13:35:28.612Z</time>
      </trkpt>
      <trkpt lat="46.14856" lon="6.75955">
        <ele>1243.2</ele>
        <time>2023-09-10T13:35:29.612Z</time>
      </trkpt>
      <trkpt lat="46.14862" lon="6.75962">
        <ele>1244.5</ele>
        <time>2023-09-10T13:35:30.612Z</time>
      </trkpt>
      <trkpt lat="46.14872" lon="6.75963">
        <ele>1244.8</ele>
        <time>2023-09-10T13:35:31.612Z</time>
      </trkpt>
      <trkpt lat="46.14881" lon="6.75966">
        <ele>1245.5</ele>
        <time>2023-09-10T13:35:32.612Z</time>
      </trkpt>
      <trkpt lat="46.14885" lon="6.75977">
        <ele>1247.9</ele>
        <time>2023-09-10T13:35:33.612Z</time>
      </trkpt>
      <trkpt lat="46.1488" lon="6.75988">
        <ele>1250.1</ele>
        <time>2023-09-10T13:35:34.612Z</time>
      </trkpt>
      <trkpt lat="46.14872" lon="6.75994">
        <ele>1251.1</ele>
        <time>2023-09-10T13:35:35.612Z</time>
      </trkpt>
      <trkpt lat="46.14852" lon="6.75998">
        <ele>1251.5</ele>
        <time>2023-09-10T13:35:36.612Z</time>
      </trkpt>
      <trkpt lat="46.14799" lon="6.76015">
        <ele>1255.9</ele>
        <time>2023-09-10T13:35:37.612Z</time>
      </trkpt>
      <trkpt lat="46.14781" lon="6.76031">
        <ele>1258.7</ele>
        <time>2023-09-10T13:35:38.612Z</time>
      </trkpt>
      <trkpt lat="46.14762" lon="6.76054">
        <ele>1262.2</ele>
        <time>2023-09-10T13:35:39.612Z</time>
      </trkpt>
      <trkpt lat="46.14747" lon="6.76067">
        <ele>1263.6</ele>
        <time>2023-09-10T13:35:40.612Z</time>
      </trkpt>
      <trkpt lat="46.14735" lon="6.7607">
        <ele>1265.2</ele>
        <time>2023-09-10T13:35:41.612Z</time>
      </trkpt>
      <trkpt lat="46.14726" lon="6.76068">
        <ele>1265.9</ele>
        <time>2023-09-10T13:35:42.612Z</time>
      </trkpt>
      <trkpt lat="46.1469" lon="6.76046">
        <ele>1269.3</ele>
        <time>2023-09-10T13:35:43.612Z</time>
      </trkpt>
      <trkpt lat="46.14679" lon="6.76041">
        <ele>1270.4</ele>
        <time>2023-09-10T13:35:44.612Z</time>
      </trkpt>
      <trkpt lat="46.1467" lon="6.76039">
        <ele>1271.7</ele>
        <time>2023-09-10T13:35:45.612Z</time>
      </trkpt>
      <trkpt lat="46.14661" lon="6.76033">
        <ele>1273.1</ele>
        <time>2023-09-10T13:35:46.612Z</time>
      </trkpt>
      <trkpt lat="46.14644" lon="6.76017">
        <ele>1272.7</ele>
        <time>2023-09-10T13:35:47.612Z</time>
      </trkpt>
      <trkpt lat="46.14635" lon="6.76014">
        <ele>1271</ele>
        <time>2023-09-10T13:35:48.612Z</time>
      </trkpt>
      <trkpt lat="46.14627" lon="6.7602">
        <ele>1269.1</ele>
        <time>2023-09-10T13:35:49.612Z</time>
      </trkpt>
      <trkpt lat="46.1462" lon="6.76031">
        <ele>1269.4</ele>
        <time>2023-09-10T13:35:50.612Z</time>
      </trkpt>
      <trkpt lat="46.14608" lon="6.76058">
        <ele>1272.7</ele>
        <time>2023-09-10T13:35:51.612Z</time>
      </trkpt>
      <trkpt lat="46.14596" lon="6.76073">
        <ele>1274.5</ele>
        <time>2023-09-10T13:35:52.612Z</time>
      </trkpt>
      <trkpt lat="46.1457" lon="6.76097">
        <ele>1272.9</ele>
        <time>2023-09-10T13:35:53.612Z</time>
      </trkpt>
      <trkpt lat="46.14564" lon="6.76105">
        <ele>1273.6</ele>
        <time>2023-09-10T13:35:54.612Z</time>
      </trkpt>
      <trkpt lat="46.14545" lon="6.76141">
        <ele>1272.2</ele>
        <time>2023-09-10T13:35:55.612Z</time>
      </trkpt>
      <trkpt lat="46.1454" lon="6.76154">
        <ele>1271</ele>
        <time>2023-09-10T13:35:56.612Z</time>
      </trkpt>
      <trkpt lat="46.14538" lon="6.76242">
        <ele>1274.5</ele>
        <time>2023-09-10T13:35:57.612Z</time>
      </trkpt>
      <trkpt lat="46.1454" lon="6.76268">
        <ele>1274.3</ele>
        <time>2023-09-10T13:35:58.612Z</time>
      </trkpt>
      <trkpt lat="46.14555" lon="6.76331">
        <ele>1275.1</ele>
        <time>2023-09-10T13:35:59.612Z</time>
      </trkpt>
      <trkpt lat="46.14556" lon="6.76343">
        <ele>1275.5</ele>
        <time>2023-09-10T13:36:00.612Z</time>
      </trkpt>
      <trkpt lat="46.14555" lon="6.76356">
        <ele>1275.7</ele>
        <time>2023-09-10T13:36:01.612Z</time>
      </trkpt>
      <trkpt lat="46.14544" lon="6.7639">
        <ele>1276.3</ele>
        <time>2023-09-10T13:36:02.612Z</time>
      </trkpt>
      <trkpt lat="46.14534" lon="6.76411">
        <ele>1279</ele>
        <time>2023-09-10T13:36:03.612Z</time>
      </trkpt>
      <trkpt lat="46.14527" lon="6.76418">
        <ele>1279.3</ele>
        <time>2023-09-10T13:36:04.612Z</time>
      </trkpt>
      <trkpt lat="46.14519" lon="6.76423">
        <ele>1279.9</ele>
        <time>2023-09-10T13:36:05.612Z</time>
      </trkpt>
      <trkpt lat="46.14507" lon="6.76426">
        <ele>1279.8</ele>
        <time>2023-09-10T13:36:06.612Z</time>
      </trkpt>
      <trkpt lat="46.1449" lon="6.76435">
        <ele>1281.6</ele>
        <time>2023-09-10T13:36:07.612Z</time>
      </trkpt>
      <trkpt lat="46.14477" lon="6.7645">
        <ele>1283.3</ele>
        <time>2023-09-10T13:36:08.612Z</time>
      </trkpt>
      <trkpt lat="46.14473" lon="6.76461">
        <ele>1284.2</ele>
        <time>2023-09-10T13:36:09.612Z</time>
      </trkpt>
      <trkpt lat="46.14471" lon="6.76481">
        <ele>1286.6</ele>
        <time>2023-09-10T13:36:10.612Z</time>
      </trkpt>
      <trkpt lat="46.14472" lon="6.76503">
        <ele>1289.5</ele>
        <time>2023-09-10T13:36:11.612Z</time>
      </trkpt>
      <trkpt lat="46.14469" lon="6.76525">
        <ele>1292.7</ele>
        <time>2023-09-10T13:36:12.612Z</time>
      </trkpt>
      <trkpt lat="46.14456" lon="6.76554">
        <ele>1296.5</ele>
        <time>2023-09-10T13:36:13.612Z</time>
      </trkpt>
      <trkpt lat="46.1445" lon="6.76573">
        <ele>1298.1</ele>
        <time>2023-09-10T13:36:14.612Z</time>
      </trkpt>
      <trkpt lat="46.14434" lon="6.76613">
        <ele>1302.9</ele>
        <time>2023-09-10T13:36:15.612Z</time>
      </trkpt>
      <trkpt lat="46.14432" lon="6.76622">
        <ele>1303.8</ele>
        <time>2023-09-10T13:36:16.612Z</time>
      </trkpt>
      <trkpt lat="46.14423" lon="6.76642">
        <ele>1304</ele>
        <time>2023-09-10T13:36:17.612Z</time>
      </trkpt>
      <trkpt lat="46.14406" lon="6.76668">
        <ele>1304.3</ele>
        <time>2023-09-10T13:36:18.612Z</time>
      </trkpt>
      <trkpt lat="46.14402" lon="6.76678">
        <ele>1304.9</ele>
        <time>2023-09-10T13:36:19.612Z</time>
      </trkpt>
      <trkpt lat="46.14389" lon="6.76737">
        <ele>1305.6</ele>
        <time>2023-09-10T13:36:20.612Z</time>
      </trkpt>
      <trkpt lat="46.14385" lon="6.76748">
        <ele>1306.7</ele>
        <time>2023-09-10T13:36:21.612Z</time>
      </trkpt>
      <trkpt lat="46.14377" lon="6.76758">
        <ele>1307.2</ele>
        <time>2023-09-10T13:36:22.612Z</time>
      </trkpt>
      <trkpt lat="46.14369" lon="6.76763">
        <ele>1307</ele>
        <time>2023-09-10T13:36:23.612Z</time>
      </trkpt>
      <trkpt lat="46.14349" lon="6.76771">
        <ele>1307.2</ele>
        <time>2023-09-10T13:36:24.612Z</time>
      </trkpt>
      <trkpt lat="46.14329" lon="6.76776">
        <ele>1307.7</ele>
        <time>2023-09-10T13:36:25.612Z</time>
      </trkpt>
      <trkpt lat="46.14319" lon="6.76781">
        <ele>1308.4</ele>
        <time>2023-09-10T13:36:26.612Z</time>
      </trkpt>
      <trkpt lat="46.14313" lon="6.76788">
        <ele>1308.5</ele>
        <time>2023-09-10T13:36:27.612Z</time>
      </trkpt>
      <trkpt lat="46.14312" lon="6.76798">
        <ele>1307.8</ele>
        <time>2023-09-10T13:36:28.612Z</time>
      </trkpt>
      <trkpt lat="46.14315" lon="6.76819">
        <ele>1308.6</ele>
        <time>2023-09-10T13:36:29.612Z</time>
      </trkpt>
      <trkpt lat="46.14323" lon="6.76826">
        <ele>1310</ele>
        <time>2023-09-10T13:36:30.612Z</time>
      </trkpt>
      <trkpt lat="46.1438" lon="6.76834">
        <ele>1317.9</ele>
        <time>2023-09-10T13:36:31.612Z</time>
      </trkpt>
      <trkpt lat="46.14408" lon="6.76826">
        <ele>1322.3</ele>
        <time>2023-09-10T13:36:32.612Z</time>
      </trkpt>
      <trkpt lat="46.14415" lon="6.76819">
        <ele>1322.5</ele>
        <time>2023-09-10T13:36:33.612Z</time>
      </trkpt>
      <trkpt lat="46.14424" lon="6.768">
        <ele>1322.3</ele>
        <time>2023-09-10T13:36:34.612Z</time>
      </trkpt>
      <trkpt lat="46.14434" lon="6.76773">
        <ele>1323.3</ele>
        <time>2023-09-10T13:36:35.612Z</time>
      </trkpt>
      <trkpt lat="46.14446" lon="6.76727">
        <ele>1323.2</ele>
        <time>2023-09-10T13:36:36.612Z</time>
      </trkpt>
      <trkpt lat="46.1446" lon="6.76698">
        <ele>1325.9</ele>
        <time>2023-09-10T13:36:37.612Z</time>
      </trkpt>
      <trkpt lat="46.14485" lon="6.76661">
        <ele>1329.3</ele>
        <time>2023-09-10T13:36:38.612Z</time>
      </trkpt>
      <trkpt lat="46.14503" lon="6.76649">
        <ele>1332</ele>
        <time>2023-09-10T13:36:39.612Z</time>
      </trkpt>
      <trkpt lat="46.14513" lon="6.7665">
        <ele>1333.9</ele>
        <time>2023-09-10T13:36:40.612Z</time>
      </trkpt>
      <trkpt lat="46.14512" lon="6.76661">
        <ele>1336.6</ele>
        <time>2023-09-10T13:36:41.612Z</time>
      </trkpt>
      <trkpt lat="46.14501" lon="6.76679">
        <ele>1338.4</ele>
        <time>2023-09-10T13:36:42.612Z</time>
      </trkpt>
      <trkpt lat="46.14495" lon="6.76697">
        <ele>1339.7</ele>
        <time>2023-09-10T13:36:43.612Z</time>
      </trkpt>
      <trkpt lat="46.14493" lon="6.76718">
        <ele>1341.9</ele>
        <time>2023-09-10T13:36:44.612Z</time>
      </trkpt>
      <trkpt lat="46.14493" lon="6.76741">
        <ele>1344.5</ele>
        <time>2023-09-10T13:36:45.612Z</time>
      </trkpt>
      <trkpt lat="46.14498" lon="6.76772">
        <ele>1348.9</ele>
        <time>2023-09-10T13:36:46.612Z</time>
      </trkpt>
      <trkpt lat="46.14505" lon="6.768">
        <ele>1353</ele>
        <time>2023-09-10T13:36:47.612Z</time>
      </trkpt>
      <trkpt lat="46.1452" lon="6.76829">
        <ele>1359.4</ele>
        <time>2023-09-10T13:36:48.612Z</time>
      </trkpt>
      <trkpt lat="46.14546" lon="6.76865">
        <ele>1369.2</ele>
        <time>2023-09-10T13:36:49.612Z</time>
      </trkpt>
      <trkpt lat="46.14556" lon="6.76886">
        <ele>1374</ele>
        <time>2023-09-10T13:36:50.612Z</time>
      </trkpt>
      <trkpt lat="46.14559" lon="6.76897">
        <ele>1375.8</ele>
        <time>2023-09-10T13:36:51.612Z</time>
      </trkpt>
      <trkpt lat="46.14564" lon="6.7693">
        <ele>1380.2</ele>
        <time>2023-09-10T13:36:52.612Z</time>
      </trkpt>
      <trkpt lat="46.14563" lon="6.76944">
        <ele>1381.1</ele>
        <time>2023-09-10T13:36:53.612Z</time>
      </trkpt>
      <trkpt lat="46.1456" lon="6.76954">
        <ele>1380.9</ele>
        <time>2023-09-10T13:36:54.612Z</time>
      </trkpt>
      <trkpt lat="46.14548" lon="6.76972">
        <ele>1379.1</ele>
        <time>2023-09-10T13:36:55.612Z</time>
      </trkpt>
      <trkpt lat="46.14546" lon="6.76981">
        <ele>1379</ele>
        <time>2023-09-10T13:36:56.612Z</time>
      </trkpt>
      <trkpt lat="46.14546" lon="6.76991">
        <ele>1379.5</ele>
        <time>2023-09-10T13:36:57.612Z</time>
      </trkpt>
      <trkpt lat="46.14565" lon="6.77039">
        <ele>1387.9</ele>
        <time>2023-09-10T13:36:58.612Z</time>
      </trkpt>
      <trkpt lat="46.14567" lon="6.77049">
        <ele>1389.6</ele>
        <time>2023-09-10T13:36:59.612Z</time>
      </trkpt>
      <trkpt lat="46.14567" lon="6.7706">
        <ele>1391.3</ele>
        <time>2023-09-10T13:37:00.612Z</time>
      </trkpt>
      <trkpt lat="46.14562" lon="6.7708">
        <ele>1393.8</ele>
        <time>2023-09-10T13:37:01.612Z</time>
      </trkpt>
      <trkpt lat="46.14551" lon="6.77101">
        <ele>1396.5</ele>
        <time>2023-09-10T13:37:02.612Z</time>
      </trkpt>
      <trkpt lat="46.14531" lon="6.77124">
        <ele>1398.1</ele>
        <time>2023-09-10T13:37:03.612Z</time>
      </trkpt>
      <trkpt lat="46.14526" lon="6.77132">
        <ele>1398.8</ele>
        <time>2023-09-10T13:37:04.612Z</time>
      </trkpt>
      <trkpt lat="46.14512" lon="6.77172">
        <ele>1403.8</ele>
        <time>2023-09-10T13:37:05.612Z</time>
      </trkpt>
      <trkpt lat="46.1449" lon="6.77222">
        <ele>1405.7</ele>
        <time>2023-09-10T13:37:06.612Z</time>
      </trkpt>
      <trkpt lat="46.1446" lon="6.77333">
        <ele>1417.1</ele>
        <time>2023-09-10T13:37:07.612Z</time>
      </trkpt>
      <trkpt lat="46.14461" lon="6.77367">
        <ele>1419.2</ele>
        <time>2023-09-10T13:37:08.612Z</time>
      </trkpt>
      <trkpt lat="46.14467" lon="6.7739">
        <ele>1421.8</ele>
        <time>2023-09-10T13:37:09.612Z</time>
      </trkpt>
      <trkpt lat="46.14472" lon="6.774">
        <ele>1424.3</ele>
        <time>2023-09-10T13:37:10.612Z</time>
      </trkpt>
      <trkpt lat="46.14475" lon="6.77411">
        <ele>1426.3</ele>
        <time>2023-09-10T13:37:11.612Z</time>
      </trkpt>
      <trkpt lat="46.14478" lon="6.77435">
        <ele>1427.7</ele>
        <time>2023-09-10T13:37:12.612Z</time>
      </trkpt>
      <trkpt lat="46.14479" lon="6.77467">
        <ele>1427.3</ele>
        <time>2023-09-10T13:37:13.612Z</time>
      </trkpt>
      <trkpt lat="46.14486" lon="6.77501">
        <ele>1431.1</ele>
        <time>2023-09-10T13:37:14.612Z</time>
      </trkpt>
      <trkpt lat="46.14486" lon="6.7751">
        <ele>1432</ele>
        <time>2023-09-10T13:37:15.612Z</time>
      </trkpt>
      <trkpt lat="46.1448" lon="6.77521">
        <ele>1431.2</ele>
        <time>2023-09-10T13:37:16.612Z</time>
      </trkpt>
      <trkpt lat="46.14468" lon="6.77519">
        <ele>1428.7</ele>
        <time>2023-09-10T13:37:17.612Z</time>
      </trkpt>
      <trkpt lat="46.1446" lon="6.77512">
        <ele>1427.2</ele>
        <time>2023-09-10T13:37:18.612Z</time>
      </trkpt>
      <trkpt lat="46.14451" lon="6.7751">
        <ele>1426.6</ele>
        <time>2023-09-10T13:37:19.612Z</time>
      </trkpt>
      <trkpt lat="46.14442" lon="6.77512">
        <ele>1428.4</ele>
        <time>2023-09-10T13:37:20.612Z</time>
      </trkpt>
      <trkpt lat="46.14414" lon="6.77513">
        <ele>1434.7</ele>
        <time>2023-09-10T13:37:21.612Z</time>
      </trkpt>
      <trkpt lat="46.14391" lon="6.7753">
        <ele>1447.5</ele>
        <time>2023-09-10T13:37:22.612Z</time>
      </trkpt>
      <trkpt lat="46.14379" lon="6.77534">
        <ele>1450.2</ele>
        <time>2023-09-10T13:37:23.612Z</time>
      </trkpt>
      <trkpt lat="46.1437" lon="6.77535">
        <ele>1450.4</ele>
        <time>2023-09-10T13:37:24.612Z</time>
      </trkpt>
      <trkpt lat="46.1436" lon="6.77534">
        <ele>1449.3</ele>
        <time>2023-09-10T13:37:25.612Z</time>
      </trkpt>
      <trkpt lat="46.1435" lon="6.77536">
        <ele>1449.3</ele>
        <time>2023-09-10T13:37:26.612Z</time>
      </trkpt>
      <trkpt lat="46.14332" lon="6.77547">
        <ele>1452</ele>
        <time>2023-09-10T13:37:27.612Z</time>
      </trkpt>
      <trkpt lat="46.14318" lon="6.77564">
        <ele>1454.7</ele>
        <time>2023-09-10T13:37:28.612Z</time>
      </trkpt>
      <trkpt lat="46.14308" lon="6.77583">
        <ele>1456.8</ele>
        <time>2023-09-10T13:37:29.612Z</time>
      </trkpt>
      <trkpt lat="46.14304" lon="6.77602">
        <ele>1459.4</ele>
        <time>2023-09-10T13:37:30.612Z</time>
      </trkpt>
      <trkpt lat="46.14304" lon="6.77656">
        <ele>1472.5</ele>
        <time>2023-09-10T13:37:31.612Z</time>
      </trkpt>
      <trkpt lat="46.14302" lon="6.77681">
        <ele>1476.5</ele>
        <time>2023-09-10T13:37:32.612Z</time>
      </trkpt>
      <trkpt lat="46.14298" lon="6.77701">
        <ele>1477.8</ele>
        <time>2023-09-10T13:37:33.612Z</time>
      </trkpt>
      <trkpt lat="46.14289" lon="6.77723">
        <ele>1477.1</ele>
        <time>2023-09-10T13:37:34.612Z</time>
      </trkpt>
      <trkpt lat="46.14259" lon="6.77769">
        <ele>1474</ele>
        <time>2023-09-10T13:37:35.612Z</time>
      </trkpt>
      <trkpt lat="46.14254" lon="6.77789">
        <ele>1476.8</ele>
        <time>2023-09-10T13:37:36.612Z</time>
      </trkpt>
      <trkpt lat="46.14254" lon="6.77799">
        <ele>1479.4</ele>
        <time>2023-09-10T13:37:37.612Z</time>
      </trkpt>
      <trkpt lat="46.14251" lon="6.77808">
        <ele>1480</ele>
        <time>2023-09-10T13:37:38.612Z</time>
      </trkpt>
      <trkpt lat="46.14245" lon="6.77818">
        <ele>1479.8</ele>
        <time>2023-09-10T13:37:39.612Z</time>
      </trkpt>
      <trkpt lat="46.14238" lon="6.77825">
        <ele>1478.6</ele>
        <time>2023-09-10T13:37:40.612Z</time>
      </trkpt>
      <trkpt lat="46.14234" lon="6.77834">
        <ele>1478.7</ele>
        <time>2023-09-10T13:37:41.612Z</time>
      </trkpt>
      <trkpt lat="46.14233" lon="6.77844">
        <ele>1479.6</ele>
        <time>2023-09-10T13:37:42.612Z</time>
      </trkpt>
      <trkpt lat="46.14236" lon="6.77881">
        <ele>1483.7</ele>
        <time>2023-09-10T13:37:43.612Z</time>
      </trkpt>
      <trkpt lat="46.14235" lon="6.77902">
        <ele>1484.4</ele>
        <time>2023-09-10T13:37:44.612Z</time>
      </trkpt>
      <trkpt lat="46.14221" lon="6.77962">
        <ele>1481.5</ele>
        <time>2023-09-10T13:37:45.612Z</time>
      </trkpt>
      <trkpt lat="46.14216" lon="6.78006">
        <ele>1480.6</ele>
        <time>2023-09-10T13:37:46.612Z</time>
      </trkpt>
      <trkpt lat="46.14222" lon="6.78059">
        <ele>1486</ele>
        <time>2023-09-10T13:37:47.612Z</time>
      </trkpt>
      <trkpt lat="46.14221" lon="6.78068">
        <ele>1485.7</ele>
        <time>2023-09-10T13:37:48.612Z</time>
      </trkpt>
      <trkpt lat="46.14222" lon="6.7812">
        <ele>1490.8</ele>
        <time>2023-09-10T13:37:49.612Z</time>
      </trkpt>
      <trkpt lat="46.14218" lon="6.78168">
        <ele>1493.6</ele>
        <time>2023-09-10T13:37:50.612Z</time>
      </trkpt>
      <trkpt lat="46.14218" lon="6.78189">
        <ele>1495.3</ele>
        <time>2023-09-10T13:37:51.612Z</time>
      </trkpt>
      <trkpt lat="46.14226" lon="6.78184">
        <ele>1498.3</ele>
        <time>2023-09-10T13:37:52.612Z</time>
      </trkpt>
      <trkpt lat="46.14233" lon="6.78142">
        <ele>1499.8</ele>
        <time>2023-09-10T13:37:53.612Z</time>
      </trkpt>
      <trkpt lat="46.14246" lon="6.78109">
        <ele>1505.2</ele>
        <time>2023-09-10T13:37:54.612Z</time>
      </trkpt>
      <trkpt lat="46.14261" lon="6.78081">
        <ele>1511.5</ele>
        <time>2023-09-10T13:37:55.612Z</time>
      </trkpt>
      <trkpt lat="46.1427" lon="6.78054">
        <ele>1514.4</ele>
        <time>2023-09-10T13:37:56.612Z</time>
      </trkpt>
      <trkpt lat="46.14281" lon="6.78034">
        <ele>1518.2</ele>
        <time>2023-09-10T13:37:57.612Z</time>
      </trkpt>
      <trkpt lat="46.14294" lon="6.78016">
        <ele>1522.3</ele>
        <time>2023-09-10T13:37:58.612Z</time>
      </trkpt>
      <trkpt lat="46.14308" lon="6.77988">
        <ele>1525.7</ele>
        <time>2023-09-10T13:37:59.612Z</time>
      </trkpt>
      <trkpt lat="46.14326" lon="6.77977">
        <ele>1531.7</ele>
        <time>2023-09-10T13:38:00.612Z</time>
      </trkpt>
      <trkpt lat="46.14332" lon="6.77967">
        <ele>1533.3</ele>
        <time>2023-09-10T13:38:01.612Z</time>
      </trkpt>
      <trkpt lat="46.14338" lon="6.77949">
        <ele>1535</ele>
        <time>2023-09-10T13:38:02.612Z</time>
      </trkpt>
      <trkpt lat="46.14362" lon="6.77931">
        <ele>1542.9</ele>
        <time>2023-09-10T13:38:03.612Z</time>
      </trkpt>
      <trkpt lat="46.14373" lon="6.77914">
        <ele>1545</ele>
        <time>2023-09-10T13:38:04.612Z</time>
      </trkpt>
      <trkpt lat="46.14405" lon="6.77872">
        <ele>1550</ele>
        <time>2023-09-10T13:38:05.612Z</time>
      </trkpt>
      <trkpt lat="46.14413" lon="6.77863">
        <ele>1551.1</ele>
        <time>2023-09-10T13:38:06.612Z</time>
      </trkpt>
      <trkpt lat="46.14422" lon="6.77857">
        <ele>1553.3</ele>
        <time>2023-09-10T13:38:07.612Z</time>
      </trkpt>
      <trkpt lat="46.14437" lon="6.77843">
        <ele>1556.2</ele>
        <time>2023-09-10T13:38:08.612Z</time>
      </trkpt>
      <trkpt lat="46.14463" lon="6.77807">
        <ele>1557</ele>
        <time>2023-09-10T13:38:09.612Z</time>
      </trkpt>
      <trkpt lat="46.1447" lon="6.77799">
        <ele>1557</ele>
        <time>2023-09-10T13:38:10.612Z</time>
      </trkpt>
      <trkpt lat="46.14478" lon="6.77794">
        <ele>1556.7</ele>
        <time>2023-09-10T13:38:11.612Z</time>
      </trkpt>
      <trkpt lat="46.14482" lon="6.77805">
        <ele>1559.6</ele>
        <time>2023-09-10T13:38:12.612Z</time>
      </trkpt>
      <trkpt lat="46.14465" lon="6.77834">
        <ele>1563.1</ele>
        <time>2023-09-10T13:38:13.612Z</time>
      </trkpt>
      <trkpt lat="46.14456" lon="6.77877">
        <ele>1568.8</ele>
        <time>2023-09-10T13:38:14.612Z</time>
      </trkpt>
      <trkpt lat="46.14451" lon="6.77887">
        <ele>1569</ele>
        <time>2023-09-10T13:38:15.612Z</time>
      </trkpt>
      <trkpt lat="46.14439" lon="6.77904">
        <ele>1567.7</ele>
        <time>2023-09-10T13:38:16.612Z</time>
      </trkpt>
      <trkpt lat="46.14435" lon="6.77918">
        <ele>1568.5</ele>
        <time>2023-09-10T13:38:17.612Z</time>
      </trkpt>
      <trkpt lat="46.14432" lon="6.77962">
        <ele>1573.6</ele>
        <time>2023-09-10T13:38:18.612Z</time>
      </trkpt>
      <trkpt lat="46.1443" lon="6.77974">
        <ele>1574.6</ele>
        <time>2023-09-10T13:38:19.612Z</time>
      </trkpt>
      <trkpt lat="46.14426" lon="6.77985">
        <ele>1574.7</ele>
        <time>2023-09-10T13:38:20.612Z</time>
      </trkpt>
      <trkpt lat="46.14436" lon="6.77987">
        <ele>1579.2</ele>
        <time>2023-09-10T13:38:21.612Z</time>
      </trkpt>
      <trkpt lat="46.14442" lon="6.77978">
        <ele>1580.1</ele>
        <time>2023-09-10T13:38:22.612Z</time>
      </trkpt>
      <trkpt lat="46.14453" lon="6.77948">
        <ele>1579.9</ele>
        <time>2023-09-10T13:38:23.612Z</time>
      </trkpt>
      <trkpt lat="46.14466" lon="6.77929">
        <ele>1581.9</ele>
        <time>2023-09-10T13:38:24.612Z</time>
      </trkpt>
      <trkpt lat="46.14487" lon="6.77908">
        <ele>1584.4</ele>
        <time>2023-09-10T13:38:25.612Z</time>
      </trkpt>
      <trkpt lat="46.14504" lon="6.77897">
        <ele>1585.5</ele>
        <time>2023-09-10T13:38:26.612Z</time>
      </trkpt>
      <trkpt lat="46.14513" lon="6.77895">
        <ele>1586</ele>
        <time>2023-09-10T13:38:27.612Z</time>
      </trkpt>
      <trkpt lat="46.14522" lon="6.77895">
        <ele>1587.1</ele>
        <time>2023-09-10T13:38:28.612Z</time>
      </trkpt>
      <trkpt lat="46.14541" lon="6.77902">
        <ele>1590</ele>
        <time>2023-09-10T13:38:29.612Z</time>
      </trkpt>
      <trkpt lat="46.1455" lon="6.77907">
        <ele>1591.7</ele>
        <time>2023-09-10T13:38:30.612Z</time>
      </trkpt>
      <trkpt lat="46.14558" lon="6.77914">
        <ele>1593.7</ele>
        <time>2023-09-10T13:38:31.612Z</time>
      </trkpt>
      <trkpt lat="46.14568" lon="6.77932">
        <ele>1596.9</ele>
        <time>2023-09-10T13:38:32.612Z</time>
      </trkpt>
      <trkpt lat="46.14589" lon="6.77982">
        <ele>1606.3</ele>
        <time>2023-09-10T13:38:33.612Z</time>
      </trkpt>
      <trkpt lat="46.1459" lon="6.77991">
        <ele>1608.5</ele>
        <time>2023-09-10T13:38:34.612Z</time>
      </trkpt>
      <trkpt lat="46.14581" lon="6.77992">
        <ele>1610.2</ele>
        <time>2023-09-10T13:38:35.612Z</time>
      </trkpt>
      <trkpt lat="46.14563" lon="6.77982">
        <ele>1609.7</ele>
        <time>2023-09-10T13:38:36.612Z</time>
      </trkpt>
      <trkpt lat="46.14554" lon="6.7798">
        <ele>1609.9</ele>
        <time>2023-09-10T13:38:37.612Z</time>
      </trkpt>
      <trkpt lat="46.14544" lon="6.77982">
        <ele>1609.9</ele>
        <time>2023-09-10T13:38:38.612Z</time>
      </trkpt>
      <trkpt lat="46.14537" lon="6.77991">
        <ele>1611.6</ele>
        <time>2023-09-10T13:38:39.612Z</time>
      </trkpt>
      <trkpt lat="46.14532" lon="6.78001">
        <ele>1613.5</ele>
        <time>2023-09-10T13:38:40.612Z</time>
      </trkpt>
      <trkpt lat="46.14537" lon="6.7801">
        <ele>1615.7</ele>
        <time>2023-09-10T13:38:41.612Z</time>
      </trkpt>
      <trkpt lat="46.14587" lon="6.7806">
        <ele>1630.4</ele>
        <time>2023-09-10T13:38:42.612Z</time>
      </trkpt>
      <trkpt lat="46.14593" lon="6.78069">
        <ele>1631.3</ele>
        <time>2023-09-10T13:38:43.612Z</time>
      </trkpt>
      <trkpt lat="46.14596" lon="6.7808">
        <ele>1633.1</ele>
        <time>2023-09-10T13:38:44.612Z</time>
      </trkpt>
      <trkpt lat="46.14597" lon="6.781">
        <ele>1636.9</ele>
        <time>2023-09-10T13:38:45.612Z</time>
      </trkpt>
      <trkpt lat="46.14594" lon="6.78122">
        <ele>1642.8</ele>
        <time>2023-09-10T13:38:46.612Z</time>
      </trkpt>
      <trkpt lat="46.14598" lon="6.78141">
        <ele>1645.8</ele>
        <time>2023-09-10T13:38:47.612Z</time>
      </trkpt>
      <trkpt lat="46.14589" lon="6.78145">
        <ele>1650.6</ele>
        <time>2023-09-10T13:38:48.612Z</time>
      </trkpt>
      <trkpt lat="46.14581" lon="6.7814">
        <ele>1651.9</ele>
        <time>2023-09-10T13:38:49.612Z</time>
      </trkpt>
      <trkpt lat="46.14575" lon="6.78133">
        <ele>1651.6</ele>
        <time>2023-09-10T13:38:50.612Z</time>
      </trkpt>
      <trkpt lat="46.14571" lon="6.78123">
        <ele>1649.9</ele>
        <time>2023-09-10T13:38:51.612Z</time>
      </trkpt>
      <trkpt lat="46.14564" lon="6.78117">
        <ele>1649.8</ele>
        <time>2023-09-10T13:38:52.612Z</time>
      </trkpt>
      <trkpt lat="46.14554" lon="6.7812">
        <ele>1652.4</ele>
        <time>2023-09-10T13:38:53.612Z</time>
      </trkpt>
      <trkpt lat="46.14545" lon="6.78125">
        <ele>1653.2</ele>
        <time>2023-09-10T13:38:54.612Z</time>
      </trkpt>
      <trkpt lat="46.14542" lon="6.78134">
        <ele>1655.9</ele>
        <time>2023-09-10T13:38:55.612Z</time>
      </trkpt>
      <trkpt lat="46.14549" lon="6.78141">
        <ele>1658.3</ele>
        <time>2023-09-10T13:38:56.612Z</time>
      </trkpt>
      <trkpt lat="46.14554" lon="6.78152">
        <ele>1661.2</ele>
        <time>2023-09-10T13:38:57.612Z</time>
      </trkpt>
      <trkpt lat="46.14551" lon="6.78161">
        <ele>1663.4</ele>
        <time>2023-09-10T13:38:58.612Z</time>
      </trkpt>
      <trkpt lat="46.14542" lon="6.78164">
        <ele>1663.8</ele>
        <time>2023-09-10T13:38:59.612Z</time>
      </trkpt>
      <trkpt lat="46.14542" lon="6.78174">
        <ele>1666.4</ele>
        <time>2023-09-10T13:39:00.612Z</time>
      </trkpt>
      <trkpt lat="46.14558" lon="6.78199">
        <ele>1672.7</ele>
        <time>2023-09-10T13:39:01.612Z</time>
      </trkpt>
      <trkpt lat="46.14571" lon="6.78227">
        <ele>1677.8</ele>
        <time>2023-09-10T13:39:02.612Z</time>
      </trkpt>
      <trkpt lat="46.14577" lon="6.78236">
        <ele>1678.9</ele>
        <time>2023-09-10T13:39:03.612Z</time>
      </trkpt>
      <trkpt lat="46.1458" lon="6.78245">
        <ele>1680.4</ele>
        <time>2023-09-10T13:39:04.612Z</time>
      </trkpt>
      <trkpt lat="46.14577" lon="6.78255">
        <ele>1682.8</ele>
        <time>2023-09-10T13:39:05.612Z</time>
      </trkpt>
      <trkpt lat="46.14562" lon="6.78268">
        <ele>1687.3</ele>
        <time>2023-09-10T13:39:06.612Z</time>
      </trkpt>
      <trkpt lat="46.14558" lon="6.78296">
        <ele>1693.5</ele>
        <time>2023-09-10T13:39:07.612Z</time>
      </trkpt>
      <trkpt lat="46.14549" lon="6.78301">
        <ele>1695</ele>
        <time>2023-09-10T13:39:08.612Z</time>
      </trkpt>
      <trkpt lat="46.1454" lon="6.78297">
        <ele>1694.2</ele>
        <time>2023-09-10T13:39:09.612Z</time>
      </trkpt>
      <trkpt lat="46.14524" lon="6.78285">
        <ele>1690.3</ele>
        <time>2023-09-10T13:39:10.612Z</time>
      </trkpt>
      <trkpt lat="46.14515" lon="6.7829">
        <ele>1688.3</ele>
        <time>2023-09-10T13:39:11.612Z</time>
      </trkpt>
      <trkpt lat="46.14512" lon="6.783">
        <ele>1689.2</ele>
        <time>2023-09-10T13:39:12.612Z</time>
      </trkpt>
      <trkpt lat="46.14512" lon="6.7831">
        <ele>1691.2</ele>
        <time>2023-09-10T13:39:13.612Z</time>
      </trkpt>
      <trkpt lat="46.14516" lon="6.78319">
        <ele>1694.5</ele>
        <time>2023-09-10T13:39:14.612Z</time>
      </trkpt>
      <trkpt lat="46.14525" lon="6.78324">
        <ele>1698.9</ele>
        <time>2023-09-10T13:39:15.612Z</time>
      </trkpt>
      <trkpt lat="46.14534" lon="6.78326">
        <ele>1700.7</ele>
        <time>2023-09-10T13:39:16.612Z</time>
      </trkpt>
      <trkpt lat="46.1454" lon="6.78334">
        <ele>1703.1</ele>
        <time>2023-09-10T13:39:17.612Z</time>
      </trkpt>
      <trkpt lat="46.14542" lon="6.78385">
        <ele>1717.1</ele>
        <time>2023-09-10T13:39:18.612Z</time>
      </trkpt>
      <trkpt lat="46.14547" lon="6.78393">
        <ele>1720.2</ele>
        <time>2023-09-10T13:39:19.612Z</time>
      </trkpt>
      <trkpt lat="46.14554" lon="6.78386">
        <ele>1720.6</ele>
        <time>2023-09-10T13:39:20.612Z</time>
      </trkpt>
      <trkpt lat="46.14563" lon="6.78384">
        <ele>1719</ele>
        <time>2023-09-10T13:39:21.612Z</time>
      </trkpt>
      <trkpt lat="46.14572" lon="6.78391">
        <ele>1719.6</ele>
        <time>2023-09-10T13:39:22.612Z</time>
      </trkpt>
      <trkpt lat="46.14577" lon="6.78399">
        <ele>1721.2</ele>
        <time>2023-09-10T13:39:23.612Z</time>
      </trkpt>
      <trkpt lat="46.14586" lon="6.78419">
        <ele>1725.4</ele>
        <time>2023-09-10T13:39:24.612Z</time>
      </trkpt>
      <trkpt lat="46.14607" lon="6.78489">
        <ele>1736.1</ele>
        <time>2023-09-10T13:39:25.612Z</time>
      </trkpt>
      <trkpt lat="46.14613" lon="6.78517">
        <ele>1739.6</ele>
        <time>2023-09-10T13:39:26.612Z</time>
      </trkpt>
      <trkpt lat="46.14615" lon="6.78536">
        <ele>1741.6</ele>
        <time>2023-09-10T13:39:27.612Z</time>
      </trkpt>
      <trkpt lat="46.14616" lon="6.78576">
        <ele>1746.1</ele>
        <time>2023-09-10T13:39:28.612Z</time>
      </trkpt>
      <trkpt lat="46.14628" lon="6.78628">
        <ele>1753.1</ele>
        <time>2023-09-10T13:39:29.612Z</time>
      </trkpt>
      <trkpt lat="46.14636" lon="6.7868">
        <ele>1763.2</ele>
        <time>2023-09-10T13:39:30.612Z</time>
      </trkpt>
      <trkpt lat="46.14639" lon="6.78723">
        <ele>1769.1</ele>
        <time>2023-09-10T13:39:31.612Z</time>
      </trkpt>
      <trkpt lat="46.14644" lon="6.78755">
        <ele>1772.3</ele>
        <time>2023-09-10T13:39:32.612Z</time>
      </trkpt>
      <trkpt lat="46.14645" lon="6.78787">
        <ele>1775.6</ele>
        <time>2023-09-10T13:39:33.612Z</time>
      </trkpt>
      <trkpt lat="46.1465" lon="6.78795">
        <ele>1777.9</ele>
        <time>2023-09-10T13:39:34.612Z</time>
      </trkpt>
      <trkpt lat="46.14669" lon="6.78804">
        <ele>1783.8</ele>
        <time>2023-09-10T13:39:35.612Z</time>
      </trkpt>
      <trkpt lat="46.14677" lon="6.78811">
        <ele>1785</ele>
        <time>2023-09-10T13:39:36.612Z</time>
      </trkpt>
      <trkpt lat="46.14685" lon="6.7883">
        <ele>1789.3</ele>
        <time>2023-09-10T13:39:37.612Z</time>
      </trkpt>
      <trkpt lat="46.14688" lon="6.78848">
        <ele>1793.5</ele>
        <time>2023-09-10T13:39:38.612Z</time>
      </trkpt>
      <trkpt lat="46.14695" lon="6.78866">
        <ele>1798.2</ele>
        <time>2023-09-10T13:39:39.612Z</time>
      </trkpt>
      <trkpt lat="46.14702" lon="6.78872">
        <ele>1799.6</ele>
        <time>2023-09-10T13:39:40.612Z</time>
      </trkpt>
      <trkpt lat="46.14712" lon="6.78876">
        <ele>1800.5</ele>
        <time>2023-09-10T13:39:41.612Z</time>
      </trkpt>
      <trkpt lat="46.1472" lon="6.78883">
        <ele>1802.3</ele>
        <time>2023-09-10T13:39:42.612Z</time>
      </trkpt>
      <trkpt lat="46.14725" lon="6.78891">
        <ele>1804.8</ele>
        <time>2023-09-10T13:39:43.612Z</time>
      </trkpt>
      <trkpt lat="46.14733" lon="6.7891">
        <ele>1811.6</ele>
        <time>2023-09-10T13:39:44.612Z</time>
      </trkpt>
      <trkpt lat="46.14751" lon="6.78935">
        <ele>1821.3</ele>
        <time>2023-09-10T13:39:45.612Z</time>
      </trkpt>
      <trkpt lat="46.14775" lon="6.78951">
        <ele>1828.1</ele>
        <time>2023-09-10T13:39:46.612Z</time>
      </trkpt>
      <trkpt lat="46.14785" lon="6.78955">
        <ele>1829.1</ele>
        <time>2023-09-10T13:39:47.612Z</time>
      </trkpt>
      <trkpt lat="46.14792" lon="6.78962">
        <ele>1830.9</ele>
        <time>2023-09-10T13:39:48.612Z</time>
      </trkpt>
      <trkpt lat="46.14796" lon="6.78971">
        <ele>1833.3</ele>
        <time>2023-09-10T13:39:49.612Z</time>
      </trkpt>
      <trkpt lat="46.14797" lon="6.78981">
        <ele>1835.6</ele>
        <time>2023-09-10T13:39:50.612Z</time>
      </trkpt>
      <trkpt lat="46.14797" lon="6.78991">
        <ele>1837.9</ele>
        <time>2023-09-10T13:39:51.612Z</time>
      </trkpt>
      <trkpt lat="46.14793" lon="6.79">
        <ele>1840.4</ele>
        <time>2023-09-10T13:39:52.612Z</time>
      </trkpt>
      <trkpt lat="46.14785" lon="6.79006">
        <ele>1842.3</ele>
        <time>2023-09-10T13:39:53.612Z</time>
      </trkpt>
      <trkpt lat="46.14758" lon="6.79011">
        <ele>1847.4</ele>
        <time>2023-09-10T13:39:54.612Z</time>
      </trkpt>
      <trkpt lat="46.14753" lon="6.7902">
        <ele>1850.9</ele>
        <time>2023-09-10T13:39:55.612Z</time>
      </trkpt>
      <trkpt lat="46.14754" lon="6.79029">
        <ele>1853.5</ele>
        <time>2023-09-10T13:39:56.612Z</time>
      </trkpt>
      <trkpt lat="46.14757" lon="6.79038">
        <ele>1855.3</ele>
        <time>2023-09-10T13:39:57.612Z</time>
      </trkpt>
      <trkpt lat="46.14766" lon="6.79055">
        <ele>1857.8</ele>
        <time>2023-09-10T13:39:58.612Z</time>
      </trkpt>
      <trkpt lat="46.14773" lon="6.79075">
        <ele>1862.8</ele>
        <time>2023-09-10T13:39:59.612Z</time>
      </trkpt>
      <trkpt lat="46.14778" lon="6.79083">
        <ele>1864.9</ele>
        <time>2023-09-10T13:40:00.612Z</time>
      </trkpt>
      <trkpt lat="46.14794" lon="6.79094">
        <ele>1867.2</ele>
        <time>2023-09-10T13:40:01.612Z</time>
      </trkpt>
      <trkpt lat="46.14808" lon="6.79109">
        <ele>1871.7</ele>
        <time>2023-09-10T13:40:02.612Z</time>
      </trkpt>
      <trkpt lat="46.14813" lon="6.79118">
        <ele>1873.5</ele>
        <time>2023-09-10T13:40:03.612Z</time>
      </trkpt>
      <trkpt lat="46.14823" lon="6.79147">
        <ele>1879.4</ele>
        <time>2023-09-10T13:40:04.612Z</time>
      </trkpt>
      <trkpt lat="46.14843" lon="6.79168">
        <ele>1883</ele>
        <time>2023-09-10T13:40:05.612Z</time>
      </trkpt>
      <trkpt lat="46.14861" lon="6.79193">
        <ele>1887.6</ele>
        <time>2023-09-10T13:40:06.612Z</time>
      </trkpt>
      <trkpt lat="46.1487" lon="6.79197">
        <ele>1889.8</ele>
        <time>2023-09-10T13:40:07.612Z</time>
      </trkpt>
      <trkpt lat="46.1488" lon="6.79198">
        <ele>1891.1</ele>
        <time>2023-09-10T13:40:08.612Z</time>
      </trkpt>
      <trkpt lat="46.14893" lon="6.79212">
        <ele>1895.5</ele>
        <time>2023-09-10T13:40:09.612Z</time>
      </trkpt>
      <trkpt lat="46.14903" lon="6.79217">
        <ele>1896.1</ele>
        <time>2023-09-10T13:40:10.612Z</time>
      </trkpt>
      <trkpt lat="46.1491" lon="6.79225">
        <ele>1898.5</ele>
        <time>2023-09-10T13:40:11.612Z</time>
      </trkpt>
      <trkpt lat="46.14921" lon="6.79242">
        <ele>1903.5</ele>
        <time>2023-09-10T13:40:12.612Z</time>
      </trkpt>
      <trkpt lat="46.14935" lon="6.79255">
        <ele>1904.7</ele>
        <time>2023-09-10T13:40:13.612Z</time>
      </trkpt>
      <trkpt lat="46.14943" lon="6.7926">
        <ele>1904.2</ele>
        <time>2023-09-10T13:40:14.612Z</time>
      </trkpt>
      <trkpt lat="46.14952" lon="6.79262">
        <ele>1904.6</ele>
        <time>2023-09-10T13:40:15.612Z</time>
      </trkpt>
      <trkpt lat="46.14971" lon="6.79263">
        <ele>1905.4</ele>
        <time>2023-09-10T13:40:16.612Z</time>
      </trkpt>
      <trkpt lat="46.15009" lon="6.79272">
        <ele>1915.1</ele>
        <time>2023-09-10T13:40:17.612Z</time>
      </trkpt>
      <trkpt lat="46.15017" lon="6.79278">
        <ele>1918.4</ele>
        <time>2023-09-10T13:40:18.612Z</time>
      </trkpt>
      <trkpt lat="46.15023" lon="6.79285">
        <ele>1918.5</ele>
        <time>2023-09-10T13:40:19.612Z</time>
      </trkpt>
      <trkpt lat="46.15021" lon="6.793">
        <ele>1917</ele>
        <time>2023-09-10T13:40:20.612Z</time>
      </trkpt>
      <trkpt lat="46.15017" lon="6.7931">
        <ele>1915.6</ele>
        <time>2023-09-10T13:40:21.612Z</time>
      </trkpt>
      <trkpt lat="46.14968" lon="6.79357">
        <ele>1909.3</ele>
        <time>2023-09-10T13:40:22.612Z</time>
      </trkpt>
      <trkpt lat="46.14954" lon="6.79377">
        <ele>1905.7</ele>
        <time>2023-09-10T13:40:23.612Z</time>
      </trkpt>
      <trkpt lat="46.1495" lon="6.79391">
        <ele>1902.7</ele>
        <time>2023-09-10T13:40:24.612Z</time>
      </trkpt>
      <trkpt lat="46.14947" lon="6.79418">
        <ele>1900.3</ele>
        <time>2023-09-10T13:40:25.612Z</time>
      </trkpt>
      <trkpt lat="46.14949" lon="6.79445">
        <ele>1897.5</ele>
        <time>2023-09-10T13:40:26.612Z</time>
      </trkpt>
      <trkpt lat="46.14955" lon="6.79478">
        <ele>1893.7</ele>
        <time>2023-09-10T13:40:27.612Z</time>
      </trkpt>
      <trkpt lat="46.14956" lon="6.79503">
        <ele>1888.1</ele>
        <time>2023-09-10T13:40:28.612Z</time>
      </trkpt>
      <trkpt lat="46.14966" lon="6.79507">
        <ele>1884.3</ele>
        <time>2023-09-10T13:40:29.612Z</time>
      </trkpt>
      <trkpt lat="46.14976" lon="6.79498">
        <ele>1884.1</ele>
        <time>2023-09-10T13:40:30.612Z</time>
      </trkpt>
      <trkpt lat="46.1499" lon="6.7948">
        <ele>1881.6</ele>
        <time>2023-09-10T13:40:31.612Z</time>
      </trkpt>
      <trkpt lat="46.14999" lon="6.79473">
        <ele>1879.3</ele>
        <time>2023-09-10T13:40:32.612Z</time>
      </trkpt>
      <trkpt lat="46.1501" lon="6.79477">
        <ele>1875.8</ele>
        <time>2023-09-10T13:40:33.612Z</time>
      </trkpt>
      <trkpt lat="46.15015" lon="6.7949">
        <ele>1873.7</ele>
        <time>2023-09-10T13:40:34.612Z</time>
      </trkpt>
      <trkpt lat="46.15012" lon="6.79516">
        <ele>1871.3</ele>
        <time>2023-09-10T13:40:35.612Z</time>
      </trkpt>
      <trkpt lat="46.15007" lon="6.7953">
        <ele>1870</ele>
        <time>2023-09-10T13:40:36.612Z</time>
      </trkpt>
      <trkpt lat="46.15001" lon="6.7954">
        <ele>1871.6</ele>
        <time>2023-09-10T13:40:37.612Z</time>
      </trkpt>
      <trkpt lat="46.14999" lon="6.79549">
        <ele>1872.8</ele>
        <time>2023-09-10T13:40:38.612Z</time>
      </trkpt>
      <trkpt lat="46.15009" lon="6.79554">
        <ele>1869.5</ele>
        <time>2023-09-10T13:40:39.612Z</time>
      </trkpt>
      <trkpt lat="46.15018" lon="6.79562">
        <ele>1866.2</ele>
        <time>2023-09-10T13:40:40.612Z</time>
      </trkpt>
      <trkpt lat="46.15027" lon="6.79583">
        <ele>1865.2</ele>
        <time>2023-09-10T13:40:41.612Z</time>
      </trkpt>
      <trkpt lat="46.15036" lon="6.79587">
        <ele>1863.6</ele>
        <time>2023-09-10T13:40:42.612Z</time>
      </trkpt>
      <trkpt lat="46.15047" lon="6.79583">
        <ele>1861.5</ele>
        <time>2023-09-10T13:40:43.612Z</time>
      </trkpt>
      <trkpt lat="46.15056" lon="6.79586">
        <ele>1860</ele>
        <time>2023-09-10T13:40:44.612Z</time>
      </trkpt>
      <trkpt lat="46.15067" lon="6.79603">
        <ele>1859.2</ele>
        <time>2023-09-10T13:40:45.612Z</time>
      </trkpt>
      <trkpt lat="46.15089" lon="6.79609">
        <ele>1855.6</ele>
        <time>2023-09-10T13:40:46.612Z</time>
      </trkpt>
      <trkpt lat="46.15095" lon="6.79616">
        <ele>1853.1</ele>
        <time>2023-09-10T13:40:47.612Z</time>
      </trkpt>
      <trkpt lat="46.15098" lon="6.79629">
        <ele>1850.8</ele>
        <time>2023-09-10T13:40:48.612Z</time>
      </trkpt>
      <trkpt lat="46.15096" lon="6.79655">
        <ele>1850.8</ele>
        <time>2023-09-10T13:40:49.612Z</time>
      </trkpt>
      <trkpt lat="46.15101" lon="6.79665">
        <ele>1848.1</ele>
        <time>2023-09-10T13:40:50.612Z</time>
      </trkpt>
      <trkpt lat="46.15129" lon="6.79698">
        <ele>1843.1</ele>
        <time>2023-09-10T13:40:51.612Z</time>
      </trkpt>
      <trkpt lat="46.15139" lon="6.79699">
        <ele>1839.5</ele>
        <time>2023-09-10T13:40:52.612Z</time>
      </trkpt>
      <trkpt lat="46.15144" lon="6.7969">
        <ele>1837.2</ele>
        <time>2023-09-10T13:40:53.612Z</time>
      </trkpt>
      <trkpt lat="46.15148" lon="6.79676">
        <ele>1835.1</ele>
        <time>2023-09-10T13:40:54.612Z</time>
      </trkpt>
      <trkpt lat="46.15154" lon="6.79663">
        <ele>1833.6</ele>
        <time>2023-09-10T13:40:55.612Z</time>
      </trkpt>
      <trkpt lat="46.15165" lon="6.79653">
        <ele>1831.2</ele>
        <time>2023-09-10T13:40:56.612Z</time>
      </trkpt>
      <trkpt lat="46.15177" lon="6.79652">
        <ele>1828.5</ele>
        <time>2023-09-10T13:40:57.612Z</time>
      </trkpt>
      <trkpt lat="46.15182" lon="6.79661">
        <ele>1828.1</ele>
        <time>2023-09-10T13:40:58.612Z</time>
      </trkpt>
      <trkpt lat="46.15194" lon="6.79655">
        <ele>1824.7</ele>
        <time>2023-09-10T13:40:59.612Z</time>
      </trkpt>
      <trkpt lat="46.15202" lon="6.79647">
        <ele>1822.3</ele>
        <time>2023-09-10T13:41:00.612Z</time>
      </trkpt>
      <trkpt lat="46.15214" lon="6.79648">
        <ele>1819.2</ele>
        <time>2023-09-10T13:41:01.612Z</time>
      </trkpt>
      <trkpt lat="46.15221" lon="6.79655">
        <ele>1817.3</ele>
        <time>2023-09-10T13:41:02.612Z</time>
      </trkpt>
      <trkpt lat="46.1523" lon="6.79654">
        <ele>1814.9</ele>
        <time>2023-09-10T13:41:03.612Z</time>
      </trkpt>
      <trkpt lat="46.15231" lon="6.79643">
        <ele>1814.5</ele>
        <time>2023-09-10T13:41:04.612Z</time>
      </trkpt>
      <trkpt lat="46.15239" lon="6.79637">
        <ele>1811.6</ele>
        <time>2023-09-10T13:41:05.612Z</time>
      </trkpt>
      <trkpt lat="46.15248" lon="6.79641">
        <ele>1809.6</ele>
        <time>2023-09-10T13:41:06.612Z</time>
      </trkpt>
      <trkpt lat="46.15257" lon="6.7965">
        <ele>1805.7</ele>
        <time>2023-09-10T13:41:07.612Z</time>
      </trkpt>
      <trkpt lat="46.15266" lon="6.79664">
        <ele>1802.3</ele>
        <time>2023-09-10T13:41:08.612Z</time>
      </trkpt>
      <trkpt lat="46.15269" lon="6.79675">
        <ele>1800.7</ele>
        <time>2023-09-10T13:41:09.612Z</time>
      </trkpt>
      <trkpt lat="46.15269" lon="6.79685">
        <ele>1800.2</ele>
        <time>2023-09-10T13:41:10.612Z</time>
      </trkpt>
      <trkpt lat="46.15283" lon="6.79667">
        <ele>1793.2</ele>
        <time>2023-09-10T13:41:11.612Z</time>
      </trkpt>
      <trkpt lat="46.15288" lon="6.7968">
        <ele>1789.7</ele>
        <time>2023-09-10T13:41:12.612Z</time>
      </trkpt>
      <trkpt lat="46.1529" lon="6.79702">
        <ele>1787.1</ele>
        <time>2023-09-10T13:41:13.612Z</time>
      </trkpt>
      <trkpt lat="46.15288" lon="6.79714">
        <ele>1785.9</ele>
        <time>2023-09-10T13:41:14.612Z</time>
      </trkpt>
      <trkpt lat="46.15284" lon="6.79724">
        <ele>1785.8</ele>
        <time>2023-09-10T13:41:15.612Z</time>
      </trkpt>
      <trkpt lat="46.15294" lon="6.79724">
        <ele>1781.2</ele>
        <time>2023-09-10T13:41:16.612Z</time>
      </trkpt>
      <trkpt lat="46.15305" lon="6.79706">
        <ele>1778.1</ele>
        <time>2023-09-10T13:41:17.612Z</time>
      </trkpt>
      <trkpt lat="46.15312" lon="6.79716">
        <ele>1773.3</ele>
        <time>2023-09-10T13:41:18.612Z</time>
      </trkpt>
      <trkpt lat="46.15312" lon="6.79744">
        <ele>1771.7</ele>
        <time>2023-09-10T13:41:19.612Z</time>
      </trkpt>
      <trkpt lat="46.15315" lon="6.79753">
        <ele>1770.6</ele>
        <time>2023-09-10T13:41:20.612Z</time>
      </trkpt>
      <trkpt lat="46.15325" lon="6.79744">
        <ele>1767.7</ele>
        <time>2023-09-10T13:41:21.612Z</time>
      </trkpt>
      <trkpt lat="46.15331" lon="6.79726">
        <ele>1763.6</ele>
        <time>2023-09-10T13:41:22.612Z</time>
      </trkpt>
      <trkpt lat="46.15335" lon="6.79707">
        <ele>1762</ele>
        <time>2023-09-10T13:41:23.612Z</time>
      </trkpt>
      <trkpt lat="46.1534" lon="6.79698">
        <ele>1762.1</ele>
        <time>2023-09-10T13:41:24.612Z</time>
      </trkpt>
      <trkpt lat="46.15358" lon="6.79707">
        <ele>1761.3</ele>
        <time>2023-09-10T13:41:25.612Z</time>
      </trkpt>
      <trkpt lat="46.15383" lon="6.79726">
        <ele>1758</ele>
        <time>2023-09-10T13:41:26.612Z</time>
      </trkpt>
      <trkpt lat="46.15427" lon="6.79742">
        <ele>1751.3</ele>
        <time>2023-09-10T13:41:27.612Z</time>
      </trkpt>
      <trkpt lat="46.15436" lon="6.79744">
        <ele>1749.8</ele>
        <time>2023-09-10T13:41:28.612Z</time>
      </trkpt>
      <trkpt lat="46.15459" lon="6.79742">
        <ele>1748.2</ele>
        <time>2023-09-10T13:41:29.612Z</time>
      </trkpt>
      <trkpt lat="46.15478" lon="6.79743">
        <ele>1745.5</ele>
        <time>2023-09-10T13:41:30.612Z</time>
      </trkpt>
      <trkpt lat="46.15506" lon="6.79747">
        <ele>1740.4</ele>
        <time>2023-09-10T13:41:31.612Z</time>
      </trkpt>
      <trkpt lat="46.15517" lon="6.79751">
        <ele>1739.3</ele>
        <time>2023-09-10T13:41:32.612Z</time>
      </trkpt>
      <trkpt lat="46.15524" lon="6.79758">
        <ele>1738</ele>
        <time>2023-09-10T13:41:33.612Z</time>
      </trkpt>
      <trkpt lat="46.15539" lon="6.79779">
        <ele>1733.7</ele>
        <time>2023-09-10T13:41:34.612Z</time>
      </trkpt>
      <trkpt lat="46.15571" lon="6.79829">
        <ele>1721.3</ele>
        <time>2023-09-10T13:41:35.612Z</time>
      </trkpt>
      <trkpt lat="46.15575" lon="6.79838">
        <ele>1719.3</ele>
        <time>2023-09-10T13:41:36.612Z</time>
      </trkpt>
      <trkpt lat="46.1557" lon="6.79856">
        <ele>1715.6</ele>
        <time>2023-09-10T13:41:37.612Z</time>
      </trkpt>
      <trkpt lat="46.15577" lon="6.79866">
        <ele>1713</ele>
        <time>2023-09-10T13:41:38.612Z</time>
      </trkpt>
      <trkpt lat="46.15606" lon="6.79881">
        <ele>1706</ele>
        <time>2023-09-10T13:41:39.612Z</time>
      </trkpt>
      <trkpt lat="46.15613" lon="6.7989">
        <ele>1704</ele>
        <time>2023-09-10T13:41:40.612Z</time>
      </trkpt>
      <trkpt lat="46.15616" lon="6.79904">
        <ele>1701</ele>
        <time>2023-09-10T13:41:41.612Z</time>
      </trkpt>
      <trkpt lat="46.15614" lon="6.7993">
        <ele>1697.4</ele>
        <time>2023-09-10T13:41:42.612Z</time>
      </trkpt>
      <trkpt lat="46.15619" lon="6.79939">
        <ele>1694.8</ele>
        <time>2023-09-10T13:41:43.612Z</time>
      </trkpt>
      <trkpt lat="46.15622" lon="6.79949">
        <ele>1692.4</ele>
        <time>2023-09-10T13:41:44.612Z</time>
      </trkpt>
      <trkpt lat="46.15619" lon="6.79958">
        <ele>1690.8</ele>
        <time>2023-09-10T13:41:45.612Z</time>
      </trkpt>
      <trkpt lat="46.15613" lon="6.79965">
        <ele>1690.2</ele>
        <time>2023-09-10T13:41:46.612Z</time>
      </trkpt>
      <trkpt lat="46.15613" lon="6.79974">
        <ele>1688</ele>
        <time>2023-09-10T13:41:47.612Z</time>
      </trkpt>
      <trkpt lat="46.15622" lon="6.79977">
        <ele>1685.5</ele>
        <time>2023-09-10T13:41:48.612Z</time>
      </trkpt>
      <trkpt lat="46.15633" lon="6.79977">
        <ele>1683.6</ele>
        <time>2023-09-10T13:41:49.612Z</time>
      </trkpt>
      <trkpt lat="46.15646" lon="6.79975">
        <ele>1681.2</ele>
        <time>2023-09-10T13:41:50.612Z</time>
      </trkpt>
      <trkpt lat="46.15657" lon="6.79969">
        <ele>1678.9</ele>
        <time>2023-09-10T13:41:51.612Z</time>
      </trkpt>
      <trkpt lat="46.15664" lon="6.79961">
        <ele>1676.3</ele>
        <time>2023-09-10T13:41:52.612Z</time>
      </trkpt>
      <trkpt lat="46.1567" lon="6.79936">
        <ele>1674.8</ele>
        <time>2023-09-10T13:41:53.612Z</time>
      </trkpt>
      <trkpt lat="46.15681" lon="6.79931">
        <ele>1674.4</ele>
        <time>2023-09-10T13:41:54.612Z</time>
      </trkpt>
      <trkpt lat="46.15724" lon="6.79959">
        <ele>1664.9</ele>
        <time>2023-09-10T13:41:55.612Z</time>
      </trkpt>
      <trkpt lat="46.15761" lon="6.79994">
        <ele>1658.3</ele>
        <time>2023-09-10T13:41:56.612Z</time>
      </trkpt>
      <trkpt lat="46.1578" lon="6.80018">
        <ele>1654.9</ele>
        <time>2023-09-10T13:41:57.612Z</time>
      </trkpt>
      <trkpt lat="46.15788" lon="6.8003">
        <ele>1653.4</ele>
        <time>2023-09-10T13:41:58.612Z</time>
      </trkpt>
      <trkpt lat="46.15794" lon="6.80043">
        <ele>1652.2</ele>
        <time>2023-09-10T13:41:59.612Z</time>
      </trkpt>
      <trkpt lat="46.15802" lon="6.80068">
        <ele>1649.1</ele>
        <time>2023-09-10T13:42:00.612Z</time>
      </trkpt>
      <trkpt lat="46.15807" lon="6.80091">
        <ele>1646.2</ele>
        <time>2023-09-10T13:42:01.612Z</time>
      </trkpt>
      <trkpt lat="46.15814" lon="6.80099">
        <ele>1646.6</ele>
        <time>2023-09-10T13:42:02.612Z</time>
      </trkpt>
      <trkpt lat="46.15822" lon="6.80105">
        <ele>1647.4</ele>
        <time>2023-09-10T13:42:03.612Z</time>
      </trkpt>
      <trkpt lat="46.15836" lon="6.80121">
        <ele>1648.1</ele>
        <time>2023-09-10T13:42:04.612Z</time>
      </trkpt>
      <trkpt lat="46.15866" lon="6.80165">
        <ele>1649.8</ele>
        <time>2023-09-10T13:42:05.612Z</time>
      </trkpt>
      <trkpt lat="46.15894" lon="6.80214">
        <ele>1654.6</ele>
        <time>2023-09-10T13:42:06.612Z</time>
      </trkpt>
      <trkpt lat="46.15903" lon="6.80221">
        <ele>1654.6</ele>
        <time>2023-09-10T13:42:07.612Z</time>
      </trkpt>
      <trkpt lat="46.15934" lon="6.80219">
        <ele>1656.9</ele>
        <time>2023-09-10T13:42:08.612Z</time>
      </trkpt>
      <trkpt lat="46.15945" lon="6.8022">
        <ele>1657.6</ele>
        <time>2023-09-10T13:42:09.612Z</time>
      </trkpt>
      <trkpt lat="46.15962" lon="6.80231">
        <ele>1659</ele>
        <time>2023-09-10T13:42:10.612Z</time>
      </trkpt>
      <trkpt lat="46.15973" lon="6.80236">
        <ele>1660.2</ele>
        <time>2023-09-10T13:42:11.612Z</time>
      </trkpt>
      <trkpt lat="46.15993" lon="6.8024">
        <ele>1664.1</ele>
        <time>2023-09-10T13:42:12.612Z</time>
      </trkpt>
      <trkpt lat="46.16004" lon="6.80244">
        <ele>1665.4</ele>
        <time>2023-09-10T13:42:13.612Z</time>
      </trkpt>
      <trkpt lat="46.16012" lon="6.80249">
        <ele>1665.4</ele>
        <time>2023-09-10T13:42:14.612Z</time>
      </trkpt>
      <trkpt lat="46.16023" lon="6.8025">
        <ele>1667.1</ele>
        <time>2023-09-10T13:42:15.612Z</time>
      </trkpt>
      <trkpt lat="46.16049" lon="6.8022">
        <ele>1673.4</ele>
        <time>2023-09-10T13:42:16.612Z</time>
      </trkpt>
      <trkpt lat="46.16081" lon="6.80194">
        <ele>1675.7</ele>
        <time>2023-09-10T13:42:17.612Z</time>
      </trkpt>
      <trkpt lat="46.16101" lon="6.80188">
        <ele>1676.2</ele>
        <time>2023-09-10T13:42:18.612Z</time>
      </trkpt>
      <trkpt lat="46.16136" lon="6.80188">
        <ele>1677.6</ele>
        <time>2023-09-10T13:42:19.612Z</time>
      </trkpt>
      <trkpt lat="46.16146" lon="6.8019">
        <ele>1678.6</ele>
        <time>2023-09-10T13:42:20.612Z</time>
      </trkpt>
      <trkpt lat="46.16156" lon="6.80195">
        <ele>1678.9</ele>
        <time>2023-09-10T13:42:21.612Z</time>
      </trkpt>
      <trkpt lat="46.16174" lon="6.80207">
        <ele>1680.5</ele>
        <time>2023-09-10T13:42:22.612Z</time>
      </trkpt>
      <trkpt lat="46.16189" lon="6.80226">
        <ele>1681</ele>
        <time>2023-09-10T13:42:23.612Z</time>
      </trkpt>
      <trkpt lat="46.16213" lon="6.80247">
        <ele>1680.3</ele>
        <time>2023-09-10T13:42:24.612Z</time>
      </trkpt>
      <trkpt lat="46.16231" lon="6.8026">
        <ele>1680.4</ele>
        <time>2023-09-10T13:42:25.612Z</time>
      </trkpt>
      <trkpt lat="46.1624" lon="6.80269">
        <ele>1680.4</ele>
        <time>2023-09-10T13:42:26.612Z</time>
      </trkpt>
      <trkpt lat="46.16283" lon="6.80335">
        <ele>1676.8</ele>
        <time>2023-09-10T13:42:27.612Z</time>
      </trkpt>
      <trkpt lat="46.16294" lon="6.80348">
        <ele>1676</ele>
        <time>2023-09-10T13:42:28.612Z</time>
      </trkpt>
      <trkpt lat="46.16318" lon="6.80371">
        <ele>1675.1</ele>
        <time>2023-09-10T13:42:29.612Z</time>
      </trkpt>
      <trkpt lat="46.16329" lon="6.80387">
        <ele>1674.3</ele>
        <time>2023-09-10T13:42:30.612Z</time>
      </trkpt>
      <trkpt lat="46.16343" lon="6.80419">
        <ele>1674</ele>
        <time>2023-09-10T13:42:31.612Z</time>
      </trkpt>
      <trkpt lat="46.16355" lon="6.80438">
        <ele>1675.1</ele>
        <time>2023-09-10T13:42:32.612Z</time>
      </trkpt>
      <trkpt lat="46.1636" lon="6.80449">
        <ele>1676.4</ele>
        <time>2023-09-10T13:42:33.612Z</time>
      </trkpt>
      <trkpt lat="46.16364" lon="6.80472">
        <ele>1677.2</ele>
        <time>2023-09-10T13:42:34.612Z</time>
      </trkpt>
      <trkpt lat="46.1637" lon="6.80494">
        <ele>1677.7</ele>
        <time>2023-09-10T13:42:35.612Z</time>
      </trkpt>
      <trkpt lat="46.16378" lon="6.80514">
        <ele>1679.1</ele>
        <time>2023-09-10T13:42:36.612Z</time>
      </trkpt>
      <trkpt lat="46.16386" lon="6.80543">
        <ele>1679.9</ele>
        <time>2023-09-10T13:42:37.612Z</time>
      </trkpt>
      <trkpt lat="46.16399" lon="6.8057">
        <ele>1683.1</ele>
        <time>2023-09-10T13:42:38.612Z</time>
      </trkpt>
      <trkpt lat="46.16402" lon="6.8058">
        <ele>1683.1</ele>
        <time>2023-09-10T13:42:39.612Z</time>
      </trkpt>
      <trkpt lat="46.16403" lon="6.80602">
        <ele>1685.5</ele>
        <time>2023-09-10T13:42:40.612Z</time>
      </trkpt>
      <trkpt lat="46.16401" lon="6.80622">
        <ele>1686.2</ele>
        <time>2023-09-10T13:42:41.612Z</time>
      </trkpt>
      <trkpt lat="46.16401" lon="6.80658">
        <ele>1687.3</ele>
        <time>2023-09-10T13:42:42.612Z</time>
      </trkpt>
      <trkpt lat="46.16411" lon="6.80704">
        <ele>1692.8</ele>
        <time>2023-09-10T13:42:43.612Z</time>
      </trkpt>
      <trkpt lat="46.16403" lon="6.80726">
        <ele>1694.1</ele>
        <time>2023-09-10T13:42:44.612Z</time>
      </trkpt>
      <trkpt lat="46.16401" lon="6.80738">
        <ele>1693.7</ele>
        <time>2023-09-10T13:42:45.612Z</time>
      </trkpt>
      <trkpt lat="46.16404" lon="6.80762">
        <ele>1693.4</ele>
        <time>2023-09-10T13:42:46.612Z</time>
      </trkpt>
      <trkpt lat="46.16418" lon="6.80793">
        <ele>1699.1</ele>
        <time>2023-09-10T13:42:47.612Z</time>
      </trkpt>
      <trkpt lat="46.16414" lon="6.80804">
        <ele>1699</ele>
        <time>2023-09-10T13:42:48.612Z</time>
      </trkpt>
      <trkpt lat="46.16394" lon="6.80831">
        <ele>1699</ele>
        <time>2023-09-10T13:42:49.612Z</time>
      </trkpt>
      <trkpt lat="46.16392" lon="6.8084">
        <ele>1699</ele>
        <time>2023-09-10T13:42:50.612Z</time>
      </trkpt>
      <trkpt lat="46.16394" lon="6.80863">
        <ele>1701.8</ele>
        <time>2023-09-10T13:42:51.612Z</time>
      </trkpt>
      <trkpt lat="46.16393" lon="6.80881">
        <ele>1703.2</ele>
        <time>2023-09-10T13:42:52.612Z</time>
      </trkpt>
      <trkpt lat="46.16396" lon="6.80902">
        <ele>1704.5</ele>
        <time>2023-09-10T13:42:53.612Z</time>
      </trkpt>
      <trkpt lat="46.16407" lon="6.80931">
        <ele>1709</ele>
        <time>2023-09-10T13:42:54.612Z</time>
      </trkpt>
      <trkpt lat="46.16411" lon="6.80978">
        <ele>1710.7</ele>
        <time>2023-09-10T13:42:55.612Z</time>
      </trkpt>
      <trkpt lat="46.16413" lon="6.80987">
        <ele>1711.1</ele>
        <time>2023-09-10T13:42:56.612Z</time>
      </trkpt>
      <trkpt lat="46.16428" lon="6.81021">
        <ele>1715.5</ele>
        <time>2023-09-10T13:42:57.612Z</time>
      </trkpt>
      <trkpt lat="46.1643" lon="6.81033">
        <ele>1715.7</ele>
        <time>2023-09-10T13:42:58.612Z</time>
      </trkpt>
      <trkpt lat="46.16434" lon="6.81077">
        <ele>1717.7</ele>
        <time>2023-09-10T13:42:59.612Z</time>
      </trkpt>
      <trkpt lat="46.16433" lon="6.81089">
        <ele>1718.2</ele>
        <time>2023-09-10T13:43:00.612Z</time>
      </trkpt>
      <trkpt lat="46.16424" lon="6.81109">
        <ele>1719</ele>
        <time>2023-09-10T13:43:01.612Z</time>
      </trkpt>
      <trkpt lat="46.16423" lon="6.81121">
        <ele>1719.8</ele>
        <time>2023-09-10T13:43:02.612Z</time>
      </trkpt>
      <trkpt lat="46.16426" lon="6.81143">
        <ele>1721.2</ele>
        <time>2023-09-10T13:43:03.612Z</time>
      </trkpt>
      <trkpt lat="46.16432" lon="6.81162">
        <ele>1721.8</ele>
        <time>2023-09-10T13:43:04.612Z</time>
      </trkpt>
      <trkpt lat="46.16438" lon="6.81171">
        <ele>1722.2</ele>
        <time>2023-09-10T13:43:05.612Z</time>
      </trkpt>
      <trkpt lat="46.16484" lon="6.81206">
        <ele>1725.2</ele>
        <time>2023-09-10T13:43:06.612Z</time>
      </trkpt>
      <trkpt lat="46.16494" lon="6.81211">
        <ele>1726.2</ele>
        <time>2023-09-10T13:43:07.612Z</time>
      </trkpt>
      <trkpt lat="46.16505" lon="6.81213">
        <ele>1727.2</ele>
        <time>2023-09-10T13:43:08.612Z</time>
      </trkpt>
      <trkpt lat="46.16538" lon="6.81213">
        <ele>1729.6</ele>
        <time>2023-09-10T13:43:09.612Z</time>
      </trkpt>
      <trkpt lat="46.16548" lon="6.8122">
        <ele>1729.6</ele>
        <time>2023-09-10T13:43:10.612Z</time>
      </trkpt>
      <trkpt lat="46.16559" lon="6.81236">
        <ele>1731.2</ele>
        <time>2023-09-10T13:43:11.612Z</time>
      </trkpt>
      <trkpt lat="46.16571" lon="6.81269">
        <ele>1732</ele>
        <time>2023-09-10T13:43:12.612Z</time>
      </trkpt>
      <trkpt lat="46.16587" lon="6.81287">
        <ele>1733.2</ele>
        <time>2023-09-10T13:43:13.612Z</time>
      </trkpt>
      <trkpt lat="46.16606" lon="6.81304">
        <ele>1733.1</ele>
        <time>2023-09-10T13:43:14.612Z</time>
      </trkpt>
      <trkpt lat="46.16609" lon="6.81314">
        <ele>1734.6</ele>
        <time>2023-09-10T13:43:15.612Z</time>
      </trkpt>
      <trkpt lat="46.16607" lon="6.81324">
        <ele>1735.3</ele>
        <time>2023-09-10T13:43:16.612Z</time>
      </trkpt>
      <trkpt lat="46.16599" lon="6.81342">
        <ele>1734.2</ele>
        <time>2023-09-10T13:43:17.612Z</time>
      </trkpt>
      <trkpt lat="46.16597" lon="6.81352">
        <ele>1734.3</ele>
        <time>2023-09-10T13:43:18.612Z</time>
      </trkpt>
      <trkpt lat="46.16601" lon="6.81387">
        <ele>1735.2</ele>
        <time>2023-09-10T13:43:19.612Z</time>
      </trkpt>
      <trkpt lat="46.16596" lon="6.81409">
        <ele>1737</ele>
        <time>2023-09-10T13:43:20.612Z</time>
      </trkpt>
      <trkpt lat="46.16592" lon="6.81419">
        <ele>1737.4</ele>
        <time>2023-09-10T13:43:21.612Z</time>
      </trkpt>
      <trkpt lat="46.16591" lon="6.81428">
        <ele>1736.5</ele>
        <time>2023-09-10T13:43:22.612Z</time>
      </trkpt>
      <trkpt lat="46.16595" lon="6.81437">
        <ele>1736.1</ele>
        <time>2023-09-10T13:43:23.612Z</time>
      </trkpt>
      <trkpt lat="46.1661" lon="6.81448">
        <ele>1736.3</ele>
        <time>2023-09-10T13:43:24.612Z</time>
      </trkpt>
      <trkpt lat="46.16614" lon="6.81461">
        <ele>1738.6</ele>
        <time>2023-09-10T13:43:25.612Z</time>
      </trkpt>
      <trkpt lat="46.16605" lon="6.81481">
        <ele>1738.2</ele>
        <time>2023-09-10T13:43:26.612Z</time>
      </trkpt>
      <trkpt lat="46.16605" lon="6.81491">
        <ele>1739.3</ele>
        <time>2023-09-10T13:43:27.612Z</time>
      </trkpt>
      <trkpt lat="46.16611" lon="6.81512">
        <ele>1740.6</ele>
        <time>2023-09-10T13:43:28.612Z</time>
      </trkpt>
      <trkpt lat="46.16617" lon="6.81521">
        <ele>1741.4</ele>
        <time>2023-09-10T13:43:29.612Z</time>
      </trkpt>
      <trkpt lat="46.16624" lon="6.81528">
        <ele>1741.9</ele>
        <time>2023-09-10T13:43:30.612Z</time>
      </trkpt>
      <trkpt lat="46.16629" lon="6.81539">
        <ele>1744</ele>
        <time>2023-09-10T13:43:31.612Z</time>
      </trkpt>
      <trkpt lat="46.16624" lon="6.81568">
        <ele>1744.7</ele>
        <time>2023-09-10T13:43:32.612Z</time>
      </trkpt>
      <trkpt lat="46.16627" lon="6.81578">
        <ele>1745.5</ele>
        <time>2023-09-10T13:43:33.612Z</time>
      </trkpt>
      <trkpt lat="46.16635" lon="6.81586">
        <ele>1746.8</ele>
        <time>2023-09-10T13:43:34.612Z</time>
      </trkpt>
      <trkpt lat="46.16653" lon="6.81594">
        <ele>1747.3</ele>
        <time>2023-09-10T13:43:35.612Z</time>
      </trkpt>
      <trkpt lat="46.16662" lon="6.81593">
        <ele>1748</ele>
        <time>2023-09-10T13:43:36.612Z</time>
      </trkpt>
      <trkpt lat="46.1668" lon="6.81585">
        <ele>1749</ele>
        <time>2023-09-10T13:43:37.612Z</time>
      </trkpt>
      <trkpt lat="46.16687" lon="6.81579">
        <ele>1749</ele>
        <time>2023-09-10T13:43:38.612Z</time>
      </trkpt>
      <trkpt lat="46.16692" lon="6.8157">
        <ele>1749.6</ele>
        <time>2023-09-10T13:43:39.612Z</time>
      </trkpt>
      <trkpt lat="46.16707" lon="6.81494">
        <ele>1757.4</ele>
        <time>2023-09-10T13:43:40.612Z</time>
      </trkpt>
      <trkpt lat="46.16707" lon="6.81474">
        <ele>1759.6</ele>
        <time>2023-09-10T13:43:41.612Z</time>
      </trkpt>
      <trkpt lat="46.16711" lon="6.81445">
        <ele>1761.3</ele>
        <time>2023-09-10T13:43:42.612Z</time>
      </trkpt>
      <trkpt lat="46.16707" lon="6.81405">
        <ele>1762.2</ele>
        <time>2023-09-10T13:43:43.612Z</time>
      </trkpt>
      <trkpt lat="46.16708" lon="6.81385">
        <ele>1761.6</ele>
        <time>2023-09-10T13:43:44.612Z</time>
      </trkpt>
      <trkpt lat="46.16719" lon="6.81346">
        <ele>1765.4</ele>
        <time>2023-09-10T13:43:45.612Z</time>
      </trkpt>
      <trkpt lat="46.16718" lon="6.81334">
        <ele>1765.2</ele>
        <time>2023-09-10T13:43:46.612Z</time>
      </trkpt>
      <trkpt lat="46.16708" lon="6.81317">
        <ele>1766.4</ele>
        <time>2023-09-10T13:43:47.612Z</time>
      </trkpt>
      <trkpt lat="46.16703" lon="6.81296">
        <ele>1767.7</ele>
        <time>2023-09-10T13:43:48.612Z</time>
      </trkpt>
      <trkpt lat="46.16706" lon="6.81264">
        <ele>1771.5</ele>
        <time>2023-09-10T13:43:49.612Z</time>
      </trkpt>
      <trkpt lat="46.1669" lon="6.81227">
        <ele>1772.7</ele>
        <time>2023-09-10T13:43:50.612Z</time>
      </trkpt>
      <trkpt lat="46.16687" lon="6.81173">
        <ele>1776.9</ele>
        <time>2023-09-10T13:43:51.612Z</time>
      </trkpt>
      <trkpt lat="46.16683" lon="6.81153">
        <ele>1778.8</ele>
        <time>2023-09-10T13:43:52.612Z</time>
      </trkpt>
      <trkpt lat="46.16678" lon="6.81109">
        <ele>1783.3</ele>
        <time>2023-09-10T13:43:53.612Z</time>
      </trkpt>
      <trkpt lat="46.16675" lon="6.81099">
        <ele>1783.8</ele>
        <time>2023-09-10T13:43:54.612Z</time>
      </trkpt>
      <trkpt lat="46.16669" lon="6.81089">
        <ele>1783.6</ele>
        <time>2023-09-10T13:43:55.612Z</time>
      </trkpt>
      <trkpt lat="46.16654" lon="6.81075">
        <ele>1784.2</ele>
        <time>2023-09-10T13:43:56.612Z</time>
      </trkpt>
      <trkpt lat="46.16652" lon="6.81066">
        <ele>1785.5</ele>
        <time>2023-09-10T13:43:57.612Z</time>
      </trkpt>
      <trkpt lat="46.16658" lon="6.81059">
        <ele>1787.8</ele>
        <time>2023-09-10T13:43:58.612Z</time>
      </trkpt>
      <trkpt lat="46.16668" lon="6.81066">
        <ele>1788.2</ele>
        <time>2023-09-10T13:43:59.612Z</time>
      </trkpt>
      <trkpt lat="46.1669" lon="6.81093">
        <ele>1790.3</ele>
        <time>2023-09-10T13:44:00.612Z</time>
      </trkpt>
      <trkpt lat="46.16714" lon="6.8115">
        <ele>1793.7</ele>
        <time>2023-09-10T13:44:01.612Z</time>
      </trkpt>
      <trkpt lat="46.16727" lon="6.81167">
        <ele>1796</ele>
        <time>2023-09-10T13:44:02.612Z</time>
      </trkpt>
      <trkpt lat="46.16751" lon="6.81187">
        <ele>1798.2</ele>
        <time>2023-09-10T13:44:03.612Z</time>
      </trkpt>
      <trkpt lat="46.16768" lon="6.81197">
        <ele>1799.3</ele>
        <time>2023-09-10T13:44:04.612Z</time>
      </trkpt>
      <trkpt lat="46.16776" lon="6.81204">
        <ele>1800</ele>
        <time>2023-09-10T13:44:05.612Z</time>
      </trkpt>
      <trkpt lat="46.16789" lon="6.81224">
        <ele>1801.1</ele>
        <time>2023-09-10T13:44:06.612Z</time>
      </trkpt>
      <trkpt lat="46.16797" lon="6.81231">
        <ele>1801.2</ele>
        <time>2023-09-10T13:44:07.612Z</time>
      </trkpt>
      <trkpt lat="46.16815" lon="6.81238">
        <ele>1803.3</ele>
        <time>2023-09-10T13:44:08.612Z</time>
      </trkpt>
      <trkpt lat="46.16823" lon="6.81246">
        <ele>1804.2</ele>
        <time>2023-09-10T13:44:09.612Z</time>
      </trkpt>
      <trkpt lat="46.16832" lon="6.81268">
        <ele>1804.7</ele>
        <time>2023-09-10T13:44:10.612Z</time>
      </trkpt>
      <trkpt lat="46.16856" lon="6.81316">
        <ele>1808.6</ele>
        <time>2023-09-10T13:44:11.612Z</time>
      </trkpt>
      <trkpt lat="46.16882" lon="6.81351">
        <ele>1810.8</ele>
        <time>2023-09-10T13:44:12.612Z</time>
      </trkpt>
      <trkpt lat="46.16896" lon="6.81391">
        <ele>1812.8</ele>
        <time>2023-09-10T13:44:13.612Z</time>
      </trkpt>
      <trkpt lat="46.16934" lon="6.81448">
        <ele>1815</ele>
        <time>2023-09-10T13:44:14.612Z</time>
      </trkpt>
      <trkpt lat="46.1695" lon="6.8148">
        <ele>1817.8</ele>
        <time>2023-09-10T13:44:15.612Z</time>
      </trkpt>
      <trkpt lat="46.1696" lon="6.81504">
        <ele>1818.7</ele>
        <time>2023-09-10T13:44:16.612Z</time>
      </trkpt>
      <trkpt lat="46.16969" lon="6.81536">
        <ele>1821</ele>
        <time>2023-09-10T13:44:17.612Z</time>
      </trkpt>
      <trkpt lat="46.16968" lon="6.81555">
        <ele>1820.9</ele>
        <time>2023-09-10T13:44:18.612Z</time>
      </trkpt>
      <trkpt lat="46.16964" lon="6.81577">
        <ele>1820.1</ele>
        <time>2023-09-10T13:44:19.612Z</time>
      </trkpt>
      <trkpt lat="46.16965" lon="6.8159">
        <ele>1819.9</ele>
        <time>2023-09-10T13:44:20.612Z</time>
      </trkpt>
      <trkpt lat="46.1697" lon="6.81601">
        <ele>1820.4</ele>
        <time>2023-09-10T13:44:21.612Z</time>
      </trkpt>
      <trkpt lat="46.16999" lon="6.81649">
        <ele>1822.7</ele>
        <time>2023-09-10T13:44:22.612Z</time>
      </trkpt>
      <trkpt lat="46.1701" lon="6.81664">
        <ele>1820.9</ele>
        <time>2023-09-10T13:44:23.612Z</time>
      </trkpt>
      <trkpt lat="46.1702" lon="6.81673">
        <ele>1822.1</ele>
        <time>2023-09-10T13:44:24.612Z</time>
      </trkpt>
      <trkpt lat="46.17031" lon="6.81678">
        <ele>1823.1</ele>
        <time>2023-09-10T13:44:25.612Z</time>
      </trkpt>
      <trkpt lat="46.1704" lon="6.81678">
        <ele>1821.6</ele>
        <time>2023-09-10T13:44:26.612Z</time>
      </trkpt>
      <trkpt lat="46.17068" lon="6.81672">
        <ele>1822.4</ele>
        <time>2023-09-10T13:44:27.612Z</time>
      </trkpt>
      <trkpt lat="46.17113" lon="6.81657">
        <ele>1822.5</ele>
        <time>2023-09-10T13:44:28.612Z</time>
      </trkpt>
      <trkpt lat="46.17139" lon="6.81643">
        <ele>1822.4</ele>
        <time>2023-09-10T13:44:29.612Z</time>
      </trkpt>
      <trkpt lat="46.17155" lon="6.8163">
        <ele>1821.3</ele>
        <time>2023-09-10T13:44:30.612Z</time>
      </trkpt>
      <trkpt lat="46.1716" lon="6.81619">
        <ele>1821</ele>
        <time>2023-09-10T13:44:31.612Z</time>
      </trkpt>
      <trkpt lat="46.17165" lon="6.81593">
        <ele>1822.2</ele>
        <time>2023-09-10T13:44:32.612Z</time>
      </trkpt>
      <trkpt lat="46.17171" lon="6.81583">
        <ele>1822.9</ele>
        <time>2023-09-10T13:44:33.612Z</time>
      </trkpt>
      <trkpt lat="46.1718" lon="6.81581">
        <ele>1822.9</ele>
        <time>2023-09-10T13:44:34.612Z</time>
      </trkpt>
      <trkpt lat="46.17191" lon="6.81584">
        <ele>1822</ele>
        <time>2023-09-10T13:44:35.612Z</time>
      </trkpt>
      <trkpt lat="46.1723" lon="6.81589">
        <ele>1821.3</ele>
        <time>2023-09-10T13:44:36.612Z</time>
      </trkpt>
      <trkpt lat="46.1727" lon="6.81586">
        <ele>1821.5</ele>
        <time>2023-09-10T13:44:37.612Z</time>
      </trkpt>
      <trkpt lat="46.17293" lon="6.81591">
        <ele>1821.5</ele>
        <time>2023-09-10T13:44:38.612Z</time>
      </trkpt>
      <trkpt lat="46.17305" lon="6.81589">
        <ele>1822.4</ele>
        <time>2023-09-10T13:44:39.612Z</time>
      </trkpt>
      <trkpt lat="46.17312" lon="6.81582">
        <ele>1822.6</ele>
        <time>2023-09-10T13:44:40.612Z</time>
      </trkpt>
      <trkpt lat="46.17318" lon="6.81569">
        <ele>1822.7</ele>
        <time>2023-09-10T13:44:41.612Z</time>
      </trkpt>
      <trkpt lat="46.1732" lon="6.81559">
        <ele>1822.8</ele>
        <time>2023-09-10T13:44:42.612Z</time>
      </trkpt>
      <trkpt lat="46.17328" lon="6.81538">
        <ele>1823.4</ele>
        <time>2023-09-10T13:44:43.612Z</time>
      </trkpt>
      <trkpt lat="46.17334" lon="6.81528">
        <ele>1824</ele>
        <time>2023-09-10T13:44:44.612Z</time>
      </trkpt>
      <trkpt lat="46.17356" lon="6.81501">
        <ele>1826.7</ele>
        <time>2023-09-10T13:44:45.612Z</time>
      </trkpt>
      <trkpt lat="46.17364" lon="6.81494">
        <ele>1827.8</ele>
        <time>2023-09-10T13:44:46.612Z</time>
      </trkpt>
      <trkpt lat="46.1739" lon="6.81477">
        <ele>1831.2</ele>
        <time>2023-09-10T13:44:47.612Z</time>
      </trkpt>
      <trkpt lat="46.17396" lon="6.8147">
        <ele>1831.8</ele>
        <time>2023-09-10T13:44:48.612Z</time>
      </trkpt>
      <trkpt lat="46.17414" lon="6.81442">
        <ele>1833</ele>
        <time>2023-09-10T13:44:49.612Z</time>
      </trkpt>
      <trkpt lat="46.17431" lon="6.81403">
        <ele>1836.2</ele>
        <time>2023-09-10T13:44:50.612Z</time>
      </trkpt>
      <trkpt lat="46.17437" lon="6.81393">
        <ele>1837.1</ele>
        <time>2023-09-10T13:44:51.612Z</time>
      </trkpt>
      <trkpt lat="46.17456" lon="6.81369">
        <ele>1839.6</ele>
        <time>2023-09-10T13:44:52.612Z</time>
      </trkpt>
      <trkpt lat="46.17494" lon="6.81311">
        <ele>1843.4</ele>
        <time>2023-09-10T13:44:53.612Z</time>
      </trkpt>
      <trkpt lat="46.17503" lon="6.81303">
        <ele>1843.6</ele>
        <time>2023-09-10T13:44:54.612Z</time>
      </trkpt>
      <trkpt lat="46.17512" lon="6.81298">
        <ele>1844.8</ele>
        <time>2023-09-10T13:44:55.612Z</time>
      </trkpt>
      <trkpt lat="46.17531" lon="6.81292">
        <ele>1846.7</ele>
        <time>2023-09-10T13:44:56.612Z</time>
      </trkpt>
      <trkpt lat="46.1754" lon="6.81291">
        <ele>1847.7</ele>
        <time>2023-09-10T13:44:57.612Z</time>
      </trkpt>
      <trkpt lat="46.1755" lon="6.81292">
        <ele>1848.4</ele>
        <time>2023-09-10T13:44:58.612Z</time>
      </trkpt>
      <trkpt lat="46.17559" lon="6.81295">
        <ele>1848.7</ele>
        <time>2023-09-10T13:44:59.612Z</time>
      </trkpt>
      <trkpt lat="46.17617" lon="6.81327">
        <ele>1846.8</ele>
        <time>2023-09-10T13:45:00.612Z</time>
      </trkpt>
      <trkpt lat="46.17633" lon="6.81345">
        <ele>1846.7</ele>
        <time>2023-09-10T13:45:01.612Z</time>
      </trkpt>
      <trkpt lat="46.17649" lon="6.8136">
        <ele>1845.9</ele>
        <time>2023-09-10T13:45:02.612Z</time>
      </trkpt>
      <trkpt lat="46.17694" lon="6.8139">
        <ele>1843.8</ele>
        <time>2023-09-10T13:45:03.612Z</time>
      </trkpt>
      <trkpt lat="46.17717" lon="6.814">
        <ele>1843.8</ele>
        <time>2023-09-10T13:45:04.612Z</time>
      </trkpt>
      <trkpt lat="46.17729" lon="6.81409">
        <ele>1843.4</ele>
        <time>2023-09-10T13:45:05.612Z</time>
      </trkpt>
      <trkpt lat="46.17738" lon="6.81423">
        <ele>1843.4</ele>
        <time>2023-09-10T13:45:06.612Z</time>
      </trkpt>
      <trkpt lat="46.17751" lon="6.81455">
        <ele>1845</ele>
        <time>2023-09-10T13:45:07.612Z</time>
      </trkpt>
      <trkpt lat="46.17754" lon="6.8147">
        <ele>1845.4</ele>
        <time>2023-09-10T13:45:08.612Z</time>
      </trkpt>
      <trkpt lat="46.17748" lon="6.81531">
        <ele>1845.9</ele>
        <time>2023-09-10T13:45:09.612Z</time>
      </trkpt>
      <trkpt lat="46.17739" lon="6.81567">
        <ele>1846.6</ele>
        <time>2023-09-10T13:45:10.612Z</time>
      </trkpt>
      <trkpt lat="46.17736" lon="6.81593">
        <ele>1847</ele>
        <time>2023-09-10T13:45:11.612Z</time>
      </trkpt>
      <trkpt lat="46.17728" lon="6.81637">
        <ele>1848.1</ele>
        <time>2023-09-10T13:45:12.612Z</time>
      </trkpt>
      <trkpt lat="46.1773" lon="6.81668">
        <ele>1847.9</ele>
        <time>2023-09-10T13:45:13.612Z</time>
      </trkpt>
      <trkpt lat="46.17742" lon="6.81698">
        <ele>1848.7</ele>
        <time>2023-09-10T13:45:14.612Z</time>
      </trkpt>
      <trkpt lat="46.17763" lon="6.81729">
        <ele>1849.1</ele>
        <time>2023-09-10T13:45:15.612Z</time>
      </trkpt>
      <trkpt lat="46.17779" lon="6.81758">
        <ele>1847.8</ele>
        <time>2023-09-10T13:45:16.612Z</time>
      </trkpt>
      <trkpt lat="46.17784" lon="6.81774">
        <ele>1847.2</ele>
        <time>2023-09-10T13:45:17.612Z</time>
      </trkpt>
      <trkpt lat="46.17787" lon="6.81792">
        <ele>1849.2</ele>
        <time>2023-09-10T13:45:18.612Z</time>
      </trkpt>
      <trkpt lat="46.17785" lon="6.8181">
        <ele>1849.1</ele>
        <time>2023-09-10T13:45:19.612Z</time>
      </trkpt>
      <trkpt lat="46.1778" lon="6.81827">
        <ele>1847.6</ele>
        <time>2023-09-10T13:45:20.612Z</time>
      </trkpt>
      <trkpt lat="46.17779" lon="6.81844">
        <ele>1846.4</ele>
        <time>2023-09-10T13:45:21.612Z</time>
      </trkpt>
      <trkpt lat="46.17786" lon="6.8189">
        <ele>1846.7</ele>
        <time>2023-09-10T13:45:22.612Z</time>
      </trkpt>
      <trkpt lat="46.17782" lon="6.81944">
        <ele>1847.9</ele>
        <time>2023-09-10T13:45:23.612Z</time>
      </trkpt>
      <trkpt lat="46.17797" lon="6.82006">
        <ele>1848.1</ele>
        <time>2023-09-10T13:45:24.612Z</time>
      </trkpt>
      <trkpt lat="46.17797" lon="6.82055">
        <ele>1848.8</ele>
        <time>2023-09-10T13:45:25.612Z</time>
      </trkpt>
      <trkpt lat="46.17799" lon="6.82066">
        <ele>1848.1</ele>
        <time>2023-09-10T13:45:26.612Z</time>
      </trkpt>
      <trkpt lat="46.17803" lon="6.82076">
        <ele>1848.5</ele>
        <time>2023-09-10T13:45:27.612Z</time>
      </trkpt>
      <trkpt lat="46.17815" lon="6.82096">
        <ele>1849.5</ele>
        <time>2023-09-10T13:45:28.612Z</time>
      </trkpt>
      <trkpt lat="46.17826" lon="6.8212">
        <ele>1849.2</ele>
        <time>2023-09-10T13:45:29.612Z</time>
      </trkpt>
      <trkpt lat="46.17853" lon="6.82192">
        <ele>1847.5</ele>
        <time>2023-09-10T13:45:30.612Z</time>
      </trkpt>
      <trkpt lat="46.17865" lon="6.82256">
        <ele>1844.4</ele>
        <time>2023-09-10T13:45:31.612Z</time>
      </trkpt>
      <trkpt lat="46.17881" lon="6.82318">
        <ele>1841.3</ele>
        <time>2023-09-10T13:45:32.612Z</time>
      </trkpt>
      <trkpt lat="46.17883" lon="6.82333">
        <ele>1841.2</ele>
        <time>2023-09-10T13:45:33.612Z</time>
      </trkpt>
      <trkpt lat="46.17881" lon="6.82384">
        <ele>1836.8</ele>
        <time>2023-09-10T13:45:34.612Z</time>
      </trkpt>
      <trkpt lat="46.17886" lon="6.82437">
        <ele>1832.8</ele>
        <time>2023-09-10T13:45:35.612Z</time>
      </trkpt>
      <trkpt lat="46.17893" lon="6.82472">
        <ele>1830.4</ele>
        <time>2023-09-10T13:45:36.612Z</time>
      </trkpt>
      <trkpt lat="46.17897" lon="6.82522">
        <ele>1827.8</ele>
        <time>2023-09-10T13:45:37.612Z</time>
      </trkpt>
      <trkpt lat="46.17918" lon="6.82559">
        <ele>1826.3</ele>
        <time>2023-09-10T13:45:38.612Z</time>
      </trkpt>
      <trkpt lat="46.17927" lon="6.82567">
        <ele>1827.7</ele>
        <time>2023-09-10T13:45:39.612Z</time>
      </trkpt>
      <trkpt lat="46.17937" lon="6.82563">
        <ele>1828.2</ele>
        <time>2023-09-10T13:45:40.612Z</time>
      </trkpt>
      <trkpt lat="46.17946" lon="6.82555">
        <ele>1828.1</ele>
        <time>2023-09-10T13:45:41.612Z</time>
      </trkpt>
      <trkpt lat="46.17959" lon="6.82536">
        <ele>1828.8</ele>
        <time>2023-09-10T13:45:42.612Z</time>
      </trkpt>
      <trkpt lat="46.17973" lon="6.82503">
        <ele>1827.9</ele>
        <time>2023-09-10T13:45:43.612Z</time>
      </trkpt>
      <trkpt lat="46.1798" lon="6.82495">
        <ele>1828.3</ele>
        <time>2023-09-10T13:45:44.612Z</time>
      </trkpt>
      <trkpt lat="46.18031" lon="6.82458">
        <ele>1826</ele>
        <time>2023-09-10T13:45:45.612Z</time>
      </trkpt>
      <trkpt lat="46.18044" lon="6.82452">
        <ele>1826.5</ele>
        <time>2023-09-10T13:45:46.612Z</time>
      </trkpt>
      <trkpt lat="46.18067" lon="6.82448">
        <ele>1826.9</ele>
        <time>2023-09-10T13:45:47.612Z</time>
      </trkpt>
      <trkpt lat="46.18101" lon="6.82435">
        <ele>1831.8</ele>
        <time>2023-09-10T13:45:48.612Z</time>
      </trkpt>
      <trkpt lat="46.18131" lon="6.8243">
        <ele>1834.3</ele>
        <time>2023-09-10T13:45:49.612Z</time>
      </trkpt>
      <trkpt lat="46.1814" lon="6.82426">
        <ele>1835.1</ele>
        <time>2023-09-10T13:45:50.612Z</time>
      </trkpt>
      <trkpt lat="46.18147" lon="6.82417">
        <ele>1835.2</ele>
        <time>2023-09-10T13:45:51.612Z</time>
      </trkpt>
      <trkpt lat="46.18159" lon="6.82386">
        <ele>1840.1</ele>
        <time>2023-09-10T13:45:52.612Z</time>
      </trkpt>
      <trkpt lat="46.18165" lon="6.82377">
        <ele>1840.4</ele>
        <time>2023-09-10T13:45:53.612Z</time>
      </trkpt>
      <trkpt lat="46.18185" lon="6.82352">
        <ele>1845.1</ele>
        <time>2023-09-10T13:45:54.612Z</time>
      </trkpt>
      <trkpt lat="46.18194" lon="6.82334">
        <ele>1846</ele>
        <time>2023-09-10T13:45:55.612Z</time>
      </trkpt>
      <trkpt lat="46.182" lon="6.82327">
        <ele>1846.7</ele>
        <time>2023-09-10T13:45:56.612Z</time>
      </trkpt>
      <trkpt lat="46.18209" lon="6.82323">
        <ele>1847.4</ele>
        <time>2023-09-10T13:45:57.612Z</time>
      </trkpt>
      <trkpt lat="46.18218" lon="6.82327">
        <ele>1846.6</ele>
        <time>2023-09-10T13:45:58.612Z</time>
      </trkpt>
      <trkpt lat="46.18225" lon="6.82336">
        <ele>1845.4</ele>
        <time>2023-09-10T13:45:59.612Z</time>
      </trkpt>
      <trkpt lat="46.18244" lon="6.82369">
        <ele>1846.1</ele>
        <time>2023-09-10T13:46:00.612Z</time>
      </trkpt>
      <trkpt lat="46.18252" lon="6.82375">
        <ele>1848</ele>
        <time>2023-09-10T13:46:01.612Z</time>
      </trkpt>
      <trkpt lat="46.18261" lon="6.82376">
        <ele>1847.9</ele>
        <time>2023-09-10T13:46:02.612Z</time>
      </trkpt>
      <trkpt lat="46.18272" lon="6.8238">
        <ele>1847.3</ele>
        <time>2023-09-10T13:46:03.612Z</time>
      </trkpt>
      <trkpt lat="46.18291" lon="6.82392">
        <ele>1846.2</ele>
        <time>2023-09-10T13:46:04.612Z</time>
      </trkpt>
      <trkpt lat="46.183" lon="6.82393">
        <ele>1846.4</ele>
        <time>2023-09-10T13:46:05.612Z</time>
      </trkpt>
      <trkpt lat="46.18322" lon="6.82413">
        <ele>1845.1</ele>
        <time>2023-09-10T13:46:06.612Z</time>
      </trkpt>
      <trkpt lat="46.18337" lon="6.82424">
        <ele>1843.8</ele>
        <time>2023-09-10T13:46:07.612Z</time>
      </trkpt>
      <trkpt lat="46.1836" lon="6.82449">
        <ele>1841.1</ele>
        <time>2023-09-10T13:46:08.612Z</time>
      </trkpt>
      <trkpt lat="46.18378" lon="6.82466">
        <ele>1839.1</ele>
        <time>2023-09-10T13:46:09.612Z</time>
      </trkpt>
      <trkpt lat="46.18391" lon="6.8247">
        <ele>1839.1</ele>
        <time>2023-09-10T13:46:10.612Z</time>
      </trkpt>
      <trkpt lat="46.18404" lon="6.8247">
        <ele>1838.1</ele>
        <time>2023-09-10T13:46:11.612Z</time>
      </trkpt>
      <trkpt lat="46.18415" lon="6.82466">
        <ele>1837.4</ele>
        <time>2023-09-10T13:46:12.612Z</time>
      </trkpt>
      <trkpt lat="46.18423" lon="6.82455">
        <ele>1835.6</ele>
        <time>2023-09-10T13:46:13.612Z</time>
      </trkpt>
      <trkpt lat="46.18428" lon="6.82441">
        <ele>1835.3</ele>
        <time>2023-09-10T13:46:14.612Z</time>
      </trkpt>
      <trkpt lat="46.18435" lon="6.8243">
        <ele>1835.3</ele>
        <time>2023-09-10T13:46:15.612Z</time>
      </trkpt>
      <trkpt lat="46.18447" lon="6.82427">
        <ele>1834.5</ele>
        <time>2023-09-10T13:46:16.612Z</time>
      </trkpt>
      <trkpt lat="46.18455" lon="6.82433">
        <ele>1835.6</ele>
        <time>2023-09-10T13:46:17.612Z</time>
      </trkpt>
      <trkpt lat="46.18476" lon="6.82471">
        <ele>1834</ele>
        <time>2023-09-10T13:46:18.612Z</time>
      </trkpt>
      <trkpt lat="46.18497" lon="6.8249">
        <ele>1832.2</ele>
        <time>2023-09-10T13:46:19.612Z</time>
      </trkpt>
      <trkpt lat="46.1851" lon="6.82499">
        <ele>1831.8</ele>
        <time>2023-09-10T13:46:20.612Z</time>
      </trkpt>
      <trkpt lat="46.18538" lon="6.82514">
        <ele>1831</ele>
        <time>2023-09-10T13:46:21.612Z</time>
      </trkpt>
      <trkpt lat="46.18553" lon="6.82519">
        <ele>1830.4</ele>
        <time>2023-09-10T13:46:22.612Z</time>
      </trkpt>
      <trkpt lat="46.18605" lon="6.82542">
        <ele>1830.9</ele>
        <time>2023-09-10T13:46:23.612Z</time>
      </trkpt>
      <trkpt lat="46.18617" lon="6.82549">
        <ele>1830.4</ele>
        <time>2023-09-10T13:46:24.612Z</time>
      </trkpt>
      <trkpt lat="46.18655" lon="6.82574">
        <ele>1828.9</ele>
        <time>2023-09-10T13:46:25.612Z</time>
      </trkpt>
      <trkpt lat="46.18667" lon="6.82584">
        <ele>1828</ele>
        <time>2023-09-10T13:46:26.612Z</time>
      </trkpt>
      <trkpt lat="46.18696" lon="6.82614">
        <ele>1826.4</ele>
        <time>2023-09-10T13:46:27.612Z</time>
      </trkpt>
      <trkpt lat="46.18704" lon="6.82627">
        <ele>1830</ele>
        <time>2023-09-10T13:46:28.612Z</time>
      </trkpt>
      <trkpt lat="46.18713" lon="6.82663">
        <ele>1832.6</ele>
        <time>2023-09-10T13:46:29.612Z</time>
      </trkpt>
      <trkpt lat="46.18714" lon="6.82675">
        <ele>1832</ele>
        <time>2023-09-10T13:46:30.612Z</time>
      </trkpt>
      <trkpt lat="46.18714" lon="6.82732">
        <ele>1828.9</ele>
        <time>2023-09-10T13:46:31.612Z</time>
      </trkpt>
      <trkpt lat="46.1871" lon="6.82783">
        <ele>1826.1</ele>
        <time>2023-09-10T13:46:32.612Z</time>
      </trkpt>
      <trkpt lat="46.18717" lon="6.8286">
        <ele>1820.9</ele>
        <time>2023-09-10T13:46:33.612Z</time>
      </trkpt>
      <trkpt lat="46.18717" lon="6.82887">
        <ele>1820</ele>
        <time>2023-09-10T13:46:34.612Z</time>
      </trkpt>
      <trkpt lat="46.18712" lon="6.82951">
        <ele>1816.1</ele>
        <time>2023-09-10T13:46:35.612Z</time>
      </trkpt>
      <trkpt lat="46.18717" lon="6.82983">
        <ele>1812.6</ele>
        <time>2023-09-10T13:46:36.612Z</time>
      </trkpt>
      <trkpt lat="46.18729" lon="6.83018">
        <ele>1810.1</ele>
        <time>2023-09-10T13:46:37.612Z</time>
      </trkpt>
      <trkpt lat="46.18733" lon="6.83041">
        <ele>1809.7</ele>
        <time>2023-09-10T13:46:38.612Z</time>
      </trkpt>
      <trkpt lat="46.18733" lon="6.83094">
        <ele>1807</ele>
        <time>2023-09-10T13:46:39.612Z</time>
      </trkpt>
      <trkpt lat="46.18735" lon="6.83117">
        <ele>1806.3</ele>
        <time>2023-09-10T13:46:40.612Z</time>
      </trkpt>
      <trkpt lat="46.18738" lon="6.83127">
        <ele>1805.7</ele>
        <time>2023-09-10T13:46:41.612Z</time>
      </trkpt>
      <trkpt lat="46.18741" lon="6.83136">
        <ele>1805.2</ele>
        <time>2023-09-10T13:46:42.612Z</time>
      </trkpt>
      <trkpt lat="46.18759" lon="6.83168">
        <ele>1805.4</ele>
        <time>2023-09-10T13:46:43.612Z</time>
      </trkpt>
      <trkpt lat="46.18783" lon="6.83217">
        <ele>1803.6</ele>
        <time>2023-09-10T13:46:44.612Z</time>
      </trkpt>
      <trkpt lat="46.18805" lon="6.83237">
        <ele>1802.7</ele>
        <time>2023-09-10T13:46:45.612Z</time>
      </trkpt>
      <trkpt lat="46.1882" lon="6.83257">
        <ele>1804.6</ele>
        <time>2023-09-10T13:46:46.612Z</time>
      </trkpt>
      <trkpt lat="46.18833" lon="6.83287">
        <ele>1805.3</ele>
        <time>2023-09-10T13:46:47.612Z</time>
      </trkpt>
      <trkpt lat="46.18841" lon="6.8331">
        <ele>1806.9</ele>
        <time>2023-09-10T13:46:48.612Z</time>
      </trkpt>
      <trkpt lat="46.18848" lon="6.83333">
        <ele>1807.3</ele>
        <time>2023-09-10T13:46:49.612Z</time>
      </trkpt>
      <trkpt lat="46.18859" lon="6.83381">
        <ele>1808.7</ele>
        <time>2023-09-10T13:46:50.612Z</time>
      </trkpt>
      <trkpt lat="46.18871" lon="6.83396">
        <ele>1808.7</ele>
        <time>2023-09-10T13:46:51.612Z</time>
      </trkpt>
      <trkpt lat="46.18889" lon="6.8341">
        <ele>1808</ele>
        <time>2023-09-10T13:46:52.612Z</time>
      </trkpt>
      <trkpt lat="46.18931" lon="6.83456">
        <ele>1809.5</ele>
        <time>2023-09-10T13:46:53.612Z</time>
      </trkpt>
      <trkpt lat="46.18946" lon="6.8347">
        <ele>1809.2</ele>
        <time>2023-09-10T13:46:54.612Z</time>
      </trkpt>
      <trkpt lat="46.18958" lon="6.83488">
        <ele>1810.4</ele>
        <time>2023-09-10T13:46:55.612Z</time>
      </trkpt>
      <trkpt lat="46.18966" lon="6.83511">
        <ele>1810.4</ele>
        <time>2023-09-10T13:46:56.612Z</time>
      </trkpt>
      <trkpt lat="46.1898" lon="6.83573">
        <ele>1813.4</ele>
        <time>2023-09-10T13:46:57.612Z</time>
      </trkpt>
      <trkpt lat="46.18987" lon="6.83592">
        <ele>1813.4</ele>
        <time>2023-09-10T13:46:58.612Z</time>
      </trkpt>
      <trkpt lat="46.18995" lon="6.83602">
        <ele>1814.1</ele>
        <time>2023-09-10T13:46:59.612Z</time>
      </trkpt>
      <trkpt lat="46.19023" lon="6.83623">
        <ele>1815.5</ele>
        <time>2023-09-10T13:47:00.612Z</time>
      </trkpt>
      <trkpt lat="46.19036" lon="6.8364">
        <ele>1813.3</ele>
        <time>2023-09-10T13:47:01.612Z</time>
      </trkpt>
      <trkpt lat="46.19045" lon="6.83649">
        <ele>1812.7</ele>
        <time>2023-09-10T13:47:02.612Z</time>
      </trkpt>
      <trkpt lat="46.19065" lon="6.83664">
        <ele>1815.9</ele>
        <time>2023-09-10T13:47:03.612Z</time>
      </trkpt>
      <trkpt lat="46.1907" lon="6.83678">
        <ele>1816.4</ele>
        <time>2023-09-10T13:47:04.612Z</time>
      </trkpt>
      <trkpt lat="46.19084" lon="6.83776">
        <ele>1808.6</ele>
        <time>2023-09-10T13:47:05.612Z</time>
      </trkpt>
      <trkpt lat="46.19077" lon="6.83815">
        <ele>1808</ele>
        <time>2023-09-10T13:47:06.612Z</time>
      </trkpt>
      <trkpt lat="46.19076" lon="6.83834">
        <ele>1807.5</ele>
        <time>2023-09-10T13:47:07.612Z</time>
      </trkpt>
      <trkpt lat="46.19082" lon="6.83861">
        <ele>1809.4</ele>
        <time>2023-09-10T13:47:08.612Z</time>
      </trkpt>
      <trkpt lat="46.19091" lon="6.83881">
        <ele>1810.2</ele>
        <time>2023-09-10T13:47:09.612Z</time>
      </trkpt>
      <trkpt lat="46.19101" lon="6.83897">
        <ele>1813.1</ele>
        <time>2023-09-10T13:47:10.612Z</time>
      </trkpt>
      <trkpt lat="46.19105" lon="6.83908">
        <ele>1813.6</ele>
        <time>2023-09-10T13:47:11.612Z</time>
      </trkpt>
      <trkpt lat="46.19107" lon="6.83928">
        <ele>1813.3</ele>
        <time>2023-09-10T13:47:12.612Z</time>
      </trkpt>
      <trkpt lat="46.19106" lon="6.83969">
        <ele>1813.4</ele>
        <time>2023-09-10T13:47:13.612Z</time>
      </trkpt>
      <trkpt lat="46.1911" lon="6.84027">
        <ele>1816.7</ele>
        <time>2023-09-10T13:47:14.612Z</time>
      </trkpt>
      <trkpt lat="46.1912" lon="6.84057">
        <ele>1818.2</ele>
        <time>2023-09-10T13:47:15.612Z</time>
      </trkpt>
      <trkpt lat="46.19138" lon="6.84122">
        <ele>1820.8</ele>
        <time>2023-09-10T13:47:16.612Z</time>
      </trkpt>
      <trkpt lat="46.1914" lon="6.84141">
        <ele>1821.5</ele>
        <time>2023-09-10T13:47:17.612Z</time>
      </trkpt>
      <trkpt lat="46.19137" lon="6.84159">
        <ele>1822.5</ele>
        <time>2023-09-10T13:47:18.612Z</time>
      </trkpt>
      <trkpt lat="46.19136" lon="6.84179">
        <ele>1822.5</ele>
        <time>2023-09-10T13:47:19.612Z</time>
      </trkpt>
      <trkpt lat="46.19141" lon="6.84207">
        <ele>1822.4</ele>
        <time>2023-09-10T13:47:20.612Z</time>
      </trkpt>
      <trkpt lat="46.19144" lon="6.84217">
        <ele>1822.4</ele>
        <time>2023-09-10T13:47:21.612Z</time>
      </trkpt>
      <trkpt lat="46.19158" lon="6.84239">
        <ele>1823.4</ele>
        <time>2023-09-10T13:47:22.612Z</time>
      </trkpt>
      <trkpt lat="46.19188" lon="6.84271">
        <ele>1825.5</ele>
        <time>2023-09-10T13:47:23.612Z</time>
      </trkpt>
      <trkpt lat="46.1921" lon="6.84291">
        <ele>1827.2</ele>
        <time>2023-09-10T13:47:24.612Z</time>
      </trkpt>
      <trkpt lat="46.19218" lon="6.84302">
        <ele>1827.5</ele>
        <time>2023-09-10T13:47:25.612Z</time>
      </trkpt>
      <trkpt lat="46.19225" lon="6.84321">
        <ele>1828.6</ele>
        <time>2023-09-10T13:47:26.612Z</time>
      </trkpt>
      <trkpt lat="46.19233" lon="6.84361">
        <ele>1829.7</ele>
        <time>2023-09-10T13:47:27.612Z</time>
      </trkpt>
      <trkpt lat="46.1924" lon="6.84373">
        <ele>1829.7</ele>
        <time>2023-09-10T13:47:28.612Z</time>
      </trkpt>
      <trkpt lat="46.19248" lon="6.84382">
        <ele>1830.3</ele>
        <time>2023-09-10T13:47:29.612Z</time>
      </trkpt>
      <trkpt lat="46.19255" lon="6.84393">
        <ele>1831.9</ele>
        <time>2023-09-10T13:47:30.612Z</time>
      </trkpt>
      <trkpt lat="46.19254" lon="6.84405">
        <ele>1834.4</ele>
        <time>2023-09-10T13:47:31.612Z</time>
      </trkpt>
      <trkpt lat="46.19241" lon="6.84426">
        <ele>1834.1</ele>
        <time>2023-09-10T13:47:32.612Z</time>
      </trkpt>
      <trkpt lat="46.19238" lon="6.84439">
        <ele>1834.3</ele>
        <time>2023-09-10T13:47:33.612Z</time>
      </trkpt>
      <trkpt lat="46.19238" lon="6.84457">
        <ele>1835.7</ele>
        <time>2023-09-10T13:47:34.612Z</time>
      </trkpt>
      <trkpt lat="46.19244" lon="6.84481">
        <ele>1838.4</ele>
        <time>2023-09-10T13:47:35.612Z</time>
      </trkpt>
      <trkpt lat="46.19267" lon="6.84535">
        <ele>1845.7</ele>
        <time>2023-09-10T13:47:36.612Z</time>
      </trkpt>
      <trkpt lat="46.1927" lon="6.84547">
        <ele>1845.6</ele>
        <time>2023-09-10T13:47:37.612Z</time>
      </trkpt>
      <trkpt lat="46.19272" lon="6.84577">
        <ele>1845.6</ele>
        <time>2023-09-10T13:47:38.612Z</time>
      </trkpt>
      <trkpt lat="46.19288" lon="6.84635">
        <ele>1851.9</ele>
        <time>2023-09-10T13:47:39.612Z</time>
      </trkpt>
      <trkpt lat="46.19297" lon="6.84655">
        <ele>1852.9</ele>
        <time>2023-09-10T13:47:40.612Z</time>
      </trkpt>
      <trkpt lat="46.19334" lon="6.84724">
        <ele>1859.2</ele>
        <time>2023-09-10T13:47:41.612Z</time>
      </trkpt>
      <trkpt lat="46.19345" lon="6.84758">
        <ele>1861.2</ele>
        <time>2023-09-10T13:47:42.612Z</time>
      </trkpt>
      <trkpt lat="46.1935" lon="6.84768">
        <ele>1862.3</ele>
        <time>2023-09-10T13:47:43.612Z</time>
      </trkpt>
      <trkpt lat="46.19362" lon="6.84785">
        <ele>1863.9</ele>
        <time>2023-09-10T13:47:44.612Z</time>
      </trkpt>
      <trkpt lat="46.19391" lon="6.84813">
        <ele>1867.6</ele>
        <time>2023-09-10T13:47:45.612Z</time>
      </trkpt>
      <trkpt lat="46.19399" lon="6.84818">
        <ele>1867.7</ele>
        <time>2023-09-10T13:47:46.612Z</time>
      </trkpt>
      <trkpt lat="46.1941" lon="6.84821">
        <ele>1868.9</ele>
        <time>2023-09-10T13:47:47.612Z</time>
      </trkpt>
      <trkpt lat="46.19442" lon="6.84813">
        <ele>1869.9</ele>
        <time>2023-09-10T13:47:48.612Z</time>
      </trkpt>
      <trkpt lat="46.19488" lon="6.84808">
        <ele>1869.4</ele>
        <time>2023-09-10T13:47:49.612Z</time>
      </trkpt>
      <trkpt lat="46.19509" lon="6.84803">
        <ele>1869.8</ele>
        <time>2023-09-10T13:47:50.612Z</time>
      </trkpt>
      <trkpt lat="46.19531" lon="6.84796">
        <ele>1870.6</ele>
        <time>2023-09-10T13:47:51.612Z</time>
      </trkpt>
      <trkpt lat="46.19558" lon="6.84778">
        <ele>1869.9</ele>
        <time>2023-09-10T13:47:52.612Z</time>
      </trkpt>
      <trkpt lat="46.19578" lon="6.8477">
        <ele>1871.2</ele>
        <time>2023-09-10T13:47:53.612Z</time>
      </trkpt>
      <trkpt lat="46.19616" lon="6.84776">
        <ele>1872.1</ele>
        <time>2023-09-10T13:47:54.612Z</time>
      </trkpt>
      <trkpt lat="46.19625" lon="6.84776">
        <ele>1872.7</ele>
        <time>2023-09-10T13:47:55.612Z</time>
      </trkpt>
      <trkpt lat="46.19644" lon="6.8478">
        <ele>1873.2</ele>
        <time>2023-09-10T13:47:56.612Z</time>
      </trkpt>
      <trkpt lat="46.19678" lon="6.84793">
        <ele>1873.1</ele>
        <time>2023-09-10T13:47:57.612Z</time>
      </trkpt>
      <trkpt lat="46.19688" lon="6.84788">
        <ele>1873.5</ele>
        <time>2023-09-10T13:47:58.612Z</time>
      </trkpt>
      <trkpt lat="46.197" lon="6.84772">
        <ele>1874.4</ele>
        <time>2023-09-10T13:47:59.612Z</time>
      </trkpt>
      <trkpt lat="46.19709" lon="6.8477">
        <ele>1874.6</ele>
        <time>2023-09-10T13:48:00.612Z</time>
      </trkpt>
      <trkpt lat="46.19722" lon="6.84775">
        <ele>1874.2</ele>
        <time>2023-09-10T13:48:01.612Z</time>
      </trkpt>
      <trkpt lat="46.19731" lon="6.84775">
        <ele>1873</ele>
        <time>2023-09-10T13:48:02.612Z</time>
      </trkpt>
      <trkpt lat="46.19752" lon="6.84763">
        <ele>1871.6</ele>
        <time>2023-09-10T13:48:03.612Z</time>
      </trkpt>
      <trkpt lat="46.19765" lon="6.8476">
        <ele>1872.1</ele>
        <time>2023-09-10T13:48:04.612Z</time>
      </trkpt>
      <trkpt lat="46.19777" lon="6.84767">
        <ele>1871.8</ele>
        <time>2023-09-10T13:48:05.612Z</time>
      </trkpt>
      <trkpt lat="46.19788" lon="6.84776">
        <ele>1871.5</ele>
        <time>2023-09-10T13:48:06.612Z</time>
      </trkpt>
      <trkpt lat="46.19803" lon="6.84795">
        <ele>1871.2</ele>
        <time>2023-09-10T13:48:07.612Z</time>
      </trkpt>
      <trkpt lat="46.1981" lon="6.84801">
        <ele>1870.9</ele>
        <time>2023-09-10T13:48:08.612Z</time>
      </trkpt>
      <trkpt lat="46.19822" lon="6.84802">
        <ele>1870.2</ele>
        <time>2023-09-10T13:48:09.612Z</time>
      </trkpt>
      <trkpt lat="46.19831" lon="6.84799">
        <ele>1870.1</ele>
        <time>2023-09-10T13:48:10.612Z</time>
      </trkpt>
      <trkpt lat="46.19845" lon="6.84799">
        <ele>1869.1</ele>
        <time>2023-09-10T13:48:11.612Z</time>
      </trkpt>
      <trkpt lat="46.19875" lon="6.84806">
        <ele>1865.4</ele>
        <time>2023-09-10T13:48:12.612Z</time>
      </trkpt>
      <trkpt lat="46.19889" lon="6.84802">
        <ele>1864.5</ele>
        <time>2023-09-10T13:48:13.612Z</time>
      </trkpt>
      <trkpt lat="46.19902" lon="6.84794">
        <ele>1863.1</ele>
        <time>2023-09-10T13:48:14.612Z</time>
      </trkpt>
      <trkpt lat="46.19916" lon="6.84789">
        <ele>1861.9</ele>
        <time>2023-09-10T13:48:15.612Z</time>
      </trkpt>
      <trkpt lat="46.19931" lon="6.84789">
        <ele>1860.5</ele>
        <time>2023-09-10T13:48:16.612Z</time>
      </trkpt>
      <trkpt lat="46.19959" lon="6.84793">
        <ele>1857.8</ele>
        <time>2023-09-10T13:48:17.612Z</time>
      </trkpt>
      <trkpt lat="46.19968" lon="6.84796">
        <ele>1856.8</ele>
        <time>2023-09-10T13:48:18.612Z</time>
      </trkpt>
      <trkpt lat="46.19984" lon="6.84805">
        <ele>1855</ele>
        <time>2023-09-10T13:48:19.612Z</time>
      </trkpt>
      <trkpt lat="46.20005" lon="6.84822">
        <ele>1853</ele>
        <time>2023-09-10T13:48:20.612Z</time>
      </trkpt>
      <trkpt lat="46.20012" lon="6.84838">
        <ele>1851.9</ele>
        <time>2023-09-10T13:48:21.612Z</time>
      </trkpt>
      <trkpt lat="46.20017" lon="6.84881">
        <ele>1846</ele>
        <time>2023-09-10T13:48:22.612Z</time>
      </trkpt>
      <trkpt lat="46.2005" lon="6.84962">
        <ele>1838.8</ele>
        <time>2023-09-10T13:48:23.612Z</time>
      </trkpt>
      <trkpt lat="46.20065" lon="6.8499">
        <ele>1835.2</ele>
        <time>2023-09-10T13:48:24.612Z</time>
      </trkpt>
      <trkpt lat="46.20068" lon="6.85">
        <ele>1834.1</ele>
        <time>2023-09-10T13:48:25.612Z</time>
      </trkpt>
      <trkpt lat="46.2007" lon="6.8501">
        <ele>1833.4</ele>
        <time>2023-09-10T13:48:26.612Z</time>
      </trkpt>
      <trkpt lat="46.20072" lon="6.8508">
        <ele>1826.7</ele>
        <time>2023-09-10T13:48:27.612Z</time>
      </trkpt>
      <trkpt lat="46.20075" lon="6.85099">
        <ele>1824.6</ele>
        <time>2023-09-10T13:48:28.612Z</time>
      </trkpt>
      <trkpt lat="46.20083" lon="6.85117">
        <ele>1822.3</ele>
        <time>2023-09-10T13:48:29.612Z</time>
      </trkpt>
      <trkpt lat="46.20095" lon="6.85131">
        <ele>1820.5</ele>
        <time>2023-09-10T13:48:30.612Z</time>
      </trkpt>
      <trkpt lat="46.20115" lon="6.85148">
        <ele>1819.4</ele>
        <time>2023-09-10T13:48:31.612Z</time>
      </trkpt>
      <trkpt lat="46.20126" lon="6.8516">
        <ele>1819</ele>
        <time>2023-09-10T13:48:32.612Z</time>
      </trkpt>
      <trkpt lat="46.20144" lon="6.85206">
        <ele>1815.2</ele>
        <time>2023-09-10T13:48:33.612Z</time>
      </trkpt>
      <trkpt lat="46.20145" lon="6.85217">
        <ele>1815</ele>
        <time>2023-09-10T13:48:34.612Z</time>
      </trkpt>
      <trkpt lat="46.20139" lon="6.85253">
        <ele>1810.6</ele>
        <time>2023-09-10T13:48:35.612Z</time>
      </trkpt>
      <trkpt lat="46.20139" lon="6.85264">
        <ele>1809</ele>
        <time>2023-09-10T13:48:36.612Z</time>
      </trkpt>
      <trkpt lat="46.20142" lon="6.85284">
        <ele>1806.4</ele>
        <time>2023-09-10T13:48:37.612Z</time>
      </trkpt>
      <trkpt lat="46.20165" lon="6.85336">
        <ele>1801.8</ele>
        <time>2023-09-10T13:48:38.612Z</time>
      </trkpt>
      <trkpt lat="46.20189" lon="6.85375">
        <ele>1796.7</ele>
        <time>2023-09-10T13:48:39.612Z</time>
      </trkpt>
      <trkpt lat="46.2021" lon="6.85396">
        <ele>1794.5</ele>
        <time>2023-09-10T13:48:40.612Z</time>
      </trkpt>
      <trkpt lat="46.20233" lon="6.8541">
        <ele>1793.5</ele>
        <time>2023-09-10T13:48:41.612Z</time>
      </trkpt>
      <trkpt lat="46.20224" lon="6.85413">
        <ele>1791.5</ele>
        <time>2023-09-10T13:48:42.612Z</time>
      </trkpt>
      <trkpt lat="46.20216" lon="6.85408">
        <ele>1791.7</ele>
        <time>2023-09-10T13:48:43.612Z</time>
      </trkpt>
      <trkpt lat="46.20202" lon="6.85403">
        <ele>1790.2</ele>
        <time>2023-09-10T13:48:44.612Z</time>
      </trkpt>
      <trkpt lat="46.2017" lon="6.85393">
        <ele>1786.3</ele>
        <time>2023-09-10T13:48:45.612Z</time>
      </trkpt>
      <trkpt lat="46.20144" lon="6.85387">
        <ele>1782.7</ele>
        <time>2023-09-10T13:48:46.612Z</time>
      </trkpt>
      <trkpt lat="46.20128" lon="6.8538">
        <ele>1779.2</ele>
        <time>2023-09-10T13:48:47.612Z</time>
      </trkpt>
      <trkpt lat="46.20115" lon="6.85368">
        <ele>1777.4</ele>
        <time>2023-09-10T13:48:48.612Z</time>
      </trkpt>
      <trkpt lat="46.2009" lon="6.8534">
        <ele>1773.7</ele>
        <time>2023-09-10T13:48:49.612Z</time>
      </trkpt>
      <trkpt lat="46.20082" lon="6.85325">
        <ele>1773.7</ele>
        <time>2023-09-10T13:48:50.612Z</time>
      </trkpt>
      <trkpt lat="46.20075" lon="6.85318">
        <ele>1771.7</ele>
        <time>2023-09-10T13:48:51.612Z</time>
      </trkpt>
      <trkpt lat="46.20079" lon="6.85332">
        <ele>1771.8</ele>
        <time>2023-09-10T13:48:52.612Z</time>
      </trkpt>
      <trkpt lat="46.20103" lon="6.85379">
        <ele>1768.2</ele>
        <time>2023-09-10T13:48:53.612Z</time>
      </trkpt>
      <trkpt lat="46.20114" lon="6.85405">
        <ele>1765</ele>
        <time>2023-09-10T13:48:54.612Z</time>
      </trkpt>
      <trkpt lat="46.20124" lon="6.85422">
        <ele>1763.2</ele>
        <time>2023-09-10T13:48:55.612Z</time>
      </trkpt>
      <trkpt lat="46.20173" lon="6.85485">
        <ele>1757.4</ele>
        <time>2023-09-10T13:48:56.612Z</time>
      </trkpt>
      <trkpt lat="46.20196" lon="6.85507">
        <ele>1754.3</ele>
        <time>2023-09-10T13:48:57.612Z</time>
      </trkpt>
      <trkpt lat="46.20216" lon="6.85532">
        <ele>1751.2</ele>
        <time>2023-09-10T13:48:58.612Z</time>
      </trkpt>
      <trkpt lat="46.20222" lon="6.85542">
        <ele>1750.9</ele>
        <time>2023-09-10T13:48:59.612Z</time>
      </trkpt>
      <trkpt lat="46.20242" lon="6.85587">
        <ele>1747.4</ele>
        <time>2023-09-10T13:49:00.612Z</time>
      </trkpt>
      <trkpt lat="46.20254" lon="6.85628">
        <ele>1741.1</ele>
        <time>2023-09-10T13:49:01.612Z</time>
      </trkpt>
      <trkpt lat="46.20265" lon="6.8564">
        <ele>1737.6</ele>
        <time>2023-09-10T13:49:02.612Z</time>
      </trkpt>
      <trkpt lat="46.20325" lon="6.85682">
        <ele>1726.5</ele>
        <time>2023-09-10T13:49:03.612Z</time>
      </trkpt>
      <trkpt lat="46.20383" lon="6.8571">
        <ele>1719</ele>
        <time>2023-09-10T13:49:04.612Z</time>
      </trkpt>
      <trkpt lat="46.20411" lon="6.8573">
        <ele>1715.2</ele>
        <time>2023-09-10T13:49:05.612Z</time>
      </trkpt>
      <trkpt lat="46.20445" lon="6.85749">
        <ele>1710.6</ele>
        <time>2023-09-10T13:49:06.612Z</time>
      </trkpt>
      <trkpt lat="46.20481" lon="6.85787">
        <ele>1705.3</ele>
        <time>2023-09-10T13:49:07.612Z</time>
      </trkpt>
      <trkpt lat="46.20507" lon="6.85823">
        <ele>1702.3</ele>
        <time>2023-09-10T13:49:08.612Z</time>
      </trkpt>
      <trkpt lat="46.20518" lon="6.85834">
        <ele>1701.7</ele>
        <time>2023-09-10T13:49:09.612Z</time>
      </trkpt>
      <trkpt lat="46.20528" lon="6.85836">
        <ele>1703.1</ele>
        <time>2023-09-10T13:49:10.612Z</time>
      </trkpt>
      <trkpt lat="46.20556" lon="6.85829">
        <ele>1704.1</ele>
        <time>2023-09-10T13:49:11.612Z</time>
      </trkpt>
      <trkpt lat="46.20566" lon="6.85829">
        <ele>1704.9</ele>
        <time>2023-09-10T13:49:12.612Z</time>
      </trkpt>
      <trkpt lat="46.20613" lon="6.85844">
        <ele>1702.4</ele>
        <time>2023-09-10T13:49:13.612Z</time>
      </trkpt>
      <trkpt lat="46.2064" lon="6.85845">
        <ele>1701.4</ele>
        <time>2023-09-10T13:49:14.612Z</time>
      </trkpt>
      <trkpt lat="46.20652" lon="6.8584">
        <ele>1702.3</ele>
        <time>2023-09-10T13:49:15.612Z</time>
      </trkpt>
      <trkpt lat="46.20661" lon="6.8583">
        <ele>1703.2</ele>
        <time>2023-09-10T13:49:16.612Z</time>
      </trkpt>
      <trkpt lat="46.20674" lon="6.85799">
        <ele>1705.4</ele>
        <time>2023-09-10T13:49:17.612Z</time>
      </trkpt>
      <trkpt lat="46.20687" lon="6.85782">
        <ele>1706</ele>
        <time>2023-09-10T13:49:18.612Z</time>
      </trkpt>
      <trkpt lat="46.20704" lon="6.85769">
        <ele>1705.4</ele>
        <time>2023-09-10T13:49:19.612Z</time>
      </trkpt>
      <trkpt lat="46.20755" lon="6.8575">
        <ele>1699.5</ele>
        <time>2023-09-10T13:49:20.612Z</time>
      </trkpt>
      <trkpt lat="46.20762" lon="6.85744">
        <ele>1699.6</ele>
        <time>2023-09-10T13:49:21.612Z</time>
      </trkpt>
      <trkpt lat="46.20795" lon="6.85706">
        <ele>1696.1</ele>
        <time>2023-09-10T13:49:22.612Z</time>
      </trkpt>
      <trkpt lat="46.20825" lon="6.85663">
        <ele>1693.3</ele>
        <time>2023-09-10T13:49:23.612Z</time>
      </trkpt>
      <trkpt lat="46.20847" lon="6.85637">
        <ele>1693</ele>
        <time>2023-09-10T13:49:24.612Z</time>
      </trkpt>
      <trkpt lat="46.20863" lon="6.85633">
        <ele>1693.8</ele>
        <time>2023-09-10T13:49:25.612Z</time>
      </trkpt>
      <trkpt lat="46.20874" lon="6.85641">
        <ele>1694.1</ele>
        <time>2023-09-10T13:49:26.612Z</time>
      </trkpt>
      <trkpt lat="46.20889" lon="6.85665">
        <ele>1694</ele>
        <time>2023-09-10T13:49:27.612Z</time>
      </trkpt>
      <trkpt lat="46.20896" lon="6.85671">
        <ele>1694.3</ele>
        <time>2023-09-10T13:49:28.612Z</time>
      </trkpt>
      <trkpt lat="46.20906" lon="6.85676">
        <ele>1694.8</ele>
        <time>2023-09-10T13:49:29.612Z</time>
      </trkpt>
      <trkpt lat="46.20915" lon="6.85675">
        <ele>1695.2</ele>
        <time>2023-09-10T13:49:30.612Z</time>
      </trkpt>
      <trkpt lat="46.20924" lon="6.85671">
        <ele>1695.9</ele>
        <time>2023-09-10T13:49:31.612Z</time>
      </trkpt>
      <trkpt lat="46.2095" lon="6.85651">
        <ele>1698.1</ele>
        <time>2023-09-10T13:49:32.612Z</time>
      </trkpt>
      <trkpt lat="46.20965" lon="6.85636">
        <ele>1700.2</ele>
        <time>2023-09-10T13:49:33.612Z</time>
      </trkpt>
      <trkpt lat="46.20983" lon="6.85605">
        <ele>1701.8</ele>
        <time>2023-09-10T13:49:34.612Z</time>
      </trkpt>
      <trkpt lat="46.21004" lon="6.85577">
        <ele>1703.5</ele>
        <time>2023-09-10T13:49:35.612Z</time>
      </trkpt>
      <trkpt lat="46.21041" lon="6.85544">
        <ele>1707.1</ele>
        <time>2023-09-10T13:49:36.612Z</time>
      </trkpt>
      <trkpt lat="46.21058" lon="6.85532">
        <ele>1710.7</ele>
        <time>2023-09-10T13:49:37.612Z</time>
      </trkpt>
      <trkpt lat="46.21074" lon="6.85518">
        <ele>1712.8</ele>
        <time>2023-09-10T13:49:38.612Z</time>
      </trkpt>
      <trkpt lat="46.21103" lon="6.85488">
        <ele>1717.2</ele>
        <time>2023-09-10T13:49:39.612Z</time>
      </trkpt>
      <trkpt lat="46.21127" lon="6.85468">
        <ele>1721</ele>
        <time>2023-09-10T13:49:40.612Z</time>
      </trkpt>
      <trkpt lat="46.21134" lon="6.8546">
        <ele>1722.3</ele>
        <time>2023-09-10T13:49:41.612Z</time>
      </trkpt>
      <trkpt lat="46.21137" lon="6.8544">
        <ele>1724.5</ele>
        <time>2023-09-10T13:49:42.612Z</time>
      </trkpt>
      <trkpt lat="46.21136" lon="6.85431">
        <ele>1725.8</ele>
        <time>2023-09-10T13:49:43.612Z</time>
      </trkpt>
      <trkpt lat="46.2111" lon="6.85342">
        <ele>1731</ele>
        <time>2023-09-10T13:49:44.612Z</time>
      </trkpt>
      <trkpt lat="46.21116" lon="6.85335">
        <ele>1735.5</ele>
        <time>2023-09-10T13:49:45.612Z</time>
      </trkpt>
      <trkpt lat="46.21123" lon="6.85355">
        <ele>1734.9</ele>
        <time>2023-09-10T13:49:46.612Z</time>
      </trkpt>
      <trkpt lat="46.21128" lon="6.85364">
        <ele>1735.2</ele>
        <time>2023-09-10T13:49:47.612Z</time>
      </trkpt>
      <trkpt lat="46.21143" lon="6.85379">
        <ele>1737.7</ele>
        <time>2023-09-10T13:49:48.612Z</time>
      </trkpt>
      <trkpt lat="46.21169" lon="6.85414">
        <ele>1741.3</ele>
        <time>2023-09-10T13:49:49.612Z</time>
      </trkpt>
      <trkpt lat="46.21196" lon="6.85429">
        <ele>1747.2</ele>
        <time>2023-09-10T13:49:50.612Z</time>
      </trkpt>
      <trkpt lat="46.21208" lon="6.85443">
        <ele>1748.7</ele>
        <time>2023-09-10T13:49:51.612Z</time>
      </trkpt>
      <trkpt lat="46.21237" lon="6.85471">
        <ele>1750.5</ele>
        <time>2023-09-10T13:49:52.612Z</time>
      </trkpt>
      <trkpt lat="46.21252" lon="6.85493">
        <ele>1750</ele>
        <time>2023-09-10T13:49:53.612Z</time>
      </trkpt>
      <trkpt lat="46.21277" lon="6.85537">
        <ele>1749.1</ele>
        <time>2023-09-10T13:49:54.612Z</time>
      </trkpt>
      <trkpt lat="46.21284" lon="6.85546">
        <ele>1748.8</ele>
        <time>2023-09-10T13:49:55.612Z</time>
      </trkpt>
      <trkpt lat="46.21326" lon="6.85583">
        <ele>1747</ele>
        <time>2023-09-10T13:49:56.612Z</time>
      </trkpt>
      <trkpt lat="46.21352" lon="6.85624">
        <ele>1747</ele>
        <time>2023-09-10T13:49:57.612Z</time>
      </trkpt>
      <trkpt lat="46.21362" lon="6.85636">
        <ele>1747.5</ele>
        <time>2023-09-10T13:49:58.612Z</time>
      </trkpt>
      <trkpt lat="46.21415" lon="6.85682">
        <ele>1749.3</ele>
        <time>2023-09-10T13:49:59.612Z</time>
      </trkpt>
      <trkpt lat="46.21449" lon="6.85723">
        <ele>1750</ele>
        <time>2023-09-10T13:50:00.612Z</time>
      </trkpt>
      <trkpt lat="46.21469" lon="6.85753">
        <ele>1749.9</ele>
        <time>2023-09-10T13:50:01.612Z</time>
      </trkpt>
      <trkpt lat="46.21482" lon="6.85776">
        <ele>1749.4</ele>
        <time>2023-09-10T13:50:02.612Z</time>
      </trkpt>
      <trkpt lat="46.21523" lon="6.85835">
        <ele>1747.3</ele>
        <time>2023-09-10T13:50:03.612Z</time>
      </trkpt>
      <trkpt lat="46.21539" lon="6.8587">
        <ele>1746.4</ele>
        <time>2023-09-10T13:50:04.612Z</time>
      </trkpt>
      <trkpt lat="46.21555" lon="6.85928">
        <ele>1742.8</ele>
        <time>2023-09-10T13:50:05.612Z</time>
      </trkpt>
      <trkpt lat="46.21568" lon="6.85951">
        <ele>1742.5</ele>
        <time>2023-09-10T13:50:06.612Z</time>
      </trkpt>
      <trkpt lat="46.21574" lon="6.85958">
        <ele>1742.7</ele>
        <time>2023-09-10T13:50:07.612Z</time>
      </trkpt>
      <trkpt lat="46.21626" lon="6.86041">
        <ele>1739.1</ele>
        <time>2023-09-10T13:50:08.612Z</time>
      </trkpt>
      <trkpt lat="46.21653" lon="6.86078">
        <ele>1736.4</ele>
        <time>2023-09-10T13:50:09.612Z</time>
      </trkpt>
      <trkpt lat="46.21673" lon="6.86095">
        <ele>1735.4</ele>
        <time>2023-09-10T13:50:10.612Z</time>
      </trkpt>
      <trkpt lat="46.21699" lon="6.86125">
        <ele>1735.2</ele>
        <time>2023-09-10T13:50:11.612Z</time>
      </trkpt>
      <trkpt lat="46.2171" lon="6.86126">
        <ele>1735.5</ele>
        <time>2023-09-10T13:50:12.612Z</time>
      </trkpt>
      <trkpt lat="46.2172" lon="6.86113">
        <ele>1736.1</ele>
        <time>2023-09-10T13:50:13.612Z</time>
      </trkpt>
      <trkpt lat="46.21748" lon="6.86067">
        <ele>1736.1</ele>
        <time>2023-09-10T13:50:14.612Z</time>
      </trkpt>
      <trkpt lat="46.21768" lon="6.86043">
        <ele>1736.3</ele>
        <time>2023-09-10T13:50:15.612Z</time>
      </trkpt>
      <trkpt lat="46.21778" lon="6.8602">
        <ele>1735.7</ele>
        <time>2023-09-10T13:50:16.612Z</time>
      </trkpt>
      <trkpt lat="46.21784" lon="6.85996">
        <ele>1734.7</ele>
        <time>2023-09-10T13:50:17.612Z</time>
      </trkpt>
      <trkpt lat="46.2179" lon="6.85983">
        <ele>1735.7</ele>
        <time>2023-09-10T13:50:18.612Z</time>
      </trkpt>
      <trkpt lat="46.21804" lon="6.85967">
        <ele>1735.8</ele>
        <time>2023-09-10T13:50:19.612Z</time>
      </trkpt>
      <trkpt lat="46.21829" lon="6.85948">
        <ele>1736</ele>
        <time>2023-09-10T13:50:20.612Z</time>
      </trkpt>
      <trkpt lat="46.21832" lon="6.85939">
        <ele>1736.9</ele>
        <time>2023-09-10T13:50:21.612Z</time>
      </trkpt>
      <trkpt lat="46.21827" lon="6.85929">
        <ele>1738.8</ele>
        <time>2023-09-10T13:50:22.612Z</time>
      </trkpt>
      <trkpt lat="46.21816" lon="6.85924">
        <ele>1740.7</ele>
        <time>2023-09-10T13:50:23.612Z</time>
      </trkpt>
      <trkpt lat="46.21768" lon="6.85919">
        <ele>1747.7</ele>
        <time>2023-09-10T13:50:24.612Z</time>
      </trkpt>
      <trkpt lat="46.21759" lon="6.85916">
        <ele>1749.1</ele>
        <time>2023-09-10T13:50:25.612Z</time>
      </trkpt>
      <trkpt lat="46.21753" lon="6.85908">
        <ele>1750.6</ele>
        <time>2023-09-10T13:50:26.612Z</time>
      </trkpt>
      <trkpt lat="46.21752" lon="6.85899">
        <ele>1751.7</ele>
        <time>2023-09-10T13:50:27.612Z</time>
      </trkpt>
      <trkpt lat="46.21752" lon="6.8589">
        <ele>1752.7</ele>
        <time>2023-09-10T13:50:28.612Z</time>
      </trkpt>
      <trkpt lat="46.21756" lon="6.85871">
        <ele>1755</ele>
        <time>2023-09-10T13:50:29.612Z</time>
      </trkpt>
      <trkpt lat="46.21767" lon="6.85833">
        <ele>1758.6</ele>
        <time>2023-09-10T13:50:30.612Z</time>
      </trkpt>
      <trkpt lat="46.21775" lon="6.85794">
        <ele>1760.8</ele>
        <time>2023-09-10T13:50:31.612Z</time>
      </trkpt>
      <trkpt lat="46.21788" lon="6.85747">
        <ele>1763</ele>
        <time>2023-09-10T13:50:32.612Z</time>
      </trkpt>
      <trkpt lat="46.21808" lon="6.85696">
        <ele>1769.6</ele>
        <time>2023-09-10T13:50:33.612Z</time>
      </trkpt>
      <trkpt lat="46.21829" lon="6.85655">
        <ele>1775</ele>
        <time>2023-09-10T13:50:34.612Z</time>
      </trkpt>
      <trkpt lat="46.21851" lon="6.85579">
        <ele>1780.4</ele>
        <time>2023-09-10T13:50:35.612Z</time>
      </trkpt>
      <trkpt lat="46.21847" lon="6.85569">
        <ele>1781.5</ele>
        <time>2023-09-10T13:50:36.612Z</time>
      </trkpt>
      <trkpt lat="46.21838" lon="6.85571">
        <ele>1782.1</ele>
        <time>2023-09-10T13:50:37.612Z</time>
      </trkpt>
      <trkpt lat="46.21823" lon="6.85588">
        <ele>1784</ele>
        <time>2023-09-10T13:50:38.612Z</time>
      </trkpt>
      <trkpt lat="46.21814" lon="6.85594">
        <ele>1785.2</ele>
        <time>2023-09-10T13:50:39.612Z</time>
      </trkpt>
      <trkpt lat="46.21805" lon="6.85596">
        <ele>1786.8</ele>
        <time>2023-09-10T13:50:40.612Z</time>
      </trkpt>
      <trkpt lat="46.21777" lon="6.85591">
        <ele>1790.4</ele>
        <time>2023-09-10T13:50:41.612Z</time>
      </trkpt>
      <trkpt lat="46.21768" lon="6.85587">
        <ele>1792.3</ele>
        <time>2023-09-10T13:50:42.612Z</time>
      </trkpt>
      <trkpt lat="46.21763" lon="6.85577">
        <ele>1794.5</ele>
        <time>2023-09-10T13:50:43.612Z</time>
      </trkpt>
      <trkpt lat="46.21764" lon="6.85568">
        <ele>1795.7</ele>
        <time>2023-09-10T13:50:44.612Z</time>
      </trkpt>
      <trkpt lat="46.21784" lon="6.85531">
        <ele>1799.9</ele>
        <time>2023-09-10T13:50:45.612Z</time>
      </trkpt>
      <trkpt lat="46.2179" lon="6.85512">
        <ele>1801.4</ele>
        <time>2023-09-10T13:50:46.612Z</time>
      </trkpt>
      <trkpt lat="46.21792" lon="6.85492">
        <ele>1803.3</ele>
        <time>2023-09-10T13:50:47.612Z</time>
      </trkpt>
      <trkpt lat="46.21787" lon="6.85436">
        <ele>1810.6</ele>
        <time>2023-09-10T13:50:48.612Z</time>
      </trkpt>
      <trkpt lat="46.21781" lon="6.85409">
        <ele>1814.3</ele>
        <time>2023-09-10T13:50:49.612Z</time>
      </trkpt>
      <trkpt lat="46.21771" lon="6.85373">
        <ele>1818.7</ele>
        <time>2023-09-10T13:50:50.612Z</time>
      </trkpt>
      <trkpt lat="46.21759" lon="6.85351">
        <ele>1823.2</ele>
        <time>2023-09-10T13:50:51.612Z</time>
      </trkpt>
      <trkpt lat="46.21758" lon="6.85332">
        <ele>1825</ele>
        <time>2023-09-10T13:50:52.612Z</time>
      </trkpt>
      <trkpt lat="46.21762" lon="6.8527">
        <ele>1831.7</ele>
        <time>2023-09-10T13:50:53.612Z</time>
      </trkpt>
      <trkpt lat="46.21769" lon="6.85217">
        <ele>1835.8</ele>
        <time>2023-09-10T13:50:54.612Z</time>
      </trkpt>
      <trkpt lat="46.21774" lon="6.85196">
        <ele>1837.4</ele>
        <time>2023-09-10T13:50:55.612Z</time>
      </trkpt>
      <trkpt lat="46.21781" lon="6.85176">
        <ele>1839.4</ele>
        <time>2023-09-10T13:50:56.612Z</time>
      </trkpt>
      <trkpt lat="46.21796" lon="6.85112">
        <ele>1845.6</ele>
        <time>2023-09-10T13:50:57.612Z</time>
      </trkpt>
      <trkpt lat="46.21805" lon="6.85081">
        <ele>1849.4</ele>
        <time>2023-09-10T13:50:58.612Z</time>
      </trkpt>
      <trkpt lat="46.21808" lon="6.85061">
        <ele>1851.9</ele>
        <time>2023-09-10T13:50:59.612Z</time>
      </trkpt>
      <trkpt lat="46.21807" lon="6.85051">
        <ele>1851.3</ele>
        <time>2023-09-10T13:51:00.612Z</time>
      </trkpt>
      <trkpt lat="46.21804" lon="6.85041">
        <ele>1849.2</ele>
        <time>2023-09-10T13:51:01.612Z</time>
      </trkpt>
      <trkpt lat="46.21797" lon="6.85033">
        <ele>1849</ele>
        <time>2023-09-10T13:51:02.612Z</time>
      </trkpt>
      <trkpt lat="46.21727" lon="6.84972">
        <ele>1840.4</ele>
        <time>2023-09-10T13:51:03.612Z</time>
      </trkpt>
      <trkpt lat="46.21721" lon="6.84962">
        <ele>1841.4</ele>
        <time>2023-09-10T13:51:04.612Z</time>
      </trkpt>
      <trkpt lat="46.21719" lon="6.84949">
        <ele>1840.8</ele>
        <time>2023-09-10T13:51:05.612Z</time>
      </trkpt>
      <trkpt lat="46.21727" lon="6.84915">
        <ele>1841.7</ele>
        <time>2023-09-10T13:51:06.612Z</time>
      </trkpt>
      <trkpt lat="46.21728" lon="6.84905">
        <ele>1841.7</ele>
        <time>2023-09-10T13:51:07.612Z</time>
      </trkpt>
      <trkpt lat="46.21727" lon="6.84896">
        <ele>1842.2</ele>
        <time>2023-09-10T13:51:08.612Z</time>
      </trkpt>
      <trkpt lat="46.21722" lon="6.84885">
        <ele>1843.9</ele>
        <time>2023-09-10T13:51:09.612Z</time>
      </trkpt>
      <trkpt lat="46.21716" lon="6.84877">
        <ele>1844.8</ele>
        <time>2023-09-10T13:51:10.612Z</time>
      </trkpt>
      <trkpt lat="46.21665" lon="6.84839">
        <ele>1847.8</ele>
        <time>2023-09-10T13:51:11.612Z</time>
      </trkpt>
      <trkpt lat="46.21639" lon="6.84815">
        <ele>1848</ele>
        <time>2023-09-10T13:51:12.612Z</time>
      </trkpt>
      <trkpt lat="46.21631" lon="6.8481">
        <ele>1847.4</ele>
        <time>2023-09-10T13:51:13.612Z</time>
      </trkpt>
      <trkpt lat="46.21596" lon="6.84799">
        <ele>1845.1</ele>
        <time>2023-09-10T13:51:14.612Z</time>
      </trkpt>
      <trkpt lat="46.21584" lon="6.84792">
        <ele>1843.6</ele>
        <time>2023-09-10T13:51:15.612Z</time>
      </trkpt>
      <trkpt lat="46.21557" lon="6.8477">
        <ele>1842.3</ele>
        <time>2023-09-10T13:51:16.612Z</time>
      </trkpt>
      <trkpt lat="46.21528" lon="6.8475">
        <ele>1838</ele>
        <time>2023-09-10T13:51:17.612Z</time>
      </trkpt>
      <trkpt lat="46.21513" lon="6.84736">
        <ele>1839.3</ele>
        <time>2023-09-10T13:51:18.612Z</time>
      </trkpt>
      <trkpt lat="46.21501" lon="6.84718">
        <ele>1837.2</ele>
        <time>2023-09-10T13:51:19.612Z</time>
      </trkpt>
      <trkpt lat="46.21485" lon="6.84689">
        <ele>1835</ele>
        <time>2023-09-10T13:51:20.612Z</time>
      </trkpt>
      <trkpt lat="46.21473" lon="6.84672">
        <ele>1833.8</ele>
        <time>2023-09-10T13:51:21.612Z</time>
      </trkpt>
      <trkpt lat="46.21466" lon="6.84665">
        <ele>1832.6</ele>
        <time>2023-09-10T13:51:22.612Z</time>
      </trkpt>
      <trkpt lat="46.21449" lon="6.84654">
        <ele>1832.5</ele>
        <time>2023-09-10T13:51:23.612Z</time>
      </trkpt>
      <trkpt lat="46.21435" lon="6.84642">
        <ele>1834.4</ele>
        <time>2023-09-10T13:51:24.612Z</time>
      </trkpt>
      <trkpt lat="46.21413" lon="6.84617">
        <ele>1833.8</ele>
        <time>2023-09-10T13:51:25.612Z</time>
      </trkpt>
      <trkpt lat="46.21377" lon="6.84602">
        <ele>1832.2</ele>
        <time>2023-09-10T13:51:26.612Z</time>
      </trkpt>
      <trkpt lat="46.21356" lon="6.84583">
        <ele>1831.1</ele>
        <time>2023-09-10T13:51:27.612Z</time>
      </trkpt>
      <trkpt lat="46.21343" lon="6.84578">
        <ele>1830.2</ele>
        <time>2023-09-10T13:51:28.612Z</time>
      </trkpt>
      <trkpt lat="46.21321" lon="6.84565">
        <ele>1828.1</ele>
        <time>2023-09-10T13:51:29.612Z</time>
      </trkpt>
      <trkpt lat="46.21278" lon="6.84533">
        <ele>1823.8</ele>
        <time>2023-09-10T13:51:30.612Z</time>
      </trkpt>
      <trkpt lat="46.21271" lon="6.84526">
        <ele>1824.2</ele>
        <time>2023-09-10T13:51:31.612Z</time>
      </trkpt>
      <trkpt lat="46.21266" lon="6.84518">
        <ele>1823.9</ele>
        <time>2023-09-10T13:51:32.612Z</time>
      </trkpt>
      <trkpt lat="46.21245" lon="6.84466">
        <ele>1821.6</ele>
        <time>2023-09-10T13:51:33.612Z</time>
      </trkpt>
      <trkpt lat="46.21234" lon="6.8445">
        <ele>1819.8</ele>
        <time>2023-09-10T13:51:34.612Z</time>
      </trkpt>
      <trkpt lat="46.2122" lon="6.84436">
        <ele>1817.7</ele>
        <time>2023-09-10T13:51:35.612Z</time>
      </trkpt>
      <trkpt lat="46.21164" lon="6.8439">
        <ele>1812.4</ele>
        <time>2023-09-10T13:51:36.612Z</time>
      </trkpt>
      <trkpt lat="46.2114" lon="6.84378">
        <ele>1809.4</ele>
        <time>2023-09-10T13:51:37.612Z</time>
      </trkpt>
      <trkpt lat="46.21123" lon="6.84373">
        <ele>1807.5</ele>
        <time>2023-09-10T13:51:38.612Z</time>
      </trkpt>
      <trkpt lat="46.21107" lon="6.84371">
        <ele>1805.9</ele>
        <time>2023-09-10T13:51:39.612Z</time>
      </trkpt>
      <trkpt lat="46.21077" lon="6.84372">
        <ele>1803</ele>
        <time>2023-09-10T13:51:40.612Z</time>
      </trkpt>
      <trkpt lat="46.21066" lon="6.84364">
        <ele>1801.2</ele>
        <time>2023-09-10T13:51:41.612Z</time>
      </trkpt>
      <trkpt lat="46.21055" lon="6.84351">
        <ele>1798.2</ele>
        <time>2023-09-10T13:51:42.612Z</time>
      </trkpt>
      <trkpt lat="46.21033" lon="6.84331">
        <ele>1793.8</ele>
        <time>2023-09-10T13:51:43.612Z</time>
      </trkpt>
      <trkpt lat="46.20992" lon="6.84308">
        <ele>1787.2</ele>
        <time>2023-09-10T13:51:44.612Z</time>
      </trkpt>
      <trkpt lat="46.20976" lon="6.84297">
        <ele>1785.7</ele>
        <time>2023-09-10T13:51:45.612Z</time>
      </trkpt>
      <trkpt lat="46.20959" lon="6.84277">
        <ele>1786.8</ele>
        <time>2023-09-10T13:51:46.612Z</time>
      </trkpt>
      <trkpt lat="46.20953" lon="6.84264">
        <ele>1786.9</ele>
        <time>2023-09-10T13:51:47.612Z</time>
      </trkpt>
      <trkpt lat="46.20951" lon="6.84254">
        <ele>1786.5</ele>
        <time>2023-09-10T13:51:48.612Z</time>
      </trkpt>
      <trkpt lat="46.20958" lon="6.84228">
        <ele>1784.9</ele>
        <time>2023-09-10T13:51:49.612Z</time>
      </trkpt>
      <trkpt lat="46.20971" lon="6.8419">
        <ele>1780.9</ele>
        <time>2023-09-10T13:51:50.612Z</time>
      </trkpt>
      <trkpt lat="46.20974" lon="6.84163">
        <ele>1777</ele>
        <time>2023-09-10T13:51:51.612Z</time>
      </trkpt>
      <trkpt lat="46.20974" lon="6.84143">
        <ele>1775</ele>
        <time>2023-09-10T13:51:52.612Z</time>
      </trkpt>
      <trkpt lat="46.20972" lon="6.84124">
        <ele>1773.5</ele>
        <time>2023-09-10T13:51:53.612Z</time>
      </trkpt>
      <trkpt lat="46.20968" lon="6.84108">
        <ele>1773</ele>
        <time>2023-09-10T13:51:54.612Z</time>
      </trkpt>
      <trkpt lat="46.20968" lon="6.84097">
        <ele>1773.7</ele>
        <time>2023-09-10T13:51:55.612Z</time>
      </trkpt>
      <trkpt lat="46.20973" lon="6.84086">
        <ele>1772.7</ele>
        <time>2023-09-10T13:51:56.612Z</time>
      </trkpt>
      <trkpt lat="46.20987" lon="6.84068">
        <ele>1769.8</ele>
        <time>2023-09-10T13:51:57.612Z</time>
      </trkpt>
      <trkpt lat="46.20999" lon="6.84027">
        <ele>1768.3</ele>
        <time>2023-09-10T13:51:58.612Z</time>
      </trkpt>
      <trkpt lat="46.21005" lon="6.84017">
        <ele>1767.5</ele>
        <time>2023-09-10T13:51:59.612Z</time>
      </trkpt>
      <trkpt lat="46.2102" lon="6.83998">
        <ele>1765.3</ele>
        <time>2023-09-10T13:52:00.612Z</time>
      </trkpt>
      <trkpt lat="46.21025" lon="6.83989">
        <ele>1763.7</ele>
        <time>2023-09-10T13:52:01.612Z</time>
      </trkpt>
      <trkpt lat="46.21028" lon="6.83978">
        <ele>1762.4</ele>
        <time>2023-09-10T13:52:02.612Z</time>
      </trkpt>
      <trkpt lat="46.21039" lon="6.83973">
        <ele>1760.4</ele>
        <time>2023-09-10T13:52:03.612Z</time>
      </trkpt>
      <trkpt lat="46.21075" lon="6.83941">
        <ele>1751.1</ele>
        <time>2023-09-10T13:52:04.612Z</time>
      </trkpt>
      <trkpt lat="46.21121" lon="6.83892">
        <ele>1738.4</ele>
        <time>2023-09-10T13:52:05.612Z</time>
      </trkpt>
      <trkpt lat="46.21143" lon="6.83875">
        <ele>1733.3</ele>
        <time>2023-09-10T13:52:06.612Z</time>
      </trkpt>
      <trkpt lat="46.21163" lon="6.83855">
        <ele>1728.6</ele>
        <time>2023-09-10T13:52:07.612Z</time>
      </trkpt>
      <trkpt lat="46.21182" lon="6.83841">
        <ele>1723.3</ele>
        <time>2023-09-10T13:52:08.612Z</time>
      </trkpt>
      <trkpt lat="46.21191" lon="6.83838">
        <ele>1721.6</ele>
        <time>2023-09-10T13:52:09.612Z</time>
      </trkpt>
      <trkpt lat="46.212" lon="6.83845">
        <ele>1717.2</ele>
        <time>2023-09-10T13:52:10.612Z</time>
      </trkpt>
      <trkpt lat="46.21214" lon="6.8388">
        <ele>1709.2</ele>
        <time>2023-09-10T13:52:11.612Z</time>
      </trkpt>
      <trkpt lat="46.21219" lon="6.83889">
        <ele>1706.2</ele>
        <time>2023-09-10T13:52:12.612Z</time>
      </trkpt>
      <trkpt lat="46.21232" lon="6.83927">
        <ele>1699.1</ele>
        <time>2023-09-10T13:52:13.612Z</time>
      </trkpt>
      <trkpt lat="46.21237" lon="6.83938">
        <ele>1696.9</ele>
        <time>2023-09-10T13:52:14.612Z</time>
      </trkpt>
      <trkpt lat="46.21244" lon="6.83945">
        <ele>1694.2</ele>
        <time>2023-09-10T13:52:15.612Z</time>
      </trkpt>
      <trkpt lat="46.21277" lon="6.83938">
        <ele>1687.4</ele>
        <time>2023-09-10T13:52:16.612Z</time>
      </trkpt>
      <trkpt lat="46.21298" lon="6.83941">
        <ele>1682.6</ele>
        <time>2023-09-10T13:52:17.612Z</time>
      </trkpt>
      <trkpt lat="46.21308" lon="6.83933">
        <ele>1679.7</ele>
        <time>2023-09-10T13:52:18.612Z</time>
      </trkpt>
      <trkpt lat="46.21317" lon="6.83929">
        <ele>1676.6</ele>
        <time>2023-09-10T13:52:19.612Z</time>
      </trkpt>
      <trkpt lat="46.21335" lon="6.83937">
        <ele>1670.6</ele>
        <time>2023-09-10T13:52:20.612Z</time>
      </trkpt>
      <trkpt lat="46.2134" lon="6.83928">
        <ele>1669</ele>
        <time>2023-09-10T13:52:21.612Z</time>
      </trkpt>
      <trkpt lat="46.21343" lon="6.8391">
        <ele>1667.4</ele>
        <time>2023-09-10T13:52:22.612Z</time>
      </trkpt>
      <trkpt lat="46.21342" lon="6.83898">
        <ele>1667.7</ele>
        <time>2023-09-10T13:52:23.612Z</time>
      </trkpt>
      <trkpt lat="46.21348" lon="6.83837">
        <ele>1666.4</ele>
        <time>2023-09-10T13:52:24.612Z</time>
      </trkpt>
      <trkpt lat="46.21349" lon="6.83812">
        <ele>1665</ele>
        <time>2023-09-10T13:52:25.612Z</time>
      </trkpt>
      <trkpt lat="46.21347" lon="6.83795">
        <ele>1664.5</ele>
        <time>2023-09-10T13:52:26.612Z</time>
      </trkpt>
      <trkpt lat="46.21344" lon="6.83779">
        <ele>1664.1</ele>
        <time>2023-09-10T13:52:27.612Z</time>
      </trkpt>
      <trkpt lat="46.21336" lon="6.83755">
        <ele>1665.4</ele>
        <time>2023-09-10T13:52:28.612Z</time>
      </trkpt>
      <trkpt lat="46.21313" lon="6.8371">
        <ele>1663.5</ele>
        <time>2023-09-10T13:52:29.612Z</time>
      </trkpt>
      <trkpt lat="46.213" lon="6.83688">
        <ele>1663.1</ele>
        <time>2023-09-10T13:52:30.612Z</time>
      </trkpt>
      <trkpt lat="46.21291" lon="6.83675">
        <ele>1661</ele>
        <time>2023-09-10T13:52:31.612Z</time>
      </trkpt>
      <trkpt lat="46.21279" lon="6.83665">
        <ele>1661</ele>
        <time>2023-09-10T13:52:32.612Z</time>
      </trkpt>
      <trkpt lat="46.21266" lon="6.83657">
        <ele>1660.9</ele>
        <time>2023-09-10T13:52:33.612Z</time>
      </trkpt>
      <trkpt lat="46.21257" lon="6.83645">
        <ele>1659.5</ele>
        <time>2023-09-10T13:52:34.612Z</time>
      </trkpt>
      <trkpt lat="46.21255" lon="6.83627">
        <ele>1657.8</ele>
        <time>2023-09-10T13:52:35.612Z</time>
      </trkpt>
      <trkpt lat="46.21259" lon="6.83562">
        <ele>1653.2</ele>
        <time>2023-09-10T13:52:36.612Z</time>
      </trkpt>
      <trkpt lat="46.21256" lon="6.83542">
        <ele>1652.1</ele>
        <time>2023-09-10T13:52:37.612Z</time>
      </trkpt>
      <trkpt lat="46.21249" lon="6.83522">
        <ele>1650.9</ele>
        <time>2023-09-10T13:52:38.612Z</time>
      </trkpt>
      <trkpt lat="46.21219" lon="6.83463">
        <ele>1645.6</ele>
        <time>2023-09-10T13:52:39.612Z</time>
      </trkpt>
      <trkpt lat="46.21207" lon="6.83447">
        <ele>1644</ele>
        <time>2023-09-10T13:52:40.612Z</time>
      </trkpt>
      <trkpt lat="46.21187" lon="6.83425">
        <ele>1641.5</ele>
        <time>2023-09-10T13:52:41.612Z</time>
      </trkpt>
      <trkpt lat="46.21176" lon="6.83407">
        <ele>1640.3</ele>
        <time>2023-09-10T13:52:42.612Z</time>
      </trkpt>
      <trkpt lat="46.21172" lon="6.83396">
        <ele>1639.8</ele>
        <time>2023-09-10T13:52:43.612Z</time>
      </trkpt>
      <trkpt lat="46.21169" lon="6.83384">
        <ele>1639.2</ele>
        <time>2023-09-10T13:52:44.612Z</time>
      </trkpt>
      <trkpt lat="46.21166" lon="6.83359">
        <ele>1638.2</ele>
        <time>2023-09-10T13:52:45.612Z</time>
      </trkpt>
      <trkpt lat="46.21168" lon="6.83311">
        <ele>1635.5</ele>
        <time>2023-09-10T13:52:46.612Z</time>
      </trkpt>
      <trkpt lat="46.21158" lon="6.83266">
        <ele>1632.5</ele>
        <time>2023-09-10T13:52:47.612Z</time>
      </trkpt>
      <trkpt lat="46.21146" lon="6.83233">
        <ele>1630.2</ele>
        <time>2023-09-10T13:52:48.612Z</time>
      </trkpt>
      <trkpt lat="46.21141" lon="6.83223">
        <ele>1629.5</ele>
        <time>2023-09-10T13:52:49.612Z</time>
      </trkpt>
      <trkpt lat="46.21129" lon="6.83207">
        <ele>1626.4</ele>
        <time>2023-09-10T13:52:50.612Z</time>
      </trkpt>
      <trkpt lat="46.21115" lon="6.83198">
        <ele>1625.8</ele>
        <time>2023-09-10T13:52:51.612Z</time>
      </trkpt>
      <trkpt lat="46.21106" lon="6.83195">
        <ele>1626</ele>
        <time>2023-09-10T13:52:52.612Z</time>
      </trkpt>
      <trkpt lat="46.21092" lon="6.83187">
        <ele>1625.3</ele>
        <time>2023-09-10T13:52:53.612Z</time>
      </trkpt>
      <trkpt lat="46.2108" lon="6.83173">
        <ele>1623.7</ele>
        <time>2023-09-10T13:52:54.612Z</time>
      </trkpt>
      <trkpt lat="46.21075" lon="6.83164">
        <ele>1623.8</ele>
        <time>2023-09-10T13:52:55.612Z</time>
      </trkpt>
      <trkpt lat="46.21069" lon="6.83141">
        <ele>1622.1</ele>
        <time>2023-09-10T13:52:56.612Z</time>
      </trkpt>
      <trkpt lat="46.21069" lon="6.83119">
        <ele>1621.3</ele>
        <time>2023-09-10T13:52:57.612Z</time>
      </trkpt>
      <trkpt lat="46.21084" lon="6.83046">
        <ele>1615.6</ele>
        <time>2023-09-10T13:52:58.612Z</time>
      </trkpt>
      <trkpt lat="46.21098" lon="6.83002">
        <ele>1612.9</ele>
        <time>2023-09-10T13:52:59.612Z</time>
      </trkpt>
      <trkpt lat="46.21093" lon="6.82994">
        <ele>1613</ele>
        <time>2023-09-10T13:53:00.612Z</time>
      </trkpt>
      <trkpt lat="46.21063" lon="6.82965">
        <ele>1615</ele>
        <time>2023-09-10T13:53:01.612Z</time>
      </trkpt>
      <trkpt lat="46.21054" lon="6.82958">
        <ele>1615.7</ele>
        <time>2023-09-10T13:53:02.612Z</time>
      </trkpt>
      <trkpt lat="46.21043" lon="6.82953">
        <ele>1616.9</ele>
        <time>2023-09-10T13:53:03.612Z</time>
      </trkpt>
      <trkpt lat="46.21023" lon="6.82948">
        <ele>1619.3</ele>
        <time>2023-09-10T13:53:04.612Z</time>
      </trkpt>
      <trkpt lat="46.2099" lon="6.82943">
        <ele>1622.4</ele>
        <time>2023-09-10T13:53:05.612Z</time>
      </trkpt>
      <trkpt lat="46.20968" lon="6.82933">
        <ele>1623.4</ele>
        <time>2023-09-10T13:53:06.612Z</time>
      </trkpt>
      <trkpt lat="46.20956" lon="6.82932">
        <ele>1623.8</ele>
        <time>2023-09-10T13:53:07.612Z</time>
      </trkpt>
      <trkpt lat="46.20945" lon="6.82929">
        <ele>1623.5</ele>
        <time>2023-09-10T13:53:08.612Z</time>
      </trkpt>
      <trkpt lat="46.20938" lon="6.82918">
        <ele>1625.2</ele>
        <time>2023-09-10T13:53:09.612Z</time>
      </trkpt>
      <trkpt lat="46.20935" lon="6.82908">
        <ele>1626.6</ele>
        <time>2023-09-10T13:53:10.612Z</time>
      </trkpt>
      <trkpt lat="46.20933" lon="6.82898">
        <ele>1627.9</ele>
        <time>2023-09-10T13:53:11.612Z</time>
      </trkpt>
      <trkpt lat="46.20933" lon="6.82866">
        <ele>1628.5</ele>
        <time>2023-09-10T13:53:12.612Z</time>
      </trkpt>
      <trkpt lat="46.2093" lon="6.82855">
        <ele>1628.6</ele>
        <time>2023-09-10T13:53:13.612Z</time>
      </trkpt>
      <trkpt lat="46.20924" lon="6.82848">
        <ele>1630.2</ele>
        <time>2023-09-10T13:53:14.612Z</time>
      </trkpt>
      <trkpt lat="46.20907" lon="6.82834">
        <ele>1635.2</ele>
        <time>2023-09-10T13:53:15.612Z</time>
      </trkpt>
      <trkpt lat="46.20902" lon="6.82823">
        <ele>1634.7</ele>
        <time>2023-09-10T13:53:16.612Z</time>
      </trkpt>
      <trkpt lat="46.20898" lon="6.82805">
        <ele>1633.1</ele>
        <time>2023-09-10T13:53:17.612Z</time>
      </trkpt>
      <trkpt lat="46.20898" lon="6.82787">
        <ele>1630.7</ele>
        <time>2023-09-10T13:53:18.612Z</time>
      </trkpt>
      <trkpt lat="46.20889" lon="6.82763">
        <ele>1633.7</ele>
        <time>2023-09-10T13:53:19.612Z</time>
      </trkpt>
      <trkpt lat="46.20884" lon="6.82755">
        <ele>1634.6</ele>
        <time>2023-09-10T13:53:20.612Z</time>
      </trkpt>
      <trkpt lat="46.20871" lon="6.82741">
        <ele>1635.8</ele>
        <time>2023-09-10T13:53:21.612Z</time>
      </trkpt>
      <trkpt lat="46.2086" lon="6.82734">
        <ele>1638</ele>
        <time>2023-09-10T13:53:22.612Z</time>
      </trkpt>
      <trkpt lat="46.20839" lon="6.82722">
        <ele>1637.7</ele>
        <time>2023-09-10T13:53:23.612Z</time>
      </trkpt>
      <trkpt lat="46.20809" lon="6.82711">
        <ele>1639.6</ele>
        <time>2023-09-10T13:53:24.612Z</time>
      </trkpt>
      <trkpt lat="46.20772" lon="6.82707">
        <ele>1641.1</ele>
        <time>2023-09-10T13:53:25.612Z</time>
      </trkpt>
      <trkpt lat="46.20741" lon="6.82698">
        <ele>1640.8</ele>
        <time>2023-09-10T13:53:26.612Z</time>
      </trkpt>
      <trkpt lat="46.20723" lon="6.82698">
        <ele>1640.3</ele>
        <time>2023-09-10T13:53:27.612Z</time>
      </trkpt>
      <trkpt lat="46.20695" lon="6.82691">
        <ele>1642.5</ele>
        <time>2023-09-10T13:53:28.612Z</time>
      </trkpt>
      <trkpt lat="46.20676" lon="6.8269">
        <ele>1642.1</ele>
        <time>2023-09-10T13:53:29.612Z</time>
      </trkpt>
      <trkpt lat="46.20667" lon="6.82692">
        <ele>1642.9</ele>
        <time>2023-09-10T13:53:30.612Z</time>
      </trkpt>
      <trkpt lat="46.20639" lon="6.82708">
        <ele>1643.9</ele>
        <time>2023-09-10T13:53:31.612Z</time>
      </trkpt>
      <trkpt lat="46.20629" lon="6.82704">
        <ele>1643.9</ele>
        <time>2023-09-10T13:53:32.612Z</time>
      </trkpt>
      <trkpt lat="46.20625" lon="6.82693">
        <ele>1643.3</ele>
        <time>2023-09-10T13:53:33.612Z</time>
      </trkpt>
      <trkpt lat="46.20626" lon="6.8268">
        <ele>1645.5</ele>
        <time>2023-09-10T13:53:34.612Z</time>
      </trkpt>
      <trkpt lat="46.20632" lon="6.82655">
        <ele>1645.8</ele>
        <time>2023-09-10T13:53:35.612Z</time>
      </trkpt>
      <trkpt lat="46.20643" lon="6.8262">
        <ele>1645.2</ele>
        <time>2023-09-10T13:53:36.612Z</time>
      </trkpt>
      <trkpt lat="46.20671" lon="6.82505">
        <ele>1653.5</ele>
        <time>2023-09-10T13:53:37.612Z</time>
      </trkpt>
      <trkpt lat="46.20676" lon="6.82466">
        <ele>1655</ele>
        <time>2023-09-10T13:53:38.612Z</time>
      </trkpt>
      <trkpt lat="46.20674" lon="6.82445">
        <ele>1657.6</ele>
        <time>2023-09-10T13:53:39.612Z</time>
      </trkpt>
      <trkpt lat="46.20675" lon="6.82423">
        <ele>1659.2</ele>
        <time>2023-09-10T13:53:40.612Z</time>
      </trkpt>
      <trkpt lat="46.20678" lon="6.82412">
        <ele>1660.2</ele>
        <time>2023-09-10T13:53:41.612Z</time>
      </trkpt>
      <trkpt lat="46.20691" lon="6.82383">
        <ele>1662.7</ele>
        <time>2023-09-10T13:53:42.612Z</time>
      </trkpt>
      <trkpt lat="46.20692" lon="6.82373">
        <ele>1663.4</ele>
        <time>2023-09-10T13:53:43.612Z</time>
      </trkpt>
      <trkpt lat="46.2069" lon="6.82364">
        <ele>1664.3</ele>
        <time>2023-09-10T13:53:44.612Z</time>
      </trkpt>
      <trkpt lat="46.20684" lon="6.82353">
        <ele>1665.2</ele>
        <time>2023-09-10T13:53:45.612Z</time>
      </trkpt>
      <trkpt lat="46.20659" lon="6.82336">
        <ele>1669.1</ele>
        <time>2023-09-10T13:53:46.612Z</time>
      </trkpt>
      <trkpt lat="46.2062" lon="6.8232">
        <ele>1674</ele>
        <time>2023-09-10T13:53:47.612Z</time>
      </trkpt>
      <trkpt lat="46.20611" lon="6.82319">
        <ele>1675</ele>
        <time>2023-09-10T13:53:48.612Z</time>
      </trkpt>
      <trkpt lat="46.20582" lon="6.82325">
        <ele>1677.5</ele>
        <time>2023-09-10T13:53:49.612Z</time>
      </trkpt>
      <trkpt lat="46.20552" lon="6.82323">
        <ele>1680.3</ele>
        <time>2023-09-10T13:53:50.612Z</time>
      </trkpt>
      <trkpt lat="46.20542" lon="6.82326">
        <ele>1681.2</ele>
        <time>2023-09-10T13:53:51.612Z</time>
      </trkpt>
      <trkpt lat="46.20513" lon="6.8234">
        <ele>1685.5</ele>
        <time>2023-09-10T13:53:52.612Z</time>
      </trkpt>
      <trkpt lat="46.20495" lon="6.8234">
        <ele>1685.9</ele>
        <time>2023-09-10T13:53:53.612Z</time>
      </trkpt>
      <trkpt lat="46.20487" lon="6.82345">
        <ele>1687.3</ele>
        <time>2023-09-10T13:53:54.612Z</time>
      </trkpt>
      <trkpt lat="46.20473" lon="6.82359">
        <ele>1689.7</ele>
        <time>2023-09-10T13:53:55.612Z</time>
      </trkpt>
      <trkpt lat="46.20464" lon="6.82364">
        <ele>1690.2</ele>
        <time>2023-09-10T13:53:56.612Z</time>
      </trkpt>
      <trkpt lat="46.20446" lon="6.82378">
        <ele>1690.9</ele>
        <time>2023-09-10T13:53:57.612Z</time>
      </trkpt>
      <trkpt lat="46.20431" lon="6.82392">
        <ele>1692.9</ele>
        <time>2023-09-10T13:53:58.612Z</time>
      </trkpt>
      <trkpt lat="46.2043" lon="6.82401">
        <ele>1694</ele>
        <time>2023-09-10T13:53:59.612Z</time>
      </trkpt>
      <trkpt lat="46.20437" lon="6.82411">
        <ele>1695.2</ele>
        <time>2023-09-10T13:54:00.612Z</time>
      </trkpt>
      <trkpt lat="46.20447" lon="6.82414">
        <ele>1696</ele>
        <time>2023-09-10T13:54:01.612Z</time>
      </trkpt>
      <trkpt lat="46.20468" lon="6.82412">
        <ele>1698.6</ele>
        <time>2023-09-10T13:54:02.612Z</time>
      </trkpt>
      <trkpt lat="46.20487" lon="6.82407">
        <ele>1700.7</ele>
        <time>2023-09-10T13:54:03.612Z</time>
      </trkpt>
      <trkpt lat="46.20496" lon="6.82408">
        <ele>1702.5</ele>
        <time>2023-09-10T13:54:04.612Z</time>
      </trkpt>
      <trkpt lat="46.20507" lon="6.82414">
        <ele>1703.5</ele>
        <time>2023-09-10T13:54:05.612Z</time>
      </trkpt>
      <trkpt lat="46.20512" lon="6.82423">
        <ele>1704.8</ele>
        <time>2023-09-10T13:54:06.612Z</time>
      </trkpt>
      <trkpt lat="46.20511" lon="6.82434">
        <ele>1707.4</ele>
        <time>2023-09-10T13:54:07.612Z</time>
      </trkpt>
      <trkpt lat="46.20504" lon="6.82444">
        <ele>1709.2</ele>
        <time>2023-09-10T13:54:08.612Z</time>
      </trkpt>
      <trkpt lat="46.20505" lon="6.82453">
        <ele>1710.9</ele>
        <time>2023-09-10T13:54:09.612Z</time>
      </trkpt>
      <trkpt lat="46.20514" lon="6.82456">
        <ele>1712.1</ele>
        <time>2023-09-10T13:54:10.612Z</time>
      </trkpt>
      <trkpt lat="46.20532" lon="6.82457">
        <ele>1713.5</ele>
        <time>2023-09-10T13:54:11.612Z</time>
      </trkpt>
      <trkpt lat="46.20541" lon="6.8246">
        <ele>1714.8</ele>
        <time>2023-09-10T13:54:12.612Z</time>
      </trkpt>
      <trkpt lat="46.2055" lon="6.82465">
        <ele>1716.7</ele>
        <time>2023-09-10T13:54:13.612Z</time>
      </trkpt>
      <trkpt lat="46.20556" lon="6.82472">
        <ele>1718.9</ele>
        <time>2023-09-10T13:54:14.612Z</time>
      </trkpt>
      <trkpt lat="46.20556" lon="6.82482">
        <ele>1719.3</ele>
        <time>2023-09-10T13:54:15.612Z</time>
      </trkpt>
      <trkpt lat="46.20551" lon="6.82493">
        <ele>1719.7</ele>
        <time>2023-09-10T13:54:16.612Z</time>
      </trkpt>
      <trkpt lat="46.20537" lon="6.82509">
        <ele>1722.2</ele>
        <time>2023-09-10T13:54:17.612Z</time>
      </trkpt>
      <trkpt lat="46.20516" lon="6.82538">
        <ele>1726.8</ele>
        <time>2023-09-10T13:54:18.612Z</time>
      </trkpt>
      <trkpt lat="46.20511" lon="6.82549">
        <ele>1728.1</ele>
        <time>2023-09-10T13:54:19.612Z</time>
      </trkpt>
      <trkpt lat="46.20514" lon="6.82561">
        <ele>1730.1</ele>
        <time>2023-09-10T13:54:20.612Z</time>
      </trkpt>
      <trkpt lat="46.2053" lon="6.82574">
        <ele>1731.3</ele>
        <time>2023-09-10T13:54:21.612Z</time>
      </trkpt>
      <trkpt lat="46.20539" lon="6.82579">
        <ele>1730.4</ele>
        <time>2023-09-10T13:54:22.612Z</time>
      </trkpt>
      <trkpt lat="46.20544" lon="6.82587">
        <ele>1730.3</ele>
        <time>2023-09-10T13:54:23.612Z</time>
      </trkpt>
      <trkpt lat="46.20539" lon="6.82596">
        <ele>1732.4</ele>
        <time>2023-09-10T13:54:24.612Z</time>
      </trkpt>
      <trkpt lat="46.20532" lon="6.82602">
        <ele>1735.6</ele>
        <time>2023-09-10T13:54:25.612Z</time>
      </trkpt>
      <trkpt lat="46.20519" lon="6.82618">
        <ele>1741.5</ele>
        <time>2023-09-10T13:54:26.612Z</time>
      </trkpt>
      <trkpt lat="46.20512" lon="6.82624">
        <ele>1743.6</ele>
        <time>2023-09-10T13:54:27.612Z</time>
      </trkpt>
      <trkpt lat="46.20493" lon="6.82634">
        <ele>1747.6</ele>
        <time>2023-09-10T13:54:28.612Z</time>
      </trkpt>
      <trkpt lat="46.20478" lon="6.82646">
        <ele>1750.6</ele>
        <time>2023-09-10T13:54:29.612Z</time>
      </trkpt>
      <trkpt lat="46.20473" lon="6.82654">
        <ele>1752.1</ele>
        <time>2023-09-10T13:54:30.612Z</time>
      </trkpt>
      <trkpt lat="46.20465" lon="6.82674">
        <ele>1754.7</ele>
        <time>2023-09-10T13:54:31.612Z</time>
      </trkpt>
      <trkpt lat="46.20458" lon="6.82681">
        <ele>1756.1</ele>
        <time>2023-09-10T13:54:32.612Z</time>
      </trkpt>
      <trkpt lat="46.20449" lon="6.82686">
        <ele>1757.6</ele>
        <time>2023-09-10T13:54:33.612Z</time>
      </trkpt>
      <trkpt lat="46.20439" lon="6.82688">
        <ele>1760.1</ele>
        <time>2023-09-10T13:54:34.612Z</time>
      </trkpt>
      <trkpt lat="46.2043" lon="6.82687">
        <ele>1762.4</ele>
        <time>2023-09-10T13:54:35.612Z</time>
      </trkpt>
      <trkpt lat="46.20411" lon="6.82679">
        <ele>1764.5</ele>
        <time>2023-09-10T13:54:36.612Z</time>
      </trkpt>
      <trkpt lat="46.20393" lon="6.82677">
        <ele>1767.5</ele>
        <time>2023-09-10T13:54:37.612Z</time>
      </trkpt>
      <trkpt lat="46.20383" lon="6.82682">
        <ele>1768.1</ele>
        <time>2023-09-10T13:54:38.612Z</time>
      </trkpt>
      <trkpt lat="46.20372" lon="6.82682">
        <ele>1767.2</ele>
        <time>2023-09-10T13:54:39.612Z</time>
      </trkpt>
      <trkpt lat="46.20348" lon="6.82677">
        <ele>1769</ele>
        <time>2023-09-10T13:54:40.612Z</time>
      </trkpt>
      <trkpt lat="46.20316" lon="6.82685">
        <ele>1770.2</ele>
        <time>2023-09-10T13:54:41.612Z</time>
      </trkpt>
      <trkpt lat="46.20296" lon="6.82695">
        <ele>1773.5</ele>
        <time>2023-09-10T13:54:42.612Z</time>
      </trkpt>
      <trkpt lat="46.20218" lon="6.82715">
        <ele>1787.1</ele>
        <time>2023-09-10T13:54:43.612Z</time>
      </trkpt>
      <trkpt lat="46.20208" lon="6.82715">
        <ele>1789.3</ele>
        <time>2023-09-10T13:54:44.612Z</time>
      </trkpt>
      <trkpt lat="46.20141" lon="6.82724">
        <ele>1798.2</ele>
        <time>2023-09-10T13:54:45.612Z</time>
      </trkpt>
      <trkpt lat="46.20122" lon="6.82728">
        <ele>1803</ele>
        <time>2023-09-10T13:54:46.612Z</time>
      </trkpt>
      <trkpt lat="46.20103" lon="6.82727">
        <ele>1808</ele>
        <time>2023-09-10T13:54:47.612Z</time>
      </trkpt>
      <trkpt lat="46.20094" lon="6.82729">
        <ele>1809.6</ele>
        <time>2023-09-10T13:54:48.612Z</time>
      </trkpt>
      <trkpt lat="46.20076" lon="6.82726">
        <ele>1813.2</ele>
        <time>2023-09-10T13:54:49.612Z</time>
      </trkpt>
      <trkpt lat="46.20053" lon="6.82746">
        <ele>1816.6</ele>
        <time>2023-09-10T13:54:50.612Z</time>
      </trkpt>
      <trkpt lat="46.20028" lon="6.82762">
        <ele>1820.8</ele>
        <time>2023-09-10T13:54:51.612Z</time>
      </trkpt>
      <trkpt lat="46.20014" lon="6.82776">
        <ele>1824.8</ele>
        <time>2023-09-10T13:54:52.612Z</time>
      </trkpt>
      <trkpt lat="46.20005" lon="6.8278">
        <ele>1826.1</ele>
        <time>2023-09-10T13:54:53.612Z</time>
      </trkpt>
      <trkpt lat="46.19996" lon="6.8278">
        <ele>1828</ele>
        <time>2023-09-10T13:54:54.612Z</time>
      </trkpt>
      <trkpt lat="46.19986" lon="6.82776">
        <ele>1830.5</ele>
        <time>2023-09-10T13:54:55.612Z</time>
      </trkpt>
      <trkpt lat="46.19959" lon="6.8277">
        <ele>1836.2</ele>
        <time>2023-09-10T13:54:56.612Z</time>
      </trkpt>
      <trkpt lat="46.19932" lon="6.82777">
        <ele>1840.9</ele>
        <time>2023-09-10T13:54:57.612Z</time>
      </trkpt>
      <trkpt lat="46.19914" lon="6.82779">
        <ele>1843.6</ele>
        <time>2023-09-10T13:54:58.612Z</time>
      </trkpt>
      <trkpt lat="46.19905" lon="6.82778">
        <ele>1845.5</ele>
        <time>2023-09-10T13:54:59.612Z</time>
      </trkpt>
      <trkpt lat="46.19897" lon="6.82772">
        <ele>1849.2</ele>
        <time>2023-09-10T13:55:00.612Z</time>
      </trkpt>
      <trkpt lat="46.19888" lon="6.82769">
        <ele>1852.2</ele>
        <time>2023-09-10T13:55:01.612Z</time>
      </trkpt>
      <trkpt lat="46.1988" lon="6.82774">
        <ele>1851.3</ele>
        <time>2023-09-10T13:55:02.612Z</time>
      </trkpt>
      <trkpt lat="46.1987" lon="6.82776">
        <ele>1852.1</ele>
        <time>2023-09-10T13:55:03.612Z</time>
      </trkpt>
      <trkpt lat="46.1986" lon="6.82774">
        <ele>1854.3</ele>
        <time>2023-09-10T13:55:04.612Z</time>
      </trkpt>
      <trkpt lat="46.19851" lon="6.82771">
        <ele>1853.7</ele>
        <time>2023-09-10T13:55:05.612Z</time>
      </trkpt>
      <trkpt lat="46.19843" lon="6.82764">
        <ele>1855.2</ele>
        <time>2023-09-10T13:55:06.612Z</time>
      </trkpt>
      <trkpt lat="46.19834" lon="6.82745">
        <ele>1860.4</ele>
        <time>2023-09-10T13:55:07.612Z</time>
      </trkpt>
      <trkpt lat="46.19826" lon="6.8274">
        <ele>1862</ele>
        <time>2023-09-10T13:55:08.612Z</time>
      </trkpt>
      <trkpt lat="46.19819" lon="6.82746">
        <ele>1862.9</ele>
        <time>2023-09-10T13:55:09.612Z</time>
      </trkpt>
      <trkpt lat="46.19814" lon="6.82754">
        <ele>1862.2</ele>
        <time>2023-09-10T13:55:10.612Z</time>
      </trkpt>
      <trkpt lat="46.19806" lon="6.8276">
        <ele>1862.4</ele>
        <time>2023-09-10T13:55:11.612Z</time>
      </trkpt>
      <trkpt lat="46.19796" lon="6.82764">
        <ele>1862</ele>
        <time>2023-09-10T13:55:12.612Z</time>
      </trkpt>
      <trkpt lat="46.19769" lon="6.82759">
        <ele>1865</ele>
        <time>2023-09-10T13:55:13.612Z</time>
      </trkpt>
      <trkpt lat="46.19751" lon="6.82758">
        <ele>1865.8</ele>
        <time>2023-09-10T13:55:14.612Z</time>
      </trkpt>
      <trkpt lat="46.19733" lon="6.82762">
        <ele>1868.1</ele>
        <time>2023-09-10T13:55:15.612Z</time>
      </trkpt>
      <trkpt lat="46.19718" lon="6.82773">
        <ele>1868.5</ele>
        <time>2023-09-10T13:55:16.612Z</time>
      </trkpt>
      <trkpt lat="46.19698" lon="6.82793">
        <ele>1869.9</ele>
        <time>2023-09-10T13:55:17.612Z</time>
      </trkpt>
      <trkpt lat="46.19693" lon="6.82801">
        <ele>1869.7</ele>
        <time>2023-09-10T13:55:18.612Z</time>
      </trkpt>
      <trkpt lat="46.1969" lon="6.82812">
        <ele>1869.7</ele>
        <time>2023-09-10T13:55:19.612Z</time>
      </trkpt>
      <trkpt lat="46.19691" lon="6.82823">
        <ele>1870.7</ele>
        <time>2023-09-10T13:55:20.612Z</time>
      </trkpt>
      <trkpt lat="46.19707" lon="6.82843">
        <ele>1870.1</ele>
        <time>2023-09-10T13:55:21.612Z</time>
      </trkpt>
      <trkpt lat="46.19715" lon="6.82848">
        <ele>1870.1</ele>
        <time>2023-09-10T13:55:22.612Z</time>
      </trkpt>
      <trkpt lat="46.19735" lon="6.82854">
        <ele>1869.3</ele>
        <time>2023-09-10T13:55:23.612Z</time>
      </trkpt>
      <trkpt lat="46.19743" lon="6.82861">
        <ele>1870</ele>
        <time>2023-09-10T13:55:24.612Z</time>
      </trkpt>
      <trkpt lat="46.19748" lon="6.82872">
        <ele>1870.5</ele>
        <time>2023-09-10T13:55:25.612Z</time>
      </trkpt>
      <trkpt lat="46.19742" lon="6.82879">
        <ele>1872.3</ele>
        <time>2023-09-10T13:55:26.612Z</time>
      </trkpt>
      <trkpt lat="46.19734" lon="6.82873">
        <ele>1872.8</ele>
        <time>2023-09-10T13:55:27.612Z</time>
      </trkpt>
      <trkpt lat="46.19725" lon="6.8287">
        <ele>1873.8</ele>
        <time>2023-09-10T13:55:28.612Z</time>
      </trkpt>
      <trkpt lat="46.19716" lon="6.82871">
        <ele>1874.7</ele>
        <time>2023-09-10T13:55:29.612Z</time>
      </trkpt>
      <trkpt lat="46.19709" lon="6.82877">
        <ele>1876</ele>
        <time>2023-09-10T13:55:30.612Z</time>
      </trkpt>
      <trkpt lat="46.19711" lon="6.82887">
        <ele>1877.5</ele>
        <time>2023-09-10T13:55:31.612Z</time>
      </trkpt>
      <trkpt lat="46.19724" lon="6.82902">
        <ele>1878.5</ele>
        <time>2023-09-10T13:55:32.612Z</time>
      </trkpt>
      <trkpt lat="46.19727" lon="6.82912">
        <ele>1879</ele>
        <time>2023-09-10T13:55:33.612Z</time>
      </trkpt>
      <trkpt lat="46.19726" lon="6.82922">
        <ele>1879.7</ele>
        <time>2023-09-10T13:55:34.612Z</time>
      </trkpt>
      <trkpt lat="46.19721" lon="6.8293">
        <ele>1880.2</ele>
        <time>2023-09-10T13:55:35.612Z</time>
      </trkpt>
      <trkpt lat="46.19714" lon="6.82936">
        <ele>1880.9</ele>
        <time>2023-09-10T13:55:36.612Z</time>
      </trkpt>
      <trkpt lat="46.19705" lon="6.82939">
        <ele>1882.2</ele>
        <time>2023-09-10T13:55:37.612Z</time>
      </trkpt>
      <trkpt lat="46.19696" lon="6.8294">
        <ele>1883.7</ele>
        <time>2023-09-10T13:55:38.612Z</time>
      </trkpt>
      <trkpt lat="46.19678" lon="6.82937">
        <ele>1886.2</ele>
        <time>2023-09-10T13:55:39.612Z</time>
      </trkpt>
      <trkpt lat="46.19649" lon="6.82942">
        <ele>1891</ele>
        <time>2023-09-10T13:55:40.612Z</time>
      </trkpt>
      <trkpt lat="46.19639" lon="6.82942">
        <ele>1892.8</ele>
        <time>2023-09-10T13:55:41.612Z</time>
      </trkpt>
      <trkpt lat="46.1963" lon="6.82941">
        <ele>1894.1</ele>
        <time>2023-09-10T13:55:42.612Z</time>
      </trkpt>
      <trkpt lat="46.19621" lon="6.82937">
        <ele>1895.2</ele>
        <time>2023-09-10T13:55:43.612Z</time>
      </trkpt>
      <trkpt lat="46.19613" lon="6.82931">
        <ele>1896.2</ele>
        <time>2023-09-10T13:55:44.612Z</time>
      </trkpt>
      <trkpt lat="46.19607" lon="6.82924">
        <ele>1897.3</ele>
        <time>2023-09-10T13:55:45.612Z</time>
      </trkpt>
      <trkpt lat="46.1959" lon="6.82899">
        <ele>1899.1</ele>
        <time>2023-09-10T13:55:46.612Z</time>
      </trkpt>
      <trkpt lat="46.19556" lon="6.82861">
        <ele>1900.9</ele>
        <time>2023-09-10T13:55:47.612Z</time>
      </trkpt>
      <trkpt lat="46.19551" lon="6.82852">
        <ele>1901.1</ele>
        <time>2023-09-10T13:55:48.612Z</time>
      </trkpt>
      <trkpt lat="46.19536" lon="6.82838">
        <ele>1903.3</ele>
        <time>2023-09-10T13:55:49.612Z</time>
      </trkpt>
      <trkpt lat="46.19531" lon="6.82829">
        <ele>1904.4</ele>
        <time>2023-09-10T13:55:50.612Z</time>
      </trkpt>
      <trkpt lat="46.19529" lon="6.8281">
        <ele>1905.6</ele>
        <time>2023-09-10T13:55:51.612Z</time>
      </trkpt>
      <trkpt lat="46.19523" lon="6.82803">
        <ele>1906.5</ele>
        <time>2023-09-10T13:55:52.612Z</time>
      </trkpt>
      <trkpt lat="46.19517" lon="6.8281">
        <ele>1908.3</ele>
        <time>2023-09-10T13:55:53.612Z</time>
      </trkpt>
      <trkpt lat="46.19515" lon="6.82859">
        <ele>1910.5</ele>
        <time>2023-09-10T13:55:54.612Z</time>
      </trkpt>
      <trkpt lat="46.19529" lon="6.82902">
        <ele>1912.7</ele>
        <time>2023-09-10T13:55:55.612Z</time>
      </trkpt>
      <trkpt lat="46.19547" lon="6.8293">
        <ele>1914.3</ele>
        <time>2023-09-10T13:55:56.612Z</time>
      </trkpt>
      <trkpt lat="46.19551" lon="6.82939">
        <ele>1915.5</ele>
        <time>2023-09-10T13:55:57.612Z</time>
      </trkpt>
      <trkpt lat="46.19552" lon="6.8295">
        <ele>1916.9</ele>
        <time>2023-09-10T13:55:58.612Z</time>
      </trkpt>
      <trkpt lat="46.19547" lon="6.82958">
        <ele>1918.4</ele>
        <time>2023-09-10T13:55:59.612Z</time>
      </trkpt>
      <trkpt lat="46.19538" lon="6.82958">
        <ele>1919.8</ele>
        <time>2023-09-10T13:56:00.612Z</time>
      </trkpt>
      <trkpt lat="46.19529" lon="6.82952">
        <ele>1920.6</ele>
        <time>2023-09-10T13:56:01.612Z</time>
      </trkpt>
      <trkpt lat="46.19517" lon="6.82938">
        <ele>1921.9</ele>
        <time>2023-09-10T13:56:02.612Z</time>
      </trkpt>
      <trkpt lat="46.19488" lon="6.82913">
        <ele>1925.1</ele>
        <time>2023-09-10T13:56:03.612Z</time>
      </trkpt>
      <trkpt lat="46.19472" lon="6.82886">
        <ele>1927</ele>
        <time>2023-09-10T13:56:04.612Z</time>
      </trkpt>
      <trkpt lat="46.1947" lon="6.82876">
        <ele>1927.1</ele>
        <time>2023-09-10T13:56:05.612Z</time>
      </trkpt>
      <trkpt lat="46.19466" lon="6.82867">
        <ele>1927.8</ele>
        <time>2023-09-10T13:56:06.612Z</time>
      </trkpt>
      <trkpt lat="46.19459" lon="6.82861">
        <ele>1929.3</ele>
        <time>2023-09-10T13:56:07.612Z</time>
      </trkpt>
      <trkpt lat="46.19448" lon="6.82845">
        <ele>1930.3</ele>
        <time>2023-09-10T13:56:08.612Z</time>
      </trkpt>
      <trkpt lat="46.1944" lon="6.8285">
        <ele>1932.7</ele>
        <time>2023-09-10T13:56:09.612Z</time>
      </trkpt>
      <trkpt lat="46.19445" lon="6.82869">
        <ele>1933.4</ele>
        <time>2023-09-10T13:56:10.612Z</time>
      </trkpt>
      <trkpt lat="46.1945" lon="6.82915">
        <ele>1936.2</ele>
        <time>2023-09-10T13:56:11.612Z</time>
      </trkpt>
      <trkpt lat="46.19457" lon="6.82943">
        <ele>1937.7</ele>
        <time>2023-09-10T13:56:12.612Z</time>
      </trkpt>
      <trkpt lat="46.19457" lon="6.82953">
        <ele>1938.4</ele>
        <time>2023-09-10T13:56:13.612Z</time>
      </trkpt>
      <trkpt lat="46.19452" lon="6.8299">
        <ele>1941.3</ele>
        <time>2023-09-10T13:56:14.612Z</time>
      </trkpt>
      <trkpt lat="46.19453" lon="6.83011">
        <ele>1942.6</ele>
        <time>2023-09-10T13:56:15.612Z</time>
      </trkpt>
      <trkpt lat="46.19459" lon="6.8303">
        <ele>1943.7</ele>
        <time>2023-09-10T13:56:16.612Z</time>
      </trkpt>
      <trkpt lat="46.19481" lon="6.83077">
        <ele>1946.8</ele>
        <time>2023-09-10T13:56:17.612Z</time>
      </trkpt>
      <trkpt lat="46.19482" lon="6.83086">
        <ele>1947.8</ele>
        <time>2023-09-10T13:56:18.612Z</time>
      </trkpt>
      <trkpt lat="46.1948" lon="6.83095">
        <ele>1948.5</ele>
        <time>2023-09-10T13:56:19.612Z</time>
      </trkpt>
      <trkpt lat="46.19475" lon="6.83105">
        <ele>1949</ele>
        <time>2023-09-10T13:56:20.612Z</time>
      </trkpt>
      <trkpt lat="46.19468" lon="6.83113">
        <ele>1949.5</ele>
        <time>2023-09-10T13:56:21.612Z</time>
      </trkpt>
      <trkpt lat="46.19452" lon="6.83121">
        <ele>1950.8</ele>
        <time>2023-09-10T13:56:22.612Z</time>
      </trkpt>
      <trkpt lat="46.19417" lon="6.831">
        <ele>1955.4</ele>
        <time>2023-09-10T13:56:23.612Z</time>
      </trkpt>
      <trkpt lat="46.19407" lon="6.83097">
        <ele>1957.6</ele>
        <time>2023-09-10T13:56:24.612Z</time>
      </trkpt>
      <trkpt lat="46.19391" lon="6.83083">
        <ele>1961.6</ele>
        <time>2023-09-10T13:56:25.612Z</time>
      </trkpt>
      <trkpt lat="46.19385" lon="6.83074">
        <ele>1963.3</ele>
        <time>2023-09-10T13:56:26.612Z</time>
      </trkpt>
      <trkpt lat="46.19381" lon="6.83064">
        <ele>1964.4</ele>
        <time>2023-09-10T13:56:27.612Z</time>
      </trkpt>
      <trkpt lat="46.19375" lon="6.83056">
        <ele>1965.5</ele>
        <time>2023-09-10T13:56:28.612Z</time>
      </trkpt>
      <trkpt lat="46.19367" lon="6.83049">
        <ele>1965.9</ele>
        <time>2023-09-10T13:56:29.612Z</time>
      </trkpt>
      <trkpt lat="46.19362" lon="6.83041">
        <ele>1965.9</ele>
        <time>2023-09-10T13:56:30.612Z</time>
      </trkpt>
      <trkpt lat="46.1934" lon="6.82993">
        <ele>1967.7</ele>
        <time>2023-09-10T13:56:31.612Z</time>
      </trkpt>
      <trkpt lat="46.19334" lon="6.82985">
        <ele>1968.9</ele>
        <time>2023-09-10T13:56:32.612Z</time>
      </trkpt>
      <trkpt lat="46.19327" lon="6.82979">
        <ele>1970.1</ele>
        <time>2023-09-10T13:56:33.612Z</time>
      </trkpt>
      <trkpt lat="46.19305" lon="6.82943">
        <ele>1976</ele>
        <time>2023-09-10T13:56:34.612Z</time>
      </trkpt>
      <trkpt lat="46.19298" lon="6.82937">
        <ele>1977</ele>
        <time>2023-09-10T13:56:35.612Z</time>
      </trkpt>
      <trkpt lat="46.19289" lon="6.82933">
        <ele>1978.6</ele>
        <time>2023-09-10T13:56:36.612Z</time>
      </trkpt>
      <trkpt lat="46.1927" lon="6.82932">
        <ele>1982.2</ele>
        <time>2023-09-10T13:56:37.612Z</time>
      </trkpt>
      <trkpt lat="46.19261" lon="6.82928">
        <ele>1983.9</ele>
        <time>2023-09-10T13:56:38.612Z</time>
      </trkpt>
      <trkpt lat="46.19255" lon="6.82919">
        <ele>1985.7</ele>
        <time>2023-09-10T13:56:39.612Z</time>
      </trkpt>
      <trkpt lat="46.1925" lon="6.8289">
        <ele>1989.9</ele>
        <time>2023-09-10T13:56:40.612Z</time>
      </trkpt>
      <trkpt lat="46.19247" lon="6.82881">
        <ele>1990.9</ele>
        <time>2023-09-10T13:56:41.612Z</time>
      </trkpt>
      <trkpt lat="46.19241" lon="6.82874">
        <ele>1992.4</ele>
        <time>2023-09-10T13:56:42.612Z</time>
      </trkpt>
      <trkpt lat="46.19231" lon="6.82871">
        <ele>1994.8</ele>
        <time>2023-09-10T13:56:43.612Z</time>
      </trkpt>
      <trkpt lat="46.19222" lon="6.82876">
        <ele>1997.7</ele>
        <time>2023-09-10T13:56:44.612Z</time>
      </trkpt>
      <trkpt lat="46.19209" lon="6.8289">
        <ele>2000.9</ele>
        <time>2023-09-10T13:56:45.612Z</time>
      </trkpt>
      <trkpt lat="46.19204" lon="6.82898">
        <ele>2002</ele>
        <time>2023-09-10T13:56:46.612Z</time>
      </trkpt>
      <trkpt lat="46.19201" lon="6.82908">
        <ele>2002.7</ele>
        <time>2023-09-10T13:56:47.612Z</time>
      </trkpt>
      <trkpt lat="46.19195" lon="6.82916">
        <ele>2003.9</ele>
        <time>2023-09-10T13:56:48.612Z</time>
      </trkpt>
      <trkpt lat="46.19186" lon="6.82916">
        <ele>2004.6</ele>
        <time>2023-09-10T13:56:49.612Z</time>
      </trkpt>
      <trkpt lat="46.19172" lon="6.82902">
        <ele>2006.8</ele>
        <time>2023-09-10T13:56:50.612Z</time>
      </trkpt>
      <trkpt lat="46.1916" lon="6.82886">
        <ele>2010.9</ele>
        <time>2023-09-10T13:56:51.612Z</time>
      </trkpt>
      <trkpt lat="46.19134" lon="6.82844">
        <ele>2016.5</ele>
        <time>2023-09-10T13:56:52.612Z</time>
      </trkpt>
      <trkpt lat="46.19128" lon="6.82826">
        <ele>2019.5</ele>
        <time>2023-09-10T13:56:53.612Z</time>
      </trkpt>
      <trkpt lat="46.19126" lon="6.82807">
        <ele>2022.7</ele>
        <time>2023-09-10T13:56:54.612Z</time>
      </trkpt>
      <trkpt lat="46.19113" lon="6.82794">
        <ele>2024.6</ele>
        <time>2023-09-10T13:56:55.612Z</time>
      </trkpt>
      <trkpt lat="46.19094" lon="6.82792">
        <ele>2026.5</ele>
        <time>2023-09-10T13:56:56.612Z</time>
      </trkpt>
      <trkpt lat="46.1909" lon="6.82783">
        <ele>2027.3</ele>
        <time>2023-09-10T13:56:57.612Z</time>
      </trkpt>
      <trkpt lat="46.19088" lon="6.82774">
        <ele>2027.6</ele>
        <time>2023-09-10T13:56:58.612Z</time>
      </trkpt>
      <trkpt lat="46.1909" lon="6.82725">
        <ele>2028.5</ele>
        <time>2023-09-10T13:56:59.612Z</time>
      </trkpt>
      <trkpt lat="46.19082" lon="6.8263">
        <ele>2033.3</ele>
        <time>2023-09-10T13:57:00.612Z</time>
      </trkpt>
      <trkpt lat="46.19086" lon="6.82581">
        <ele>2036.9</ele>
        <time>2023-09-10T13:57:01.612Z</time>
      </trkpt>
      <trkpt lat="46.19098" lon="6.82533">
        <ele>2042.9</ele>
        <time>2023-09-10T13:57:02.612Z</time>
      </trkpt>
      <trkpt lat="46.19103" lon="6.82495">
        <ele>2043.6</ele>
        <time>2023-09-10T13:57:03.612Z</time>
      </trkpt>
      <trkpt lat="46.19106" lon="6.82485">
        <ele>2043.7</ele>
        <time>2023-09-10T13:57:04.612Z</time>
      </trkpt>
      <trkpt lat="46.19131" lon="6.8244">
        <ele>2050.8</ele>
        <time>2023-09-10T13:57:05.612Z</time>
      </trkpt>
      <trkpt lat="46.19148" lon="6.82392">
        <ele>2059.2</ele>
        <time>2023-09-10T13:57:06.612Z</time>
      </trkpt>
      <trkpt lat="46.19167" lon="6.82306">
        <ele>2070.3</ele>
        <time>2023-09-10T13:57:07.612Z</time>
      </trkpt>
      <trkpt lat="46.19173" lon="6.82268">
        <ele>2075.7</ele>
        <time>2023-09-10T13:57:08.612Z</time>
      </trkpt>
      <trkpt lat="46.19189" lon="6.82211">
        <ele>2084.3</ele>
        <time>2023-09-10T13:57:09.612Z</time>
      </trkpt>
      <trkpt lat="46.19191" lon="6.82192">
        <ele>2086.7</ele>
        <time>2023-09-10T13:57:10.612Z</time>
      </trkpt>
      <trkpt lat="46.19186" lon="6.82153">
        <ele>2092.3</ele>
        <time>2023-09-10T13:57:11.612Z</time>
      </trkpt>
      <trkpt lat="46.19186" lon="6.82135">
        <ele>2095</ele>
        <time>2023-09-10T13:57:12.612Z</time>
      </trkpt>
      <trkpt lat="46.19189" lon="6.82125">
        <ele>2095.5</ele>
        <time>2023-09-10T13:57:13.612Z</time>
      </trkpt>
      <trkpt lat="46.192" lon="6.82119">
        <ele>2093.9</ele>
        <time>2023-09-10T13:57:14.612Z</time>
      </trkpt>
      <trkpt lat="46.19211" lon="6.82119">
        <ele>2090.6</ele>
        <time>2023-09-10T13:57:15.612Z</time>
      </trkpt>
      <trkpt lat="46.19221" lon="6.82126">
        <ele>2089.6</ele>
        <time>2023-09-10T13:57:16.612Z</time>
      </trkpt>
      <trkpt lat="46.19229" lon="6.82121">
        <ele>2085.3</ele>
        <time>2023-09-10T13:57:17.612Z</time>
      </trkpt>
      <trkpt lat="46.19225" lon="6.82068">
        <ele>2078.3</ele>
        <time>2023-09-10T13:57:18.612Z</time>
      </trkpt>
      <trkpt lat="46.19234" lon="6.82065">
        <ele>2074.4</ele>
        <time>2023-09-10T13:57:19.612Z</time>
      </trkpt>
      <trkpt lat="46.1925" lon="6.82089">
        <ele>2070</ele>
        <time>2023-09-10T13:57:20.612Z</time>
      </trkpt>
      <trkpt lat="46.19258" lon="6.82097">
        <ele>2068.7</ele>
        <time>2023-09-10T13:57:21.612Z</time>
      </trkpt>
      <trkpt lat="46.19267" lon="6.82103">
        <ele>2066.9</ele>
        <time>2023-09-10T13:57:22.612Z</time>
      </trkpt>
      <trkpt lat="46.19278" lon="6.82107">
        <ele>2064.1</ele>
        <time>2023-09-10T13:57:23.612Z</time>
      </trkpt>
      <trkpt lat="46.19291" lon="6.82107">
        <ele>2063.4</ele>
        <time>2023-09-10T13:57:24.612Z</time>
      </trkpt>
      <trkpt lat="46.19311" lon="6.82096">
        <ele>2057.4</ele>
        <time>2023-09-10T13:57:25.612Z</time>
      </trkpt>
      <trkpt lat="46.1932" lon="6.82094">
        <ele>2054.7</ele>
        <time>2023-09-10T13:57:26.612Z</time>
      </trkpt>
      <trkpt lat="46.19339" lon="6.82097">
        <ele>2052.3</ele>
        <time>2023-09-10T13:57:27.612Z</time>
      </trkpt>
      <trkpt lat="46.19349" lon="6.82094">
        <ele>2050</ele>
        <time>2023-09-10T13:57:28.612Z</time>
      </trkpt>
      <trkpt lat="46.19405" lon="6.8207">
        <ele>2036.1</ele>
        <time>2023-09-10T13:57:29.612Z</time>
      </trkpt>
      <trkpt lat="46.19432" lon="6.82064">
        <ele>2031.5</ele>
        <time>2023-09-10T13:57:30.612Z</time>
      </trkpt>
      <trkpt lat="46.19454" lon="6.82057">
        <ele>2026.3</ele>
        <time>2023-09-10T13:57:31.612Z</time>
      </trkpt>
      <trkpt lat="46.1951" lon="6.82034">
        <ele>2015.4</ele>
        <time>2023-09-10T13:57:32.612Z</time>
      </trkpt>
      <trkpt lat="46.19608" lon="6.81964">
        <ele>1999</ele>
        <time>2023-09-10T13:57:33.612Z</time>
      </trkpt>
      <trkpt lat="46.19621" lon="6.81951">
        <ele>1998.5</ele>
        <time>2023-09-10T13:57:34.612Z</time>
      </trkpt>
      <trkpt lat="46.19633" lon="6.81935">
        <ele>1997.7</ele>
        <time>2023-09-10T13:57:35.612Z</time>
      </trkpt>
      <trkpt lat="46.19643" lon="6.81915">
        <ele>1995.8</ele>
        <time>2023-09-10T13:57:36.612Z</time>
      </trkpt>
      <trkpt lat="46.19659" lon="6.81871">
        <ele>1994.1</ele>
        <time>2023-09-10T13:57:37.612Z</time>
      </trkpt>
      <trkpt lat="46.19665" lon="6.8185">
        <ele>1992</ele>
        <time>2023-09-10T13:57:38.612Z</time>
      </trkpt>
      <trkpt lat="46.19681" lon="6.8181">
        <ele>1990.8</ele>
        <time>2023-09-10T13:57:39.612Z</time>
      </trkpt>
      <trkpt lat="46.19694" lon="6.81766">
        <ele>1987.1</ele>
        <time>2023-09-10T13:57:40.612Z</time>
      </trkpt>
      <trkpt lat="46.19705" lon="6.8172">
        <ele>1988</ele>
        <time>2023-09-10T13:57:41.612Z</time>
      </trkpt>
      <trkpt lat="46.19707" lon="6.81701">
        <ele>1989</ele>
        <time>2023-09-10T13:57:42.612Z</time>
      </trkpt>
      <trkpt lat="46.19704" lon="6.81679">
        <ele>1988.1</ele>
        <time>2023-09-10T13:57:43.612Z</time>
      </trkpt>
      <trkpt lat="46.19704" lon="6.81612">
        <ele>1984.1</ele>
        <time>2023-09-10T13:57:44.612Z</time>
      </trkpt>
      <trkpt lat="46.19711" lon="6.81567">
        <ele>1979.8</ele>
        <time>2023-09-10T13:57:45.612Z</time>
      </trkpt>
      <trkpt lat="46.1971" lon="6.81554">
        <ele>1977.8</ele>
        <time>2023-09-10T13:57:46.612Z</time>
      </trkpt>
      <trkpt lat="46.19707" lon="6.81545">
        <ele>1977.1</ele>
        <time>2023-09-10T13:57:47.612Z</time>
      </trkpt>
      <trkpt lat="46.19696" lon="6.81528">
        <ele>1977.7</ele>
        <time>2023-09-10T13:57:48.612Z</time>
      </trkpt>
      <trkpt lat="46.19693" lon="6.81517">
        <ele>1976.8</ele>
        <time>2023-09-10T13:57:49.612Z</time>
      </trkpt>
      <trkpt lat="46.19689" lon="6.81489">
        <ele>1974.7</ele>
        <time>2023-09-10T13:57:50.612Z</time>
      </trkpt>
      <trkpt lat="46.1968" lon="6.81465">
        <ele>1974.3</ele>
        <time>2023-09-10T13:57:51.612Z</time>
      </trkpt>
      <trkpt lat="46.19678" lon="6.8145">
        <ele>1974.7</ele>
        <time>2023-09-10T13:57:52.612Z</time>
      </trkpt>
      <trkpt lat="46.19679" lon="6.81437">
        <ele>1975.6</ele>
        <time>2023-09-10T13:57:53.612Z</time>
      </trkpt>
      <trkpt lat="46.19678" lon="6.8141">
        <ele>1977.5</ele>
        <time>2023-09-10T13:57:54.612Z</time>
      </trkpt>
      <trkpt lat="46.19668" lon="6.81377">
        <ele>1976.2</ele>
        <time>2023-09-10T13:57:55.612Z</time>
      </trkpt>
      <trkpt lat="46.19653" lon="6.81339">
        <ele>1979.9</ele>
        <time>2023-09-10T13:57:56.612Z</time>
      </trkpt>
      <trkpt lat="46.19651" lon="6.81328">
        <ele>1980.6</ele>
        <time>2023-09-10T13:57:57.612Z</time>
      </trkpt>
      <trkpt lat="46.19652" lon="6.81318">
        <ele>1981.5</ele>
        <time>2023-09-10T13:57:58.612Z</time>
      </trkpt>
      <trkpt lat="46.19656" lon="6.81309">
        <ele>1982.6</ele>
        <time>2023-09-10T13:57:59.612Z</time>
      </trkpt>
      <trkpt lat="46.1967" lon="6.81294">
        <ele>1982.1</ele>
        <time>2023-09-10T13:58:00.612Z</time>
      </trkpt>
      <trkpt lat="46.19693" lon="6.8129">
        <ele>1979.1</ele>
        <time>2023-09-10T13:58:01.612Z</time>
      </trkpt>
      <trkpt lat="46.19736" lon="6.8129">
        <ele>1975.5</ele>
        <time>2023-09-10T13:58:02.612Z</time>
      </trkpt>
      <trkpt lat="46.19749" lon="6.81287">
        <ele>1972.2</ele>
        <time>2023-09-10T13:58:03.612Z</time>
      </trkpt>
      <trkpt lat="46.19759" lon="6.81278">
        <ele>1969.1</ele>
        <time>2023-09-10T13:58:04.612Z</time>
      </trkpt>
      <trkpt lat="46.19803" lon="6.81204">
        <ele>1964.2</ele>
        <time>2023-09-10T13:58:05.612Z</time>
      </trkpt>
      <trkpt lat="46.19817" lon="6.81174">
        <ele>1964</ele>
        <time>2023-09-10T13:58:06.612Z</time>
      </trkpt>
      <trkpt lat="46.19816" lon="6.81162">
        <ele>1964.7</ele>
        <time>2023-09-10T13:58:07.612Z</time>
      </trkpt>
      <trkpt lat="46.19812" lon="6.81151">
        <ele>1965.1</ele>
        <time>2023-09-10T13:58:08.612Z</time>
      </trkpt>
      <trkpt lat="46.19801" lon="6.81133">
        <ele>1965.1</ele>
        <time>2023-09-10T13:58:09.612Z</time>
      </trkpt>
      <trkpt lat="46.19788" lon="6.81117">
        <ele>1964.8</ele>
        <time>2023-09-10T13:58:10.612Z</time>
      </trkpt>
      <trkpt lat="46.19784" lon="6.81097">
        <ele>1966.2</ele>
        <time>2023-09-10T13:58:11.612Z</time>
      </trkpt>
      <trkpt lat="46.19772" lon="6.81077">
        <ele>1967.1</ele>
        <time>2023-09-10T13:58:12.612Z</time>
      </trkpt>
      <trkpt lat="46.19771" lon="6.81066">
        <ele>1967.9</ele>
        <time>2023-09-10T13:58:13.612Z</time>
      </trkpt>
      <trkpt lat="46.19778" lon="6.81037">
        <ele>1967.7</ele>
        <time>2023-09-10T13:58:14.612Z</time>
      </trkpt>
      <trkpt lat="46.19783" lon="6.81027">
        <ele>1966.8</ele>
        <time>2023-09-10T13:58:15.612Z</time>
      </trkpt>
      <trkpt lat="46.19797" lon="6.81008">
        <ele>1965.9</ele>
        <time>2023-09-10T13:58:16.612Z</time>
      </trkpt>
      <trkpt lat="46.19802" lon="6.80998">
        <ele>1965.8</ele>
        <time>2023-09-10T13:58:17.612Z</time>
      </trkpt>
      <trkpt lat="46.19804" lon="6.80989">
        <ele>1965.6</ele>
        <time>2023-09-10T13:58:18.612Z</time>
      </trkpt>
      <trkpt lat="46.19799" lon="6.80971">
        <ele>1965.2</ele>
        <time>2023-09-10T13:58:19.612Z</time>
      </trkpt>
      <trkpt lat="46.19786" lon="6.80955">
        <ele>1967</ele>
        <time>2023-09-10T13:58:20.612Z</time>
      </trkpt>
      <trkpt lat="46.19782" lon="6.80923">
        <ele>1969.2</ele>
        <time>2023-09-10T13:58:21.612Z</time>
      </trkpt>
      <trkpt lat="46.19777" lon="6.80913">
        <ele>1969.2</ele>
        <time>2023-09-10T13:58:22.612Z</time>
      </trkpt>
      <trkpt lat="46.19775" lon="6.80904">
        <ele>1969.8</ele>
        <time>2023-09-10T13:58:23.612Z</time>
      </trkpt>
      <trkpt lat="46.19782" lon="6.80894">
        <ele>1969.9</ele>
        <time>2023-09-10T13:58:24.612Z</time>
      </trkpt>
      <trkpt lat="46.19785" lon="6.80883">
        <ele>1970.3</ele>
        <time>2023-09-10T13:58:25.612Z</time>
      </trkpt>
      <trkpt lat="46.19784" lon="6.80861">
        <ele>1971.6</ele>
        <time>2023-09-10T13:58:26.612Z</time>
      </trkpt>
      <trkpt lat="46.19781" lon="6.80852">
        <ele>1972.1</ele>
        <time>2023-09-10T13:58:27.612Z</time>
      </trkpt>
      <trkpt lat="46.19764" lon="6.80838">
        <ele>1974.2</ele>
        <time>2023-09-10T13:58:28.612Z</time>
      </trkpt>
      <trkpt lat="46.19759" lon="6.8083">
        <ele>1975.3</ele>
        <time>2023-09-10T13:58:29.612Z</time>
      </trkpt>
      <trkpt lat="46.19759" lon="6.80812">
        <ele>1976.6</ele>
        <time>2023-09-10T13:58:30.612Z</time>
      </trkpt>
      <trkpt lat="46.19756" lon="6.80794">
        <ele>1978</ele>
        <time>2023-09-10T13:58:31.612Z</time>
      </trkpt>
      <trkpt lat="46.19749" lon="6.80775">
        <ele>1979.5</ele>
        <time>2023-09-10T13:58:32.612Z</time>
      </trkpt>
      <trkpt lat="46.1974" lon="6.80758">
        <ele>1982.4</ele>
        <time>2023-09-10T13:58:33.612Z</time>
      </trkpt>
      <trkpt lat="46.19733" lon="6.8073">
        <ele>1984.7</ele>
        <time>2023-09-10T13:58:34.612Z</time>
      </trkpt>
      <trkpt lat="46.19732" lon="6.8072">
        <ele>1985.2</ele>
        <time>2023-09-10T13:58:35.612Z</time>
      </trkpt>
      <trkpt lat="46.19734" lon="6.80702">
        <ele>1986.8</ele>
        <time>2023-09-10T13:58:36.612Z</time>
      </trkpt>
      <trkpt lat="46.19733" lon="6.80682">
        <ele>1989.1</ele>
        <time>2023-09-10T13:58:37.612Z</time>
      </trkpt>
      <trkpt lat="46.19726" lon="6.80663">
        <ele>1989.2</ele>
        <time>2023-09-10T13:58:38.612Z</time>
      </trkpt>
      <trkpt lat="46.19722" lon="6.80645">
        <ele>1990.1</ele>
        <time>2023-09-10T13:58:39.612Z</time>
      </trkpt>
      <trkpt lat="46.19717" lon="6.80637">
        <ele>1991.1</ele>
        <time>2023-09-10T13:58:40.612Z</time>
      </trkpt>
      <trkpt lat="46.19698" lon="6.80616">
        <ele>1992.8</ele>
        <time>2023-09-10T13:58:41.612Z</time>
      </trkpt>
      <trkpt lat="46.19694" lon="6.80607">
        <ele>1993.5</ele>
        <time>2023-09-10T13:58:42.612Z</time>
      </trkpt>
      <trkpt lat="46.19689" lon="6.80588">
        <ele>1995.4</ele>
        <time>2023-09-10T13:58:43.612Z</time>
      </trkpt>
      <trkpt lat="46.19687" lon="6.80568">
        <ele>1995.6</ele>
        <time>2023-09-10T13:58:44.612Z</time>
      </trkpt>
      <trkpt lat="46.19688" lon="6.80556">
        <ele>1995.5</ele>
        <time>2023-09-10T13:58:45.612Z</time>
      </trkpt>
      <trkpt lat="46.1969" lon="6.80545">
        <ele>1995.2</ele>
        <time>2023-09-10T13:58:46.612Z</time>
      </trkpt>
      <trkpt lat="46.19699" lon="6.80518">
        <ele>1995.3</ele>
        <time>2023-09-10T13:58:47.612Z</time>
      </trkpt>
      <trkpt lat="46.19701" lon="6.80488">
        <ele>1994.4</ele>
        <time>2023-09-10T13:58:48.612Z</time>
      </trkpt>
      <trkpt lat="46.19705" lon="6.80479">
        <ele>1994.5</ele>
        <time>2023-09-10T13:58:49.612Z</time>
      </trkpt>
      <trkpt lat="46.1975" lon="6.80414">
        <ele>1988.6</ele>
        <time>2023-09-10T13:58:50.612Z</time>
      </trkpt>
      <trkpt lat="46.19771" lon="6.80367">
        <ele>1987.5</ele>
        <time>2023-09-10T13:58:51.612Z</time>
      </trkpt>
      <trkpt lat="46.19792" lon="6.80328">
        <ele>1986</ele>
        <time>2023-09-10T13:58:52.612Z</time>
      </trkpt>
      <trkpt lat="46.19799" lon="6.80312">
        <ele>1984.2</ele>
        <time>2023-09-10T13:58:53.612Z</time>
      </trkpt>
      <trkpt lat="46.19808" lon="6.80278">
        <ele>1980.8</ele>
        <time>2023-09-10T13:58:54.612Z</time>
      </trkpt>
      <trkpt lat="46.19823" lon="6.80234">
        <ele>1978.3</ele>
        <time>2023-09-10T13:58:55.612Z</time>
      </trkpt>
      <trkpt lat="46.19828" lon="6.80206">
        <ele>1976</ele>
        <time>2023-09-10T13:58:56.612Z</time>
      </trkpt>
      <trkpt lat="46.19834" lon="6.80146">
        <ele>1972.7</ele>
        <time>2023-09-10T13:58:57.612Z</time>
      </trkpt>
      <trkpt lat="46.19843" lon="6.80108">
        <ele>1970.1</ele>
        <time>2023-09-10T13:58:58.612Z</time>
      </trkpt>
      <trkpt lat="46.19852" lon="6.80079">
        <ele>1968</ele>
        <time>2023-09-10T13:58:59.612Z</time>
      </trkpt>
      <trkpt lat="46.1986" lon="6.80063">
        <ele>1966.2</ele>
        <time>2023-09-10T13:59:00.612Z</time>
      </trkpt>
      <trkpt lat="46.19875" lon="6.80041">
        <ele>1963.6</ele>
        <time>2023-09-10T13:59:01.612Z</time>
      </trkpt>
      <trkpt lat="46.19882" lon="6.80026">
        <ele>1961.6</ele>
        <time>2023-09-10T13:59:02.612Z</time>
      </trkpt>
      <trkpt lat="46.19903" lon="6.79991">
        <ele>1957.6</ele>
        <time>2023-09-10T13:59:03.612Z</time>
      </trkpt>
      <trkpt lat="46.19921" lon="6.79949">
        <ele>1950.8</ele>
        <time>2023-09-10T13:59:04.612Z</time>
      </trkpt>
      <trkpt lat="46.19926" lon="6.79941">
        <ele>1949.4</ele>
        <time>2023-09-10T13:59:05.612Z</time>
      </trkpt>
      <trkpt lat="46.19943" lon="6.79922">
        <ele>1945.6</ele>
        <time>2023-09-10T13:59:06.612Z</time>
      </trkpt>
      <trkpt lat="46.19966" lon="6.79907">
        <ele>1942.1</ele>
        <time>2023-09-10T13:59:07.612Z</time>
      </trkpt>
      <trkpt lat="46.19978" lon="6.79902">
        <ele>1941.6</ele>
        <time>2023-09-10T13:59:08.612Z</time>
      </trkpt>
      <trkpt lat="46.19988" lon="6.79894">
        <ele>1940.4</ele>
        <time>2023-09-10T13:59:09.612Z</time>
      </trkpt>
      <trkpt lat="46.20009" lon="6.79873">
        <ele>1937.6</ele>
        <time>2023-09-10T13:59:10.612Z</time>
      </trkpt>
      <trkpt lat="46.2003" lon="6.79849">
        <ele>1935.7</ele>
        <time>2023-09-10T13:59:11.612Z</time>
      </trkpt>
      <trkpt lat="46.20055" lon="6.7978">
        <ele>1929.2</ele>
        <time>2023-09-10T13:59:12.612Z</time>
      </trkpt>
      <trkpt lat="46.20064" lon="6.7977">
        <ele>1929</ele>
        <time>2023-09-10T13:59:13.612Z</time>
      </trkpt>
      <trkpt lat="46.20076" lon="6.79766">
        <ele>1928.5</ele>
        <time>2023-09-10T13:59:14.612Z</time>
      </trkpt>
      <trkpt lat="46.20085" lon="6.79765">
        <ele>1928.2</ele>
        <time>2023-09-10T13:59:15.612Z</time>
      </trkpt>
      <trkpt lat="46.20096" lon="6.79758">
        <ele>1927.8</ele>
        <time>2023-09-10T13:59:16.612Z</time>
      </trkpt>
      <trkpt lat="46.20101" lon="6.79748">
        <ele>1926</ele>
        <time>2023-09-10T13:59:17.612Z</time>
      </trkpt>
      <trkpt lat="46.20101" lon="6.79727">
        <ele>1922</ele>
        <time>2023-09-10T13:59:18.612Z</time>
      </trkpt>
      <trkpt lat="46.20108" lon="6.7972">
        <ele>1919.8</ele>
        <time>2023-09-10T13:59:19.612Z</time>
      </trkpt>
      <trkpt lat="46.20102" lon="6.79709">
        <ele>1918</ele>
        <time>2023-09-10T13:59:20.612Z</time>
      </trkpt>
      <trkpt lat="46.20086" lon="6.79692">
        <ele>1915.2</ele>
        <time>2023-09-10T13:59:21.612Z</time>
      </trkpt>
      <trkpt lat="46.20091" lon="6.79683">
        <ele>1912.7</ele>
        <time>2023-09-10T13:59:22.612Z</time>
      </trkpt>
      <trkpt lat="46.201" lon="6.79679">
        <ele>1911.2</ele>
        <time>2023-09-10T13:59:23.612Z</time>
      </trkpt>
      <trkpt lat="46.20105" lon="6.79671">
        <ele>1909.2</ele>
        <time>2023-09-10T13:59:24.612Z</time>
      </trkpt>
      <trkpt lat="46.2011" lon="6.79648">
        <ele>1904.6</ele>
        <time>2023-09-10T13:59:25.612Z</time>
      </trkpt>
      <trkpt lat="46.20115" lon="6.79637">
        <ele>1902.5</ele>
        <time>2023-09-10T13:59:26.612Z</time>
      </trkpt>
      <trkpt lat="46.20123" lon="6.7963">
        <ele>1900.6</ele>
        <time>2023-09-10T13:59:27.612Z</time>
      </trkpt>
      <trkpt lat="46.20135" lon="6.79614">
        <ele>1896.6</ele>
        <time>2023-09-10T13:59:28.612Z</time>
      </trkpt>
      <trkpt lat="46.20145" lon="6.79578">
        <ele>1891.8</ele>
        <time>2023-09-10T13:59:29.612Z</time>
      </trkpt>
      <trkpt lat="46.20156" lon="6.79557">
        <ele>1890.3</ele>
        <time>2023-09-10T13:59:30.612Z</time>
      </trkpt>
      <trkpt lat="46.2016" lon="6.79544">
        <ele>1887.7</ele>
        <time>2023-09-10T13:59:31.612Z</time>
      </trkpt>
      <trkpt lat="46.20171" lon="6.79524">
        <ele>1885.5</ele>
        <time>2023-09-10T13:59:32.612Z</time>
      </trkpt>
      <trkpt lat="46.20191" lon="6.79496">
        <ele>1884.4</ele>
        <time>2023-09-10T13:59:33.612Z</time>
      </trkpt>
      <trkpt lat="46.20208" lon="6.79466">
        <ele>1879.4</ele>
        <time>2023-09-10T13:59:34.612Z</time>
      </trkpt>
      <trkpt lat="46.20239" lon="6.79432">
        <ele>1877.1</ele>
        <time>2023-09-10T13:59:35.612Z</time>
      </trkpt>
      <trkpt lat="46.20261" lon="6.79401">
        <ele>1874.7</ele>
        <time>2023-09-10T13:59:36.612Z</time>
      </trkpt>
      <trkpt lat="46.20275" lon="6.79384">
        <ele>1873.5</ele>
        <time>2023-09-10T13:59:37.612Z</time>
      </trkpt>
      <trkpt lat="46.20295" lon="6.79344">
        <ele>1868.3</ele>
        <time>2023-09-10T13:59:38.612Z</time>
      </trkpt>
      <trkpt lat="46.20327" lon="6.79298">
        <ele>1864.5</ele>
        <time>2023-09-10T13:59:39.612Z</time>
      </trkpt>
      <trkpt lat="46.20339" lon="6.79272">
        <ele>1860.8</ele>
        <time>2023-09-10T13:59:40.612Z</time>
      </trkpt>
      <trkpt lat="46.20346" lon="6.79262">
        <ele>1859.6</ele>
        <time>2023-09-10T13:59:41.612Z</time>
      </trkpt>
      <trkpt lat="46.20358" lon="6.79257">
        <ele>1859.8</ele>
        <time>2023-09-10T13:59:42.612Z</time>
      </trkpt>
      <trkpt lat="46.20368" lon="6.79258">
        <ele>1860.8</ele>
        <time>2023-09-10T13:59:43.612Z</time>
      </trkpt>
      <trkpt lat="46.20386" lon="6.79264">
        <ele>1863.4</ele>
        <time>2023-09-10T13:59:44.612Z</time>
      </trkpt>
      <trkpt lat="46.20397" lon="6.79265">
        <ele>1864.3</ele>
        <time>2023-09-10T13:59:45.612Z</time>
      </trkpt>
      <trkpt lat="46.20424" lon="6.79275">
        <ele>1869</ele>
        <time>2023-09-10T13:59:46.612Z</time>
      </trkpt>
      <trkpt lat="46.20442" lon="6.79277">
        <ele>1869.7</ele>
        <time>2023-09-10T13:59:47.612Z</time>
      </trkpt>
      <trkpt lat="46.20492" lon="6.79277">
        <ele>1871.4</ele>
        <time>2023-09-10T13:59:48.612Z</time>
      </trkpt>
      <trkpt lat="46.20513" lon="6.79273">
        <ele>1871.1</ele>
        <time>2023-09-10T13:59:49.612Z</time>
      </trkpt>
      <trkpt lat="46.20546" lon="6.79261">
        <ele>1869.4</ele>
        <time>2023-09-10T13:59:50.612Z</time>
      </trkpt>
      <trkpt lat="46.20556" lon="6.79261">
        <ele>1870.2</ele>
        <time>2023-09-10T13:59:51.612Z</time>
      </trkpt>
      <trkpt lat="46.20566" lon="6.79263">
        <ele>1870.9</ele>
        <time>2023-09-10T13:59:52.612Z</time>
      </trkpt>
      <trkpt lat="46.20574" lon="6.79269">
        <ele>1872.7</ele>
        <time>2023-09-10T13:59:53.612Z</time>
      </trkpt>
      <trkpt lat="46.20583" lon="6.79272">
        <ele>1873.5</ele>
        <time>2023-09-10T13:59:54.612Z</time>
      </trkpt>
      <trkpt lat="46.20613" lon="6.79273">
        <ele>1875</ele>
        <time>2023-09-10T13:59:55.612Z</time>
      </trkpt>
      <trkpt lat="46.20623" lon="6.79276">
        <ele>1876.1</ele>
        <time>2023-09-10T13:59:56.612Z</time>
      </trkpt>
      <trkpt lat="46.2065" lon="6.79288">
        <ele>1880</ele>
        <time>2023-09-10T13:59:57.612Z</time>
      </trkpt>
      <trkpt lat="46.2067" lon="6.79292">
        <ele>1881.6</ele>
        <time>2023-09-10T13:59:58.612Z</time>
      </trkpt>
      <trkpt lat="46.20677" lon="6.79299">
        <ele>1883.4</ele>
        <time>2023-09-10T13:59:59.612Z</time>
      </trkpt>
      <trkpt lat="46.20687" lon="6.79302">
        <ele>1884.2</ele>
        <time>2023-09-10T14:00:00.612Z</time>
      </trkpt>
      <trkpt lat="46.20717" lon="6.79304">
        <ele>1887.9</ele>
        <time>2023-09-10T14:00:01.612Z</time>
      </trkpt>
      <trkpt lat="46.20736" lon="6.79297">
        <ele>1889.5</ele>
        <time>2023-09-10T14:00:02.612Z</time>
      </trkpt>
      <trkpt lat="46.20764" lon="6.79292">
        <ele>1893.9</ele>
        <time>2023-09-10T14:00:03.612Z</time>
      </trkpt>
      <trkpt lat="46.20801" lon="6.79275">
        <ele>1898.9</ele>
        <time>2023-09-10T14:00:04.612Z</time>
      </trkpt>
      <trkpt lat="46.20811" lon="6.79272">
        <ele>1900.3</ele>
        <time>2023-09-10T14:00:05.612Z</time>
      </trkpt>
      <trkpt lat="46.2083" lon="6.79274">
        <ele>1903.9</ele>
        <time>2023-09-10T14:00:06.612Z</time>
      </trkpt>
      <trkpt lat="46.2085" lon="6.79272">
        <ele>1909</ele>
        <time>2023-09-10T14:00:07.612Z</time>
      </trkpt>
      <trkpt lat="46.20863" lon="6.79258">
        <ele>1910.6</ele>
        <time>2023-09-10T14:00:08.612Z</time>
      </trkpt>
      <trkpt lat="46.20872" lon="6.79252">
        <ele>1911.7</ele>
        <time>2023-09-10T14:00:09.612Z</time>
      </trkpt>
      <trkpt lat="46.2089" lon="6.79244">
        <ele>1914.3</ele>
        <time>2023-09-10T14:00:10.612Z</time>
      </trkpt>
      <trkpt lat="46.20908" lon="6.79239">
        <ele>1916.6</ele>
        <time>2023-09-10T14:00:11.612Z</time>
      </trkpt>
      <trkpt lat="46.20917" lon="6.79234">
        <ele>1917.1</ele>
        <time>2023-09-10T14:00:12.612Z</time>
      </trkpt>
      <trkpt lat="46.20927" lon="6.79231">
        <ele>1917.4</ele>
        <time>2023-09-10T14:00:13.612Z</time>
      </trkpt>
      <trkpt lat="46.20945" lon="6.79231">
        <ele>1918.9</ele>
        <time>2023-09-10T14:00:14.612Z</time>
      </trkpt>
      <trkpt lat="46.20973" lon="6.7922">
        <ele>1918.7</ele>
        <time>2023-09-10T14:00:15.612Z</time>
      </trkpt>
      <trkpt lat="46.21003" lon="6.79213">
        <ele>1920</ele>
        <time>2023-09-10T14:00:16.612Z</time>
      </trkpt>
      <trkpt lat="46.21022" lon="6.79206">
        <ele>1921.6</ele>
        <time>2023-09-10T14:00:17.612Z</time>
      </trkpt>
      <trkpt lat="46.21063" lon="6.79198">
        <ele>1924.8</ele>
        <time>2023-09-10T14:00:18.612Z</time>
      </trkpt>
      <trkpt lat="46.21082" lon="6.79196">
        <ele>1926.8</ele>
        <time>2023-09-10T14:00:19.612Z</time>
      </trkpt>
      <trkpt lat="46.21091" lon="6.79193">
        <ele>1926.7</ele>
        <time>2023-09-10T14:00:20.612Z</time>
      </trkpt>
      <trkpt lat="46.21099" lon="6.79188">
        <ele>1926</ele>
        <time>2023-09-10T14:00:21.612Z</time>
      </trkpt>
      <trkpt lat="46.21115" lon="6.7917">
        <ele>1925.3</ele>
        <time>2023-09-10T14:00:22.612Z</time>
      </trkpt>
      <trkpt lat="46.21132" lon="6.79143">
        <ele>1921.7</ele>
        <time>2023-09-10T14:00:23.612Z</time>
      </trkpt>
      <trkpt lat="46.21144" lon="6.79111">
        <ele>1916.5</ele>
        <time>2023-09-10T14:00:24.612Z</time>
      </trkpt>
      <trkpt lat="46.21167" lon="6.79087">
        <ele>1916.4</ele>
        <time>2023-09-10T14:00:25.612Z</time>
      </trkpt>
      <trkpt lat="46.21214" lon="6.79031">
        <ele>1912</ele>
        <time>2023-09-10T14:00:26.612Z</time>
      </trkpt>
      <trkpt lat="46.21205" lon="6.79025">
        <ele>1911.7</ele>
        <time>2023-09-10T14:00:27.612Z</time>
      </trkpt>
      <trkpt lat="46.21196" lon="6.79029">
        <ele>1912.1</ele>
        <time>2023-09-10T14:00:28.612Z</time>
      </trkpt>
      <trkpt lat="46.21215" lon="6.79017">
        <ele>1911.2</ele>
        <time>2023-09-10T14:00:29.612Z</time>
      </trkpt>
      <trkpt lat="46.21224" lon="6.79014">
        <ele>1911.2</ele>
        <time>2023-09-10T14:00:30.612Z</time>
      </trkpt>
      <trkpt lat="46.21243" lon="6.79001">
        <ele>1909.4</ele>
        <time>2023-09-10T14:00:31.612Z</time>
      </trkpt>
      <trkpt lat="46.21255" lon="6.78986">
        <ele>1907.5</ele>
        <time>2023-09-10T14:00:32.612Z</time>
      </trkpt>
      <trkpt lat="46.21264" lon="6.78968">
        <ele>1905.2</ele>
        <time>2023-09-10T14:00:33.612Z</time>
      </trkpt>
      <trkpt lat="46.21279" lon="6.7892">
        <ele>1902.8</ele>
        <time>2023-09-10T14:00:34.612Z</time>
      </trkpt>
      <trkpt lat="46.21295" lon="6.78879">
        <ele>1900.7</ele>
        <time>2023-09-10T14:00:35.612Z</time>
      </trkpt>
      <trkpt lat="46.21305" lon="6.78863">
        <ele>1901</ele>
        <time>2023-09-10T14:00:36.612Z</time>
      </trkpt>
      <trkpt lat="46.21335" lon="6.78825">
        <ele>1899</ele>
        <time>2023-09-10T14:00:37.612Z</time>
      </trkpt>
      <trkpt lat="46.2135" lon="6.78801">
        <ele>1897.1</ele>
        <time>2023-09-10T14:00:38.612Z</time>
      </trkpt>
      <trkpt lat="46.21376" lon="6.78747">
        <ele>1897.1</ele>
        <time>2023-09-10T14:00:39.612Z</time>
      </trkpt>
      <trkpt lat="46.21392" lon="6.78702">
        <ele>1897.5</ele>
        <time>2023-09-10T14:00:40.612Z</time>
      </trkpt>
      <trkpt lat="46.21405" lon="6.7868">
        <ele>1895.9</ele>
        <time>2023-09-10T14:00:41.612Z</time>
      </trkpt>
      <trkpt lat="46.21471" lon="6.78602">
        <ele>1883.9</ele>
        <time>2023-09-10T14:00:42.612Z</time>
      </trkpt>
      <trkpt lat="46.2149" lon="6.78582">
        <ele>1881.2</ele>
        <time>2023-09-10T14:00:43.612Z</time>
      </trkpt>
      <trkpt lat="46.21508" lon="6.78567">
        <ele>1882.2</ele>
        <time>2023-09-10T14:00:44.612Z</time>
      </trkpt>
      <trkpt lat="46.21535" lon="6.78551">
        <ele>1885.3</ele>
        <time>2023-09-10T14:00:45.612Z</time>
      </trkpt>
      <trkpt lat="46.21541" lon="6.78544">
        <ele>1886</ele>
        <time>2023-09-10T14:00:46.612Z</time>
      </trkpt>
      <trkpt lat="46.21554" lon="6.78522">
        <ele>1892.1</ele>
        <time>2023-09-10T14:00:47.612Z</time>
      </trkpt>
      <trkpt lat="46.21572" lon="6.7848">
        <ele>1896.2</ele>
        <time>2023-09-10T14:00:48.612Z</time>
      </trkpt>
      <trkpt lat="46.21583" lon="6.78459">
        <ele>1896.6</ele>
        <time>2023-09-10T14:00:49.612Z</time>
      </trkpt>
      <trkpt lat="46.21595" lon="6.78442">
        <ele>1896.3</ele>
        <time>2023-09-10T14:00:50.612Z</time>
      </trkpt>
      <trkpt lat="46.21607" lon="6.7842">
        <ele>1896.9</ele>
        <time>2023-09-10T14:00:51.612Z</time>
      </trkpt>
      <trkpt lat="46.21614" lon="6.78404">
        <ele>1896.8</ele>
        <time>2023-09-10T14:00:52.612Z</time>
      </trkpt>
      <trkpt lat="46.21618" lon="6.78389">
        <ele>1896.2</ele>
        <time>2023-09-10T14:00:53.612Z</time>
      </trkpt>
      <trkpt lat="46.2163" lon="6.78317">
        <ele>1894.4</ele>
        <time>2023-09-10T14:00:54.612Z</time>
      </trkpt>
      <trkpt lat="46.21632" lon="6.78295">
        <ele>1894.3</ele>
        <time>2023-09-10T14:00:55.612Z</time>
      </trkpt>
      <trkpt lat="46.21631" lon="6.78243">
        <ele>1891.7</ele>
        <time>2023-09-10T14:00:56.612Z</time>
      </trkpt>
      <trkpt lat="46.21632" lon="6.78194">
        <ele>1889.3</ele>
        <time>2023-09-10T14:00:57.612Z</time>
      </trkpt>
      <trkpt lat="46.2163" lon="6.78136">
        <ele>1885.9</ele>
        <time>2023-09-10T14:00:58.612Z</time>
      </trkpt>
      <trkpt lat="46.21635" lon="6.78112">
        <ele>1886.1</ele>
        <time>2023-09-10T14:00:59.612Z</time>
      </trkpt>
      <trkpt lat="46.21661" lon="6.78058">
        <ele>1887.1</ele>
        <time>2023-09-10T14:01:00.612Z</time>
      </trkpt>
      <trkpt lat="46.21691" lon="6.78006">
        <ele>1885.5</ele>
        <time>2023-09-10T14:01:01.612Z</time>
      </trkpt>
      <trkpt lat="46.21699" lon="6.77996">
        <ele>1885</ele>
        <time>2023-09-10T14:01:02.612Z</time>
      </trkpt>
      <trkpt lat="46.21724" lon="6.77974">
        <ele>1885</ele>
        <time>2023-09-10T14:01:03.612Z</time>
      </trkpt>
      <trkpt lat="46.21753" lon="6.77945">
        <ele>1879.9</ele>
        <time>2023-09-10T14:01:04.612Z</time>
      </trkpt>
      <trkpt lat="46.21764" lon="6.77937">
        <ele>1878.9</ele>
        <time>2023-09-10T14:01:05.612Z</time>
      </trkpt>
      <trkpt lat="46.21804" lon="6.77898">
        <ele>1872.9</ele>
        <time>2023-09-10T14:01:06.612Z</time>
      </trkpt>
      <trkpt lat="46.21823" lon="6.77885">
        <ele>1873.7</ele>
        <time>2023-09-10T14:01:07.612Z</time>
      </trkpt>
      <trkpt lat="46.21854" lon="6.77847">
        <ele>1870.8</ele>
        <time>2023-09-10T14:01:08.612Z</time>
      </trkpt>
      <trkpt lat="46.21866" lon="6.77836">
        <ele>1870.2</ele>
        <time>2023-09-10T14:01:09.612Z</time>
      </trkpt>
      <trkpt lat="46.21889" lon="6.7782">
        <ele>1870.1</ele>
        <time>2023-09-10T14:01:10.612Z</time>
      </trkpt>
      <trkpt lat="46.21896" lon="6.77813">
        <ele>1868</ele>
        <time>2023-09-10T14:01:11.612Z</time>
      </trkpt>
      <trkpt lat="46.21907" lon="6.77794">
        <ele>1866.3</ele>
        <time>2023-09-10T14:01:12.612Z</time>
      </trkpt>
      <trkpt lat="46.21913" lon="6.77787">
        <ele>1866.8</ele>
        <time>2023-09-10T14:01:13.612Z</time>
      </trkpt>
      <trkpt lat="46.21935" lon="6.77753">
        <ele>1865.9</ele>
        <time>2023-09-10T14:01:14.612Z</time>
      </trkpt>
      <trkpt lat="46.21952" lon="6.777">
        <ele>1864.8</ele>
        <time>2023-09-10T14:01:15.612Z</time>
      </trkpt>
      <trkpt lat="46.21968" lon="6.77666">
        <ele>1861.1</ele>
        <time>2023-09-10T14:01:16.612Z</time>
      </trkpt>
      <trkpt lat="46.2197" lon="6.77657">
        <ele>1860.6</ele>
        <time>2023-09-10T14:01:17.612Z</time>
      </trkpt>
      <trkpt lat="46.21972" lon="6.77624">
        <ele>1857.3</ele>
        <time>2023-09-10T14:01:18.612Z</time>
      </trkpt>
      <trkpt lat="46.21977" lon="6.77591">
        <ele>1849</ele>
        <time>2023-09-10T14:01:19.612Z</time>
      </trkpt>
      <trkpt lat="46.21985" lon="6.77564">
        <ele>1842.2</ele>
        <time>2023-09-10T14:01:20.612Z</time>
      </trkpt>
      <trkpt lat="46.21986" lon="6.77555">
        <ele>1840.4</ele>
        <time>2023-09-10T14:01:21.612Z</time>
      </trkpt>
      <trkpt lat="46.21995" lon="6.77527">
        <ele>1833.6</ele>
        <time>2023-09-10T14:01:22.612Z</time>
      </trkpt>
      <trkpt lat="46.21999" lon="6.77517">
        <ele>1831.2</ele>
        <time>2023-09-10T14:01:23.612Z</time>
      </trkpt>
      <trkpt lat="46.2201" lon="6.77498">
        <ele>1824.9</ele>
        <time>2023-09-10T14:01:24.612Z</time>
      </trkpt>
      <trkpt lat="46.22042" lon="6.77456">
        <ele>1815.6</ele>
        <time>2023-09-10T14:01:25.612Z</time>
      </trkpt>
      <trkpt lat="46.22064" lon="6.77415">
        <ele>1808.9</ele>
        <time>2023-09-10T14:01:26.612Z</time>
      </trkpt>
      <trkpt lat="46.22081" lon="6.7739">
        <ele>1803.3</ele>
        <time>2023-09-10T14:01:27.612Z</time>
      </trkpt>
      <trkpt lat="46.2209" lon="6.77372">
        <ele>1799.8</ele>
        <time>2023-09-10T14:01:28.612Z</time>
      </trkpt>
      <trkpt lat="46.22108" lon="6.77347">
        <ele>1794.8</ele>
        <time>2023-09-10T14:01:29.612Z</time>
      </trkpt>
      <trkpt lat="46.22109" lon="6.77337">
        <ele>1793.5</ele>
        <time>2023-09-10T14:01:30.612Z</time>
      </trkpt>
      <trkpt lat="46.22105" lon="6.77305">
        <ele>1788.4</ele>
        <time>2023-09-10T14:01:31.612Z</time>
      </trkpt>
      <trkpt lat="46.22108" lon="6.77296">
        <ele>1786.7</ele>
        <time>2023-09-10T14:01:32.612Z</time>
      </trkpt>
      <trkpt lat="46.22115" lon="6.77286">
        <ele>1784.8</ele>
        <time>2023-09-10T14:01:33.612Z</time>
      </trkpt>
      <trkpt lat="46.22123" lon="6.77281">
        <ele>1784</ele>
        <time>2023-09-10T14:01:34.612Z</time>
      </trkpt>
      <trkpt lat="46.22132" lon="6.77282">
        <ele>1784.4</ele>
        <time>2023-09-10T14:01:35.612Z</time>
      </trkpt>
      <trkpt lat="46.22142" lon="6.77277">
        <ele>1783.9</ele>
        <time>2023-09-10T14:01:36.612Z</time>
      </trkpt>
      <trkpt lat="46.22178" lon="6.77251">
        <ele>1781.9</ele>
        <time>2023-09-10T14:01:37.612Z</time>
      </trkpt>
      <trkpt lat="46.22215" lon="6.7722">
        <ele>1782.3</ele>
        <time>2023-09-10T14:01:38.612Z</time>
      </trkpt>
      <trkpt lat="46.2223" lon="6.77213">
        <ele>1782.2</ele>
        <time>2023-09-10T14:01:39.612Z</time>
      </trkpt>
      <trkpt lat="46.22243" lon="6.77214">
        <ele>1782</ele>
        <time>2023-09-10T14:01:40.612Z</time>
      </trkpt>
      <trkpt lat="46.22253" lon="6.77222">
        <ele>1782.5</ele>
        <time>2023-09-10T14:01:41.612Z</time>
      </trkpt>
      <trkpt lat="46.22259" lon="6.77235">
        <ele>1781.4</ele>
        <time>2023-09-10T14:01:42.612Z</time>
      </trkpt>
      <trkpt lat="46.22259" lon="6.77247">
        <ele>1781.1</ele>
        <time>2023-09-10T14:01:43.612Z</time>
      </trkpt>
      <trkpt lat="46.22255" lon="6.77261">
        <ele>1780.5</ele>
        <time>2023-09-10T14:01:44.612Z</time>
      </trkpt>
      <trkpt lat="46.22247" lon="6.77277">
        <ele>1780.6</ele>
        <time>2023-09-10T14:01:45.612Z</time>
      </trkpt>
      <trkpt lat="46.22233" lon="6.77299">
        <ele>1779.4</ele>
        <time>2023-09-10T14:01:46.612Z</time>
      </trkpt>
      <trkpt lat="46.22215" lon="6.77322">
        <ele>1779.2</ele>
        <time>2023-09-10T14:01:47.612Z</time>
      </trkpt>
      <trkpt lat="46.22173" lon="6.77358">
        <ele>1779.4</ele>
        <time>2023-09-10T14:01:48.612Z</time>
      </trkpt>
      <trkpt lat="46.22155" lon="6.7738">
        <ele>1780.1</ele>
        <time>2023-09-10T14:01:49.612Z</time>
      </trkpt>
      <trkpt lat="46.22141" lon="6.77405">
        <ele>1780.4</ele>
        <time>2023-09-10T14:01:50.612Z</time>
      </trkpt>
      <trkpt lat="46.22132" lon="6.77429">
        <ele>1780.8</ele>
        <time>2023-09-10T14:01:51.612Z</time>
      </trkpt>
      <trkpt lat="46.22115" lon="6.77506">
        <ele>1779.8</ele>
        <time>2023-09-10T14:01:52.612Z</time>
      </trkpt>
      <trkpt lat="46.22121" lon="6.77517">
        <ele>1778.1</ele>
        <time>2023-09-10T14:01:53.612Z</time>
      </trkpt>
      <trkpt lat="46.22131" lon="6.77514">
        <ele>1775.8</ele>
        <time>2023-09-10T14:01:54.612Z</time>
      </trkpt>
      <trkpt lat="46.2214" lon="6.77515">
        <ele>1773.7</ele>
        <time>2023-09-10T14:01:55.612Z</time>
      </trkpt>
      <trkpt lat="46.22147" lon="6.77523">
        <ele>1771.7</ele>
        <time>2023-09-10T14:01:56.612Z</time>
      </trkpt>
      <trkpt lat="46.22152" lon="6.77533">
        <ele>1769.4</ele>
        <time>2023-09-10T14:01:57.612Z</time>
      </trkpt>
      <trkpt lat="46.22149" lon="6.77551">
        <ele>1767.4</ele>
        <time>2023-09-10T14:01:58.612Z</time>
      </trkpt>
      <trkpt lat="46.22139" lon="6.77567">
        <ele>1768.3</ele>
        <time>2023-09-10T14:01:59.612Z</time>
      </trkpt>
      <trkpt lat="46.22136" lon="6.77576">
        <ele>1768.1</ele>
        <time>2023-09-10T14:02:00.612Z</time>
      </trkpt>
      <trkpt lat="46.22135" lon="6.77585">
        <ele>1767.7</ele>
        <time>2023-09-10T14:02:01.612Z</time>
      </trkpt>
      <trkpt lat="46.22137" lon="6.77594">
        <ele>1767.9</ele>
        <time>2023-09-10T14:02:02.612Z</time>
      </trkpt>
      <trkpt lat="46.22142" lon="6.77602">
        <ele>1767.1</ele>
        <time>2023-09-10T14:02:03.612Z</time>
      </trkpt>
      <trkpt lat="46.2215" lon="6.77608">
        <ele>1765.5</ele>
        <time>2023-09-10T14:02:04.612Z</time>
      </trkpt>
      <trkpt lat="46.22162" lon="6.77622">
        <ele>1764.1</ele>
        <time>2023-09-10T14:02:05.612Z</time>
      </trkpt>
      <trkpt lat="46.22191" lon="6.7766">
        <ele>1759.7</ele>
        <time>2023-09-10T14:02:06.612Z</time>
      </trkpt>
      <trkpt lat="46.22193" lon="6.77669">
        <ele>1758.8</ele>
        <time>2023-09-10T14:02:07.612Z</time>
      </trkpt>
      <trkpt lat="46.2219" lon="6.77678">
        <ele>1757.1</ele>
        <time>2023-09-10T14:02:08.612Z</time>
      </trkpt>
      <trkpt lat="46.22171" lon="6.77715">
        <ele>1755.2</ele>
        <time>2023-09-10T14:02:09.612Z</time>
      </trkpt>
      <trkpt lat="46.22176" lon="6.7773">
        <ele>1753.8</ele>
        <time>2023-09-10T14:02:10.612Z</time>
      </trkpt>
      <trkpt lat="46.22184" lon="6.77735">
        <ele>1752.6</ele>
        <time>2023-09-10T14:02:11.612Z</time>
      </trkpt>
      <trkpt lat="46.22214" lon="6.77748">
        <ele>1746.2</ele>
        <time>2023-09-10T14:02:12.612Z</time>
      </trkpt>
      <trkpt lat="46.22232" lon="6.77751">
        <ele>1741.5</ele>
        <time>2023-09-10T14:02:13.612Z</time>
      </trkpt>
      <trkpt lat="46.22261" lon="6.77753">
        <ele>1733.2</ele>
        <time>2023-09-10T14:02:14.612Z</time>
      </trkpt>
      <trkpt lat="46.22317" lon="6.77771">
        <ele>1719.2</ele>
        <time>2023-09-10T14:02:15.612Z</time>
      </trkpt>
      <trkpt lat="46.22326" lon="6.77776">
        <ele>1717.1</ele>
        <time>2023-09-10T14:02:16.612Z</time>
      </trkpt>
      <trkpt lat="46.22347" lon="6.77803">
        <ele>1713.3</ele>
        <time>2023-09-10T14:02:17.612Z</time>
      </trkpt>
      <trkpt lat="46.22357" lon="6.7781">
        <ele>1711</ele>
        <time>2023-09-10T14:02:18.612Z</time>
      </trkpt>
      <trkpt lat="46.22379" lon="6.77819">
        <ele>1706.4</ele>
        <time>2023-09-10T14:02:19.612Z</time>
      </trkpt>
      <trkpt lat="46.22402" lon="6.77856">
        <ele>1705.1</ele>
        <time>2023-09-10T14:02:20.612Z</time>
      </trkpt>
      <trkpt lat="46.2241" lon="6.77843">
        <ele>1702.2</ele>
        <time>2023-09-10T14:02:21.612Z</time>
      </trkpt>
      <trkpt lat="46.22419" lon="6.77817">
        <ele>1698.3</ele>
        <time>2023-09-10T14:02:22.612Z</time>
      </trkpt>
      <trkpt lat="46.22432" lon="6.77794">
        <ele>1692.9</ele>
        <time>2023-09-10T14:02:23.612Z</time>
      </trkpt>
      <trkpt lat="46.22442" lon="6.77784">
        <ele>1689.3</ele>
        <time>2023-09-10T14:02:24.612Z</time>
      </trkpt>
      <trkpt lat="46.22463" lon="6.77773">
        <ele>1682.5</ele>
        <time>2023-09-10T14:02:25.612Z</time>
      </trkpt>
      <trkpt lat="46.2247" lon="6.77764">
        <ele>1680.6</ele>
        <time>2023-09-10T14:02:26.612Z</time>
      </trkpt>
      <trkpt lat="46.22473" lon="6.77753">
        <ele>1679.8</ele>
        <time>2023-09-10T14:02:27.612Z</time>
      </trkpt>
      <trkpt lat="46.22472" lon="6.77741">
        <ele>1679.7</ele>
        <time>2023-09-10T14:02:28.612Z</time>
      </trkpt>
      <trkpt lat="46.22466" lon="6.77728">
        <ele>1680.4</ele>
        <time>2023-09-10T14:02:29.612Z</time>
      </trkpt>
      <trkpt lat="46.22447" lon="6.777">
        <ele>1680.5</ele>
        <time>2023-09-10T14:02:30.612Z</time>
      </trkpt>
      <trkpt lat="46.22434" lon="6.77687">
        <ele>1680.5</ele>
        <time>2023-09-10T14:02:31.612Z</time>
      </trkpt>
      <trkpt lat="46.22432" lon="6.77678">
        <ele>1679.5</ele>
        <time>2023-09-10T14:02:32.612Z</time>
      </trkpt>
      <trkpt lat="46.22442" lon="6.77672">
        <ele>1677.8</ele>
        <time>2023-09-10T14:02:33.612Z</time>
      </trkpt>
      <trkpt lat="46.22462" lon="6.7767">
        <ele>1675.5</ele>
        <time>2023-09-10T14:02:34.612Z</time>
      </trkpt>
      <trkpt lat="46.22484" lon="6.77675">
        <ele>1672.4</ele>
        <time>2023-09-10T14:02:35.612Z</time>
      </trkpt>
      <trkpt lat="46.22491" lon="6.77681">
        <ele>1671.5</ele>
        <time>2023-09-10T14:02:36.612Z</time>
      </trkpt>
      <trkpt lat="46.22507" lon="6.77697">
        <ele>1669.3</ele>
        <time>2023-09-10T14:02:37.612Z</time>
      </trkpt>
      <trkpt lat="46.22515" lon="6.77708">
        <ele>1667.7</ele>
        <time>2023-09-10T14:02:38.612Z</time>
      </trkpt>
      <trkpt lat="46.22521" lon="6.77728">
        <ele>1666.7</ele>
        <time>2023-09-10T14:02:39.612Z</time>
      </trkpt>
      <trkpt lat="46.22521" lon="6.77764">
        <ele>1667.1</ele>
        <time>2023-09-10T14:02:40.612Z</time>
      </trkpt>
      <trkpt lat="46.2253" lon="6.77767">
        <ele>1665.4</ele>
        <time>2023-09-10T14:02:41.612Z</time>
      </trkpt>
      <trkpt lat="46.22536" lon="6.7776">
        <ele>1664.4</ele>
        <time>2023-09-10T14:02:42.612Z</time>
      </trkpt>
      <trkpt lat="46.22571" lon="6.77702">
        <ele>1658.7</ele>
        <time>2023-09-10T14:02:43.612Z</time>
      </trkpt>
      <trkpt lat="46.22598" lon="6.77665">
        <ele>1655.3</ele>
        <time>2023-09-10T14:02:44.612Z</time>
      </trkpt>
      <trkpt lat="46.22604" lon="6.77654">
        <ele>1653.9</ele>
        <time>2023-09-10T14:02:45.612Z</time>
      </trkpt>
      <trkpt lat="46.22614" lon="6.77628">
        <ele>1652</ele>
        <time>2023-09-10T14:02:46.612Z</time>
      </trkpt>
      <trkpt lat="46.22622" lon="6.77615">
        <ele>1652.3</ele>
        <time>2023-09-10T14:02:47.612Z</time>
      </trkpt>
      <trkpt lat="46.22632" lon="6.77611">
        <ele>1652.8</ele>
        <time>2023-09-10T14:02:48.612Z</time>
      </trkpt>
      <trkpt lat="46.2267" lon="6.77613">
        <ele>1651.2</ele>
        <time>2023-09-10T14:02:49.612Z</time>
      </trkpt>
      <trkpt lat="46.22684" lon="6.77608">
        <ele>1649.2</ele>
        <time>2023-09-10T14:02:50.612Z</time>
      </trkpt>
      <trkpt lat="46.22724" lon="6.7758">
        <ele>1646</ele>
        <time>2023-09-10T14:02:51.612Z</time>
      </trkpt>
      <trkpt lat="46.22735" lon="6.77569">
        <ele>1644.6</ele>
        <time>2023-09-10T14:02:52.612Z</time>
      </trkpt>
      <trkpt lat="46.22744" lon="6.77557">
        <ele>1643.4</ele>
        <time>2023-09-10T14:02:53.612Z</time>
      </trkpt>
      <trkpt lat="46.2276" lon="6.77526">
        <ele>1643.1</ele>
        <time>2023-09-10T14:02:54.612Z</time>
      </trkpt>
      <trkpt lat="46.22768" lon="6.77521">
        <ele>1642.7</ele>
        <time>2023-09-10T14:02:55.612Z</time>
      </trkpt>
      <trkpt lat="46.22795" lon="6.77527">
        <ele>1641.1</ele>
        <time>2023-09-10T14:02:56.612Z</time>
      </trkpt>
      <trkpt lat="46.22814" lon="6.77525">
        <ele>1641.1</ele>
        <time>2023-09-10T14:02:57.612Z</time>
      </trkpt>
      <trkpt lat="46.22864" lon="6.77504">
        <ele>1639.3</ele>
        <time>2023-09-10T14:02:58.612Z</time>
      </trkpt>
      <trkpt lat="46.22873" lon="6.77496">
        <ele>1639.1</ele>
        <time>2023-09-10T14:02:59.612Z</time>
      </trkpt>
      <trkpt lat="46.22888" lon="6.77467">
        <ele>1639.7</ele>
        <time>2023-09-10T14:03:00.612Z</time>
      </trkpt>
      <trkpt lat="46.22897" lon="6.77458">
        <ele>1641.3</ele>
        <time>2023-09-10T14:03:01.612Z</time>
      </trkpt>
      <trkpt lat="46.22906" lon="6.77457">
        <ele>1642.2</ele>
        <time>2023-09-10T14:03:02.612Z</time>
      </trkpt>
      <trkpt lat="46.22928" lon="6.77471">
        <ele>1643.2</ele>
        <time>2023-09-10T14:03:03.612Z</time>
      </trkpt>
      <trkpt lat="46.22938" lon="6.7747">
        <ele>1645.2</ele>
        <time>2023-09-10T14:03:04.612Z</time>
      </trkpt>
      <trkpt lat="46.22937" lon="6.77447">
        <ele>1649</ele>
        <time>2023-09-10T14:03:05.612Z</time>
      </trkpt>
      <trkpt lat="46.22934" lon="6.77426">
        <ele>1652.1</ele>
        <time>2023-09-10T14:03:06.612Z</time>
      </trkpt>
      <trkpt lat="46.22925" lon="6.77408">
        <ele>1653.3</ele>
        <time>2023-09-10T14:03:07.612Z</time>
      </trkpt>
      <trkpt lat="46.22909" lon="6.77389">
        <ele>1654.2</ele>
        <time>2023-09-10T14:03:08.612Z</time>
      </trkpt>
      <trkpt lat="46.22908" lon="6.77379">
        <ele>1655.5</ele>
        <time>2023-09-10T14:03:09.612Z</time>
      </trkpt>
      <trkpt lat="46.22918" lon="6.77378">
        <ele>1656.8</ele>
        <time>2023-09-10T14:03:10.612Z</time>
      </trkpt>
      <trkpt lat="46.22938" lon="6.77383">
        <ele>1659.4</ele>
        <time>2023-09-10T14:03:11.612Z</time>
      </trkpt>
      <trkpt lat="46.22949" lon="6.77383">
        <ele>1661.1</ele>
        <time>2023-09-10T14:03:12.612Z</time>
      </trkpt>
      <trkpt lat="46.22959" lon="6.7738">
        <ele>1662.8</ele>
        <time>2023-09-10T14:03:13.612Z</time>
      </trkpt>
      <trkpt lat="46.22971" lon="6.77363">
        <ele>1664</ele>
        <time>2023-09-10T14:03:14.612Z</time>
      </trkpt>
      <trkpt lat="46.22993" lon="6.77403">
        <ele>1667.2</ele>
        <time>2023-09-10T14:03:15.612Z</time>
      </trkpt>
      <trkpt lat="46.23034" lon="6.77438">
        <ele>1670.2</ele>
        <time>2023-09-10T14:03:16.612Z</time>
      </trkpt>
      <trkpt lat="46.23051" lon="6.77447">
        <ele>1671.4</ele>
        <time>2023-09-10T14:03:17.612Z</time>
      </trkpt>
      <trkpt lat="46.2306" lon="6.77454">
        <ele>1671.4</ele>
        <time>2023-09-10T14:03:18.612Z</time>
      </trkpt>
      <trkpt lat="46.23065" lon="6.77464">
        <ele>1671.2</ele>
        <time>2023-09-10T14:03:19.612Z</time>
      </trkpt>
      <trkpt lat="46.23072" lon="6.77486">
        <ele>1671.8</ele>
        <time>2023-09-10T14:03:20.612Z</time>
      </trkpt>
      <trkpt lat="46.23076" lon="6.77515">
        <ele>1673.5</ele>
        <time>2023-09-10T14:03:21.612Z</time>
      </trkpt>
      <trkpt lat="46.23083" lon="6.77537">
        <ele>1675.9</ele>
        <time>2023-09-10T14:03:22.612Z</time>
      </trkpt>
      <trkpt lat="46.23108" lon="6.7759">
        <ele>1683</ele>
        <time>2023-09-10T14:03:23.612Z</time>
      </trkpt>
      <trkpt lat="46.23123" lon="6.77637">
        <ele>1683.8</ele>
        <time>2023-09-10T14:03:24.612Z</time>
      </trkpt>
      <trkpt lat="46.23132" lon="6.77656">
        <ele>1684.4</ele>
        <time>2023-09-10T14:03:25.612Z</time>
      </trkpt>
      <trkpt lat="46.23145" lon="6.77673">
        <ele>1685.3</ele>
        <time>2023-09-10T14:03:26.612Z</time>
      </trkpt>
      <trkpt lat="46.23161" lon="6.77689">
        <ele>1685.9</ele>
        <time>2023-09-10T14:03:27.612Z</time>
      </trkpt>
      <trkpt lat="46.23182" lon="6.77702">
        <ele>1685.9</ele>
        <time>2023-09-10T14:03:28.612Z</time>
      </trkpt>
      <trkpt lat="46.23208" lon="6.77724">
        <ele>1680.2</ele>
        <time>2023-09-10T14:03:29.612Z</time>
      </trkpt>
      <trkpt lat="46.2322" lon="6.77729">
        <ele>1679.1</ele>
        <time>2023-09-10T14:03:30.612Z</time>
      </trkpt>
      <trkpt lat="46.23233" lon="6.77731">
        <ele>1678.5</ele>
        <time>2023-09-10T14:03:31.612Z</time>
      </trkpt>
      <trkpt lat="46.23246" lon="6.7773">
        <ele>1678.9</ele>
        <time>2023-09-10T14:03:32.612Z</time>
      </trkpt>
      <trkpt lat="46.23258" lon="6.77728">
        <ele>1679.2</ele>
        <time>2023-09-10T14:03:33.612Z</time>
      </trkpt>
      <trkpt lat="46.2328" lon="6.77719">
        <ele>1681.2</ele>
        <time>2023-09-10T14:03:34.612Z</time>
      </trkpt>
      <trkpt lat="46.23341" lon="6.77704">
        <ele>1686.9</ele>
        <time>2023-09-10T14:03:35.612Z</time>
      </trkpt>
      <trkpt lat="46.23361" lon="6.77706">
        <ele>1688.1</ele>
        <time>2023-09-10T14:03:36.612Z</time>
      </trkpt>
      <trkpt lat="46.23377" lon="6.77722">
        <ele>1689.8</ele>
        <time>2023-09-10T14:03:37.612Z</time>
      </trkpt>
      <trkpt lat="46.23384" lon="6.77733">
        <ele>1690.6</ele>
        <time>2023-09-10T14:03:38.612Z</time>
      </trkpt>
      <trkpt lat="46.23404" lon="6.77774">
        <ele>1688.3</ele>
        <time>2023-09-10T14:03:39.612Z</time>
      </trkpt>
      <trkpt lat="46.23416" lon="6.77778">
        <ele>1690.7</ele>
        <time>2023-09-10T14:03:40.612Z</time>
      </trkpt>
      <trkpt lat="46.23435" lon="6.77774">
        <ele>1693.2</ele>
        <time>2023-09-10T14:03:41.612Z</time>
      </trkpt>
      <trkpt lat="46.23463" lon="6.77754">
        <ele>1697.7</ele>
        <time>2023-09-10T14:03:42.612Z</time>
      </trkpt>
      <trkpt lat="46.23476" lon="6.77748">
        <ele>1698.5</ele>
        <time>2023-09-10T14:03:43.612Z</time>
      </trkpt>
      <trkpt lat="46.23489" lon="6.77745">
        <ele>1699.5</ele>
        <time>2023-09-10T14:03:44.612Z</time>
      </trkpt>
      <trkpt lat="46.23498" lon="6.77751">
        <ele>1699.8</ele>
        <time>2023-09-10T14:03:45.612Z</time>
      </trkpt>
      <trkpt lat="46.23503" lon="6.77763">
        <ele>1700.5</ele>
        <time>2023-09-10T14:03:46.612Z</time>
      </trkpt>
      <trkpt lat="46.23506" lon="6.77803">
        <ele>1700.7</ele>
        <time>2023-09-10T14:03:47.612Z</time>
      </trkpt>
      <trkpt lat="46.23514" lon="6.77842">
        <ele>1700.6</ele>
        <time>2023-09-10T14:03:48.612Z</time>
      </trkpt>
      <trkpt lat="46.23519" lon="6.77854">
        <ele>1700.7</ele>
        <time>2023-09-10T14:03:49.612Z</time>
      </trkpt>
      <trkpt lat="46.23531" lon="6.77875">
        <ele>1700.7</ele>
        <time>2023-09-10T14:03:50.612Z</time>
      </trkpt>
      <trkpt lat="46.23547" lon="6.7789">
        <ele>1701.8</ele>
        <time>2023-09-10T14:03:51.612Z</time>
      </trkpt>
      <trkpt lat="46.23578" lon="6.77907">
        <ele>1704.3</ele>
        <time>2023-09-10T14:03:52.612Z</time>
      </trkpt>
      <trkpt lat="46.23601" lon="6.77917">
        <ele>1706.3</ele>
        <time>2023-09-10T14:03:53.612Z</time>
      </trkpt>
      <trkpt lat="46.23631" lon="6.7794">
        <ele>1704.7</ele>
        <time>2023-09-10T14:03:54.612Z</time>
      </trkpt>
      <trkpt lat="46.23664" lon="6.77956">
        <ele>1705.4</ele>
        <time>2023-09-10T14:03:55.612Z</time>
      </trkpt>
      <trkpt lat="46.23677" lon="6.7796">
        <ele>1705.9</ele>
        <time>2023-09-10T14:03:56.612Z</time>
      </trkpt>
      <trkpt lat="46.23707" lon="6.77964">
        <ele>1709.4</ele>
        <time>2023-09-10T14:03:57.612Z</time>
      </trkpt>
      <trkpt lat="46.23716" lon="6.77968">
        <ele>1709.5</ele>
        <time>2023-09-10T14:03:58.612Z</time>
      </trkpt>
      <trkpt lat="46.23732" lon="6.77979">
        <ele>1708.7</ele>
        <time>2023-09-10T14:03:59.612Z</time>
      </trkpt>
      <trkpt lat="46.23776" lon="6.77994">
        <ele>1712.2</ele>
        <time>2023-09-10T14:04:00.612Z</time>
      </trkpt>
      <trkpt lat="46.23795" lon="6.77998">
        <ele>1713.3</ele>
        <time>2023-09-10T14:04:01.612Z</time>
      </trkpt>
      <trkpt lat="46.23854" lon="6.78021">
        <ele>1713.5</ele>
        <time>2023-09-10T14:04:02.612Z</time>
      </trkpt>
      <trkpt lat="46.23882" lon="6.78033">
        <ele>1713.8</ele>
        <time>2023-09-10T14:04:03.612Z</time>
      </trkpt>
      <trkpt lat="46.23918" lon="6.78051">
        <ele>1714.9</ele>
        <time>2023-09-10T14:04:04.612Z</time>
      </trkpt>
      <trkpt lat="46.23928" lon="6.78053">
        <ele>1716</ele>
        <time>2023-09-10T14:04:05.612Z</time>
      </trkpt>
      <trkpt lat="46.23938" lon="6.78058">
        <ele>1716</ele>
        <time>2023-09-10T14:04:06.612Z</time>
      </trkpt>
      <trkpt lat="46.23964" lon="6.78079">
        <ele>1714.7</ele>
        <time>2023-09-10T14:04:07.612Z</time>
      </trkpt>
      <trkpt lat="46.23973" lon="6.78084">
        <ele>1714.9</ele>
        <time>2023-09-10T14:04:08.612Z</time>
      </trkpt>
      <trkpt lat="46.23983" lon="6.78087">
        <ele>1715.1</ele>
        <time>2023-09-10T14:04:09.612Z</time>
      </trkpt>
      <trkpt lat="46.24029" lon="6.78098">
        <ele>1714.6</ele>
        <time>2023-09-10T14:04:10.612Z</time>
      </trkpt>
      <trkpt lat="46.24039" lon="6.78098">
        <ele>1714.1</ele>
        <time>2023-09-10T14:04:11.612Z</time>
      </trkpt>
      <trkpt lat="46.24072" lon="6.78087">
        <ele>1714.7</ele>
        <time>2023-09-10T14:04:12.612Z</time>
      </trkpt>
      <trkpt lat="46.24114" lon="6.78063">
        <ele>1716.6</ele>
        <time>2023-09-10T14:04:13.612Z</time>
      </trkpt>
      <trkpt lat="46.24122" lon="6.78057">
        <ele>1716.8</ele>
        <time>2023-09-10T14:04:14.612Z</time>
      </trkpt>
      <trkpt lat="46.24155" lon="6.78027">
        <ele>1718.2</ele>
        <time>2023-09-10T14:04:15.612Z</time>
      </trkpt>
      <trkpt lat="46.24169" lon="6.7801">
        <ele>1720.1</ele>
        <time>2023-09-10T14:04:16.612Z</time>
      </trkpt>
      <trkpt lat="46.24185" lon="6.77995">
        <ele>1721.3</ele>
        <time>2023-09-10T14:04:17.612Z</time>
      </trkpt>
      <trkpt lat="46.24202" lon="6.77984">
        <ele>1722</ele>
        <time>2023-09-10T14:04:18.612Z</time>
      </trkpt>
      <trkpt lat="46.24229" lon="6.7797">
        <ele>1722.2</ele>
        <time>2023-09-10T14:04:19.612Z</time>
      </trkpt>
      <trkpt lat="46.24255" lon="6.77951">
        <ele>1723.3</ele>
        <time>2023-09-10T14:04:20.612Z</time>
      </trkpt>
      <trkpt lat="46.24274" lon="6.7794">
        <ele>1722</ele>
        <time>2023-09-10T14:04:21.612Z</time>
      </trkpt>
      <trkpt lat="46.24318" lon="6.7791">
        <ele>1724.7</ele>
        <time>2023-09-10T14:04:22.612Z</time>
      </trkpt>
      <trkpt lat="46.24364" lon="6.77883">
        <ele>1724.1</ele>
        <time>2023-09-10T14:04:23.612Z</time>
      </trkpt>
      <trkpt lat="46.2438" lon="6.77869">
        <ele>1724.3</ele>
        <time>2023-09-10T14:04:24.612Z</time>
      </trkpt>
      <trkpt lat="46.24402" lon="6.77843">
        <ele>1726.4</ele>
        <time>2023-09-10T14:04:25.612Z</time>
      </trkpt>
      <trkpt lat="46.24437" lon="6.77823">
        <ele>1726.2</ele>
        <time>2023-09-10T14:04:26.612Z</time>
      </trkpt>
      <trkpt lat="46.24456" lon="6.77816">
        <ele>1725.7</ele>
        <time>2023-09-10T14:04:27.612Z</time>
      </trkpt>
      <trkpt lat="46.24492" lon="6.77798">
        <ele>1725.5</ele>
        <time>2023-09-10T14:04:28.612Z</time>
      </trkpt>
      <trkpt lat="46.24519" lon="6.77795">
        <ele>1721.4</ele>
        <time>2023-09-10T14:04:29.612Z</time>
      </trkpt>
      <trkpt lat="46.2453" lon="6.77791">
        <ele>1720.3</ele>
        <time>2023-09-10T14:04:30.612Z</time>
      </trkpt>
      <trkpt lat="46.2455" lon="6.77788">
        <ele>1718.2</ele>
        <time>2023-09-10T14:04:31.612Z</time>
      </trkpt>
      <trkpt lat="46.24559" lon="6.77789">
        <ele>1717.3</ele>
        <time>2023-09-10T14:04:32.612Z</time>
      </trkpt>
      <trkpt lat="46.24562" lon="6.778">
        <ele>1714.5</ele>
        <time>2023-09-10T14:04:33.612Z</time>
      </trkpt>
      <trkpt lat="46.24557" lon="6.77809">
        <ele>1712</ele>
        <time>2023-09-10T14:04:34.612Z</time>
      </trkpt>
      <trkpt lat="46.24537" lon="6.77823">
        <ele>1709.8</ele>
        <time>2023-09-10T14:04:35.612Z</time>
      </trkpt>
      <trkpt lat="46.24537" lon="6.77834">
        <ele>1706.1</ele>
        <time>2023-09-10T14:04:36.612Z</time>
      </trkpt>
      <trkpt lat="46.24543" lon="6.77841">
        <ele>1703.7</ele>
        <time>2023-09-10T14:04:37.612Z</time>
      </trkpt>
      <trkpt lat="46.24561" lon="6.77854">
        <ele>1700.2</ele>
        <time>2023-09-10T14:04:38.612Z</time>
      </trkpt>
      <trkpt lat="46.24597" lon="6.7787">
        <ele>1694.2</ele>
        <time>2023-09-10T14:04:39.612Z</time>
      </trkpt>
      <trkpt lat="46.24604" lon="6.7788">
        <ele>1692.3</ele>
        <time>2023-09-10T14:04:40.612Z</time>
      </trkpt>
      <trkpt lat="46.24604" lon="6.77894">
        <ele>1689.8</ele>
        <time>2023-09-10T14:04:41.612Z</time>
      </trkpt>
      <trkpt lat="46.24606" lon="6.77905">
        <ele>1687.9</ele>
        <time>2023-09-10T14:04:42.612Z</time>
      </trkpt>
      <trkpt lat="46.24614" lon="6.77915">
        <ele>1686.6</ele>
        <time>2023-09-10T14:04:43.612Z</time>
      </trkpt>
      <trkpt lat="46.24619" lon="6.77926">
        <ele>1685.7</ele>
        <time>2023-09-10T14:04:44.612Z</time>
      </trkpt>
      <trkpt lat="46.24619" lon="6.77935">
        <ele>1684.6</ele>
        <time>2023-09-10T14:04:45.612Z</time>
      </trkpt>
      <trkpt lat="46.24615" lon="6.77953">
        <ele>1681.6</ele>
        <time>2023-09-10T14:04:46.612Z</time>
      </trkpt>
      <trkpt lat="46.24618" lon="6.77981">
        <ele>1678.5</ele>
        <time>2023-09-10T14:04:47.612Z</time>
      </trkpt>
      <trkpt lat="46.24612" lon="6.78">
        <ele>1673.4</ele>
        <time>2023-09-10T14:04:48.612Z</time>
      </trkpt>
      <trkpt lat="46.24607" lon="6.78008">
        <ele>1671.1</ele>
        <time>2023-09-10T14:04:49.612Z</time>
      </trkpt>
      <trkpt lat="46.2457" lon="6.7805">
        <ele>1656.4</ele>
        <time>2023-09-10T14:04:50.612Z</time>
      </trkpt>
      <trkpt lat="46.24566" lon="6.78062">
        <ele>1655.1</ele>
        <time>2023-09-10T14:04:51.612Z</time>
      </trkpt>
      <trkpt lat="46.24567" lon="6.78074">
        <ele>1656.1</ele>
        <time>2023-09-10T14:04:52.612Z</time>
      </trkpt>
      <trkpt lat="46.24564" lon="6.78083">
        <ele>1655.3</ele>
        <time>2023-09-10T14:04:53.612Z</time>
      </trkpt>
      <trkpt lat="46.24531" lon="6.78131">
        <ele>1647.7</ele>
        <time>2023-09-10T14:04:54.612Z</time>
      </trkpt>
      <trkpt lat="46.24524" lon="6.78149">
        <ele>1646</ele>
        <time>2023-09-10T14:04:55.612Z</time>
      </trkpt>
      <trkpt lat="46.24507" lon="6.78174">
        <ele>1639.3</ele>
        <time>2023-09-10T14:04:56.612Z</time>
      </trkpt>
      <trkpt lat="46.24496" lon="6.78204">
        <ele>1634.1</ele>
        <time>2023-09-10T14:04:57.612Z</time>
      </trkpt>
      <trkpt lat="46.24476" lon="6.78233">
        <ele>1625.4</ele>
        <time>2023-09-10T14:04:58.612Z</time>
      </trkpt>
      <trkpt lat="46.24465" lon="6.78256">
        <ele>1621.7</ele>
        <time>2023-09-10T14:04:59.612Z</time>
      </trkpt>
      <trkpt lat="46.24442" lon="6.78285">
        <ele>1615.9</ele>
        <time>2023-09-10T14:05:00.612Z</time>
      </trkpt>
      <trkpt lat="46.24417" lon="6.78322">
        <ele>1612.9</ele>
        <time>2023-09-10T14:05:01.612Z</time>
      </trkpt>
      <trkpt lat="46.24376" lon="6.78358">
        <ele>1606.5</ele>
        <time>2023-09-10T14:05:02.612Z</time>
      </trkpt>
      <trkpt lat="46.24366" lon="6.78364">
        <ele>1604.6</ele>
        <time>2023-09-10T14:05:03.612Z</time>
      </trkpt>
      <trkpt lat="46.24343" lon="6.78369">
        <ele>1599.1</ele>
        <time>2023-09-10T14:05:04.612Z</time>
      </trkpt>
      <trkpt lat="46.24297" lon="6.78399">
        <ele>1587.4</ele>
        <time>2023-09-10T14:05:05.612Z</time>
      </trkpt>
      <trkpt lat="46.2429" lon="6.78409">
        <ele>1585.9</ele>
        <time>2023-09-10T14:05:06.612Z</time>
      </trkpt>
      <trkpt lat="46.24276" lon="6.78439">
        <ele>1584.5</ele>
        <time>2023-09-10T14:05:07.612Z</time>
      </trkpt>
      <trkpt lat="46.24269" lon="6.78447">
        <ele>1582.7</ele>
        <time>2023-09-10T14:05:08.612Z</time>
      </trkpt>
      <trkpt lat="46.24242" lon="6.78465">
        <ele>1574.3</ele>
        <time>2023-09-10T14:05:09.612Z</time>
      </trkpt>
      <trkpt lat="46.24236" lon="6.78472">
        <ele>1572.9</ele>
        <time>2023-09-10T14:05:10.612Z</time>
      </trkpt>
      <trkpt lat="46.24223" lon="6.78494">
        <ele>1572.8</ele>
        <time>2023-09-10T14:05:11.612Z</time>
      </trkpt>
      <trkpt lat="46.24214" lon="6.78502">
        <ele>1570.7</ele>
        <time>2023-09-10T14:05:12.612Z</time>
      </trkpt>
      <trkpt lat="46.24196" lon="6.78513">
        <ele>1565.5</ele>
        <time>2023-09-10T14:05:13.612Z</time>
      </trkpt>
      <trkpt lat="46.24183" lon="6.78527">
        <ele>1563</ele>
        <time>2023-09-10T14:05:14.612Z</time>
      </trkpt>
      <trkpt lat="46.24174" lon="6.78525">
        <ele>1558</ele>
        <time>2023-09-10T14:05:15.612Z</time>
      </trkpt>
      <trkpt lat="46.24169" lon="6.78516">
        <ele>1553.6</ele>
        <time>2023-09-10T14:05:16.612Z</time>
      </trkpt>
      <trkpt lat="46.24158" lon="6.78522">
        <ele>1550.1</ele>
        <time>2023-09-10T14:05:17.612Z</time>
      </trkpt>
      <trkpt lat="46.24148" lon="6.7853">
        <ele>1546.7</ele>
        <time>2023-09-10T14:05:18.612Z</time>
      </trkpt>
      <trkpt lat="46.24142" lon="6.78537">
        <ele>1545.2</ele>
        <time>2023-09-10T14:05:19.612Z</time>
      </trkpt>
      <trkpt lat="46.24137" lon="6.78548">
        <ele>1544.8</ele>
        <time>2023-09-10T14:05:20.612Z</time>
      </trkpt>
      <trkpt lat="46.24127" lon="6.78581">
        <ele>1543.5</ele>
        <time>2023-09-10T14:05:21.612Z</time>
      </trkpt>
      <trkpt lat="46.24125" lon="6.78593">
        <ele>1542.8</ele>
        <time>2023-09-10T14:05:22.612Z</time>
      </trkpt>
      <trkpt lat="46.24126" lon="6.78618">
        <ele>1543.9</ele>
        <time>2023-09-10T14:05:23.612Z</time>
      </trkpt>
      <trkpt lat="46.24118" lon="6.78648">
        <ele>1537.1</ele>
        <time>2023-09-10T14:05:24.612Z</time>
      </trkpt>
      <trkpt lat="46.24115" lon="6.78668">
        <ele>1532.8</ele>
        <time>2023-09-10T14:05:25.612Z</time>
      </trkpt>
      <trkpt lat="46.24115" lon="6.78677">
        <ele>1530.5</ele>
        <time>2023-09-10T14:05:26.612Z</time>
      </trkpt>
      <trkpt lat="46.24125" lon="6.78699">
        <ele>1530.2</ele>
        <time>2023-09-10T14:05:27.612Z</time>
      </trkpt>
      <trkpt lat="46.24123" lon="6.7871">
        <ele>1525.9</ele>
        <time>2023-09-10T14:05:28.612Z</time>
      </trkpt>
      <trkpt lat="46.24124" lon="6.78744">
        <ele>1516.7</ele>
        <time>2023-09-10T14:05:29.612Z</time>
      </trkpt>
      <trkpt lat="46.2413" lon="6.78765">
        <ele>1513.7</ele>
        <time>2023-09-10T14:05:30.612Z</time>
      </trkpt>
      <trkpt lat="46.2413" lon="6.78786">
        <ele>1507.5</ele>
        <time>2023-09-10T14:05:31.612Z</time>
      </trkpt>
      <trkpt lat="46.24132" lon="6.78795">
        <ele>1505.8</ele>
        <time>2023-09-10T14:05:32.612Z</time>
      </trkpt>
      <trkpt lat="46.24137" lon="6.78806">
        <ele>1505</ele>
        <time>2023-09-10T14:05:33.612Z</time>
      </trkpt>
      <trkpt lat="46.24151" lon="6.78856">
        <ele>1495.5</ele>
        <time>2023-09-10T14:05:34.612Z</time>
      </trkpt>
      <trkpt lat="46.24159" lon="6.78896">
        <ele>1489</ele>
        <time>2023-09-10T14:05:35.612Z</time>
      </trkpt>
      <trkpt lat="46.24158" lon="6.78905">
        <ele>1487.2</ele>
        <time>2023-09-10T14:05:36.612Z</time>
      </trkpt>
      <trkpt lat="46.24149" lon="6.78902">
        <ele>1484.6</ele>
        <time>2023-09-10T14:05:37.612Z</time>
      </trkpt>
      <trkpt lat="46.24148" lon="6.78911">
        <ele>1482.8</ele>
        <time>2023-09-10T14:05:38.612Z</time>
      </trkpt>
      <trkpt lat="46.24151" lon="6.78931">
        <ele>1479.5</ele>
        <time>2023-09-10T14:05:39.612Z</time>
      </trkpt>
      <trkpt lat="46.24155" lon="6.78945">
        <ele>1477.7</ele>
        <time>2023-09-10T14:05:40.612Z</time>
      </trkpt>
      <trkpt lat="46.24166" lon="6.78972">
        <ele>1476.8</ele>
        <time>2023-09-10T14:05:41.612Z</time>
      </trkpt>
      <trkpt lat="46.24171" lon="6.78982">
        <ele>1475.2</ele>
        <time>2023-09-10T14:05:42.612Z</time>
      </trkpt>
      <trkpt lat="46.24183" lon="6.78998">
        <ele>1473.1</ele>
        <time>2023-09-10T14:05:43.612Z</time>
      </trkpt>
      <trkpt lat="46.24193" lon="6.79018">
        <ele>1471.4</ele>
        <time>2023-09-10T14:05:44.612Z</time>
      </trkpt>
      <trkpt lat="46.24203" lon="6.79063">
        <ele>1468.7</ele>
        <time>2023-09-10T14:05:45.612Z</time>
      </trkpt>
      <trkpt lat="46.24204" lon="6.79074">
        <ele>1467.2</ele>
        <time>2023-09-10T14:05:46.612Z</time>
      </trkpt>
      <trkpt lat="46.24197" lon="6.79083">
        <ele>1464.5</ele>
        <time>2023-09-10T14:05:47.612Z</time>
      </trkpt>
      <trkpt lat="46.24176" lon="6.79079">
        <ele>1460.4</ele>
        <time>2023-09-10T14:05:48.612Z</time>
      </trkpt>
      <trkpt lat="46.24168" lon="6.79085">
        <ele>1458.1</ele>
        <time>2023-09-10T14:05:49.612Z</time>
      </trkpt>
      <trkpt lat="46.24155" lon="6.79102">
        <ele>1455.5</ele>
        <time>2023-09-10T14:05:50.612Z</time>
      </trkpt>
      <trkpt lat="46.24145" lon="6.791">
        <ele>1454.8</ele>
        <time>2023-09-10T14:05:51.612Z</time>
      </trkpt>
      <trkpt lat="46.24139" lon="6.79092">
        <ele>1455.1</ele>
        <time>2023-09-10T14:05:52.612Z</time>
      </trkpt>
      <trkpt lat="46.24125" lon="6.79062">
        <ele>1450.8</ele>
        <time>2023-09-10T14:05:53.612Z</time>
      </trkpt>
      <trkpt lat="46.24117" lon="6.79029">
        <ele>1450</ele>
        <time>2023-09-10T14:05:54.612Z</time>
      </trkpt>
      <trkpt lat="46.24112" lon="6.79021">
        <ele>1449.9</ele>
        <time>2023-09-10T14:05:55.612Z</time>
      </trkpt>
      <trkpt lat="46.24088" lon="6.79009">
        <ele>1445.2</ele>
        <time>2023-09-10T14:05:56.612Z</time>
      </trkpt>
      <trkpt lat="46.24044" lon="6.78969">
        <ele>1439.3</ele>
        <time>2023-09-10T14:05:57.612Z</time>
      </trkpt>
      <trkpt lat="46.24031" lon="6.78953">
        <ele>1437.2</ele>
        <time>2023-09-10T14:05:58.612Z</time>
      </trkpt>
      <trkpt lat="46.2401" lon="6.78915">
        <ele>1436.6</ele>
        <time>2023-09-10T14:05:59.612Z</time>
      </trkpt>
      <trkpt lat="46.23996" lon="6.78876">
        <ele>1438.1</ele>
        <time>2023-09-10T14:06:00.612Z</time>
      </trkpt>
      <trkpt lat="46.23986" lon="6.78854">
        <ele>1437.7</ele>
        <time>2023-09-10T14:06:01.612Z</time>
      </trkpt>
      <trkpt lat="46.2398" lon="6.78833">
        <ele>1438.7</ele>
        <time>2023-09-10T14:06:02.612Z</time>
      </trkpt>
      <trkpt lat="46.23979" lon="6.78798">
        <ele>1440</ele>
        <time>2023-09-10T14:06:03.612Z</time>
      </trkpt>
      <trkpt lat="46.23982" lon="6.7877">
        <ele>1445.7</ele>
        <time>2023-09-10T14:06:04.612Z</time>
      </trkpt>
      <trkpt lat="46.23975" lon="6.78764">
        <ele>1445.2</ele>
        <time>2023-09-10T14:06:05.612Z</time>
      </trkpt>
      <trkpt lat="46.23946" lon="6.78761">
        <ele>1440.7</ele>
        <time>2023-09-10T14:06:06.612Z</time>
      </trkpt>
      <trkpt lat="46.23936" lon="6.78755">
        <ele>1441.2</ele>
        <time>2023-09-10T14:06:07.612Z</time>
      </trkpt>
      <trkpt lat="46.23906" lon="6.78725">
        <ele>1444.9</ele>
        <time>2023-09-10T14:06:08.612Z</time>
      </trkpt>
      <trkpt lat="46.23877" lon="6.78707">
        <ele>1442</ele>
        <time>2023-09-10T14:06:09.612Z</time>
      </trkpt>
      <trkpt lat="46.2387" lon="6.78697">
        <ele>1442.2</ele>
        <time>2023-09-10T14:06:10.612Z</time>
      </trkpt>
      <trkpt lat="46.23862" lon="6.78674">
        <ele>1446.1</ele>
        <time>2023-09-10T14:06:11.612Z</time>
      </trkpt>
      <trkpt lat="46.23854" lon="6.78668">
        <ele>1446.1</ele>
        <time>2023-09-10T14:06:12.612Z</time>
      </trkpt>
      <trkpt lat="46.23845" lon="6.78669">
        <ele>1443.8</ele>
        <time>2023-09-10T14:06:13.612Z</time>
      </trkpt>
      <trkpt lat="46.23822" lon="6.78683">
        <ele>1434.4</ele>
        <time>2023-09-10T14:06:14.612Z</time>
      </trkpt>
      <trkpt lat="46.23809" lon="6.78705">
        <ele>1423.7</ele>
        <time>2023-09-10T14:06:15.612Z</time>
      </trkpt>
      <trkpt lat="46.23798" lon="6.78708">
        <ele>1419.6</ele>
        <time>2023-09-10T14:06:16.612Z</time>
      </trkpt>
      <trkpt lat="46.23787" lon="6.78705">
        <ele>1417.9</ele>
        <time>2023-09-10T14:06:17.612Z</time>
      </trkpt>
      <trkpt lat="46.23777" lon="6.78698">
        <ele>1418.3</ele>
        <time>2023-09-10T14:06:18.612Z</time>
      </trkpt>
      <trkpt lat="46.23766" lon="6.78699">
        <ele>1415.9</ele>
        <time>2023-09-10T14:06:19.612Z</time>
      </trkpt>
      <trkpt lat="46.23746" lon="6.78723">
        <ele>1401.8</ele>
        <time>2023-09-10T14:06:20.612Z</time>
      </trkpt>
      <trkpt lat="46.23735" lon="6.78724">
        <ele>1399</ele>
        <time>2023-09-10T14:06:21.612Z</time>
      </trkpt>
      <trkpt lat="46.23724" lon="6.78719">
        <ele>1398.7</ele>
        <time>2023-09-10T14:06:22.612Z</time>
      </trkpt>
      <trkpt lat="46.23712" lon="6.78719">
        <ele>1394.6</ele>
        <time>2023-09-10T14:06:23.612Z</time>
      </trkpt>
      <trkpt lat="46.23702" lon="6.78717">
        <ele>1391.8</ele>
        <time>2023-09-10T14:06:24.612Z</time>
      </trkpt>
      <trkpt lat="46.23695" lon="6.78709">
        <ele>1392.4</ele>
        <time>2023-09-10T14:06:25.612Z</time>
      </trkpt>
      <trkpt lat="46.23691" lon="6.78698">
        <ele>1395.3</ele>
        <time>2023-09-10T14:06:26.612Z</time>
      </trkpt>
      <trkpt lat="46.23684" lon="6.7869">
        <ele>1396.5</ele>
        <time>2023-09-10T14:06:27.612Z</time>
      </trkpt>
      <trkpt lat="46.23675" lon="6.78687">
        <ele>1395.2</ele>
        <time>2023-09-10T14:06:28.612Z</time>
      </trkpt>
      <trkpt lat="46.23664" lon="6.7869">
        <ele>1390.3</ele>
        <time>2023-09-10T14:06:29.612Z</time>
      </trkpt>
      <trkpt lat="46.23655" lon="6.78698">
        <ele>1384.1</ele>
        <time>2023-09-10T14:06:30.612Z</time>
      </trkpt>
      <trkpt lat="46.2365" lon="6.7871">
        <ele>1376.7</ele>
        <time>2023-09-10T14:06:31.612Z</time>
      </trkpt>
      <trkpt lat="46.23642" lon="6.78719">
        <ele>1369.7</ele>
        <time>2023-09-10T14:06:32.612Z</time>
      </trkpt>
      <trkpt lat="46.23632" lon="6.78725">
        <ele>1364.8</ele>
        <time>2023-09-10T14:06:33.612Z</time>
      </trkpt>
      <trkpt lat="46.23622" lon="6.78723">
        <ele>1364.2</ele>
        <time>2023-09-10T14:06:34.612Z</time>
      </trkpt>
      <trkpt lat="46.23612" lon="6.78717">
        <ele>1366</ele>
        <time>2023-09-10T14:06:35.612Z</time>
      </trkpt>
      <trkpt lat="46.23603" lon="6.78714">
        <ele>1365.2</ele>
        <time>2023-09-10T14:06:36.612Z</time>
      </trkpt>
      <trkpt lat="46.23603" lon="6.78723">
        <ele>1360.3</ele>
        <time>2023-09-10T14:06:37.612Z</time>
      </trkpt>
      <trkpt lat="46.23612" lon="6.78733">
        <ele>1358.1</ele>
        <time>2023-09-10T14:06:38.612Z</time>
      </trkpt>
      <trkpt lat="46.23616" lon="6.78742">
        <ele>1354.6</ele>
        <time>2023-09-10T14:06:39.612Z</time>
      </trkpt>
      <trkpt lat="46.23623" lon="6.7875">
        <ele>1352.1</ele>
        <time>2023-09-10T14:06:40.612Z</time>
      </trkpt>
      <trkpt lat="46.23633" lon="6.78751">
        <ele>1353.5</ele>
        <time>2023-09-10T14:06:41.612Z</time>
      </trkpt>
      <trkpt lat="46.23644" lon="6.78749">
        <ele>1357.1</ele>
        <time>2023-09-10T14:06:42.612Z</time>
      </trkpt>
      <trkpt lat="46.23653" lon="6.78753">
        <ele>1358.3</ele>
        <time>2023-09-10T14:06:43.612Z</time>
      </trkpt>
      <trkpt lat="46.23655" lon="6.78766">
        <ele>1353.3</ele>
        <time>2023-09-10T14:06:44.612Z</time>
      </trkpt>
      <trkpt lat="46.23653" lon="6.78779">
        <ele>1347</ele>
        <time>2023-09-10T14:06:45.612Z</time>
      </trkpt>
      <trkpt lat="46.23654" lon="6.78788">
        <ele>1343.3</ele>
        <time>2023-09-10T14:06:46.612Z</time>
      </trkpt>
      <trkpt lat="46.23659" lon="6.78798">
        <ele>1340.3</ele>
        <time>2023-09-10T14:06:47.612Z</time>
      </trkpt>
      <trkpt lat="46.23674" lon="6.78814">
        <ele>1337.6</ele>
        <time>2023-09-10T14:06:48.612Z</time>
      </trkpt>
      <trkpt lat="46.23682" lon="6.7882">
        <ele>1337.4</ele>
        <time>2023-09-10T14:06:49.612Z</time>
      </trkpt>
      <trkpt lat="46.23696" lon="6.78839">
        <ele>1333.2</ele>
        <time>2023-09-10T14:06:50.612Z</time>
      </trkpt>
      <trkpt lat="46.23701" lon="6.78851">
        <ele>1329.8</ele>
        <time>2023-09-10T14:06:51.612Z</time>
      </trkpt>
      <trkpt lat="46.23719" lon="6.7888">
        <ele>1323</ele>
        <time>2023-09-10T14:06:52.612Z</time>
      </trkpt>
      <trkpt lat="46.23724" lon="6.78891">
        <ele>1320.2</ele>
        <time>2023-09-10T14:06:53.612Z</time>
      </trkpt>
      <trkpt lat="46.23724" lon="6.78902">
        <ele>1317.7</ele>
        <time>2023-09-10T14:06:54.612Z</time>
      </trkpt>
      <trkpt lat="46.23718" lon="6.78911">
        <ele>1314.2</ele>
        <time>2023-09-10T14:06:55.612Z</time>
      </trkpt>
      <trkpt lat="46.23685" lon="6.78927">
        <ele>1303.3</ele>
        <time>2023-09-10T14:06:56.612Z</time>
      </trkpt>
      <trkpt lat="46.23655" lon="6.78939">
        <ele>1294.9</ele>
        <time>2023-09-10T14:06:57.612Z</time>
      </trkpt>
      <trkpt lat="46.23639" lon="6.78951">
        <ele>1289.8</ele>
        <time>2023-09-10T14:06:58.612Z</time>
      </trkpt>
      <trkpt lat="46.23629" lon="6.78975">
        <ele>1287.9</ele>
        <time>2023-09-10T14:06:59.612Z</time>
      </trkpt>
      <trkpt lat="46.23616" lon="6.79017">
        <ele>1280</ele>
        <time>2023-09-10T14:07:00.612Z</time>
      </trkpt>
      <trkpt lat="46.23607" lon="6.79021">
        <ele>1278.7</ele>
        <time>2023-09-10T14:07:01.612Z</time>
      </trkpt>
      <trkpt lat="46.23599" lon="6.79015">
        <ele>1279.2</ele>
        <time>2023-09-10T14:07:02.612Z</time>
      </trkpt>
      <trkpt lat="46.23589" lon="6.79031">
        <ele>1276.2</ele>
        <time>2023-09-10T14:07:03.612Z</time>
      </trkpt>
      <trkpt lat="46.2358" lon="6.79029">
        <ele>1275.7</ele>
        <time>2023-09-10T14:07:04.612Z</time>
      </trkpt>
      <trkpt lat="46.23559" lon="6.7901">
        <ele>1278</ele>
        <time>2023-09-10T14:07:05.612Z</time>
      </trkpt>
      <trkpt lat="46.2355" lon="6.79006">
        <ele>1279</ele>
        <time>2023-09-10T14:07:06.612Z</time>
      </trkpt>
      <trkpt lat="46.23532" lon="6.79004">
        <ele>1280.4</ele>
        <time>2023-09-10T14:07:07.612Z</time>
      </trkpt>
      <trkpt lat="46.23503" lon="6.78998">
        <ele>1279.7</ele>
        <time>2023-09-10T14:07:08.612Z</time>
      </trkpt>
      <trkpt lat="46.23427" lon="6.78961">
        <ele>1283.8</ele>
        <time>2023-09-10T14:07:09.612Z</time>
      </trkpt>
      <trkpt lat="46.23399" lon="6.78938">
        <ele>1285.9</ele>
        <time>2023-09-10T14:07:10.612Z</time>
      </trkpt>
      <trkpt lat="46.23388" lon="6.78932">
        <ele>1286.8</ele>
        <time>2023-09-10T14:07:11.612Z</time>
      </trkpt>
      <trkpt lat="46.23365" lon="6.78923">
        <ele>1288.9</ele>
        <time>2023-09-10T14:07:12.612Z</time>
      </trkpt>
      <trkpt lat="46.23344" lon="6.78912">
        <ele>1290</ele>
        <time>2023-09-10T14:07:13.612Z</time>
      </trkpt>
      <trkpt lat="46.23323" lon="6.78911">
        <ele>1291.1</ele>
        <time>2023-09-10T14:07:14.612Z</time>
      </trkpt>
      <trkpt lat="46.23311" lon="6.78919">
        <ele>1292.2</ele>
        <time>2023-09-10T14:07:15.612Z</time>
      </trkpt>
      <trkpt lat="46.23317" lon="6.78931">
        <ele>1291.4</ele>
        <time>2023-09-10T14:07:16.612Z</time>
      </trkpt>
      <trkpt lat="46.23319" lon="6.78942">
        <ele>1291.1</ele>
        <time>2023-09-10T14:07:17.612Z</time>
      </trkpt>
      <trkpt lat="46.23318" lon="6.78953">
        <ele>1291.5</ele>
        <time>2023-09-10T14:07:18.612Z</time>
      </trkpt>
      <trkpt lat="46.23309" lon="6.78994">
        <ele>1292.8</ele>
        <time>2023-09-10T14:07:19.612Z</time>
      </trkpt>
      <trkpt lat="46.23305" lon="6.79005">
        <ele>1293</ele>
        <time>2023-09-10T14:07:20.612Z</time>
      </trkpt>
      <trkpt lat="46.23302" lon="6.79024">
        <ele>1293.1</ele>
        <time>2023-09-10T14:07:21.612Z</time>
      </trkpt>
      <trkpt lat="46.23305" lon="6.79043">
        <ele>1293</ele>
        <time>2023-09-10T14:07:22.612Z</time>
      </trkpt>
      <trkpt lat="46.23311" lon="6.79052">
        <ele>1292.6</ele>
        <time>2023-09-10T14:07:23.612Z</time>
      </trkpt>
      <trkpt lat="46.23345" lon="6.79063">
        <ele>1290.4</ele>
        <time>2023-09-10T14:07:24.612Z</time>
      </trkpt>
      <trkpt lat="46.23356" lon="6.79068">
        <ele>1289.8</ele>
        <time>2023-09-10T14:07:25.612Z</time>
      </trkpt>
      <trkpt lat="46.23402" lon="6.79077">
        <ele>1286.1</ele>
        <time>2023-09-10T14:07:26.612Z</time>
      </trkpt>
      <trkpt lat="46.23431" lon="6.79096">
        <ele>1284.2</ele>
        <time>2023-09-10T14:07:27.612Z</time>
      </trkpt>
      <trkpt lat="46.23476" lon="6.79115">
        <ele>1281.9</ele>
        <time>2023-09-10T14:07:28.612Z</time>
      </trkpt>
      <trkpt lat="46.235" lon="6.79121">
        <ele>1280.4</ele>
        <time>2023-09-10T14:07:29.612Z</time>
      </trkpt>
      <trkpt lat="46.23512" lon="6.7912">
        <ele>1279.7</ele>
        <time>2023-09-10T14:07:30.612Z</time>
      </trkpt>
      <trkpt lat="46.23523" lon="6.79116">
        <ele>1278.8</ele>
        <time>2023-09-10T14:07:31.612Z</time>
      </trkpt>
      <trkpt lat="46.23535" lon="6.79116">
        <ele>1278</ele>
        <time>2023-09-10T14:07:32.612Z</time>
      </trkpt>
      <trkpt lat="46.23545" lon="6.7912">
        <ele>1277.7</ele>
        <time>2023-09-10T14:07:33.612Z</time>
      </trkpt>
      <trkpt lat="46.23554" lon="6.7912">
        <ele>1277.1</ele>
        <time>2023-09-10T14:07:34.612Z</time>
      </trkpt>
      <trkpt lat="46.23562" lon="6.79126">
        <ele>1277.1</ele>
        <time>2023-09-10T14:07:35.612Z</time>
      </trkpt>
      <trkpt lat="46.23582" lon="6.79136">
        <ele>1275.3</ele>
        <time>2023-09-10T14:07:36.612Z</time>
      </trkpt>
      <trkpt lat="46.23591" lon="6.79144">
        <ele>1273.9</ele>
        <time>2023-09-10T14:07:37.612Z</time>
      </trkpt>
      <trkpt lat="46.23596" lon="6.79152">
        <ele>1273.6</ele>
        <time>2023-09-10T14:07:38.612Z</time>
      </trkpt>
      <trkpt lat="46.23601" lon="6.79167">
        <ele>1274.1</ele>
        <time>2023-09-10T14:07:39.612Z</time>
      </trkpt>
      <trkpt lat="46.23602" lon="6.7918">
        <ele>1274.5</ele>
        <time>2023-09-10T14:07:40.612Z</time>
      </trkpt>
      <trkpt lat="46.23605" lon="6.79192">
        <ele>1274.6</ele>
        <time>2023-09-10T14:07:41.612Z</time>
      </trkpt>
      <trkpt lat="46.23612" lon="6.79203">
        <ele>1274.4</ele>
        <time>2023-09-10T14:07:42.612Z</time>
      </trkpt>
      <trkpt lat="46.23621" lon="6.79211">
        <ele>1273.5</ele>
        <time>2023-09-10T14:07:43.612Z</time>
      </trkpt>
      <trkpt lat="46.23635" lon="6.7922">
        <ele>1272.3</ele>
        <time>2023-09-10T14:07:44.612Z</time>
      </trkpt>
      <trkpt lat="46.23657" lon="6.79231">
        <ele>1271.2</ele>
        <time>2023-09-10T14:07:45.612Z</time>
      </trkpt>
      <trkpt lat="46.23703" lon="6.79247">
        <ele>1267.8</ele>
        <time>2023-09-10T14:07:46.612Z</time>
      </trkpt>
      <trkpt lat="46.23742" lon="6.79266">
        <ele>1265.7</ele>
        <time>2023-09-10T14:07:47.612Z</time>
      </trkpt>
      <trkpt lat="46.23755" lon="6.7927">
        <ele>1264.2</ele>
        <time>2023-09-10T14:07:48.612Z</time>
      </trkpt>
      <trkpt lat="46.23783" lon="6.79275">
        <ele>1262.6</ele>
        <time>2023-09-10T14:07:49.612Z</time>
      </trkpt>
      <trkpt lat="46.23792" lon="6.79282">
        <ele>1262.1</ele>
        <time>2023-09-10T14:07:50.612Z</time>
      </trkpt>
      <trkpt lat="46.2381" lon="6.79311">
        <ele>1261.2</ele>
        <time>2023-09-10T14:07:51.612Z</time>
      </trkpt>
      <trkpt lat="46.23819" lon="6.79321">
        <ele>1261.2</ele>
        <time>2023-09-10T14:07:52.612Z</time>
      </trkpt>
      <trkpt lat="46.23838" lon="6.79332">
        <ele>1259.6</ele>
        <time>2023-09-10T14:07:53.612Z</time>
      </trkpt>
      <trkpt lat="46.23846" lon="6.7934">
        <ele>1259.8</ele>
        <time>2023-09-10T14:07:54.612Z</time>
      </trkpt>
      <trkpt lat="46.23856" lon="6.79361">
        <ele>1261.4</ele>
        <time>2023-09-10T14:07:55.612Z</time>
      </trkpt>
      <trkpt lat="46.23866" lon="6.79368">
        <ele>1261</ele>
        <time>2023-09-10T14:07:56.612Z</time>
      </trkpt>
      <trkpt lat="46.23904" lon="6.79376">
        <ele>1258.8</ele>
        <time>2023-09-10T14:07:57.612Z</time>
      </trkpt>
      <trkpt lat="46.23917" lon="6.79382">
        <ele>1258.5</ele>
        <time>2023-09-10T14:07:58.612Z</time>
      </trkpt>
      <trkpt lat="46.2395" lon="6.79419">
        <ele>1257</ele>
        <time>2023-09-10T14:07:59.612Z</time>
      </trkpt>
      <trkpt lat="46.23964" lon="6.79431">
        <ele>1254.6</ele>
        <time>2023-09-10T14:08:00.612Z</time>
      </trkpt>
      <trkpt lat="46.23974" lon="6.79448">
        <ele>1253.5</ele>
        <time>2023-09-10T14:08:01.612Z</time>
      </trkpt>
      <trkpt lat="46.2399" lon="6.79489">
        <ele>1251.8</ele>
        <time>2023-09-10T14:08:02.612Z</time>
      </trkpt>
      <trkpt lat="46.23996" lon="6.7951">
        <ele>1249.8</ele>
        <time>2023-09-10T14:08:03.612Z</time>
      </trkpt>
      <trkpt lat="46.24003" lon="6.79558">
        <ele>1246.2</ele>
        <time>2023-09-10T14:08:04.612Z</time>
      </trkpt>
      <trkpt lat="46.24012" lon="6.79582">
        <ele>1244.2</ele>
        <time>2023-09-10T14:08:05.612Z</time>
      </trkpt>
      <trkpt lat="46.24024" lon="6.79603">
        <ele>1240.7</ele>
        <time>2023-09-10T14:08:06.612Z</time>
      </trkpt>
      <trkpt lat="46.24048" lon="6.79626">
        <ele>1236.5</ele>
        <time>2023-09-10T14:08:07.612Z</time>
      </trkpt>
      <trkpt lat="46.24064" lon="6.79647">
        <ele>1236.6</ele>
        <time>2023-09-10T14:08:08.612Z</time>
      </trkpt>
      <trkpt lat="46.24077" lon="6.79699">
        <ele>1232.8</ele>
        <time>2023-09-10T14:08:09.612Z</time>
      </trkpt>
      <trkpt lat="46.24106" lon="6.79746">
        <ele>1230.3</ele>
        <time>2023-09-10T14:08:10.612Z</time>
      </trkpt>
      <trkpt lat="46.24109" lon="6.79765">
        <ele>1229.2</ele>
        <time>2023-09-10T14:08:11.612Z</time>
      </trkpt>
      <trkpt lat="46.24108" lon="6.79793">
        <ele>1230.5</ele>
        <time>2023-09-10T14:08:12.612Z</time>
      </trkpt>
      <trkpt lat="46.24111" lon="6.79821">
        <ele>1232.3</ele>
        <time>2023-09-10T14:08:13.612Z</time>
      </trkpt>
      <trkpt lat="46.24125" lon="6.79856">
        <ele>1234.9</ele>
        <time>2023-09-10T14:08:14.612Z</time>
      </trkpt>
      <trkpt lat="46.24142" lon="6.79905">
        <ele>1237.7</ele>
        <time>2023-09-10T14:08:15.612Z</time>
      </trkpt>
      <trkpt lat="46.24157" lon="6.79972">
        <ele>1248</ele>
        <time>2023-09-10T14:08:16.612Z</time>
      </trkpt>
      <trkpt lat="46.24165" lon="6.79997">
        <ele>1251.7</ele>
        <time>2023-09-10T14:08:17.612Z</time>
      </trkpt>
      <trkpt lat="46.24186" lon="6.8004">
        <ele>1254.2</ele>
        <time>2023-09-10T14:08:18.612Z</time>
      </trkpt>
      <trkpt lat="46.24198" lon="6.8006">
        <ele>1254</ele>
        <time>2023-09-10T14:08:19.612Z</time>
      </trkpt>
      <trkpt lat="46.2423" lon="6.80107">
        <ele>1251</ele>
        <time>2023-09-10T14:08:20.612Z</time>
      </trkpt>
      <trkpt lat="46.2426" lon="6.80145">
        <ele>1246.1</ele>
        <time>2023-09-10T14:08:21.612Z</time>
      </trkpt>
      <trkpt lat="46.24294" lon="6.80175">
        <ele>1240.5</ele>
        <time>2023-09-10T14:08:22.612Z</time>
      </trkpt>
      <trkpt lat="46.24326" lon="6.80212">
        <ele>1237.9</ele>
        <time>2023-09-10T14:08:23.612Z</time>
      </trkpt>
      <trkpt lat="46.24334" lon="6.80218">
        <ele>1235.5</ele>
        <time>2023-09-10T14:08:24.612Z</time>
      </trkpt>
      <trkpt lat="46.24362" lon="6.80246">
        <ele>1231.5</ele>
        <time>2023-09-10T14:08:25.612Z</time>
      </trkpt>
      <trkpt lat="46.24412" lon="6.803">
        <ele>1225.6</ele>
        <time>2023-09-10T14:08:26.612Z</time>
      </trkpt>
      <trkpt lat="46.24419" lon="6.80309">
        <ele>1224.8</ele>
        <time>2023-09-10T14:08:27.612Z</time>
      </trkpt>
      <trkpt lat="46.2445" lon="6.8036">
        <ele>1221</ele>
        <time>2023-09-10T14:08:28.612Z</time>
      </trkpt>
      <trkpt lat="46.24505" lon="6.80428">
        <ele>1213.7</ele>
        <time>2023-09-10T14:08:29.612Z</time>
      </trkpt>
      <trkpt lat="46.24533" lon="6.80472">
        <ele>1208.7</ele>
        <time>2023-09-10T14:08:30.612Z</time>
      </trkpt>
      <trkpt lat="46.2455" lon="6.80495">
        <ele>1206.2</ele>
        <time>2023-09-10T14:08:31.612Z</time>
      </trkpt>
      <trkpt lat="46.24591" lon="6.80537">
        <ele>1201.4</ele>
        <time>2023-09-10T14:08:32.612Z</time>
      </trkpt>
      <trkpt lat="46.24611" lon="6.80561">
        <ele>1200.8</ele>
        <time>2023-09-10T14:08:33.612Z</time>
      </trkpt>
      <trkpt lat="46.24622" lon="6.8058">
        <ele>1196.1</ele>
        <time>2023-09-10T14:08:34.612Z</time>
      </trkpt>
      <trkpt lat="46.24637" lon="6.80613">
        <ele>1194.1</ele>
        <time>2023-09-10T14:08:35.612Z</time>
      </trkpt>
      <trkpt lat="46.24644" lon="6.80625">
        <ele>1193.1</ele>
        <time>2023-09-10T14:08:36.612Z</time>
      </trkpt>
      <trkpt lat="46.24679" lon="6.80673">
        <ele>1189.6</ele>
        <time>2023-09-10T14:08:37.612Z</time>
      </trkpt>
      <trkpt lat="46.24693" lon="6.80695">
        <ele>1188.7</ele>
        <time>2023-09-10T14:08:38.612Z</time>
      </trkpt>
      <trkpt lat="46.24723" lon="6.80749">
        <ele>1187.6</ele>
        <time>2023-09-10T14:08:39.612Z</time>
      </trkpt>
      <trkpt lat="46.24748" lon="6.8079">
        <ele>1185.5</ele>
        <time>2023-09-10T14:08:40.612Z</time>
      </trkpt>
      <trkpt lat="46.24774" lon="6.80842">
        <ele>1184.6</ele>
        <time>2023-09-10T14:08:41.612Z</time>
      </trkpt>
      <trkpt lat="46.2478" lon="6.8085">
        <ele>1183</ele>
        <time>2023-09-10T14:08:42.612Z</time>
      </trkpt>
      <trkpt lat="46.24788" lon="6.80856">
        <ele>1181.3</ele>
        <time>2023-09-10T14:08:43.612Z</time>
      </trkpt>
      <trkpt lat="46.24797" lon="6.8086">
        <ele>1179.7</ele>
        <time>2023-09-10T14:08:44.612Z</time>
      </trkpt>
      <trkpt lat="46.24831" lon="6.80896">
        <ele>1174.9</ele>
        <time>2023-09-10T14:08:45.612Z</time>
      </trkpt>
      <trkpt lat="46.24862" lon="6.80922">
        <ele>1169.6</ele>
        <time>2023-09-10T14:08:46.612Z</time>
      </trkpt>
      <trkpt lat="46.24903" lon="6.80948">
        <ele>1163.8</ele>
        <time>2023-09-10T14:08:47.612Z</time>
      </trkpt>
      <trkpt lat="46.24952" lon="6.80986">
        <ele>1161</ele>
        <time>2023-09-10T14:08:48.612Z</time>
      </trkpt>
      <trkpt lat="46.2496" lon="6.80991">
        <ele>1161</ele>
        <time>2023-09-10T14:08:49.612Z</time>
      </trkpt>
      <trkpt lat="46.24982" lon="6.80998">
        <ele>1160.7</ele>
        <time>2023-09-10T14:08:50.612Z</time>
      </trkpt>
      <trkpt lat="46.24988" lon="6.81005">
        <ele>1160.3</ele>
        <time>2023-09-10T14:08:51.612Z</time>
      </trkpt>
      <trkpt lat="46.24991" lon="6.81016">
        <ele>1159.7</ele>
        <time>2023-09-10T14:08:52.612Z</time>
      </trkpt>
      <trkpt lat="46.24997" lon="6.81055">
        <ele>1160.1</ele>
        <time>2023-09-10T14:08:53.612Z</time>
      </trkpt>
      <trkpt lat="46.25013" lon="6.81094">
        <ele>1157.5</ele>
        <time>2023-09-10T14:08:54.612Z</time>
      </trkpt>
      <trkpt lat="46.25015" lon="6.8111">
        <ele>1156.4</ele>
        <time>2023-09-10T14:08:55.612Z</time>
      </trkpt>
      <trkpt lat="46.25013" lon="6.81133">
        <ele>1154.8</ele>
        <time>2023-09-10T14:08:56.612Z</time>
      </trkpt>
      <trkpt lat="46.25015" lon="6.81158">
        <ele>1155.4</ele>
        <time>2023-09-10T14:08:57.612Z</time>
      </trkpt>
      <trkpt lat="46.25027" lon="6.81188">
        <ele>1155.3</ele>
        <time>2023-09-10T14:08:58.612Z</time>
      </trkpt>
      <trkpt lat="46.25029" lon="6.81203">
        <ele>1156.3</ele>
        <time>2023-09-10T14:08:59.612Z</time>
      </trkpt>
      <trkpt lat="46.25025" lon="6.81254">
        <ele>1161.2</ele>
        <time>2023-09-10T14:09:00.612Z</time>
      </trkpt>
      <trkpt lat="46.25032" lon="6.81294">
        <ele>1162.4</ele>
        <time>2023-09-10T14:09:01.612Z</time>
      </trkpt>
      <trkpt lat="46.25029" lon="6.81325">
        <ele>1165.3</ele>
        <time>2023-09-10T14:09:02.612Z</time>
      </trkpt>
      <trkpt lat="46.2503" lon="6.81347">
        <ele>1167.3</ele>
        <time>2023-09-10T14:09:03.612Z</time>
      </trkpt>
      <trkpt lat="46.25032" lon="6.81356">
        <ele>1168</ele>
        <time>2023-09-10T14:09:04.612Z</time>
      </trkpt>
      <trkpt lat="46.25041" lon="6.81376">
        <ele>1168</ele>
        <time>2023-09-10T14:09:05.612Z</time>
      </trkpt>
      <trkpt lat="46.2505" lon="6.81408">
        <ele>1169.5</ele>
        <time>2023-09-10T14:09:06.612Z</time>
      </trkpt>
      <trkpt lat="46.25069" lon="6.81446">
        <ele>1161.2</ele>
        <time>2023-09-10T14:09:07.612Z</time>
      </trkpt>
      <trkpt lat="46.25079" lon="6.8149">
        <ele>1158.9</ele>
        <time>2023-09-10T14:09:08.612Z</time>
      </trkpt>
      <trkpt lat="46.25088" lon="6.81516">
        <ele>1156.4</ele>
        <time>2023-09-10T14:09:09.612Z</time>
      </trkpt>
      <trkpt lat="46.25111" lon="6.81566">
        <ele>1150.7</ele>
        <time>2023-09-10T14:09:10.612Z</time>
      </trkpt>
      <trkpt lat="46.25127" lon="6.81579">
        <ele>1147.3</ele>
        <time>2023-09-10T14:09:11.612Z</time>
      </trkpt>
      <trkpt lat="46.25136" lon="6.8159">
        <ele>1145.6</ele>
        <time>2023-09-10T14:09:12.612Z</time>
      </trkpt>
      <trkpt lat="46.25165" lon="6.81636">
        <ele>1140.5</ele>
        <time>2023-09-10T14:09:13.612Z</time>
      </trkpt>
      <trkpt lat="46.25203" lon="6.81669">
        <ele>1136.4</ele>
        <time>2023-09-10T14:09:14.612Z</time>
      </trkpt>
      <trkpt lat="46.25211" lon="6.81674">
        <ele>1135.9</ele>
        <time>2023-09-10T14:09:15.612Z</time>
      </trkpt>
      <trkpt lat="46.25216" lon="6.81691">
        <ele>1135.6</ele>
        <time>2023-09-10T14:09:16.612Z</time>
      </trkpt>
      <trkpt lat="46.25228" lon="6.8176">
        <ele>1137.2</ele>
        <time>2023-09-10T14:09:17.612Z</time>
      </trkpt>
      <trkpt lat="46.25241" lon="6.81791">
        <ele>1138.2</ele>
        <time>2023-09-10T14:09:18.612Z</time>
      </trkpt>
      <trkpt lat="46.25249" lon="6.81817">
        <ele>1138.6</ele>
        <time>2023-09-10T14:09:19.612Z</time>
      </trkpt>
      <trkpt lat="46.25256" lon="6.81856">
        <ele>1139.6</ele>
        <time>2023-09-10T14:09:20.612Z</time>
      </trkpt>
      <trkpt lat="46.25262" lon="6.81878">
        <ele>1139.2</ele>
        <time>2023-09-10T14:09:21.612Z</time>
      </trkpt>
      <trkpt lat="46.25268" lon="6.81889">
        <ele>1138.1</ele>
        <time>2023-09-10T14:09:22.612Z</time>
      </trkpt>
      <trkpt lat="46.25276" lon="6.81914">
        <ele>1137.3</ele>
        <time>2023-09-10T14:09:23.612Z</time>
      </trkpt>
      <trkpt lat="46.25278" lon="6.81925">
        <ele>1137.3</ele>
        <time>2023-09-10T14:09:24.612Z</time>
      </trkpt>
      <trkpt lat="46.25271" lon="6.81986">
        <ele>1145.6</ele>
        <time>2023-09-10T14:09:25.612Z</time>
      </trkpt>
      <trkpt lat="46.25279" lon="6.82031">
        <ele>1147.8</ele>
        <time>2023-09-10T14:09:26.612Z</time>
      </trkpt>
      <trkpt lat="46.25297" lon="6.82062">
        <ele>1145.3</ele>
        <time>2023-09-10T14:09:27.612Z</time>
      </trkpt>
      <trkpt lat="46.25318" lon="6.82091">
        <ele>1143.4</ele>
        <time>2023-09-10T14:09:28.612Z</time>
      </trkpt>
      <trkpt lat="46.25329" lon="6.82095">
        <ele>1142</ele>
        <time>2023-09-10T14:09:29.612Z</time>
      </trkpt>
      <trkpt lat="46.25371" lon="6.82097">
        <ele>1133.8</ele>
        <time>2023-09-10T14:09:30.612Z</time>
      </trkpt>
      <trkpt lat="46.25382" lon="6.82104">
        <ele>1131.7</ele>
        <time>2023-09-10T14:09:31.612Z</time>
      </trkpt>
      <trkpt lat="46.25399" lon="6.82155">
        <ele>1129.2</ele>
        <time>2023-09-10T14:09:32.612Z</time>
      </trkpt>
      <trkpt lat="46.25405" lon="6.82166">
        <ele>1129.2</ele>
        <time>2023-09-10T14:09:33.612Z</time>
      </trkpt>
      <trkpt lat="46.25414" lon="6.82173">
        <ele>1128.3</ele>
        <time>2023-09-10T14:09:34.612Z</time>
      </trkpt>
      <trkpt lat="46.25423" lon="6.82177">
        <ele>1127.3</ele>
        <time>2023-09-10T14:09:35.612Z</time>
      </trkpt>
      <trkpt lat="46.25436" lon="6.82221">
        <ele>1125.9</ele>
        <time>2023-09-10T14:09:36.612Z</time>
      </trkpt>
      <trkpt lat="46.25442" lon="6.8223">
        <ele>1125.6</ele>
        <time>2023-09-10T14:09:37.612Z</time>
      </trkpt>
      <trkpt lat="46.25452" lon="6.82238">
        <ele>1125</ele>
        <time>2023-09-10T14:09:38.612Z</time>
      </trkpt>
      <trkpt lat="46.25464" lon="6.82244">
        <ele>1124</ele>
        <time>2023-09-10T14:09:39.612Z</time>
      </trkpt>
      <trkpt lat="46.25471" lon="6.82255">
        <ele>1123</ele>
        <time>2023-09-10T14:09:40.612Z</time>
      </trkpt>
      <trkpt lat="46.25478" lon="6.82261">
        <ele>1121.7</ele>
        <time>2023-09-10T14:09:41.612Z</time>
      </trkpt>
      <trkpt lat="46.25488" lon="6.82261">
        <ele>1120.1</ele>
        <time>2023-09-10T14:09:42.612Z</time>
      </trkpt>
      <trkpt lat="46.25498" lon="6.82256">
        <ele>1118</ele>
        <time>2023-09-10T14:09:43.612Z</time>
      </trkpt>
      <trkpt lat="46.25507" lon="6.82258">
        <ele>1117.6</ele>
        <time>2023-09-10T14:09:44.612Z</time>
      </trkpt>
      <trkpt lat="46.25515" lon="6.82265">
        <ele>1117.5</ele>
        <time>2023-09-10T14:09:45.612Z</time>
      </trkpt>
      <trkpt lat="46.25523" lon="6.82295">
        <ele>1116.6</ele>
        <time>2023-09-10T14:09:46.612Z</time>
      </trkpt>
      <trkpt lat="46.2553" lon="6.8234">
        <ele>1115.7</ele>
        <time>2023-09-10T14:09:47.612Z</time>
      </trkpt>
      <trkpt lat="46.25532" lon="6.8237">
        <ele>1115.9</ele>
        <time>2023-09-10T14:09:48.612Z</time>
      </trkpt>
      <trkpt lat="46.25536" lon="6.82389">
        <ele>1117.1</ele>
        <time>2023-09-10T14:09:49.612Z</time>
      </trkpt>
      <trkpt lat="46.25542" lon="6.82404">
        <ele>1117</ele>
        <time>2023-09-10T14:09:50.612Z</time>
      </trkpt>
      <trkpt lat="46.25549" lon="6.82416">
        <ele>1115.1</ele>
        <time>2023-09-10T14:09:51.612Z</time>
      </trkpt>
      <trkpt lat="46.25568" lon="6.82439">
        <ele>1113.5</ele>
        <time>2023-09-10T14:09:52.612Z</time>
      </trkpt>
      <trkpt lat="46.25573" lon="6.82454">
        <ele>1113</ele>
        <time>2023-09-10T14:09:53.612Z</time>
      </trkpt>
      <trkpt lat="46.25581" lon="6.82495">
        <ele>1112.2</ele>
        <time>2023-09-10T14:09:54.612Z</time>
      </trkpt>
      <trkpt lat="46.25598" lon="6.82546">
        <ele>1112.9</ele>
        <time>2023-09-10T14:09:55.612Z</time>
      </trkpt>
      <trkpt lat="46.25607" lon="6.82582">
        <ele>1112.2</ele>
        <time>2023-09-10T14:09:56.612Z</time>
      </trkpt>
      <trkpt lat="46.2564" lon="6.82634">
        <ele>1111.8</ele>
        <time>2023-09-10T14:09:57.612Z</time>
      </trkpt>
      <trkpt lat="46.25695" lon="6.827">
        <ele>1111.4</ele>
        <time>2023-09-10T14:09:58.612Z</time>
      </trkpt>
      <trkpt lat="46.2571" lon="6.82722">
        <ele>1112.4</ele>
        <time>2023-09-10T14:09:59.612Z</time>
      </trkpt>
      <trkpt lat="46.25717" lon="6.82736">
        <ele>1112.7</ele>
        <time>2023-09-10T14:10:00.612Z</time>
      </trkpt>
      <trkpt lat="46.25721" lon="6.82748">
        <ele>1113</ele>
        <time>2023-09-10T14:10:01.612Z</time>
      </trkpt>
      <trkpt lat="46.25723" lon="6.8277">
        <ele>1112.8</ele>
        <time>2023-09-10T14:10:02.612Z</time>
      </trkpt>
      <trkpt lat="46.25729" lon="6.82895">
        <ele>1113.6</ele>
        <time>2023-09-10T14:10:03.612Z</time>
      </trkpt>
      <trkpt lat="46.25735" lon="6.82919">
        <ele>1113.5</ele>
        <time>2023-09-10T14:10:04.612Z</time>
      </trkpt>
      <trkpt lat="46.25744" lon="6.82945">
        <ele>1112.4</ele>
        <time>2023-09-10T14:10:05.612Z</time>
      </trkpt>
      <trkpt lat="46.25779" lon="6.83024">
        <ele>1110.9</ele>
        <time>2023-09-10T14:10:06.612Z</time>
      </trkpt>
      <trkpt lat="46.25795" lon="6.83079">
        <ele>1111.1</ele>
        <time>2023-09-10T14:10:07.612Z</time>
      </trkpt>
      <trkpt lat="46.25811" lon="6.83119">
        <ele>1109.9</ele>
        <time>2023-09-10T14:10:08.612Z</time>
      </trkpt>
      <trkpt lat="46.2586" lon="6.83196">
        <ele>1108.1</ele>
        <time>2023-09-10T14:10:09.612Z</time>
      </trkpt>
      <trkpt lat="46.259" lon="6.83251">
        <ele>1107</ele>
        <time>2023-09-10T14:10:10.612Z</time>
      </trkpt>
      <trkpt lat="46.25982" lon="6.83341">
        <ele>1105.5</ele>
        <time>2023-09-10T14:10:11.612Z</time>
      </trkpt>
      <trkpt lat="46.26072" lon="6.83446">
        <ele>1105.3</ele>
        <time>2023-09-10T14:10:12.612Z</time>
      </trkpt>
      <trkpt lat="46.26093" lon="6.83468">
        <ele>1106.2</ele>
        <time>2023-09-10T14:10:13.612Z</time>
      </trkpt>
      <trkpt lat="46.26102" lon="6.83471">
        <ele>1106.2</ele>
        <time>2023-09-10T14:10:14.612Z</time>
      </trkpt>
      <trkpt lat="46.26111" lon="6.83469">
        <ele>1105.7</ele>
        <time>2023-09-10T14:10:15.612Z</time>
      </trkpt>
      <trkpt lat="46.26116" lon="6.83456">
        <ele>1103.5</ele>
        <time>2023-09-10T14:10:16.612Z</time>
      </trkpt>
      <trkpt lat="46.26113" lon="6.83422">
        <ele>1100.9</ele>
        <time>2023-09-10T14:10:17.612Z</time>
      </trkpt>
      <trkpt lat="46.26119" lon="6.83381">
        <ele>1097.8</ele>
        <time>2023-09-10T14:10:18.612Z</time>
      </trkpt>
      <trkpt lat="46.26114" lon="6.83357">
        <ele>1097.9</ele>
        <time>2023-09-10T14:10:19.612Z</time>
      </trkpt>
      <trkpt lat="46.26092" lon="6.83312">
        <ele>1092</ele>
        <time>2023-09-10T14:10:20.612Z</time>
      </trkpt>
      <trkpt lat="46.2609" lon="6.83299">
        <ele>1091.3</ele>
        <time>2023-09-10T14:10:21.612Z</time>
      </trkpt>
      <trkpt lat="46.26092" lon="6.83287">
        <ele>1091.4</ele>
        <time>2023-09-10T14:10:22.612Z</time>
      </trkpt>
      <trkpt lat="46.26101" lon="6.83281">
        <ele>1092</ele>
        <time>2023-09-10T14:10:23.612Z</time>
      </trkpt>
      <trkpt lat="46.26122" lon="6.83279">
        <ele>1093.3</ele>
        <time>2023-09-10T14:10:24.612Z</time>
      </trkpt>
      <trkpt lat="46.26132" lon="6.83283">
        <ele>1093.3</ele>
        <time>2023-09-10T14:10:25.612Z</time>
      </trkpt>
      <trkpt lat="46.26141" lon="6.83291">
        <ele>1093.3</ele>
        <time>2023-09-10T14:10:26.612Z</time>
      </trkpt>
      <trkpt lat="46.26152" lon="6.83294">
        <ele>1094.1</ele>
        <time>2023-09-10T14:10:27.612Z</time>
      </trkpt>
      <trkpt lat="46.26167" lon="6.83294">
        <ele>1095.5</ele>
        <time>2023-09-10T14:10:28.612Z</time>
      </trkpt>
      <trkpt lat="46.26177" lon="6.83297">
        <ele>1096.5</ele>
        <time>2023-09-10T14:10:29.612Z</time>
      </trkpt>
      <trkpt lat="46.26194" lon="6.83307">
        <ele>1096.7</ele>
        <time>2023-09-10T14:10:30.612Z</time>
      </trkpt>
      <trkpt lat="46.26214" lon="6.83312">
        <ele>1098.4</ele>
        <time>2023-09-10T14:10:31.612Z</time>
      </trkpt>
      <trkpt lat="46.26224" lon="6.83312">
        <ele>1099.5</ele>
        <time>2023-09-10T14:10:32.612Z</time>
      </trkpt>
      <trkpt lat="46.2628" lon="6.83302">
        <ele>1108.5</ele>
        <time>2023-09-10T14:10:33.612Z</time>
      </trkpt>
      <trkpt lat="46.26322" lon="6.83298">
        <ele>1113.9</ele>
        <time>2023-09-10T14:10:34.612Z</time>
      </trkpt>
      <trkpt lat="46.26378" lon="6.83287">
        <ele>1119.8</ele>
        <time>2023-09-10T14:10:35.612Z</time>
      </trkpt>
      <trkpt lat="46.2639" lon="6.83288">
        <ele>1120.8</ele>
        <time>2023-09-10T14:10:36.612Z</time>
      </trkpt>
      <trkpt lat="46.26413" lon="6.83296">
        <ele>1122.1</ele>
        <time>2023-09-10T14:10:37.612Z</time>
      </trkpt>
      <trkpt lat="46.26434" lon="6.83299">
        <ele>1122.3</ele>
        <time>2023-09-10T14:10:38.612Z</time>
      </trkpt>
      <trkpt lat="46.26471" lon="6.83296">
        <ele>1121.5</ele>
        <time>2023-09-10T14:10:39.612Z</time>
      </trkpt>
      <trkpt lat="46.26521" lon="6.83301">
        <ele>1117</ele>
        <time>2023-09-10T14:10:40.612Z</time>
      </trkpt>
      <trkpt lat="46.26534" lon="6.833">
        <ele>1115.5</ele>
        <time>2023-09-10T14:10:41.612Z</time>
      </trkpt>
      <trkpt lat="46.26562" lon="6.83288">
        <ele>1114</ele>
        <time>2023-09-10T14:10:42.612Z</time>
      </trkpt>
      <trkpt lat="46.26576" lon="6.83284">
        <ele>1113.8</ele>
        <time>2023-09-10T14:10:43.612Z</time>
      </trkpt>
      <trkpt lat="46.2659" lon="6.83284">
        <ele>1113.7</ele>
        <time>2023-09-10T14:10:44.612Z</time>
      </trkpt>
      <trkpt lat="46.26604" lon="6.83287">
        <ele>1114</ele>
        <time>2023-09-10T14:10:45.612Z</time>
      </trkpt>
      <trkpt lat="46.26616" lon="6.83287">
        <ele>1113.7</ele>
        <time>2023-09-10T14:10:46.612Z</time>
      </trkpt>
      <trkpt lat="46.26627" lon="6.83283">
        <ele>1112.9</ele>
        <time>2023-09-10T14:10:47.612Z</time>
      </trkpt>
      <trkpt lat="46.26659" lon="6.83264">
        <ele>1112.8</ele>
        <time>2023-09-10T14:10:48.612Z</time>
      </trkpt>
      <trkpt lat="46.26671" lon="6.8326">
        <ele>1112.1</ele>
        <time>2023-09-10T14:10:49.612Z</time>
      </trkpt>
      <trkpt lat="46.26694" lon="6.83259">
        <ele>1112.1</ele>
        <time>2023-09-10T14:10:50.612Z</time>
      </trkpt>
      <trkpt lat="46.26719" lon="6.83261">
        <ele>1110.9</ele>
        <time>2023-09-10T14:10:51.612Z</time>
      </trkpt>
      <trkpt lat="46.26731" lon="6.83258">
        <ele>1109.8</ele>
        <time>2023-09-10T14:10:52.612Z</time>
      </trkpt>
      <trkpt lat="46.26743" lon="6.83252">
        <ele>1108.9</ele>
        <time>2023-09-10T14:10:53.612Z</time>
      </trkpt>
      <trkpt lat="46.26764" lon="6.83234">
        <ele>1107.9</ele>
        <time>2023-09-10T14:10:54.612Z</time>
      </trkpt>
      <trkpt lat="46.26782" lon="6.83216">
        <ele>1107.1</ele>
        <time>2023-09-10T14:10:55.612Z</time>
      </trkpt>
      <trkpt lat="46.26805" lon="6.832">
        <ele>1105.6</ele>
        <time>2023-09-10T14:10:56.612Z</time>
      </trkpt>
      <trkpt lat="46.26832" lon="6.83189">
        <ele>1103.5</ele>
        <time>2023-09-10T14:10:57.612Z</time>
      </trkpt>
      <trkpt lat="46.26872" lon="6.83178">
        <ele>1101.7</ele>
        <time>2023-09-10T14:10:58.612Z</time>
      </trkpt>
      <trkpt lat="46.26912" lon="6.83171">
        <ele>1097.1</ele>
        <time>2023-09-10T14:10:59.612Z</time>
      </trkpt>
      <trkpt lat="46.26925" lon="6.83167">
        <ele>1095.8</ele>
        <time>2023-09-10T14:11:00.612Z</time>
      </trkpt>
      <trkpt lat="46.26948" lon="6.83146">
        <ele>1093.1</ele>
        <time>2023-09-10T14:11:01.612Z</time>
      </trkpt>
      <trkpt lat="46.26998" lon="6.83091">
        <ele>1089.2</ele>
        <time>2023-09-10T14:11:02.612Z</time>
      </trkpt>
      <trkpt lat="46.27036" lon="6.83062">
        <ele>1088</ele>
        <time>2023-09-10T14:11:03.612Z</time>
      </trkpt>
      <trkpt lat="46.27048" lon="6.8305">
        <ele>1087.8</ele>
        <time>2023-09-10T14:11:04.612Z</time>
      </trkpt>
      <trkpt lat="46.27073" lon="6.83009">
        <ele>1086.8</ele>
        <time>2023-09-10T14:11:05.612Z</time>
      </trkpt>
      <trkpt lat="46.27082" lon="6.82997">
        <ele>1086.9</ele>
        <time>2023-09-10T14:11:06.612Z</time>
      </trkpt>
      <trkpt lat="46.27093" lon="6.82986">
        <ele>1086.1</ele>
        <time>2023-09-10T14:11:07.612Z</time>
      </trkpt>
      <trkpt lat="46.27118" lon="6.82968">
        <ele>1083.9</ele>
        <time>2023-09-10T14:11:08.612Z</time>
      </trkpt>
      <trkpt lat="46.27128" lon="6.82957">
        <ele>1083.1</ele>
        <time>2023-09-10T14:11:09.612Z</time>
      </trkpt>
      <trkpt lat="46.27149" lon="6.82918">
        <ele>1084.2</ele>
        <time>2023-09-10T14:11:10.612Z</time>
      </trkpt>
      <trkpt lat="46.27157" lon="6.82906">
        <ele>1084.6</ele>
        <time>2023-09-10T14:11:11.612Z</time>
      </trkpt>
      <trkpt lat="46.27197" lon="6.82862">
        <ele>1081.9</ele>
        <time>2023-09-10T14:11:12.612Z</time>
      </trkpt>
      <trkpt lat="46.2724" lon="6.82805">
        <ele>1075.3</ele>
        <time>2023-09-10T14:11:13.612Z</time>
      </trkpt>
      <trkpt lat="46.27249" lon="6.82792">
        <ele>1074.3</ele>
        <time>2023-09-10T14:11:14.612Z</time>
      </trkpt>
      <trkpt lat="46.27276" lon="6.82745">
        <ele>1074.6</ele>
        <time>2023-09-10T14:11:15.612Z</time>
      </trkpt>
      <trkpt lat="46.27288" lon="6.82729">
        <ele>1072.1</ele>
        <time>2023-09-10T14:11:16.612Z</time>
      </trkpt>
      <trkpt lat="46.27319" lon="6.82633">
        <ele>1075.9</ele>
        <time>2023-09-10T14:11:17.612Z</time>
      </trkpt>
      <trkpt lat="46.27331" lon="6.82576">
        <ele>1078.4</ele>
        <time>2023-09-10T14:11:18.612Z</time>
      </trkpt>
      <trkpt lat="46.27335" lon="6.82525">
        <ele>1079.7</ele>
        <time>2023-09-10T14:11:19.612Z</time>
      </trkpt>
      <trkpt lat="46.2734" lon="6.82497">
        <ele>1080.9</ele>
        <time>2023-09-10T14:11:20.612Z</time>
      </trkpt>
      <trkpt lat="46.27372" lon="6.82424">
        <ele>1084.4</ele>
        <time>2023-09-10T14:11:21.612Z</time>
      </trkpt>
      <trkpt lat="46.2738" lon="6.82394">
        <ele>1085.1</ele>
        <time>2023-09-10T14:11:22.612Z</time>
      </trkpt>
      <trkpt lat="46.27393" lon="6.82317">
        <ele>1089.5</ele>
        <time>2023-09-10T14:11:23.612Z</time>
      </trkpt>
      <trkpt lat="46.27398" lon="6.82305">
        <ele>1090.2</ele>
        <time>2023-09-10T14:11:24.612Z</time>
      </trkpt>
      <trkpt lat="46.27422" lon="6.82271">
        <ele>1091</ele>
        <time>2023-09-10T14:11:25.612Z</time>
      </trkpt>
      <trkpt lat="46.27434" lon="6.82248">
        <ele>1092.4</ele>
        <time>2023-09-10T14:11:26.612Z</time>
      </trkpt>
      <trkpt lat="46.27444" lon="6.82218">
        <ele>1091.8</ele>
        <time>2023-09-10T14:11:27.612Z</time>
      </trkpt>
      <trkpt lat="46.27459" lon="6.8215">
        <ele>1094.8</ele>
        <time>2023-09-10T14:11:28.612Z</time>
      </trkpt>
      <trkpt lat="46.27464" lon="6.82137">
        <ele>1095.6</ele>
        <time>2023-09-10T14:11:29.612Z</time>
      </trkpt>
      <trkpt lat="46.27476" lon="6.82115">
        <ele>1094.8</ele>
        <time>2023-09-10T14:11:30.612Z</time>
      </trkpt>
      <trkpt lat="46.27485" lon="6.82087">
        <ele>1099.5</ele>
        <time>2023-09-10T14:11:31.612Z</time>
      </trkpt>
      <trkpt lat="46.2749" lon="6.82077">
        <ele>1100.1</ele>
        <time>2023-09-10T14:11:32.612Z</time>
      </trkpt>
      <trkpt lat="46.27512" lon="6.82053">
        <ele>1097.8</ele>
        <time>2023-09-10T14:11:33.612Z</time>
      </trkpt>
      <trkpt lat="46.27519" lon="6.82043">
        <ele>1098.3</ele>
        <time>2023-09-10T14:11:34.612Z</time>
      </trkpt>
      <trkpt lat="46.27523" lon="6.82033">
        <ele>1098.8</ele>
        <time>2023-09-10T14:11:35.612Z</time>
      </trkpt>
      <trkpt lat="46.27536" lon="6.81971">
        <ele>1103.3</ele>
        <time>2023-09-10T14:11:36.612Z</time>
      </trkpt>
      <trkpt lat="46.2754" lon="6.8196">
        <ele>1105</ele>
        <time>2023-09-10T14:11:37.612Z</time>
      </trkpt>
      <trkpt lat="46.27564" lon="6.81898">
        <ele>1108.9</ele>
        <time>2023-09-10T14:11:38.612Z</time>
      </trkpt>
      <trkpt lat="46.27582" lon="6.81869">
        <ele>1109.9</ele>
        <time>2023-09-10T14:11:39.612Z</time>
      </trkpt>
      <trkpt lat="46.27593" lon="6.81848">
        <ele>1110.6</ele>
        <time>2023-09-10T14:11:40.612Z</time>
      </trkpt>
      <trkpt lat="46.27601" lon="6.81825">
        <ele>1112.5</ele>
        <time>2023-09-10T14:11:41.612Z</time>
      </trkpt>
      <trkpt lat="46.2761" lon="6.81771">
        <ele>1115.7</ele>
        <time>2023-09-10T14:11:42.612Z</time>
      </trkpt>
      <trkpt lat="46.27653" lon="6.8165">
        <ele>1119.9</ele>
        <time>2023-09-10T14:11:43.612Z</time>
      </trkpt>
      <trkpt lat="46.27663" lon="6.81546">
        <ele>1125.9</ele>
        <time>2023-09-10T14:11:44.612Z</time>
      </trkpt>
      <trkpt lat="46.27686" lon="6.81495">
        <ele>1129.9</ele>
        <time>2023-09-10T14:11:45.612Z</time>
      </trkpt>
      <trkpt lat="46.27698" lon="6.8146">
        <ele>1130.7</ele>
        <time>2023-09-10T14:11:46.612Z</time>
      </trkpt>
      <trkpt lat="46.27708" lon="6.81438">
        <ele>1131.5</ele>
        <time>2023-09-10T14:11:47.612Z</time>
      </trkpt>
      <trkpt lat="46.27725" lon="6.81409">
        <ele>1132</ele>
        <time>2023-09-10T14:11:48.612Z</time>
      </trkpt>
      <trkpt lat="46.27738" lon="6.81378">
        <ele>1132.4</ele>
        <time>2023-09-10T14:11:49.612Z</time>
      </trkpt>
      <trkpt lat="46.27749" lon="6.81334">
        <ele>1137.3</ele>
        <time>2023-09-10T14:11:50.612Z</time>
      </trkpt>
      <trkpt lat="46.2775" lon="6.81325">
        <ele>1136.1</ele>
        <time>2023-09-10T14:11:51.612Z</time>
      </trkpt>
      <trkpt lat="46.27749" lon="6.81316">
        <ele>1135.6</ele>
        <time>2023-09-10T14:11:52.612Z</time>
      </trkpt>
      <trkpt lat="46.2773" lon="6.81265">
        <ele>1139.1</ele>
        <time>2023-09-10T14:11:53.612Z</time>
      </trkpt>
      <trkpt lat="46.27722" lon="6.81235">
        <ele>1142.6</ele>
        <time>2023-09-10T14:11:54.612Z</time>
      </trkpt>
      <trkpt lat="46.27705" lon="6.81194">
        <ele>1146.4</ele>
        <time>2023-09-10T14:11:55.612Z</time>
      </trkpt>
      <trkpt lat="46.27698" lon="6.81173">
        <ele>1147.1</ele>
        <time>2023-09-10T14:11:56.612Z</time>
      </trkpt>
      <trkpt lat="46.27687" lon="6.81151">
        <ele>1151.1</ele>
        <time>2023-09-10T14:11:57.612Z</time>
      </trkpt>
      <trkpt lat="46.27701" lon="6.81134">
        <ele>1150.8</ele>
        <time>2023-09-10T14:11:58.612Z</time>
      </trkpt>
      <trkpt lat="46.2773" lon="6.81133">
        <ele>1149.6</ele>
        <time>2023-09-10T14:11:59.612Z</time>
      </trkpt>
      <trkpt lat="46.27739" lon="6.81129">
        <ele>1150.1</ele>
        <time>2023-09-10T14:12:00.612Z</time>
      </trkpt>
      <trkpt lat="46.27748" lon="6.81121">
        <ele>1150.8</ele>
        <time>2023-09-10T14:12:01.612Z</time>
      </trkpt>
      <trkpt lat="46.27756" lon="6.8111">
        <ele>1150.7</ele>
        <time>2023-09-10T14:12:02.612Z</time>
      </trkpt>
      <trkpt lat="46.27762" lon="6.81099">
        <ele>1150.7</ele>
        <time>2023-09-10T14:12:03.612Z</time>
      </trkpt>
      <trkpt lat="46.27767" lon="6.81069">
        <ele>1153.2</ele>
        <time>2023-09-10T14:12:04.612Z</time>
      </trkpt>
      <trkpt lat="46.27771" lon="6.81058">
        <ele>1154.2</ele>
        <time>2023-09-10T14:12:05.612Z</time>
      </trkpt>
      <trkpt lat="46.27778" lon="6.81048">
        <ele>1154.5</ele>
        <time>2023-09-10T14:12:06.612Z</time>
      </trkpt>
      <trkpt lat="46.27783" lon="6.81037">
        <ele>1154.9</ele>
        <time>2023-09-10T14:12:07.612Z</time>
      </trkpt>
      <trkpt lat="46.27789" lon="6.81002">
        <ele>1159.4</ele>
        <time>2023-09-10T14:12:08.612Z</time>
      </trkpt>
      <trkpt lat="46.27801" lon="6.80981">
        <ele>1159.4</ele>
        <time>2023-09-10T14:12:09.612Z</time>
      </trkpt>
      <trkpt lat="46.27813" lon="6.80951">
        <ele>1160.8</ele>
        <time>2023-09-10T14:12:10.612Z</time>
      </trkpt>
      <trkpt lat="46.2782" lon="6.80942">
        <ele>1162.3</ele>
        <time>2023-09-10T14:12:11.612Z</time>
      </trkpt>
      <trkpt lat="46.27851" lon="6.80934">
        <ele>1164.6</ele>
        <time>2023-09-10T14:12:12.612Z</time>
      </trkpt>
      <trkpt lat="46.2787" lon="6.80926">
        <ele>1166.6</ele>
        <time>2023-09-10T14:12:13.612Z</time>
      </trkpt>
      <trkpt lat="46.27878" lon="6.80921">
        <ele>1167.6</ele>
        <time>2023-09-10T14:12:14.612Z</time>
      </trkpt>
      <trkpt lat="46.27931" lon="6.80879">
        <ele>1169.9</ele>
        <time>2023-09-10T14:12:15.612Z</time>
      </trkpt>
      <trkpt lat="46.27945" lon="6.80861">
        <ele>1173</ele>
        <time>2023-09-10T14:12:16.612Z</time>
      </trkpt>
      <trkpt lat="46.27959" lon="6.80832">
        <ele>1178.1</ele>
        <time>2023-09-10T14:12:17.612Z</time>
      </trkpt>
      <trkpt lat="46.27966" lon="6.80801">
        <ele>1181.6</ele>
        <time>2023-09-10T14:12:18.612Z</time>
      </trkpt>
      <trkpt lat="46.27967" lon="6.80779">
        <ele>1185.6</ele>
        <time>2023-09-10T14:12:19.612Z</time>
      </trkpt>
      <trkpt lat="46.27987" lon="6.80729">
        <ele>1191.1</ele>
        <time>2023-09-10T14:12:20.612Z</time>
      </trkpt>
      <trkpt lat="46.2799" lon="6.80697">
        <ele>1196.5</ele>
        <time>2023-09-10T14:12:21.612Z</time>
      </trkpt>
      <trkpt lat="46.27993" lon="6.80687">
        <ele>1197.5</ele>
        <time>2023-09-10T14:12:22.612Z</time>
      </trkpt>
      <trkpt lat="46.27999" lon="6.80679">
        <ele>1197.4</ele>
        <time>2023-09-10T14:12:23.612Z</time>
      </trkpt>
      <trkpt lat="46.28003" lon="6.8067">
        <ele>1198.6</ele>
        <time>2023-09-10T14:12:24.612Z</time>
      </trkpt>
      <trkpt lat="46.28007" lon="6.80652">
        <ele>1200.9</ele>
        <time>2023-09-10T14:12:25.612Z</time>
      </trkpt>
      <trkpt lat="46.28009" lon="6.80642">
        <ele>1202.1</ele>
        <time>2023-09-10T14:12:26.612Z</time>
      </trkpt>
      <trkpt lat="46.28008" lon="6.80613">
        <ele>1204.3</ele>
        <time>2023-09-10T14:12:27.612Z</time>
      </trkpt>
      <trkpt lat="46.27999" lon="6.8062">
        <ele>1206.9</ele>
        <time>2023-09-10T14:12:28.612Z</time>
      </trkpt>
      <trkpt lat="46.27993" lon="6.80628">
        <ele>1207.9</ele>
        <time>2023-09-10T14:12:29.612Z</time>
      </trkpt>
      <trkpt lat="46.27984" lon="6.80633">
        <ele>1209.7</ele>
        <time>2023-09-10T14:12:30.612Z</time>
      </trkpt>
      <trkpt lat="46.27975" lon="6.8063">
        <ele>1211.7</ele>
        <time>2023-09-10T14:12:31.612Z</time>
      </trkpt>
      <trkpt lat="46.27961" lon="6.80615">
        <ele>1215.2</ele>
        <time>2023-09-10T14:12:32.612Z</time>
      </trkpt>
      <trkpt lat="46.27956" lon="6.80606">
        <ele>1216.9</ele>
        <time>2023-09-10T14:12:33.612Z</time>
      </trkpt>
      <trkpt lat="46.27952" lon="6.80595">
        <ele>1218.8</ele>
        <time>2023-09-10T14:12:34.612Z</time>
      </trkpt>
      <trkpt lat="46.27951" lon="6.80574">
        <ele>1221</ele>
        <time>2023-09-10T14:12:35.612Z</time>
      </trkpt>
      <trkpt lat="46.27955" lon="6.80535">
        <ele>1225.5</ele>
        <time>2023-09-10T14:12:36.612Z</time>
      </trkpt>
      <trkpt lat="46.27959" lon="6.80514">
        <ele>1226.7</ele>
        <time>2023-09-10T14:12:37.612Z</time>
      </trkpt>
      <trkpt lat="46.2795" lon="6.80515">
        <ele>1229.9</ele>
        <time>2023-09-10T14:12:38.612Z</time>
      </trkpt>
      <trkpt lat="46.27943" lon="6.80523">
        <ele>1231.8</ele>
        <time>2023-09-10T14:12:39.612Z</time>
      </trkpt>
      <trkpt lat="46.27935" lon="6.80517">
        <ele>1234.8</ele>
        <time>2023-09-10T14:12:40.612Z</time>
      </trkpt>
      <trkpt lat="46.27924" lon="6.80477">
        <ele>1238.8</ele>
        <time>2023-09-10T14:12:41.612Z</time>
      </trkpt>
      <trkpt lat="46.27925" lon="6.80456">
        <ele>1238.7</ele>
        <time>2023-09-10T14:12:42.612Z</time>
      </trkpt>
      <trkpt lat="46.27936" lon="6.80427">
        <ele>1239.3</ele>
        <time>2023-09-10T14:12:43.612Z</time>
      </trkpt>
      <trkpt lat="46.27943" lon="6.80416">
        <ele>1239.6</ele>
        <time>2023-09-10T14:12:44.612Z</time>
      </trkpt>
      <trkpt lat="46.27961" lon="6.80408">
        <ele>1240</ele>
        <time>2023-09-10T14:12:45.612Z</time>
      </trkpt>
      <trkpt lat="46.27971" lon="6.80401">
        <ele>1240.7</ele>
        <time>2023-09-10T14:12:46.612Z</time>
      </trkpt>
      <trkpt lat="46.27978" lon="6.80393">
        <ele>1242.2</ele>
        <time>2023-09-10T14:12:47.612Z</time>
      </trkpt>
      <trkpt lat="46.27987" lon="6.80386">
        <ele>1243.7</ele>
        <time>2023-09-10T14:12:48.612Z</time>
      </trkpt>
      <trkpt lat="46.27998" lon="6.80386">
        <ele>1242.8</ele>
        <time>2023-09-10T14:12:49.612Z</time>
      </trkpt>
      <trkpt lat="46.28008" lon="6.80381">
        <ele>1241</ele>
        <time>2023-09-10T14:12:50.612Z</time>
      </trkpt>
      <trkpt lat="46.28015" lon="6.80374">
        <ele>1240.4</ele>
        <time>2023-09-10T14:12:51.612Z</time>
      </trkpt>
      <trkpt lat="46.28028" lon="6.80356">
        <ele>1240.5</ele>
        <time>2023-09-10T14:12:52.612Z</time>
      </trkpt>
      <trkpt lat="46.28042" lon="6.80342">
        <ele>1236.6</ele>
        <time>2023-09-10T14:12:53.612Z</time>
      </trkpt>
      <trkpt lat="46.28048" lon="6.80333">
        <ele>1235.7</ele>
        <time>2023-09-10T14:12:54.612Z</time>
      </trkpt>
      <trkpt lat="46.28053" lon="6.80322">
        <ele>1234.4</ele>
        <time>2023-09-10T14:12:55.612Z</time>
      </trkpt>
      <trkpt lat="46.28056" lon="6.803">
        <ele>1233.8</ele>
        <time>2023-09-10T14:12:56.612Z</time>
      </trkpt>
      <trkpt lat="46.28061" lon="6.8028">
        <ele>1231.5</ele>
        <time>2023-09-10T14:12:57.612Z</time>
      </trkpt>
      <trkpt lat="46.28065" lon="6.80247">
        <ele>1229.2</ele>
        <time>2023-09-10T14:12:58.612Z</time>
      </trkpt>
      <trkpt lat="46.28084" lon="6.80178">
        <ele>1228.3</ele>
        <time>2023-09-10T14:12:59.612Z</time>
      </trkpt>
      <trkpt lat="46.28083" lon="6.80168">
        <ele>1230</ele>
        <time>2023-09-10T14:13:00.612Z</time>
      </trkpt>
      <trkpt lat="46.28068" lon="6.80151">
        <ele>1232.8</ele>
        <time>2023-09-10T14:13:01.612Z</time>
      </trkpt>
      <trkpt lat="46.28049" lon="6.80112">
        <ele>1234.8</ele>
        <time>2023-09-10T14:13:02.612Z</time>
      </trkpt>
      <trkpt lat="46.28041" lon="6.80105">
        <ele>1234</ele>
        <time>2023-09-10T14:13:03.612Z</time>
      </trkpt>
      <trkpt lat="46.27992" lon="6.80083">
        <ele>1237.1</ele>
        <time>2023-09-10T14:13:04.612Z</time>
      </trkpt>
      <trkpt lat="46.27976" lon="6.8007">
        <ele>1238.7</ele>
        <time>2023-09-10T14:13:05.612Z</time>
      </trkpt>
      <trkpt lat="46.27965" lon="6.80066">
        <ele>1240.8</ele>
        <time>2023-09-10T14:13:06.612Z</time>
      </trkpt>
      <trkpt lat="46.27957" lon="6.80061">
        <ele>1242</ele>
        <time>2023-09-10T14:13:07.612Z</time>
      </trkpt>
      <trkpt lat="46.27951" lon="6.80054">
        <ele>1242.5</ele>
        <time>2023-09-10T14:13:08.612Z</time>
      </trkpt>
      <trkpt lat="46.27934" lon="6.80026">
        <ele>1246.6</ele>
        <time>2023-09-10T14:13:09.612Z</time>
      </trkpt>
      <trkpt lat="46.27931" lon="6.80016">
        <ele>1248.3</ele>
        <time>2023-09-10T14:13:10.612Z</time>
      </trkpt>
      <trkpt lat="46.27934" lon="6.79998">
        <ele>1250.7</ele>
        <time>2023-09-10T14:13:11.612Z</time>
      </trkpt>
      <trkpt lat="46.27943" lon="6.79999">
        <ele>1252.1</ele>
        <time>2023-09-10T14:13:12.612Z</time>
      </trkpt>
      <trkpt lat="46.27956" lon="6.80003">
        <ele>1255</ele>
        <time>2023-09-10T14:13:13.612Z</time>
      </trkpt>
      <trkpt lat="46.27965" lon="6.80001">
        <ele>1258.9</ele>
        <time>2023-09-10T14:13:14.612Z</time>
      </trkpt>
      <trkpt lat="46.27973" lon="6.79996">
        <ele>1262.2</ele>
        <time>2023-09-10T14:13:15.612Z</time>
      </trkpt>
      <trkpt lat="46.27979" lon="6.79989">
        <ele>1262</ele>
        <time>2023-09-10T14:13:16.612Z</time>
      </trkpt>
      <trkpt lat="46.27979" lon="6.7998">
        <ele>1262.5</ele>
        <time>2023-09-10T14:13:17.612Z</time>
      </trkpt>
      <trkpt lat="46.27972" lon="6.7996">
        <ele>1264.9</ele>
        <time>2023-09-10T14:13:18.612Z</time>
      </trkpt>
      <trkpt lat="46.27965" lon="6.79951">
        <ele>1266</ele>
        <time>2023-09-10T14:13:19.612Z</time>
      </trkpt>
      <trkpt lat="46.2794" lon="6.79935">
        <ele>1269.9</ele>
        <time>2023-09-10T14:13:20.612Z</time>
      </trkpt>
      <trkpt lat="46.27918" lon="6.79917">
        <ele>1274.8</ele>
        <time>2023-09-10T14:13:21.612Z</time>
      </trkpt>
      <trkpt lat="46.27905" lon="6.79902">
        <ele>1277.4</ele>
        <time>2023-09-10T14:13:22.612Z</time>
      </trkpt>
      <trkpt lat="46.27906" lon="6.79893">
        <ele>1279.3</ele>
        <time>2023-09-10T14:13:23.612Z</time>
      </trkpt>
      <trkpt lat="46.27986" lon="6.79878">
        <ele>1275.5</ele>
        <time>2023-09-10T14:13:24.612Z</time>
      </trkpt>
      <trkpt lat="46.2801" lon="6.79879">
        <ele>1274.5</ele>
        <time>2023-09-10T14:13:25.612Z</time>
      </trkpt>
      <trkpt lat="46.28024" lon="6.79882">
        <ele>1274</ele>
        <time>2023-09-10T14:13:26.612Z</time>
      </trkpt>
      <trkpt lat="46.28037" lon="6.7989">
        <ele>1273</ele>
        <time>2023-09-10T14:13:27.612Z</time>
      </trkpt>
      <trkpt lat="46.28084" lon="6.79929">
        <ele>1268.2</ele>
        <time>2023-09-10T14:13:28.612Z</time>
      </trkpt>
      <trkpt lat="46.2813" lon="6.79958">
        <ele>1264.5</ele>
        <time>2023-09-10T14:13:29.612Z</time>
      </trkpt>
      <trkpt lat="46.28146" lon="6.79965">
        <ele>1263.8</ele>
        <time>2023-09-10T14:13:30.612Z</time>
      </trkpt>
      <trkpt lat="46.28162" lon="6.79968">
        <ele>1263.9</ele>
        <time>2023-09-10T14:13:31.612Z</time>
      </trkpt>
      <trkpt lat="46.28176" lon="6.79965">
        <ele>1263.3</ele>
        <time>2023-09-10T14:13:32.612Z</time>
      </trkpt>
      <trkpt lat="46.28187" lon="6.79956">
        <ele>1263.6</ele>
        <time>2023-09-10T14:13:33.612Z</time>
      </trkpt>
      <trkpt lat="46.28196" lon="6.79946">
        <ele>1264.1</ele>
        <time>2023-09-10T14:13:34.612Z</time>
      </trkpt>
      <trkpt lat="46.28209" lon="6.79927">
        <ele>1265</ele>
        <time>2023-09-10T14:13:35.612Z</time>
      </trkpt>
      <trkpt lat="46.28215" lon="6.79916">
        <ele>1265.7</ele>
        <time>2023-09-10T14:13:36.612Z</time>
      </trkpt>
      <trkpt lat="46.28225" lon="6.79891">
        <ele>1263.9</ele>
        <time>2023-09-10T14:13:37.612Z</time>
      </trkpt>
      <trkpt lat="46.28245" lon="6.79852">
        <ele>1264.5</ele>
        <time>2023-09-10T14:13:38.612Z</time>
      </trkpt>
      <trkpt lat="46.28261" lon="6.7983">
        <ele>1265.2</ele>
        <time>2023-09-10T14:13:39.612Z</time>
      </trkpt>
      <trkpt lat="46.28291" lon="6.79796">
        <ele>1264.8</ele>
        <time>2023-09-10T14:13:40.612Z</time>
      </trkpt>
      <trkpt lat="46.28313" lon="6.79754">
        <ele>1266.8</ele>
        <time>2023-09-10T14:13:41.612Z</time>
      </trkpt>
      <trkpt lat="46.28359" lon="6.79688">
        <ele>1267.1</ele>
        <time>2023-09-10T14:13:42.612Z</time>
      </trkpt>
      <trkpt lat="46.28373" lon="6.79658">
        <ele>1266.4</ele>
        <time>2023-09-10T14:13:43.612Z</time>
      </trkpt>
      <trkpt lat="46.28422" lon="6.79519">
        <ele>1266.8</ele>
        <time>2023-09-10T14:13:44.612Z</time>
      </trkpt>
      <trkpt lat="46.28441" lon="6.79452">
        <ele>1269.6</ele>
        <time>2023-09-10T14:13:45.612Z</time>
      </trkpt>
      <trkpt lat="46.28459" lon="6.79374">
        <ele>1273.4</ele>
        <time>2023-09-10T14:13:46.612Z</time>
      </trkpt>
      <trkpt lat="46.28468" lon="6.7935">
        <ele>1273</ele>
        <time>2023-09-10T14:13:47.612Z</time>
      </trkpt>
      <trkpt lat="46.28503" lon="6.79223">
        <ele>1276.5</ele>
        <time>2023-09-10T14:13:48.612Z</time>
      </trkpt>
      <trkpt lat="46.28547" lon="6.79079">
        <ele>1279.1</ele>
        <time>2023-09-10T14:13:49.612Z</time>
      </trkpt>
      <trkpt lat="46.28569" lon="6.7898">
        <ele>1278.8</ele>
        <time>2023-09-10T14:13:50.612Z</time>
      </trkpt>
      <trkpt lat="46.28573" lon="6.78957">
        <ele>1279.4</ele>
        <time>2023-09-10T14:13:51.612Z</time>
      </trkpt>
      <trkpt lat="46.28577" lon="6.78918">
        <ele>1279.1</ele>
        <time>2023-09-10T14:13:52.612Z</time>
      </trkpt>
      <trkpt lat="46.28582" lon="6.78862">
        <ele>1278.3</ele>
        <time>2023-09-10T14:13:53.612Z</time>
      </trkpt>
      <trkpt lat="46.28583" lon="6.78833">
        <ele>1278.1</ele>
        <time>2023-09-10T14:13:54.612Z</time>
      </trkpt>
      <trkpt lat="46.28596" lon="6.78746">
        <ele>1277.6</ele>
        <time>2023-09-10T14:13:55.612Z</time>
      </trkpt>
      <trkpt lat="46.28604" lon="6.78705">
        <ele>1277.8</ele>
        <time>2023-09-10T14:13:56.612Z</time>
      </trkpt>
      <trkpt lat="46.28614" lon="6.78623">
        <ele>1277.7</ele>
        <time>2023-09-10T14:13:57.612Z</time>
      </trkpt>
      <trkpt lat="46.28616" lon="6.7859">
        <ele>1277</ele>
        <time>2023-09-10T14:13:58.612Z</time>
      </trkpt>
      <trkpt lat="46.28614" lon="6.78519">
        <ele>1276.7</ele>
        <time>2023-09-10T14:13:59.612Z</time>
      </trkpt>
      <trkpt lat="46.28608" lon="6.7849">
        <ele>1275.8</ele>
        <time>2023-09-10T14:14:00.612Z</time>
      </trkpt>
      <trkpt lat="46.28587" lon="6.78436">
        <ele>1273.3</ele>
        <time>2023-09-10T14:14:01.612Z</time>
      </trkpt>
      <trkpt lat="46.28579" lon="6.78421">
        <ele>1273.3</ele>
        <time>2023-09-10T14:14:02.612Z</time>
      </trkpt>
      <trkpt lat="46.28539" lon="6.78361">
        <ele>1270.7</ele>
        <time>2023-09-10T14:14:03.612Z</time>
      </trkpt>
      <trkpt lat="46.28525" lon="6.78333">
        <ele>1270.1</ele>
        <time>2023-09-10T14:14:04.612Z</time>
      </trkpt>
      <trkpt lat="46.28519" lon="6.78318">
        <ele>1270.5</ele>
        <time>2023-09-10T14:14:05.612Z</time>
      </trkpt>
      <trkpt lat="46.28505" lon="6.78271">
        <ele>1266.1</ele>
        <time>2023-09-10T14:14:06.612Z</time>
      </trkpt>
      <trkpt lat="46.28503" lon="6.7826">
        <ele>1265.8</ele>
        <time>2023-09-10T14:14:07.612Z</time>
      </trkpt>
      <trkpt lat="46.28505" lon="6.7825">
        <ele>1264.9</ele>
        <time>2023-09-10T14:14:08.612Z</time>
      </trkpt>
      <trkpt lat="46.28499" lon="6.78243">
        <ele>1265.9</ele>
        <time>2023-09-10T14:14:09.612Z</time>
      </trkpt>
      <trkpt lat="46.2849" lon="6.78242">
        <ele>1267.4</ele>
        <time>2023-09-10T14:14:10.612Z</time>
      </trkpt>
      <trkpt lat="46.28472" lon="6.78234">
        <ele>1269.9</ele>
        <time>2023-09-10T14:14:11.612Z</time>
      </trkpt>
      <trkpt lat="46.28466" lon="6.78226">
        <ele>1271.3</ele>
        <time>2023-09-10T14:14:12.612Z</time>
      </trkpt>
      <trkpt lat="46.28448" lon="6.78184">
        <ele>1274.6</ele>
        <time>2023-09-10T14:14:13.612Z</time>
      </trkpt>
      <trkpt lat="46.28411" lon="6.78078">
        <ele>1282.8</ele>
        <time>2023-09-10T14:14:14.612Z</time>
      </trkpt>
      <trkpt lat="46.28401" lon="6.78056">
        <ele>1284.7</ele>
        <time>2023-09-10T14:14:15.612Z</time>
      </trkpt>
      <trkpt lat="46.28373" lon="6.7801">
        <ele>1288.4</ele>
        <time>2023-09-10T14:14:16.612Z</time>
      </trkpt>
      <trkpt lat="46.28365" lon="6.78004">
        <ele>1289.6</ele>
        <time>2023-09-10T14:14:17.612Z</time>
      </trkpt>
      <trkpt lat="46.28356" lon="6.78001">
        <ele>1291.1</ele>
        <time>2023-09-10T14:14:18.612Z</time>
      </trkpt>
      <trkpt lat="46.28346" lon="6.78002">
        <ele>1293.1</ele>
        <time>2023-09-10T14:14:19.612Z</time>
      </trkpt>
      <trkpt lat="46.28337" lon="6.77999">
        <ele>1294.2</ele>
        <time>2023-09-10T14:14:20.612Z</time>
      </trkpt>
      <trkpt lat="46.28284" lon="6.77952">
        <ele>1300.6</ele>
        <time>2023-09-10T14:14:21.612Z</time>
      </trkpt>
      <trkpt lat="46.28266" lon="6.77938">
        <ele>1303.8</ele>
        <time>2023-09-10T14:14:22.612Z</time>
      </trkpt>
      <trkpt lat="46.28259" lon="6.7793">
        <ele>1305</ele>
        <time>2023-09-10T14:14:23.612Z</time>
      </trkpt>
      <trkpt lat="46.28231" lon="6.77877">
        <ele>1310.4</ele>
        <time>2023-09-10T14:14:24.612Z</time>
      </trkpt>
      <trkpt lat="46.2823" lon="6.77842">
        <ele>1311.8</ele>
        <time>2023-09-10T14:14:25.612Z</time>
      </trkpt>
      <trkpt lat="46.28214" lon="6.77789">
        <ele>1318.1</ele>
        <time>2023-09-10T14:14:26.612Z</time>
      </trkpt>
      <trkpt lat="46.28212" lon="6.77777">
        <ele>1319.3</ele>
        <time>2023-09-10T14:14:27.612Z</time>
      </trkpt>
      <trkpt lat="46.28214" lon="6.77765">
        <ele>1320.5</ele>
        <time>2023-09-10T14:14:28.612Z</time>
      </trkpt>
      <trkpt lat="46.28225" lon="6.77745">
        <ele>1322.4</ele>
        <time>2023-09-10T14:14:29.612Z</time>
      </trkpt>
      <trkpt lat="46.28232" lon="6.77736">
        <ele>1324.7</ele>
        <time>2023-09-10T14:14:30.612Z</time>
      </trkpt>
      <trkpt lat="46.2824" lon="6.77729">
        <ele>1326</ele>
        <time>2023-09-10T14:14:31.612Z</time>
      </trkpt>
      <trkpt lat="46.28276" lon="6.77708">
        <ele>1329.4</ele>
        <time>2023-09-10T14:14:32.612Z</time>
      </trkpt>
      <trkpt lat="46.28288" lon="6.77692">
        <ele>1331.5</ele>
        <time>2023-09-10T14:14:33.612Z</time>
      </trkpt>
      <trkpt lat="46.28296" lon="6.77674">
        <ele>1334.2</ele>
        <time>2023-09-10T14:14:34.612Z</time>
      </trkpt>
      <trkpt lat="46.28299" lon="6.77663">
        <ele>1335.1</ele>
        <time>2023-09-10T14:14:35.612Z</time>
      </trkpt>
      <trkpt lat="46.28299" lon="6.77652">
        <ele>1335</ele>
        <time>2023-09-10T14:14:36.612Z</time>
      </trkpt>
      <trkpt lat="46.28297" lon="6.77642">
        <ele>1335.3</ele>
        <time>2023-09-10T14:14:37.612Z</time>
      </trkpt>
      <trkpt lat="46.28288" lon="6.77621">
        <ele>1337.4</ele>
        <time>2023-09-10T14:14:38.612Z</time>
      </trkpt>
      <trkpt lat="46.28287" lon="6.77609">
        <ele>1338.3</ele>
        <time>2023-09-10T14:14:39.612Z</time>
      </trkpt>
      <trkpt lat="46.28288" lon="6.77598">
        <ele>1339.5</ele>
        <time>2023-09-10T14:14:40.612Z</time>
      </trkpt>
      <trkpt lat="46.28291" lon="6.77588">
        <ele>1340.5</ele>
        <time>2023-09-10T14:14:41.612Z</time>
      </trkpt>
      <trkpt lat="46.28302" lon="6.77572">
        <ele>1341.1</ele>
        <time>2023-09-10T14:14:42.612Z</time>
      </trkpt>
      <trkpt lat="46.28304" lon="6.77562">
        <ele>1341.7</ele>
        <time>2023-09-10T14:14:43.612Z</time>
      </trkpt>
      <trkpt lat="46.28303" lon="6.77551">
        <ele>1342.6</ele>
        <time>2023-09-10T14:14:44.612Z</time>
      </trkpt>
      <trkpt lat="46.28299" lon="6.77542">
        <ele>1343.5</ele>
        <time>2023-09-10T14:14:45.612Z</time>
      </trkpt>
      <trkpt lat="46.28292" lon="6.77533">
        <ele>1344.3</ele>
        <time>2023-09-10T14:14:46.612Z</time>
      </trkpt>
      <trkpt lat="46.28282" lon="6.77528">
        <ele>1344.8</ele>
        <time>2023-09-10T14:14:47.612Z</time>
      </trkpt>
      <trkpt lat="46.28273" lon="6.77526">
        <ele>1345.5</ele>
        <time>2023-09-10T14:14:48.612Z</time>
      </trkpt>
      <trkpt lat="46.28252" lon="6.7753">
        <ele>1347.9</ele>
        <time>2023-09-10T14:14:49.612Z</time>
      </trkpt>
      <trkpt lat="46.28243" lon="6.77528">
        <ele>1349</ele>
        <time>2023-09-10T14:14:50.612Z</time>
      </trkpt>
      <trkpt lat="46.28234" lon="6.7752">
        <ele>1350.2</ele>
        <time>2023-09-10T14:14:51.612Z</time>
      </trkpt>
      <trkpt lat="46.28229" lon="6.77512">
        <ele>1350.9</ele>
        <time>2023-09-10T14:14:52.612Z</time>
      </trkpt>
      <trkpt lat="46.28211" lon="6.7745">
        <ele>1354.9</ele>
        <time>2023-09-10T14:14:53.612Z</time>
      </trkpt>
      <trkpt lat="46.282" lon="6.77432">
        <ele>1357.6</ele>
        <time>2023-09-10T14:14:54.612Z</time>
      </trkpt>
      <trkpt lat="46.28194" lon="6.77414">
        <ele>1359.1</ele>
        <time>2023-09-10T14:14:55.612Z</time>
      </trkpt>
      <trkpt lat="46.28192" lon="6.7737">
        <ele>1359.6</ele>
        <time>2023-09-10T14:14:56.612Z</time>
      </trkpt>
      <trkpt lat="46.28199" lon="6.77309">
        <ele>1360.7</ele>
        <time>2023-09-10T14:14:57.612Z</time>
      </trkpt>
      <trkpt lat="46.2821" lon="6.77272">
        <ele>1363.1</ele>
        <time>2023-09-10T14:14:58.612Z</time>
      </trkpt>
      <trkpt lat="46.28226" lon="6.77207">
        <ele>1365.2</ele>
        <time>2023-09-10T14:14:59.612Z</time>
      </trkpt>
      <trkpt lat="46.28225" lon="6.77187">
        <ele>1365.7</ele>
        <time>2023-09-10T14:15:00.612Z</time>
      </trkpt>
      <trkpt lat="46.28215" lon="6.77146">
        <ele>1366.9</ele>
        <time>2023-09-10T14:15:01.612Z</time>
      </trkpt>
      <trkpt lat="46.28214" lon="6.77135">
        <ele>1367.1</ele>
        <time>2023-09-10T14:15:02.612Z</time>
      </trkpt>
      <trkpt lat="46.28215" lon="6.77125">
        <ele>1367.6</ele>
        <time>2023-09-10T14:15:03.612Z</time>
      </trkpt>
      <trkpt lat="46.28235" lon="6.77051">
        <ele>1370.9</ele>
        <time>2023-09-10T14:15:04.612Z</time>
      </trkpt>
      <trkpt lat="46.28248" lon="6.7702">
        <ele>1372.6</ele>
        <time>2023-09-10T14:15:05.612Z</time>
      </trkpt>
      <trkpt lat="46.28257" lon="6.7699">
        <ele>1375.1</ele>
        <time>2023-09-10T14:15:06.612Z</time>
      </trkpt>
      <trkpt lat="46.28269" lon="6.76967">
        <ele>1375.5</ele>
        <time>2023-09-10T14:15:07.612Z</time>
      </trkpt>
      <trkpt lat="46.28271" lon="6.76958">
        <ele>1375.8</ele>
        <time>2023-09-10T14:15:08.612Z</time>
      </trkpt>
      <trkpt lat="46.28269" lon="6.7693">
        <ele>1377.9</ele>
        <time>2023-09-10T14:15:09.612Z</time>
      </trkpt>
      <trkpt lat="46.28256" lon="6.76853">
        <ele>1380.1</ele>
        <time>2023-09-10T14:15:10.612Z</time>
      </trkpt>
      <trkpt lat="46.28249" lon="6.76831">
        <ele>1380.9</ele>
        <time>2023-09-10T14:15:11.612Z</time>
      </trkpt>
      <trkpt lat="46.28239" lon="6.76807">
        <ele>1380.6</ele>
        <time>2023-09-10T14:15:12.612Z</time>
      </trkpt>
      <trkpt lat="46.28221" lon="6.7679">
        <ele>1384.5</ele>
        <time>2023-09-10T14:15:13.612Z</time>
      </trkpt>
      <trkpt lat="46.282" lon="6.76764">
        <ele>1385.7</ele>
        <time>2023-09-10T14:15:14.612Z</time>
      </trkpt>
      <trkpt lat="46.28165" lon="6.76684">
        <ele>1391.3</ele>
        <time>2023-09-10T14:15:15.612Z</time>
      </trkpt>
      <trkpt lat="46.28159" lon="6.76652">
        <ele>1392.8</ele>
        <time>2023-09-10T14:15:16.612Z</time>
      </trkpt>
      <trkpt lat="46.2814" lon="6.76575">
        <ele>1396.8</ele>
        <time>2023-09-10T14:15:17.612Z</time>
      </trkpt>
      <trkpt lat="46.28135" lon="6.76563">
        <ele>1398.5</ele>
        <time>2023-09-10T14:15:18.612Z</time>
      </trkpt>
      <trkpt lat="46.2813" lon="6.7654">
        <ele>1399.6</ele>
        <time>2023-09-10T14:15:19.612Z</time>
      </trkpt>
      <trkpt lat="46.28117" lon="6.76496">
        <ele>1402.7</ele>
        <time>2023-09-10T14:15:20.612Z</time>
      </trkpt>
      <trkpt lat="46.28104" lon="6.76464">
        <ele>1404.4</ele>
        <time>2023-09-10T14:15:21.612Z</time>
      </trkpt>
      <trkpt lat="46.28098" lon="6.76453">
        <ele>1404.4</ele>
        <time>2023-09-10T14:15:22.612Z</time>
      </trkpt>
      <trkpt lat="46.28071" lon="6.76416">
        <ele>1410.7</ele>
        <time>2023-09-10T14:15:23.612Z</time>
      </trkpt>
      <trkpt lat="46.28041" lon="6.76371">
        <ele>1413.1</ele>
        <time>2023-09-10T14:15:24.612Z</time>
      </trkpt>
      <trkpt lat="46.28035" lon="6.7636">
        <ele>1413.6</ele>
        <time>2023-09-10T14:15:25.612Z</time>
      </trkpt>
      <trkpt lat="46.28028" lon="6.76329">
        <ele>1415.2</ele>
        <time>2023-09-10T14:15:26.612Z</time>
      </trkpt>
      <trkpt lat="46.28022" lon="6.76318">
        <ele>1414.2</ele>
        <time>2023-09-10T14:15:27.612Z</time>
      </trkpt>
      <trkpt lat="46.28015" lon="6.76311">
        <ele>1413.7</ele>
        <time>2023-09-10T14:15:28.612Z</time>
      </trkpt>
      <trkpt lat="46.28004" lon="6.76305">
        <ele>1413.7</ele>
        <time>2023-09-10T14:15:29.612Z</time>
      </trkpt>
      <trkpt lat="46.27997" lon="6.76299">
        <ele>1414.3</ele>
        <time>2023-09-10T14:15:30.612Z</time>
      </trkpt>
      <trkpt lat="46.2799" lon="6.76286">
        <ele>1415.1</ele>
        <time>2023-09-10T14:15:31.612Z</time>
      </trkpt>
      <trkpt lat="46.27983" lon="6.76252">
        <ele>1413.4</ele>
        <time>2023-09-10T14:15:32.612Z</time>
      </trkpt>
      <trkpt lat="46.27979" lon="6.76241">
        <ele>1412.5</ele>
        <time>2023-09-10T14:15:33.612Z</time>
      </trkpt>
      <trkpt lat="46.27977" lon="6.76225">
        <ele>1411.1</ele>
        <time>2023-09-10T14:15:34.612Z</time>
      </trkpt>
      <trkpt lat="46.27977" lon="6.762">
        <ele>1410.3</ele>
        <time>2023-09-10T14:15:35.612Z</time>
      </trkpt>
      <trkpt lat="46.27984" lon="6.76176">
        <ele>1409</ele>
        <time>2023-09-10T14:15:36.612Z</time>
      </trkpt>
      <trkpt lat="46.27996" lon="6.76158">
        <ele>1405.6</ele>
        <time>2023-09-10T14:15:37.612Z</time>
      </trkpt>
      <trkpt lat="46.28002" lon="6.76143">
        <ele>1403.5</ele>
        <time>2023-09-10T14:15:38.612Z</time>
      </trkpt>
      <trkpt lat="46.28011" lon="6.76091">
        <ele>1397.4</ele>
        <time>2023-09-10T14:15:39.612Z</time>
      </trkpt>
      <trkpt lat="46.28012" lon="6.76063">
        <ele>1396.5</ele>
        <time>2023-09-10T14:15:40.612Z</time>
      </trkpt>
      <trkpt lat="46.28012" lon="6.75961">
        <ele>1400.6</ele>
        <time>2023-09-10T14:15:41.612Z</time>
      </trkpt>
      <trkpt lat="46.28008" lon="6.75909">
        <ele>1400.9</ele>
        <time>2023-09-10T14:15:42.612Z</time>
      </trkpt>
      <trkpt lat="46.28007" lon="6.75862">
        <ele>1399</ele>
        <time>2023-09-10T14:15:43.612Z</time>
      </trkpt>
      <trkpt lat="46.28001" lon="6.75791">
        <ele>1399.3</ele>
        <time>2023-09-10T14:15:44.612Z</time>
      </trkpt>
      <trkpt lat="46.27994" lon="6.7577">
        <ele>1399</ele>
        <time>2023-09-10T14:15:45.612Z</time>
      </trkpt>
      <trkpt lat="46.27982" lon="6.75752">
        <ele>1399.1</ele>
        <time>2023-09-10T14:15:46.612Z</time>
      </trkpt>
      <trkpt lat="46.27968" lon="6.75735">
        <ele>1400.4</ele>
        <time>2023-09-10T14:15:47.612Z</time>
      </trkpt>
      <trkpt lat="46.27923" lon="6.75687">
        <ele>1398.2</ele>
        <time>2023-09-10T14:15:48.612Z</time>
      </trkpt>
      <trkpt lat="46.27905" lon="6.75664">
        <ele>1398.8</ele>
        <time>2023-09-10T14:15:49.612Z</time>
      </trkpt>
      <trkpt lat="46.27889" lon="6.75631">
        <ele>1400.3</ele>
        <time>2023-09-10T14:15:50.612Z</time>
      </trkpt>
      <trkpt lat="46.27871" lon="6.75588">
        <ele>1404.5</ele>
        <time>2023-09-10T14:15:51.612Z</time>
      </trkpt>
      <trkpt lat="46.27859" lon="6.75568">
        <ele>1405</ele>
        <time>2023-09-10T14:15:52.612Z</time>
      </trkpt>
      <trkpt lat="46.27843" lon="6.75533">
        <ele>1407.8</ele>
        <time>2023-09-10T14:15:53.612Z</time>
      </trkpt>
      <trkpt lat="46.27832" lon="6.75499">
        <ele>1409.3</ele>
        <time>2023-09-10T14:15:54.612Z</time>
      </trkpt>
      <trkpt lat="46.27823" lon="6.75462">
        <ele>1411.6</ele>
        <time>2023-09-10T14:15:55.612Z</time>
      </trkpt>
      <trkpt lat="46.27823" lon="6.7544">
        <ele>1412.1</ele>
        <time>2023-09-10T14:15:56.612Z</time>
      </trkpt>
      <trkpt lat="46.2783" lon="6.75406">
        <ele>1412.3</ele>
        <time>2023-09-10T14:15:57.612Z</time>
      </trkpt>
      <trkpt lat="46.27829" lon="6.75377">
        <ele>1411.1</ele>
        <time>2023-09-10T14:15:58.612Z</time>
      </trkpt>
      <trkpt lat="46.27823" lon="6.75348">
        <ele>1409</ele>
        <time>2023-09-10T14:15:59.612Z</time>
      </trkpt>
      <trkpt lat="46.27809" lon="6.75302">
        <ele>1410.1</ele>
        <time>2023-09-10T14:16:00.612Z</time>
      </trkpt>
      <trkpt lat="46.278" lon="6.75279">
        <ele>1410.4</ele>
        <time>2023-09-10T14:16:01.612Z</time>
      </trkpt>
      <trkpt lat="46.27773" lon="6.75231">
        <ele>1408.9</ele>
        <time>2023-09-10T14:16:02.612Z</time>
      </trkpt>
      <trkpt lat="46.27764" lon="6.75218">
        <ele>1408.4</ele>
        <time>2023-09-10T14:16:03.612Z</time>
      </trkpt>
      <trkpt lat="46.27739" lon="6.75189">
        <ele>1407.3</ele>
        <time>2023-09-10T14:16:04.612Z</time>
      </trkpt>
      <trkpt lat="46.27731" lon="6.75176">
        <ele>1405.9</ele>
        <time>2023-09-10T14:16:05.612Z</time>
      </trkpt>
      <trkpt lat="46.27714" lon="6.75137">
        <ele>1404.5</ele>
        <time>2023-09-10T14:16:06.612Z</time>
      </trkpt>
      <trkpt lat="46.27707" lon="6.75128">
        <ele>1403.8</ele>
        <time>2023-09-10T14:16:07.612Z</time>
      </trkpt>
      <trkpt lat="46.277" lon="6.75122">
        <ele>1402.7</ele>
        <time>2023-09-10T14:16:08.612Z</time>
      </trkpt>
      <trkpt lat="46.2769" lon="6.7512">
        <ele>1402.6</ele>
        <time>2023-09-10T14:16:09.612Z</time>
      </trkpt>
      <trkpt lat="46.27662" lon="6.75121">
        <ele>1407.3</ele>
        <time>2023-09-10T14:16:10.612Z</time>
      </trkpt>
      <trkpt lat="46.27632" lon="6.75111">
        <ele>1411.2</ele>
        <time>2023-09-10T14:16:11.612Z</time>
      </trkpt>
      <trkpt lat="46.27557" lon="6.75066">
        <ele>1412.3</ele>
        <time>2023-09-10T14:16:12.612Z</time>
      </trkpt>
      <trkpt lat="46.27545" lon="6.75057">
        <ele>1410.9</ele>
        <time>2023-09-10T14:16:13.612Z</time>
      </trkpt>
      <trkpt lat="46.27533" lon="6.75044">
        <ele>1410.4</ele>
        <time>2023-09-10T14:16:14.612Z</time>
      </trkpt>
      <trkpt lat="46.27506" lon="6.74994">
        <ele>1409.5</ele>
        <time>2023-09-10T14:16:15.612Z</time>
      </trkpt>
      <trkpt lat="46.2747" lon="6.74946">
        <ele>1411</ele>
        <time>2023-09-10T14:16:16.612Z</time>
      </trkpt>
      <trkpt lat="46.27459" lon="6.74923">
        <ele>1413.6</ele>
        <time>2023-09-10T14:16:17.612Z</time>
      </trkpt>
      <trkpt lat="46.27451" lon="6.74892">
        <ele>1414.8</ele>
        <time>2023-09-10T14:16:18.612Z</time>
      </trkpt>
      <trkpt lat="46.27436" lon="6.74859">
        <ele>1417.9</ele>
        <time>2023-09-10T14:16:19.612Z</time>
      </trkpt>
      <trkpt lat="46.27436" lon="6.74847">
        <ele>1419.5</ele>
        <time>2023-09-10T14:16:20.612Z</time>
      </trkpt>
      <trkpt lat="46.27443" lon="6.74814">
        <ele>1419.3</ele>
        <time>2023-09-10T14:16:21.612Z</time>
      </trkpt>
      <trkpt lat="46.27448" lon="6.74771">
        <ele>1421.5</ele>
        <time>2023-09-10T14:16:22.612Z</time>
      </trkpt>
      <trkpt lat="46.27466" lon="6.74708">
        <ele>1427.1</ele>
        <time>2023-09-10T14:16:23.612Z</time>
      </trkpt>
      <trkpt lat="46.27476" lon="6.74687">
        <ele>1428.4</ele>
        <time>2023-09-10T14:16:24.612Z</time>
      </trkpt>
      <trkpt lat="46.27482" lon="6.74678">
        <ele>1429.6</ele>
        <time>2023-09-10T14:16:25.612Z</time>
      </trkpt>
      <trkpt lat="46.27494" lon="6.74662">
        <ele>1431.7</ele>
        <time>2023-09-10T14:16:26.612Z</time>
      </trkpt>
      <trkpt lat="46.27509" lon="6.74646">
        <ele>1432.9</ele>
        <time>2023-09-10T14:16:27.612Z</time>
      </trkpt>
      <trkpt lat="46.27514" lon="6.74638">
        <ele>1434.2</ele>
        <time>2023-09-10T14:16:28.612Z</time>
      </trkpt>
      <trkpt lat="46.27524" lon="6.7461">
        <ele>1436.1</ele>
        <time>2023-09-10T14:16:29.612Z</time>
      </trkpt>
      <trkpt lat="46.27524" lon="6.74601">
        <ele>1436.4</ele>
        <time>2023-09-10T14:16:30.612Z</time>
      </trkpt>
      <trkpt lat="46.27517" lon="6.74572">
        <ele>1440</ele>
        <time>2023-09-10T14:16:31.612Z</time>
      </trkpt>
      <trkpt lat="46.27507" lon="6.74552">
        <ele>1444.2</ele>
        <time>2023-09-10T14:16:32.612Z</time>
      </trkpt>
      <trkpt lat="46.27455" lon="6.74489">
        <ele>1459.5</ele>
        <time>2023-09-10T14:16:33.612Z</time>
      </trkpt>
      <trkpt lat="46.2744" lon="6.74477">
        <ele>1464.6</ele>
        <time>2023-09-10T14:16:34.612Z</time>
      </trkpt>
      <trkpt lat="46.27426" lon="6.74462">
        <ele>1468.9</ele>
        <time>2023-09-10T14:16:35.612Z</time>
      </trkpt>
      <trkpt lat="46.2741" lon="6.74436">
        <ele>1472.9</ele>
        <time>2023-09-10T14:16:36.612Z</time>
      </trkpt>
      <trkpt lat="46.27383" lon="6.74379">
        <ele>1478.9</ele>
        <time>2023-09-10T14:16:37.612Z</time>
      </trkpt>
      <trkpt lat="46.27372" lon="6.74329">
        <ele>1481.2</ele>
        <time>2023-09-10T14:16:38.612Z</time>
      </trkpt>
      <trkpt lat="46.27368" lon="6.74278">
        <ele>1483</ele>
        <time>2023-09-10T14:16:39.612Z</time>
      </trkpt>
      <trkpt lat="46.27369" lon="6.74257">
        <ele>1482.5</ele>
        <time>2023-09-10T14:16:40.612Z</time>
      </trkpt>
      <trkpt lat="46.27368" lon="6.74236">
        <ele>1482.7</ele>
        <time>2023-09-10T14:16:41.612Z</time>
      </trkpt>
      <trkpt lat="46.27351" lon="6.74196">
        <ele>1490.8</ele>
        <time>2023-09-10T14:16:42.612Z</time>
      </trkpt>
      <trkpt lat="46.27332" lon="6.7417">
        <ele>1496.9</ele>
        <time>2023-09-10T14:16:43.612Z</time>
      </trkpt>
      <trkpt lat="46.27314" lon="6.74133">
        <ele>1498.5</ele>
        <time>2023-09-10T14:16:44.612Z</time>
      </trkpt>
      <trkpt lat="46.27313" lon="6.74079">
        <ele>1489.8</ele>
        <time>2023-09-10T14:16:45.612Z</time>
      </trkpt>
      <trkpt lat="46.27323" lon="6.74062">
        <ele>1483.6</ele>
        <time>2023-09-10T14:16:46.612Z</time>
      </trkpt>
      <trkpt lat="46.27333" lon="6.74062">
        <ele>1481.2</ele>
        <time>2023-09-10T14:16:47.612Z</time>
      </trkpt>
      <trkpt lat="46.27337" lon="6.74048">
        <ele>1477.3</ele>
        <time>2023-09-10T14:16:48.612Z</time>
      </trkpt>
      <trkpt lat="46.27338" lon="6.7403">
        <ele>1473.1</ele>
        <time>2023-09-10T14:16:49.612Z</time>
      </trkpt>
      <trkpt lat="46.27337" lon="6.74011">
        <ele>1467.7</ele>
        <time>2023-09-10T14:16:50.612Z</time>
      </trkpt>
      <trkpt lat="46.27334" lon="6.74001">
        <ele>1465.2</ele>
        <time>2023-09-10T14:16:51.612Z</time>
      </trkpt>
      <trkpt lat="46.27329" lon="6.73992">
        <ele>1463.1</ele>
        <time>2023-09-10T14:16:52.612Z</time>
      </trkpt>
      <trkpt lat="46.27334" lon="6.7398">
        <ele>1458.4</ele>
        <time>2023-09-10T14:16:53.612Z</time>
      </trkpt>
      <trkpt lat="46.27344" lon="6.73975">
        <ele>1455.3</ele>
        <time>2023-09-10T14:16:54.612Z</time>
      </trkpt>
      <trkpt lat="46.27363" lon="6.73969">
        <ele>1450.5</ele>
        <time>2023-09-10T14:16:55.612Z</time>
      </trkpt>
      <trkpt lat="46.27364" lon="6.73959">
        <ele>1447.4</ele>
        <time>2023-09-10T14:16:56.612Z</time>
      </trkpt>
      <trkpt lat="46.27361" lon="6.73949">
        <ele>1445.3</ele>
        <time>2023-09-10T14:16:57.612Z</time>
      </trkpt>
      <trkpt lat="46.27354" lon="6.73941">
        <ele>1443.1</ele>
        <time>2023-09-10T14:16:58.612Z</time>
      </trkpt>
      <trkpt lat="46.27335" lon="6.73932">
        <ele>1440.9</ele>
        <time>2023-09-10T14:16:59.612Z</time>
      </trkpt>
      <trkpt lat="46.27343" lon="6.73914">
        <ele>1434.8</ele>
        <time>2023-09-10T14:17:00.612Z</time>
      </trkpt>
      <trkpt lat="46.2736" lon="6.7389">
        <ele>1427.3</ele>
        <time>2023-09-10T14:17:01.612Z</time>
      </trkpt>
      <trkpt lat="46.27369" lon="6.73884">
        <ele>1423.4</ele>
        <time>2023-09-10T14:17:02.612Z</time>
      </trkpt>
      <trkpt lat="46.27388" lon="6.73882">
        <ele>1418.7</ele>
        <time>2023-09-10T14:17:03.612Z</time>
      </trkpt>
      <trkpt lat="46.27397" lon="6.73885">
        <ele>1416.7</ele>
        <time>2023-09-10T14:17:04.612Z</time>
      </trkpt>
      <trkpt lat="46.27431" lon="6.73909">
        <ele>1408.2</ele>
        <time>2023-09-10T14:17:05.612Z</time>
      </trkpt>
      <trkpt lat="46.2745" lon="6.73935">
        <ele>1403</ele>
        <time>2023-09-10T14:17:06.612Z</time>
      </trkpt>
      <trkpt lat="46.27459" lon="6.73929">
        <ele>1401</ele>
        <time>2023-09-10T14:17:07.612Z</time>
      </trkpt>
      <trkpt lat="46.27462" lon="6.73852">
        <ele>1395.2</ele>
        <time>2023-09-10T14:17:08.612Z</time>
      </trkpt>
      <trkpt lat="46.2746" lon="6.73841">
        <ele>1394.2</ele>
        <time>2023-09-10T14:17:09.612Z</time>
      </trkpt>
      <trkpt lat="46.27451" lon="6.73837">
        <ele>1393.6</ele>
        <time>2023-09-10T14:17:10.612Z</time>
      </trkpt>
      <trkpt lat="46.27442" lon="6.73836">
        <ele>1393.2</ele>
        <time>2023-09-10T14:17:11.612Z</time>
      </trkpt>
      <trkpt lat="46.27415" lon="6.73819">
        <ele>1387.3</ele>
        <time>2023-09-10T14:17:12.612Z</time>
      </trkpt>
      <trkpt lat="46.27394" lon="6.73757">
        <ele>1374.6</ele>
        <time>2023-09-10T14:17:13.612Z</time>
      </trkpt>
      <trkpt lat="46.27383" lon="6.73708">
        <ele>1365.6</ele>
        <time>2023-09-10T14:17:14.612Z</time>
      </trkpt>
      <trkpt lat="46.2737" lon="6.7367">
        <ele>1359.6</ele>
        <time>2023-09-10T14:17:15.612Z</time>
      </trkpt>
      <trkpt lat="46.27357" lon="6.73614">
        <ele>1351.9</ele>
        <time>2023-09-10T14:17:16.612Z</time>
      </trkpt>
      <trkpt lat="46.27341" lon="6.73564">
        <ele>1344.6</ele>
        <time>2023-09-10T14:17:17.612Z</time>
      </trkpt>
      <trkpt lat="46.27318" lon="6.73518">
        <ele>1336.9</ele>
        <time>2023-09-10T14:17:18.612Z</time>
      </trkpt>
      <trkpt lat="46.27311" lon="6.73509">
        <ele>1334.4</ele>
        <time>2023-09-10T14:17:19.612Z</time>
      </trkpt>
      <trkpt lat="46.27292" lon="6.73495">
        <ele>1330.5</ele>
        <time>2023-09-10T14:17:20.612Z</time>
      </trkpt>
      <trkpt lat="46.27284" lon="6.73486">
        <ele>1329.7</ele>
        <time>2023-09-10T14:17:21.612Z</time>
      </trkpt>
      <trkpt lat="46.27281" lon="6.73476">
        <ele>1329.3</ele>
        <time>2023-09-10T14:17:22.612Z</time>
      </trkpt>
      <trkpt lat="46.27281" lon="6.73465">
        <ele>1329.1</ele>
        <time>2023-09-10T14:17:23.612Z</time>
      </trkpt>
      <trkpt lat="46.27284" lon="6.73445">
        <ele>1328.5</ele>
        <time>2023-09-10T14:17:24.612Z</time>
      </trkpt>
      <trkpt lat="46.27281" lon="6.73427">
        <ele>1327</ele>
        <time>2023-09-10T14:17:25.612Z</time>
      </trkpt>
      <trkpt lat="46.27268" lon="6.73424">
        <ele>1322.8</ele>
        <time>2023-09-10T14:17:26.612Z</time>
      </trkpt>
      <trkpt lat="46.27252" lon="6.73438">
        <ele>1318.8</ele>
        <time>2023-09-10T14:17:27.612Z</time>
      </trkpt>
      <trkpt lat="46.27241" lon="6.73439">
        <ele>1315.1</ele>
        <time>2023-09-10T14:17:28.612Z</time>
      </trkpt>
      <trkpt lat="46.27222" lon="6.73436">
        <ele>1307.3</ele>
        <time>2023-09-10T14:17:29.612Z</time>
      </trkpt>
      <trkpt lat="46.27182" lon="6.73453">
        <ele>1297.5</ele>
        <time>2023-09-10T14:17:30.612Z</time>
      </trkpt>
      <trkpt lat="46.27162" lon="6.73467">
        <ele>1291.6</ele>
        <time>2023-09-10T14:17:31.612Z</time>
      </trkpt>
      <trkpt lat="46.27146" lon="6.73484">
        <ele>1287.9</ele>
        <time>2023-09-10T14:17:32.612Z</time>
      </trkpt>
      <trkpt lat="46.27136" lon="6.73485">
        <ele>1284.5</ele>
        <time>2023-09-10T14:17:33.612Z</time>
      </trkpt>
      <trkpt lat="46.27123" lon="6.73469">
        <ele>1278.5</ele>
        <time>2023-09-10T14:17:34.612Z</time>
      </trkpt>
      <trkpt lat="46.27113" lon="6.73469">
        <ele>1275.3</ele>
        <time>2023-09-10T14:17:35.612Z</time>
      </trkpt>
      <trkpt lat="46.27092" lon="6.73483">
        <ele>1270.5</ele>
        <time>2023-09-10T14:17:36.612Z</time>
      </trkpt>
      <trkpt lat="46.27083" lon="6.73491">
        <ele>1268.2</ele>
        <time>2023-09-10T14:17:37.612Z</time>
      </trkpt>
      <trkpt lat="46.27065" lon="6.7352">
        <ele>1263.7</ele>
        <time>2023-09-10T14:17:38.612Z</time>
      </trkpt>
      <trkpt lat="46.27052" lon="6.73533">
        <ele>1260.6</ele>
        <time>2023-09-10T14:17:39.612Z</time>
      </trkpt>
      <trkpt lat="46.27042" lon="6.73535">
        <ele>1257.6</ele>
        <time>2023-09-10T14:17:40.612Z</time>
      </trkpt>
      <trkpt lat="46.27021" lon="6.73526">
        <ele>1249.8</ele>
        <time>2023-09-10T14:17:41.612Z</time>
      </trkpt>
      <trkpt lat="46.27" lon="6.73527">
        <ele>1244</ele>
        <time>2023-09-10T14:17:42.612Z</time>
      </trkpt>
      <trkpt lat="46.2699" lon="6.73532">
        <ele>1242.3</ele>
        <time>2023-09-10T14:17:43.612Z</time>
      </trkpt>
      <trkpt lat="46.26979" lon="6.73549">
        <ele>1240.4</ele>
        <time>2023-09-10T14:17:44.612Z</time>
      </trkpt>
      <trkpt lat="46.26971" lon="6.73558">
        <ele>1238.8</ele>
        <time>2023-09-10T14:17:45.612Z</time>
      </trkpt>
      <trkpt lat="46.26963" lon="6.73564">
        <ele>1237.1</ele>
        <time>2023-09-10T14:17:46.612Z</time>
      </trkpt>
      <trkpt lat="46.26958" lon="6.7355">
        <ele>1234.8</ele>
        <time>2023-09-10T14:17:47.612Z</time>
      </trkpt>
      <trkpt lat="46.26954" lon="6.73529">
        <ele>1233.1</ele>
        <time>2023-09-10T14:17:48.612Z</time>
      </trkpt>
      <trkpt lat="46.26953" lon="6.73511">
        <ele>1233.2</ele>
        <time>2023-09-10T14:17:49.612Z</time>
      </trkpt>
      <trkpt lat="46.2696" lon="6.73492">
        <ele>1233.1</ele>
        <time>2023-09-10T14:17:50.612Z</time>
      </trkpt>
      <trkpt lat="46.26973" lon="6.73477">
        <ele>1232.2</ele>
        <time>2023-09-10T14:17:51.612Z</time>
      </trkpt>
      <trkpt lat="46.26965" lon="6.73471">
        <ele>1229.5</ele>
        <time>2023-09-10T14:17:52.612Z</time>
      </trkpt>
      <trkpt lat="46.26943" lon="6.73479">
        <ele>1227.1</ele>
        <time>2023-09-10T14:17:53.612Z</time>
      </trkpt>
      <trkpt lat="46.26936" lon="6.73486">
        <ele>1226.6</ele>
        <time>2023-09-10T14:17:54.612Z</time>
      </trkpt>
      <trkpt lat="46.26931" lon="6.73498">
        <ele>1226.5</ele>
        <time>2023-09-10T14:17:55.612Z</time>
      </trkpt>
      <trkpt lat="46.26928" lon="6.73546">
        <ele>1224.7</ele>
        <time>2023-09-10T14:17:56.612Z</time>
      </trkpt>
      <trkpt lat="46.26922" lon="6.73565">
        <ele>1224.2</ele>
        <time>2023-09-10T14:17:57.612Z</time>
      </trkpt>
      <trkpt lat="46.26913" lon="6.73583">
        <ele>1223.9</ele>
        <time>2023-09-10T14:17:58.612Z</time>
      </trkpt>
      <trkpt lat="46.26896" lon="6.73606">
        <ele>1222.1</ele>
        <time>2023-09-10T14:17:59.612Z</time>
      </trkpt>
      <trkpt lat="46.26882" lon="6.73619">
        <ele>1221.5</ele>
        <time>2023-09-10T14:18:00.612Z</time>
      </trkpt>
      <trkpt lat="46.26854" lon="6.73641">
        <ele>1220.6</ele>
        <time>2023-09-10T14:18:01.612Z</time>
      </trkpt>
      <trkpt lat="46.26838" lon="6.73661">
        <ele>1220.7</ele>
        <time>2023-09-10T14:18:02.612Z</time>
      </trkpt>
      <trkpt lat="46.26822" lon="6.73692">
        <ele>1219.2</ele>
        <time>2023-09-10T14:18:03.612Z</time>
      </trkpt>
      <trkpt lat="46.26807" lon="6.7374">
        <ele>1222.5</ele>
        <time>2023-09-10T14:18:04.612Z</time>
      </trkpt>
      <trkpt lat="46.26798" lon="6.73757">
        <ele>1222.8</ele>
        <time>2023-09-10T14:18:05.612Z</time>
      </trkpt>
      <trkpt lat="46.2679" lon="6.73781">
        <ele>1226.4</ele>
        <time>2023-09-10T14:18:06.612Z</time>
      </trkpt>
      <trkpt lat="46.26784" lon="6.7379">
        <ele>1227.1</ele>
        <time>2023-09-10T14:18:07.612Z</time>
      </trkpt>
      <trkpt lat="46.26764" lon="6.73796">
        <ele>1226.8</ele>
        <time>2023-09-10T14:18:08.612Z</time>
      </trkpt>
      <trkpt lat="46.2675" lon="6.73809">
        <ele>1228.9</ele>
        <time>2023-09-10T14:18:09.612Z</time>
      </trkpt>
      <trkpt lat="46.26719" lon="6.73856">
        <ele>1228.8</ele>
        <time>2023-09-10T14:18:10.612Z</time>
      </trkpt>
      <trkpt lat="46.26698" lon="6.73909">
        <ele>1229.5</ele>
        <time>2023-09-10T14:18:11.612Z</time>
      </trkpt>
      <trkpt lat="46.26673" lon="6.73956">
        <ele>1231.1</ele>
        <time>2023-09-10T14:18:12.612Z</time>
      </trkpt>
      <trkpt lat="46.26653" lon="6.74015">
        <ele>1232.6</ele>
        <time>2023-09-10T14:18:13.612Z</time>
      </trkpt>
      <trkpt lat="46.26636" lon="6.74054">
        <ele>1234.1</ele>
        <time>2023-09-10T14:18:14.612Z</time>
      </trkpt>
      <trkpt lat="46.26623" lon="6.74106">
        <ele>1233.3</ele>
        <time>2023-09-10T14:18:15.612Z</time>
      </trkpt>
      <trkpt lat="46.26604" lon="6.74142">
        <ele>1231.9</ele>
        <time>2023-09-10T14:18:16.612Z</time>
      </trkpt>
      <trkpt lat="46.26601" lon="6.74154">
        <ele>1231.4</ele>
        <time>2023-09-10T14:18:17.612Z</time>
      </trkpt>
      <trkpt lat="46.26599" lon="6.7419">
        <ele>1232.3</ele>
        <time>2023-09-10T14:18:18.612Z</time>
      </trkpt>
      <trkpt lat="46.26596" lon="6.74202">
        <ele>1232.5</ele>
        <time>2023-09-10T14:18:19.612Z</time>
      </trkpt>
      <trkpt lat="46.2658" lon="6.74236">
        <ele>1231</ele>
        <time>2023-09-10T14:18:20.612Z</time>
      </trkpt>
      <trkpt lat="46.26573" lon="6.74246">
        <ele>1230.8</ele>
        <time>2023-09-10T14:18:21.612Z</time>
      </trkpt>
      <trkpt lat="46.26559" lon="6.74259">
        <ele>1231.2</ele>
        <time>2023-09-10T14:18:22.612Z</time>
      </trkpt>
      <trkpt lat="46.26553" lon="6.74269">
        <ele>1231.7</ele>
        <time>2023-09-10T14:18:23.612Z</time>
      </trkpt>
      <trkpt lat="46.2655" lon="6.74299">
        <ele>1234.1</ele>
        <time>2023-09-10T14:18:24.612Z</time>
      </trkpt>
      <trkpt lat="46.26543" lon="6.74329">
        <ele>1233.3</ele>
        <time>2023-09-10T14:18:25.612Z</time>
      </trkpt>
      <trkpt lat="46.2654" lon="6.74357">
        <ele>1234.1</ele>
        <time>2023-09-10T14:18:26.612Z</time>
      </trkpt>
      <trkpt lat="46.2654" lon="6.74376">
        <ele>1236.7</ele>
        <time>2023-09-10T14:18:27.612Z</time>
      </trkpt>
      <trkpt lat="46.26538" lon="6.74386">
        <ele>1237.1</ele>
        <time>2023-09-10T14:18:28.612Z</time>
      </trkpt>
      <trkpt lat="46.2653" lon="6.74405">
        <ele>1237.4</ele>
        <time>2023-09-10T14:18:29.612Z</time>
      </trkpt>
      <trkpt lat="46.26525" lon="6.74426">
        <ele>1241.7</ele>
        <time>2023-09-10T14:18:30.612Z</time>
      </trkpt>
      <trkpt lat="46.26494" lon="6.74484">
        <ele>1249</ele>
        <time>2023-09-10T14:18:31.612Z</time>
      </trkpt>
      <trkpt lat="46.26467" lon="6.74505">
        <ele>1251.6</ele>
        <time>2023-09-10T14:18:32.612Z</time>
      </trkpt>
      <trkpt lat="46.26445" lon="6.74528">
        <ele>1252.2</ele>
        <time>2023-09-10T14:18:33.612Z</time>
      </trkpt>
      <trkpt lat="46.26438" lon="6.74539">
        <ele>1252.2</ele>
        <time>2023-09-10T14:18:34.612Z</time>
      </trkpt>
      <trkpt lat="46.26429" lon="6.74573">
        <ele>1254.7</ele>
        <time>2023-09-10T14:18:35.612Z</time>
      </trkpt>
      <trkpt lat="46.26428" lon="6.74584">
        <ele>1255.5</ele>
        <time>2023-09-10T14:18:36.612Z</time>
      </trkpt>
      <trkpt lat="46.26429" lon="6.74605">
        <ele>1256.9</ele>
        <time>2023-09-10T14:18:37.612Z</time>
      </trkpt>
      <trkpt lat="46.26423" lon="6.7465">
        <ele>1259.3</ele>
        <time>2023-09-10T14:18:38.612Z</time>
      </trkpt>
      <trkpt lat="46.26419" lon="6.74705">
        <ele>1265.5</ele>
        <time>2023-09-10T14:18:39.612Z</time>
      </trkpt>
      <trkpt lat="46.2642" lon="6.7476">
        <ele>1271.9</ele>
        <time>2023-09-10T14:18:40.612Z</time>
      </trkpt>
      <trkpt lat="46.26418" lon="6.74783">
        <ele>1273.6</ele>
        <time>2023-09-10T14:18:41.612Z</time>
      </trkpt>
      <trkpt lat="46.26405" lon="6.74841">
        <ele>1282.7</ele>
        <time>2023-09-10T14:18:42.612Z</time>
      </trkpt>
      <trkpt lat="46.26387" lon="6.74871">
        <ele>1287</ele>
        <time>2023-09-10T14:18:43.612Z</time>
      </trkpt>
      <trkpt lat="46.26378" lon="6.74881">
        <ele>1288.4</ele>
        <time>2023-09-10T14:18:44.612Z</time>
      </trkpt>
      <trkpt lat="46.26359" lon="6.74889">
        <ele>1288.9</ele>
        <time>2023-09-10T14:18:45.612Z</time>
      </trkpt>
      <trkpt lat="46.2635" lon="6.74891">
        <ele>1288.8</ele>
        <time>2023-09-10T14:18:46.612Z</time>
      </trkpt>
      <trkpt lat="46.2632" lon="6.74893">
        <ele>1286.5</ele>
        <time>2023-09-10T14:18:47.612Z</time>
      </trkpt>
      <trkpt lat="46.26282" lon="6.74903">
        <ele>1284.9</ele>
        <time>2023-09-10T14:18:48.612Z</time>
      </trkpt>
      <trkpt lat="46.26269" lon="6.74902">
        <ele>1284.1</ele>
        <time>2023-09-10T14:18:49.612Z</time>
      </trkpt>
      <trkpt lat="46.26257" lon="6.74904">
        <ele>1283.9</ele>
        <time>2023-09-10T14:18:50.612Z</time>
      </trkpt>
      <trkpt lat="46.26247" lon="6.74911">
        <ele>1284.1</ele>
        <time>2023-09-10T14:18:51.612Z</time>
      </trkpt>
      <trkpt lat="46.26217" lon="6.74957">
        <ele>1284.1</ele>
        <time>2023-09-10T14:18:52.612Z</time>
      </trkpt>
      <trkpt lat="46.26196" lon="6.74974">
        <ele>1283.8</ele>
        <time>2023-09-10T14:18:53.612Z</time>
      </trkpt>
      <trkpt lat="46.26182" lon="6.74979">
        <ele>1283.5</ele>
        <time>2023-09-10T14:18:54.612Z</time>
      </trkpt>
      <trkpt lat="46.26168" lon="6.74982">
        <ele>1283</ele>
        <time>2023-09-10T14:18:55.612Z</time>
      </trkpt>
      <trkpt lat="46.26112" lon="6.74966">
        <ele>1284.4</ele>
        <time>2023-09-10T14:18:56.612Z</time>
      </trkpt>
      <trkpt lat="46.26102" lon="6.74965">
        <ele>1283.9</ele>
        <time>2023-09-10T14:18:57.612Z</time>
      </trkpt>
      <trkpt lat="46.2608" lon="6.74973">
        <ele>1285</ele>
        <time>2023-09-10T14:18:58.612Z</time>
      </trkpt>
      <trkpt lat="46.26058" lon="6.74977">
        <ele>1285.1</ele>
        <time>2023-09-10T14:18:59.612Z</time>
      </trkpt>
      <trkpt lat="46.26036" lon="6.74975">
        <ele>1285.1</ele>
        <time>2023-09-10T14:19:00.612Z</time>
      </trkpt>
      <trkpt lat="46.26023" lon="6.74972">
        <ele>1284.5</ele>
        <time>2023-09-10T14:19:01.612Z</time>
      </trkpt>
      <trkpt lat="46.26012" lon="6.74973">
        <ele>1283.3</ele>
        <time>2023-09-10T14:19:02.612Z</time>
      </trkpt>
      <trkpt lat="46.26" lon="6.74983">
        <ele>1282.4</ele>
        <time>2023-09-10T14:19:03.612Z</time>
      </trkpt>
      <trkpt lat="46.2599" lon="6.74995">
        <ele>1281</ele>
        <time>2023-09-10T14:19:04.612Z</time>
      </trkpt>
      <trkpt lat="46.2598" lon="6.74997">
        <ele>1279.2</ele>
        <time>2023-09-10T14:19:05.612Z</time>
      </trkpt>
      <trkpt lat="46.25975" lon="6.74987">
        <ele>1277.6</ele>
        <time>2023-09-10T14:19:06.612Z</time>
      </trkpt>
      <trkpt lat="46.25971" lon="6.74965">
        <ele>1275.7</ele>
        <time>2023-09-10T14:19:07.612Z</time>
      </trkpt>
      <trkpt lat="46.25968" lon="6.74932">
        <ele>1274</ele>
        <time>2023-09-10T14:19:08.612Z</time>
      </trkpt>
      <trkpt lat="46.2597" lon="6.7491">
        <ele>1272.3</ele>
        <time>2023-09-10T14:19:09.612Z</time>
      </trkpt>
      <trkpt lat="46.25981" lon="6.74893">
        <ele>1270.1</ele>
        <time>2023-09-10T14:19:10.612Z</time>
      </trkpt>
      <trkpt lat="46.25989" lon="6.74886">
        <ele>1269</ele>
        <time>2023-09-10T14:19:11.612Z</time>
      </trkpt>
      <trkpt lat="46.26008" lon="6.74873">
        <ele>1267.3</ele>
        <time>2023-09-10T14:19:12.612Z</time>
      </trkpt>
      <trkpt lat="46.26033" lon="6.7486">
        <ele>1265.6</ele>
        <time>2023-09-10T14:19:13.612Z</time>
      </trkpt>
      <trkpt lat="46.2604" lon="6.74849">
        <ele>1263.4</ele>
        <time>2023-09-10T14:19:14.612Z</time>
      </trkpt>
      <trkpt lat="46.26037" lon="6.7484">
        <ele>1262.1</ele>
        <time>2023-09-10T14:19:15.612Z</time>
      </trkpt>
      <trkpt lat="46.26" lon="6.74839">
        <ele>1260</ele>
        <time>2023-09-10T14:19:16.612Z</time>
      </trkpt>
      <trkpt lat="46.25958" lon="6.74813">
        <ele>1256.4</ele>
        <time>2023-09-10T14:19:17.612Z</time>
      </trkpt>
      <trkpt lat="46.25949" lon="6.7481">
        <ele>1255.7</ele>
        <time>2023-09-10T14:19:18.612Z</time>
      </trkpt>
      <trkpt lat="46.25932" lon="6.74813">
        <ele>1253.1</ele>
        <time>2023-09-10T14:19:19.612Z</time>
      </trkpt>
      <trkpt lat="46.25916" lon="6.74827">
        <ele>1251.2</ele>
        <time>2023-09-10T14:19:20.612Z</time>
      </trkpt>
      <trkpt lat="46.25879" lon="6.74868">
        <ele>1247.8</ele>
        <time>2023-09-10T14:19:21.612Z</time>
      </trkpt>
      <trkpt lat="46.25864" lon="6.74875">
        <ele>1245.9</ele>
        <time>2023-09-10T14:19:22.612Z</time>
      </trkpt>
      <trkpt lat="46.25837" lon="6.74874">
        <ele>1242.9</ele>
        <time>2023-09-10T14:19:23.612Z</time>
      </trkpt>
      <trkpt lat="46.25817" lon="6.74871">
        <ele>1242.9</ele>
        <time>2023-09-10T14:19:24.612Z</time>
      </trkpt>
      <trkpt lat="46.25806" lon="6.74887">
        <ele>1243</ele>
        <time>2023-09-10T14:19:25.612Z</time>
      </trkpt>
      <trkpt lat="46.25799" lon="6.74929">
        <ele>1243.6</ele>
        <time>2023-09-10T14:19:26.612Z</time>
      </trkpt>
      <trkpt lat="46.25781" lon="6.74999">
        <ele>1243</ele>
        <time>2023-09-10T14:19:27.612Z</time>
      </trkpt>
      <trkpt lat="46.25773" lon="6.75047">
        <ele>1243.6</ele>
        <time>2023-09-10T14:19:28.612Z</time>
      </trkpt>
      <trkpt lat="46.25765" lon="6.75068">
        <ele>1244</ele>
        <time>2023-09-10T14:19:29.612Z</time>
      </trkpt>
      <trkpt lat="46.25751" lon="6.75096">
        <ele>1245.4</ele>
        <time>2023-09-10T14:19:30.612Z</time>
      </trkpt>
      <trkpt lat="46.25748" lon="6.75116">
        <ele>1247.6</ele>
        <time>2023-09-10T14:19:31.612Z</time>
      </trkpt>
      <trkpt lat="46.25741" lon="6.75137">
        <ele>1250.1</ele>
        <time>2023-09-10T14:19:32.612Z</time>
      </trkpt>
      <trkpt lat="46.25736" lon="6.75148">
        <ele>1251</ele>
        <time>2023-09-10T14:19:33.612Z</time>
      </trkpt>
      <trkpt lat="46.25722" lon="6.75163">
        <ele>1251.6</ele>
        <time>2023-09-10T14:19:34.612Z</time>
      </trkpt>
      <trkpt lat="46.25717" lon="6.75171">
        <ele>1252.1</ele>
        <time>2023-09-10T14:19:35.612Z</time>
      </trkpt>
      <trkpt lat="46.25708" lon="6.75174">
        <ele>1251.9</ele>
        <time>2023-09-10T14:19:36.612Z</time>
      </trkpt>
      <trkpt lat="46.25693" lon="6.75163">
        <ele>1249.5</ele>
        <time>2023-09-10T14:19:37.612Z</time>
      </trkpt>
      <trkpt lat="46.2567" lon="6.75162">
        <ele>1249.2</ele>
        <time>2023-09-10T14:19:38.612Z</time>
      </trkpt>
      <trkpt lat="46.25661" lon="6.75159">
        <ele>1248</ele>
        <time>2023-09-10T14:19:39.612Z</time>
      </trkpt>
      <trkpt lat="46.25639" lon="6.75162">
        <ele>1246</ele>
        <time>2023-09-10T14:19:40.612Z</time>
      </trkpt>
      <trkpt lat="46.25628" lon="6.75167">
        <ele>1245.1</ele>
        <time>2023-09-10T14:19:41.612Z</time>
      </trkpt>
      <trkpt lat="46.25613" lon="6.75184">
        <ele>1244.8</ele>
        <time>2023-09-10T14:19:42.612Z</time>
      </trkpt>
      <trkpt lat="46.25605" lon="6.75178">
        <ele>1242.7</ele>
        <time>2023-09-10T14:19:43.612Z</time>
      </trkpt>
      <trkpt lat="46.25591" lon="6.75153">
        <ele>1237.3</ele>
        <time>2023-09-10T14:19:44.612Z</time>
      </trkpt>
      <trkpt lat="46.25572" lon="6.7513">
        <ele>1231.7</ele>
        <time>2023-09-10T14:19:45.612Z</time>
      </trkpt>
      <trkpt lat="46.25552" lon="6.75121">
        <ele>1228.1</ele>
        <time>2023-09-10T14:19:46.612Z</time>
      </trkpt>
      <trkpt lat="46.25532" lon="6.7512">
        <ele>1224.4</ele>
        <time>2023-09-10T14:19:47.612Z</time>
      </trkpt>
      <trkpt lat="46.25513" lon="6.75117">
        <ele>1219.9</ele>
        <time>2023-09-10T14:19:48.612Z</time>
      </trkpt>
      <trkpt lat="46.25503" lon="6.75117">
        <ele>1217.6</ele>
        <time>2023-09-10T14:19:49.612Z</time>
      </trkpt>
      <trkpt lat="46.25463" lon="6.75123">
        <ele>1210.4</ele>
        <time>2023-09-10T14:19:50.612Z</time>
      </trkpt>
      <trkpt lat="46.25433" lon="6.75137">
        <ele>1204.5</ele>
        <time>2023-09-10T14:19:51.612Z</time>
      </trkpt>
      <trkpt lat="46.25411" lon="6.75138">
        <ele>1200.2</ele>
        <time>2023-09-10T14:19:52.612Z</time>
      </trkpt>
      <trkpt lat="46.25399" lon="6.75136">
        <ele>1198.4</ele>
        <time>2023-09-10T14:19:53.612Z</time>
      </trkpt>
      <trkpt lat="46.25386" lon="6.75136">
        <ele>1196.5</ele>
        <time>2023-09-10T14:19:54.612Z</time>
      </trkpt>
      <trkpt lat="46.25364" lon="6.75138">
        <ele>1193.4</ele>
        <time>2023-09-10T14:19:55.612Z</time>
      </trkpt>
      <trkpt lat="46.25355" lon="6.75141">
        <ele>1192.4</ele>
        <time>2023-09-10T14:19:56.612Z</time>
      </trkpt>
      <trkpt lat="46.25337" lon="6.75151">
        <ele>1190.8</ele>
        <time>2023-09-10T14:19:57.612Z</time>
      </trkpt>
      <trkpt lat="46.25321" lon="6.75166">
        <ele>1188.8</ele>
        <time>2023-09-10T14:19:58.612Z</time>
      </trkpt>
      <trkpt lat="46.25306" lon="6.75183">
        <ele>1187.3</ele>
        <time>2023-09-10T14:19:59.612Z</time>
      </trkpt>
      <trkpt lat="46.25286" lon="6.75211">
        <ele>1187.6</ele>
        <time>2023-09-10T14:20:00.612Z</time>
      </trkpt>
      <trkpt lat="46.2528" lon="6.75222">
        <ele>1187.5</ele>
        <time>2023-09-10T14:20:01.612Z</time>
      </trkpt>
      <trkpt lat="46.25273" lon="6.7523">
        <ele>1188.1</ele>
        <time>2023-09-10T14:20:02.612Z</time>
      </trkpt>
      <trkpt lat="46.25245" lon="6.75245">
        <ele>1187.8</ele>
        <time>2023-09-10T14:20:03.612Z</time>
      </trkpt>
      <trkpt lat="46.25238" lon="6.75256">
        <ele>1187.9</ele>
        <time>2023-09-10T14:20:04.612Z</time>
      </trkpt>
      <trkpt lat="46.25231" lon="6.75262">
        <ele>1187.6</ele>
        <time>2023-09-10T14:20:05.612Z</time>
      </trkpt>
      <trkpt lat="46.25213" lon="6.75271">
        <ele>1186</ele>
        <time>2023-09-10T14:20:06.612Z</time>
      </trkpt>
      <trkpt lat="46.25193" lon="6.75275">
        <ele>1183.8</ele>
        <time>2023-09-10T14:20:07.612Z</time>
      </trkpt>
      <trkpt lat="46.25183" lon="6.75272">
        <ele>1183.8</ele>
        <time>2023-09-10T14:20:08.612Z</time>
      </trkpt>
      <trkpt lat="46.25145" lon="6.75244">
        <ele>1182</ele>
        <time>2023-09-10T14:20:09.612Z</time>
      </trkpt>
      <trkpt lat="46.25133" lon="6.75239">
        <ele>1181.6</ele>
        <time>2023-09-10T14:20:10.612Z</time>
      </trkpt>
      <trkpt lat="46.25124" lon="6.7524">
        <ele>1181.4</ele>
        <time>2023-09-10T14:20:11.612Z</time>
      </trkpt>
      <trkpt lat="46.25102" lon="6.75246">
        <ele>1181.5</ele>
        <time>2023-09-10T14:20:12.612Z</time>
      </trkpt>
      <trkpt lat="46.25066" lon="6.75263">
        <ele>1182</ele>
        <time>2023-09-10T14:20:13.612Z</time>
      </trkpt>
      <trkpt lat="46.25048" lon="6.75274">
        <ele>1182.7</ele>
        <time>2023-09-10T14:20:14.612Z</time>
      </trkpt>
      <trkpt lat="46.25013" lon="6.75304">
        <ele>1183.1</ele>
        <time>2023-09-10T14:20:15.612Z</time>
      </trkpt>
      <trkpt lat="46.2498" lon="6.75337">
        <ele>1185.5</ele>
        <time>2023-09-10T14:20:16.612Z</time>
      </trkpt>
      <trkpt lat="46.24944" lon="6.75363">
        <ele>1185.6</ele>
        <time>2023-09-10T14:20:17.612Z</time>
      </trkpt>
      <trkpt lat="46.24918" lon="6.75386">
        <ele>1186.9</ele>
        <time>2023-09-10T14:20:18.612Z</time>
      </trkpt>
      <trkpt lat="46.24876" lon="6.75433">
        <ele>1189</ele>
        <time>2023-09-10T14:20:19.612Z</time>
      </trkpt>
      <trkpt lat="46.2487" lon="6.75443">
        <ele>1189.9</ele>
        <time>2023-09-10T14:20:20.612Z</time>
      </trkpt>
      <trkpt lat="46.24854" lon="6.75457">
        <ele>1192.3</ele>
        <time>2023-09-10T14:20:21.612Z</time>
      </trkpt>
      <trkpt lat="46.2482" lon="6.75479">
        <ele>1195.7</ele>
        <time>2023-09-10T14:20:22.612Z</time>
      </trkpt>
      <trkpt lat="46.2482" lon="6.75488">
        <ele>1196.7</ele>
        <time>2023-09-10T14:20:23.612Z</time>
      </trkpt>
      <trkpt lat="46.24825" lon="6.75517">
        <ele>1198.8</ele>
        <time>2023-09-10T14:20:24.612Z</time>
      </trkpt>
      <trkpt lat="46.24835" lon="6.75521">
        <ele>1198.5</ele>
        <time>2023-09-10T14:20:25.612Z</time>
      </trkpt>
      <trkpt lat="46.24815" lon="6.75526">
        <ele>1200.2</ele>
        <time>2023-09-10T14:20:26.612Z</time>
      </trkpt>
      <trkpt lat="46.24794" lon="6.75526">
        <ele>1201.3</ele>
        <time>2023-09-10T14:20:27.612Z</time>
      </trkpt>
      <trkpt lat="46.24785" lon="6.75525">
        <ele>1201.6</ele>
        <time>2023-09-10T14:20:28.612Z</time>
      </trkpt>
      <trkpt lat="46.24769" lon="6.75515">
        <ele>1201.8</ele>
        <time>2023-09-10T14:20:29.612Z</time>
      </trkpt>
      <trkpt lat="46.2476" lon="6.75514">
        <ele>1201.8</ele>
        <time>2023-09-10T14:20:30.612Z</time>
      </trkpt>
      <trkpt lat="46.24749" lon="6.75517">
        <ele>1202.9</ele>
        <time>2023-09-10T14:20:31.612Z</time>
      </trkpt>
      <trkpt lat="46.24734" lon="6.75529">
        <ele>1207.5</ele>
        <time>2023-09-10T14:20:32.612Z</time>
      </trkpt>
      <trkpt lat="46.24725" lon="6.75531">
        <ele>1208.9</ele>
        <time>2023-09-10T14:20:33.612Z</time>
      </trkpt>
      <trkpt lat="46.24707" lon="6.7553">
        <ele>1211</ele>
        <time>2023-09-10T14:20:34.612Z</time>
      </trkpt>
      <trkpt lat="46.24686" lon="6.75538">
        <ele>1214.8</ele>
        <time>2023-09-10T14:20:35.612Z</time>
      </trkpt>
      <trkpt lat="46.24667" lon="6.75549">
        <ele>1214.9</ele>
        <time>2023-09-10T14:20:36.612Z</time>
      </trkpt>
      <trkpt lat="46.24644" lon="6.75567">
        <ele>1219.1</ele>
        <time>2023-09-10T14:20:37.612Z</time>
      </trkpt>
      <trkpt lat="46.24626" lon="6.75573">
        <ele>1222.2</ele>
        <time>2023-09-10T14:20:38.612Z</time>
      </trkpt>
      <trkpt lat="46.24597" lon="6.75579">
        <ele>1226.2</ele>
        <time>2023-09-10T14:20:39.612Z</time>
      </trkpt>
      <trkpt lat="46.24586" lon="6.75579">
        <ele>1227</ele>
        <time>2023-09-10T14:20:40.612Z</time>
      </trkpt>
      <trkpt lat="46.24577" lon="6.75577">
        <ele>1227.2</ele>
        <time>2023-09-10T14:20:41.612Z</time>
      </trkpt>
      <trkpt lat="46.24555" lon="6.75578">
        <ele>1231</ele>
        <time>2023-09-10T14:20:42.612Z</time>
      </trkpt>
      <trkpt lat="46.24535" lon="6.75574">
        <ele>1234.2</ele>
        <time>2023-09-10T14:20:43.612Z</time>
      </trkpt>
      <trkpt lat="46.24505" lon="6.75565">
        <ele>1237</ele>
        <time>2023-09-10T14:20:44.612Z</time>
      </trkpt>
      <trkpt lat="46.24472" lon="6.7556">
        <ele>1241.7</ele>
        <time>2023-09-10T14:20:45.612Z</time>
      </trkpt>
      <trkpt lat="46.24461" lon="6.75556">
        <ele>1243</ele>
        <time>2023-09-10T14:20:46.612Z</time>
      </trkpt>
      <trkpt lat="46.24433" lon="6.75537">
        <ele>1247.4</ele>
        <time>2023-09-10T14:20:47.612Z</time>
      </trkpt>
      <trkpt lat="46.24426" lon="6.7553">
        <ele>1248.2</ele>
        <time>2023-09-10T14:20:48.612Z</time>
      </trkpt>
      <trkpt lat="46.2442" lon="6.75521">
        <ele>1248.9</ele>
        <time>2023-09-10T14:20:49.612Z</time>
      </trkpt>
      <trkpt lat="46.24416" lon="6.7551">
        <ele>1249.4</ele>
        <time>2023-09-10T14:20:50.612Z</time>
      </trkpt>
      <trkpt lat="46.24407" lon="6.75477">
        <ele>1249.4</ele>
        <time>2023-09-10T14:20:51.612Z</time>
      </trkpt>
      <trkpt lat="46.24401" lon="6.75469">
        <ele>1249.6</ele>
        <time>2023-09-10T14:20:52.612Z</time>
      </trkpt>
      <trkpt lat="46.24392" lon="6.75467">
        <ele>1251.6</ele>
        <time>2023-09-10T14:20:53.612Z</time>
      </trkpt>
      <trkpt lat="46.24388" lon="6.75477">
        <ele>1255.2</ele>
        <time>2023-09-10T14:20:54.612Z</time>
      </trkpt>
      <trkpt lat="46.2439" lon="6.75486">
        <ele>1257.1</ele>
        <time>2023-09-10T14:20:55.612Z</time>
      </trkpt>
      <trkpt lat="46.24401" lon="6.75507">
        <ele>1256.8</ele>
        <time>2023-09-10T14:20:56.612Z</time>
      </trkpt>
      <trkpt lat="46.24412" lon="6.75546">
        <ele>1259.2</ele>
        <time>2023-09-10T14:20:57.612Z</time>
      </trkpt>
      <trkpt lat="46.24422" lon="6.7557">
        <ele>1261</ele>
        <time>2023-09-10T14:20:58.612Z</time>
      </trkpt>
      <trkpt lat="46.24439" lon="6.75601">
        <ele>1262.5</ele>
        <time>2023-09-10T14:20:59.612Z</time>
      </trkpt>
      <trkpt lat="46.24442" lon="6.7562">
        <ele>1264.3</ele>
        <time>2023-09-10T14:21:00.612Z</time>
      </trkpt>
      <trkpt lat="46.2444" lon="6.75649">
        <ele>1266.5</ele>
        <time>2023-09-10T14:21:01.612Z</time>
      </trkpt>
      <trkpt lat="46.2444" lon="6.75668">
        <ele>1267.4</ele>
        <time>2023-09-10T14:21:02.612Z</time>
      </trkpt>
      <trkpt lat="46.24442" lon="6.75677">
        <ele>1268.5</ele>
        <time>2023-09-10T14:21:03.612Z</time>
      </trkpt>
      <trkpt lat="46.24445" lon="6.75686">
        <ele>1269</ele>
        <time>2023-09-10T14:21:04.612Z</time>
      </trkpt>
      <trkpt lat="46.24459" lon="6.75707">
        <ele>1271.5</ele>
        <time>2023-09-10T14:21:05.612Z</time>
      </trkpt>
      <trkpt lat="46.24477" lon="6.75722">
        <ele>1272.2</ele>
        <time>2023-09-10T14:21:06.612Z</time>
      </trkpt>
      <trkpt lat="46.24485" lon="6.75731">
        <ele>1272.1</ele>
        <time>2023-09-10T14:21:07.612Z</time>
      </trkpt>
      <trkpt lat="46.24495" lon="6.75757">
        <ele>1273.6</ele>
        <time>2023-09-10T14:21:08.612Z</time>
      </trkpt>
      <trkpt lat="46.24505" lon="6.75793">
        <ele>1275.3</ele>
        <time>2023-09-10T14:21:09.612Z</time>
      </trkpt>
      <trkpt lat="46.24509" lon="6.7582">
        <ele>1275.8</ele>
        <time>2023-09-10T14:21:10.612Z</time>
      </trkpt>
      <trkpt lat="46.2451" lon="6.75839">
        <ele>1277</ele>
        <time>2023-09-10T14:21:11.612Z</time>
      </trkpt>
      <trkpt lat="46.24509" lon="6.75849">
        <ele>1278.3</ele>
        <time>2023-09-10T14:21:12.612Z</time>
      </trkpt>
      <trkpt lat="46.24505" lon="6.75861">
        <ele>1280.6</ele>
        <time>2023-09-10T14:21:13.612Z</time>
      </trkpt>
      <trkpt lat="46.24497" lon="6.75869">
        <ele>1281.7</ele>
        <time>2023-09-10T14:21:14.612Z</time>
      </trkpt>
      <trkpt lat="46.24488" lon="6.75869">
        <ele>1283.4</ele>
        <time>2023-09-10T14:21:15.612Z</time>
      </trkpt>
      <trkpt lat="46.24479" lon="6.75863">
        <ele>1285</ele>
        <time>2023-09-10T14:21:16.612Z</time>
      </trkpt>
      <trkpt lat="46.24473" lon="6.75853">
        <ele>1286.2</ele>
        <time>2023-09-10T14:21:17.612Z</time>
      </trkpt>
      <trkpt lat="46.24468" lon="6.75832">
        <ele>1287.9</ele>
        <time>2023-09-10T14:21:18.612Z</time>
      </trkpt>
      <trkpt lat="46.24461" lon="6.75825">
        <ele>1289.5</ele>
        <time>2023-09-10T14:21:19.612Z</time>
      </trkpt>
      <trkpt lat="46.24452" lon="6.75829">
        <ele>1292.3</ele>
        <time>2023-09-10T14:21:20.612Z</time>
      </trkpt>
      <trkpt lat="46.2445" lon="6.75839">
        <ele>1292.9</ele>
        <time>2023-09-10T14:21:21.612Z</time>
      </trkpt>
      <trkpt lat="46.24449" lon="6.7585">
        <ele>1293.8</ele>
        <time>2023-09-10T14:21:22.612Z</time>
      </trkpt>
      <trkpt lat="46.2445" lon="6.75862">
        <ele>1294.2</ele>
        <time>2023-09-10T14:21:23.612Z</time>
      </trkpt>
      <trkpt lat="46.24461" lon="6.7592">
        <ele>1299.4</ele>
        <time>2023-09-10T14:21:24.612Z</time>
      </trkpt>
      <trkpt lat="46.24461" lon="6.75972">
        <ele>1304.8</ele>
        <time>2023-09-10T14:21:25.612Z</time>
      </trkpt>
      <trkpt lat="46.24474" lon="6.76109">
        <ele>1314</ele>
        <time>2023-09-10T14:21:26.612Z</time>
      </trkpt>
      <trkpt lat="46.24475" lon="6.7613">
        <ele>1314.9</ele>
        <time>2023-09-10T14:21:27.612Z</time>
      </trkpt>
      <trkpt lat="46.24474" lon="6.76143">
        <ele>1315.4</ele>
        <time>2023-09-10T14:21:28.612Z</time>
      </trkpt>
      <trkpt lat="46.24472" lon="6.76155">
        <ele>1316.2</ele>
        <time>2023-09-10T14:21:29.612Z</time>
      </trkpt>
      <trkpt lat="46.24464" lon="6.76179">
        <ele>1317.1</ele>
        <time>2023-09-10T14:21:30.612Z</time>
      </trkpt>
      <trkpt lat="46.24435" lon="6.76246">
        <ele>1324.5</ele>
        <time>2023-09-10T14:21:31.612Z</time>
      </trkpt>
      <trkpt lat="46.24419" lon="6.76291">
        <ele>1327</ele>
        <time>2023-09-10T14:21:32.612Z</time>
      </trkpt>
      <trkpt lat="46.24413" lon="6.76314">
        <ele>1329.7</ele>
        <time>2023-09-10T14:21:33.612Z</time>
      </trkpt>
      <trkpt lat="46.2441" lon="6.76339">
        <ele>1331.9</ele>
        <time>2023-09-10T14:21:34.612Z</time>
      </trkpt>
      <trkpt lat="46.24412" lon="6.76351">
        <ele>1332.1</ele>
        <time>2023-09-10T14:21:35.612Z</time>
      </trkpt>
      <trkpt lat="46.24416" lon="6.76361">
        <ele>1331.3</ele>
        <time>2023-09-10T14:21:36.612Z</time>
      </trkpt>
      <trkpt lat="46.24428" lon="6.76381">
        <ele>1332.9</ele>
        <time>2023-09-10T14:21:37.612Z</time>
      </trkpt>
      <trkpt lat="46.24442" lon="6.76398">
        <ele>1333.9</ele>
        <time>2023-09-10T14:21:38.612Z</time>
      </trkpt>
      <trkpt lat="46.24452" lon="6.7642">
        <ele>1333.3</ele>
        <time>2023-09-10T14:21:39.612Z</time>
      </trkpt>
      <trkpt lat="46.24454" lon="6.76429">
        <ele>1332.6</ele>
        <time>2023-09-10T14:21:40.612Z</time>
      </trkpt>
      <trkpt lat="46.24452" lon="6.76448">
        <ele>1335.1</ele>
        <time>2023-09-10T14:21:41.612Z</time>
      </trkpt>
      <trkpt lat="46.24446" lon="6.76467">
        <ele>1337.4</ele>
        <time>2023-09-10T14:21:42.612Z</time>
      </trkpt>
      <trkpt lat="46.2444" lon="6.76479">
        <ele>1337.7</ele>
        <time>2023-09-10T14:21:43.612Z</time>
      </trkpt>
      <trkpt lat="46.2443" lon="6.76487">
        <ele>1338.4</ele>
        <time>2023-09-10T14:21:44.612Z</time>
      </trkpt>
      <trkpt lat="46.2442" lon="6.76491">
        <ele>1340</ele>
        <time>2023-09-10T14:21:45.612Z</time>
      </trkpt>
      <trkpt lat="46.24399" lon="6.76493">
        <ele>1343</ele>
        <time>2023-09-10T14:21:46.612Z</time>
      </trkpt>
      <trkpt lat="46.24378" lon="6.76498">
        <ele>1343.9</ele>
        <time>2023-09-10T14:21:47.612Z</time>
      </trkpt>
      <trkpt lat="46.24337" lon="6.76501">
        <ele>1347.4</ele>
        <time>2023-09-10T14:21:48.612Z</time>
      </trkpt>
      <trkpt lat="46.24309" lon="6.76501">
        <ele>1351.3</ele>
        <time>2023-09-10T14:21:49.612Z</time>
      </trkpt>
      <trkpt lat="46.24289" lon="6.76498">
        <ele>1352.5</ele>
        <time>2023-09-10T14:21:50.612Z</time>
      </trkpt>
      <trkpt lat="46.2425" lon="6.76486">
        <ele>1357</ele>
        <time>2023-09-10T14:21:51.612Z</time>
      </trkpt>
      <trkpt lat="46.24231" lon="6.76477">
        <ele>1359.1</ele>
        <time>2023-09-10T14:21:52.612Z</time>
      </trkpt>
      <trkpt lat="46.24145" lon="6.7642">
        <ele>1370.3</ele>
        <time>2023-09-10T14:21:53.612Z</time>
      </trkpt>
      <trkpt lat="46.24124" lon="6.76411">
        <ele>1372.7</ele>
        <time>2023-09-10T14:21:54.612Z</time>
      </trkpt>
      <trkpt lat="46.24106" lon="6.76407">
        <ele>1374</ele>
        <time>2023-09-10T14:21:55.612Z</time>
      </trkpt>
      <trkpt lat="46.24095" lon="6.764">
        <ele>1375.8</ele>
        <time>2023-09-10T14:21:56.612Z</time>
      </trkpt>
      <trkpt lat="46.24094" lon="6.76388">
        <ele>1377.9</ele>
        <time>2023-09-10T14:21:57.612Z</time>
      </trkpt>
      <trkpt lat="46.24099" lon="6.76378">
        <ele>1380.3</ele>
        <time>2023-09-10T14:21:58.612Z</time>
      </trkpt>
      <trkpt lat="46.24108" lon="6.76374">
        <ele>1380.5</ele>
        <time>2023-09-10T14:21:59.612Z</time>
      </trkpt>
      <trkpt lat="46.24145" lon="6.76371">
        <ele>1381.9</ele>
        <time>2023-09-10T14:22:00.612Z</time>
      </trkpt>
      <trkpt lat="46.24183" lon="6.76356">
        <ele>1387.2</ele>
        <time>2023-09-10T14:22:01.612Z</time>
      </trkpt>
      <trkpt lat="46.24191" lon="6.76351">
        <ele>1388.2</ele>
        <time>2023-09-10T14:22:02.612Z</time>
      </trkpt>
      <trkpt lat="46.24196" lon="6.76341">
        <ele>1390.6</ele>
        <time>2023-09-10T14:22:03.612Z</time>
      </trkpt>
      <trkpt lat="46.24194" lon="6.76331">
        <ele>1392.7</ele>
        <time>2023-09-10T14:22:04.612Z</time>
      </trkpt>
      <trkpt lat="46.24188" lon="6.76324">
        <ele>1394.8</ele>
        <time>2023-09-10T14:22:05.612Z</time>
      </trkpt>
      <trkpt lat="46.24178" lon="6.76321">
        <ele>1395.6</ele>
        <time>2023-09-10T14:22:06.612Z</time>
      </trkpt>
      <trkpt lat="46.24169" lon="6.76322">
        <ele>1395.4</ele>
        <time>2023-09-10T14:22:07.612Z</time>
      </trkpt>
      <trkpt lat="46.24127" lon="6.76317">
        <ele>1397.5</ele>
        <time>2023-09-10T14:22:08.612Z</time>
      </trkpt>
      <trkpt lat="46.24118" lon="6.76314">
        <ele>1398.5</ele>
        <time>2023-09-10T14:22:09.612Z</time>
      </trkpt>
      <trkpt lat="46.24114" lon="6.76304">
        <ele>1401.6</ele>
        <time>2023-09-10T14:22:10.612Z</time>
      </trkpt>
      <trkpt lat="46.2412" lon="6.76297">
        <ele>1404.2</ele>
        <time>2023-09-10T14:22:11.612Z</time>
      </trkpt>
      <trkpt lat="46.24143" lon="6.76297">
        <ele>1403.5</ele>
        <time>2023-09-10T14:22:12.612Z</time>
      </trkpt>
      <trkpt lat="46.24154" lon="6.76291">
        <ele>1404.6</ele>
        <time>2023-09-10T14:22:13.612Z</time>
      </trkpt>
      <trkpt lat="46.2417" lon="6.76278">
        <ele>1408.2</ele>
        <time>2023-09-10T14:22:14.612Z</time>
      </trkpt>
      <trkpt lat="46.24202" lon="6.76267">
        <ele>1412.4</ele>
        <time>2023-09-10T14:22:15.612Z</time>
      </trkpt>
      <trkpt lat="46.24208" lon="6.76259">
        <ele>1414.8</ele>
        <time>2023-09-10T14:22:16.612Z</time>
      </trkpt>
      <trkpt lat="46.24209" lon="6.76249">
        <ele>1416.9</ele>
        <time>2023-09-10T14:22:17.612Z</time>
      </trkpt>
      <trkpt lat="46.24207" lon="6.76238">
        <ele>1418.8</ele>
        <time>2023-09-10T14:22:18.612Z</time>
      </trkpt>
      <trkpt lat="46.24201" lon="6.76228">
        <ele>1419.4</ele>
        <time>2023-09-10T14:22:19.612Z</time>
      </trkpt>
      <trkpt lat="46.2419" lon="6.76225">
        <ele>1419.3</ele>
        <time>2023-09-10T14:22:20.612Z</time>
      </trkpt>
      <trkpt lat="46.2417" lon="6.76233">
        <ele>1421.3</ele>
        <time>2023-09-10T14:22:21.612Z</time>
      </trkpt>
      <trkpt lat="46.24128" lon="6.76241">
        <ele>1426.5</ele>
        <time>2023-09-10T14:22:22.612Z</time>
      </trkpt>
      <trkpt lat="46.24109" lon="6.76254">
        <ele>1426</ele>
        <time>2023-09-10T14:22:23.612Z</time>
      </trkpt>
      <trkpt lat="46.24098" lon="6.76259">
        <ele>1425.3</ele>
        <time>2023-09-10T14:22:24.612Z</time>
      </trkpt>
      <trkpt lat="46.24078" lon="6.76254">
        <ele>1431.1</ele>
        <time>2023-09-10T14:22:25.612Z</time>
      </trkpt>
      <trkpt lat="46.24056" lon="6.7626">
        <ele>1432.3</ele>
        <time>2023-09-10T14:22:26.612Z</time>
      </trkpt>
      <trkpt lat="46.24034" lon="6.76263">
        <ele>1439.6</ele>
        <time>2023-09-10T14:22:27.612Z</time>
      </trkpt>
      <trkpt lat="46.24016" lon="6.76276">
        <ele>1441.5</ele>
        <time>2023-09-10T14:22:28.612Z</time>
      </trkpt>
      <trkpt lat="46.24004" lon="6.76293">
        <ele>1442.4</ele>
        <time>2023-09-10T14:22:29.612Z</time>
      </trkpt>
      <trkpt lat="46.23997" lon="6.763">
        <ele>1442.8</ele>
        <time>2023-09-10T14:22:30.612Z</time>
      </trkpt>
      <trkpt lat="46.23989" lon="6.76305">
        <ele>1440.8</ele>
        <time>2023-09-10T14:22:31.612Z</time>
      </trkpt>
      <trkpt lat="46.2398" lon="6.76304">
        <ele>1440.9</ele>
        <time>2023-09-10T14:22:32.612Z</time>
      </trkpt>
      <trkpt lat="46.23971" lon="6.763">
        <ele>1442.3</ele>
        <time>2023-09-10T14:22:33.612Z</time>
      </trkpt>
      <trkpt lat="46.23939" lon="6.76272">
        <ele>1448.2</ele>
        <time>2023-09-10T14:22:34.612Z</time>
      </trkpt>
      <trkpt lat="46.23921" lon="6.7626">
        <ele>1450.1</ele>
        <time>2023-09-10T14:22:35.612Z</time>
      </trkpt>
      <trkpt lat="46.23912" lon="6.76255">
        <ele>1451.7</ele>
        <time>2023-09-10T14:22:36.612Z</time>
      </trkpt>
      <trkpt lat="46.23884" lon="6.76247">
        <ele>1454.6</ele>
        <time>2023-09-10T14:22:37.612Z</time>
      </trkpt>
      <trkpt lat="46.23875" lon="6.76243">
        <ele>1454.9</ele>
        <time>2023-09-10T14:22:38.612Z</time>
      </trkpt>
      <trkpt lat="46.2384" lon="6.76218">
        <ele>1459.9</ele>
        <time>2023-09-10T14:22:39.612Z</time>
      </trkpt>
      <trkpt lat="46.23822" lon="6.76209">
        <ele>1460.9</ele>
        <time>2023-09-10T14:22:40.612Z</time>
      </trkpt>
      <trkpt lat="46.23788" lon="6.76184">
        <ele>1466.8</ele>
        <time>2023-09-10T14:22:41.612Z</time>
      </trkpt>
      <trkpt lat="46.23778" lon="6.76181">
        <ele>1467.3</ele>
        <time>2023-09-10T14:22:42.612Z</time>
      </trkpt>
      <trkpt lat="46.23759" lon="6.76182">
        <ele>1468.2</ele>
        <time>2023-09-10T14:22:43.612Z</time>
      </trkpt>
      <trkpt lat="46.23741" lon="6.7619">
        <ele>1469.4</ele>
        <time>2023-09-10T14:22:44.612Z</time>
      </trkpt>
      <trkpt lat="46.2368" lon="6.76236">
        <ele>1478.1</ele>
        <time>2023-09-10T14:22:45.612Z</time>
      </trkpt>
      <trkpt lat="46.23672" lon="6.76244">
        <ele>1479.2</ele>
        <time>2023-09-10T14:22:46.612Z</time>
      </trkpt>
      <trkpt lat="46.23665" lon="6.76254">
        <ele>1480.9</ele>
        <time>2023-09-10T14:22:47.612Z</time>
      </trkpt>
      <trkpt lat="46.23656" lon="6.76273">
        <ele>1486.5</ele>
        <time>2023-09-10T14:22:48.612Z</time>
      </trkpt>
      <trkpt lat="46.23649" lon="6.76294">
        <ele>1489.7</ele>
        <time>2023-09-10T14:22:49.612Z</time>
      </trkpt>
      <trkpt lat="46.2363" lon="6.76381">
        <ele>1489.3</ele>
        <time>2023-09-10T14:22:50.612Z</time>
      </trkpt>
      <trkpt lat="46.23628" lon="6.76399">
        <ele>1485.6</ele>
        <time>2023-09-10T14:22:51.612Z</time>
      </trkpt>
      <trkpt lat="46.23614" lon="6.76437">
        <ele>1491.5</ele>
        <time>2023-09-10T14:22:52.612Z</time>
      </trkpt>
      <trkpt lat="46.23609" lon="6.76448">
        <ele>1493.6</ele>
        <time>2023-09-10T14:22:53.612Z</time>
      </trkpt>
      <trkpt lat="46.23602" lon="6.76458">
        <ele>1492.9</ele>
        <time>2023-09-10T14:22:54.612Z</time>
      </trkpt>
      <trkpt lat="46.23593" lon="6.76465">
        <ele>1493.7</ele>
        <time>2023-09-10T14:22:55.612Z</time>
      </trkpt>
      <trkpt lat="46.23584" lon="6.76467">
        <ele>1495.8</ele>
        <time>2023-09-10T14:22:56.612Z</time>
      </trkpt>
      <trkpt lat="46.23578" lon="6.76458">
        <ele>1498.2</ele>
        <time>2023-09-10T14:22:57.612Z</time>
      </trkpt>
      <trkpt lat="46.23582" lon="6.76448">
        <ele>1499.6</ele>
        <time>2023-09-10T14:22:58.612Z</time>
      </trkpt>
      <trkpt lat="46.23591" lon="6.76442">
        <ele>1498.9</ele>
        <time>2023-09-10T14:22:59.612Z</time>
      </trkpt>
      <trkpt lat="46.23594" lon="6.76432">
        <ele>1500.1</ele>
        <time>2023-09-10T14:23:00.612Z</time>
      </trkpt>
      <trkpt lat="46.23583" lon="6.76427">
        <ele>1505.1</ele>
        <time>2023-09-10T14:23:01.612Z</time>
      </trkpt>
      <trkpt lat="46.23562" lon="6.76438">
        <ele>1505.3</ele>
        <time>2023-09-10T14:23:02.612Z</time>
      </trkpt>
      <trkpt lat="46.23552" lon="6.7644">
        <ele>1506</ele>
        <time>2023-09-10T14:23:03.612Z</time>
      </trkpt>
      <trkpt lat="46.23543" lon="6.7644">
        <ele>1506.2</ele>
        <time>2023-09-10T14:23:04.612Z</time>
      </trkpt>
      <trkpt lat="46.23525" lon="6.76435">
        <ele>1508.6</ele>
        <time>2023-09-10T14:23:05.612Z</time>
      </trkpt>
      <trkpt lat="46.23487" lon="6.7644">
        <ele>1513.5</ele>
        <time>2023-09-10T14:23:06.612Z</time>
      </trkpt>
      <trkpt lat="46.2348" lon="6.76447">
        <ele>1513.7</ele>
        <time>2023-09-10T14:23:07.612Z</time>
      </trkpt>
      <trkpt lat="46.2348" lon="6.76459">
        <ele>1516</ele>
        <time>2023-09-10T14:23:08.612Z</time>
      </trkpt>
      <trkpt lat="46.235" lon="6.76491">
        <ele>1517</ele>
        <time>2023-09-10T14:23:09.612Z</time>
      </trkpt>
      <trkpt lat="46.23499" lon="6.76504">
        <ele>1517.6</ele>
        <time>2023-09-10T14:23:10.612Z</time>
      </trkpt>
      <trkpt lat="46.23492" lon="6.76511">
        <ele>1517.7</ele>
        <time>2023-09-10T14:23:11.612Z</time>
      </trkpt>
      <trkpt lat="46.23483" lon="6.76515">
        <ele>1519</ele>
        <time>2023-09-10T14:23:12.612Z</time>
      </trkpt>
      <trkpt lat="46.23474" lon="6.76523">
        <ele>1520.6</ele>
        <time>2023-09-10T14:23:13.612Z</time>
      </trkpt>
      <trkpt lat="46.23456" lon="6.76556">
        <ele>1524.1</ele>
        <time>2023-09-10T14:23:14.612Z</time>
      </trkpt>
      <trkpt lat="46.2344" lon="6.76573">
        <ele>1526.6</ele>
        <time>2023-09-10T14:23:15.612Z</time>
      </trkpt>
      <trkpt lat="46.23423" lon="6.76588">
        <ele>1528.6</ele>
        <time>2023-09-10T14:23:16.612Z</time>
      </trkpt>
      <trkpt lat="46.23393" lon="6.76623">
        <ele>1532.4</ele>
        <time>2023-09-10T14:23:17.612Z</time>
      </trkpt>
      <trkpt lat="46.23379" lon="6.76636">
        <ele>1533.6</ele>
        <time>2023-09-10T14:23:18.612Z</time>
      </trkpt>
      <trkpt lat="46.2337" lon="6.76639">
        <ele>1534.4</ele>
        <time>2023-09-10T14:23:19.612Z</time>
      </trkpt>
      <trkpt lat="46.23311" lon="6.76645">
        <ele>1539.2</ele>
        <time>2023-09-10T14:23:20.612Z</time>
      </trkpt>
      <trkpt lat="46.23302" lon="6.76641">
        <ele>1540</ele>
        <time>2023-09-10T14:23:21.612Z</time>
      </trkpt>
      <trkpt lat="46.23299" lon="6.76629">
        <ele>1540.8</ele>
        <time>2023-09-10T14:23:22.612Z</time>
      </trkpt>
      <trkpt lat="46.23301" lon="6.7662">
        <ele>1541.2</ele>
        <time>2023-09-10T14:23:23.612Z</time>
      </trkpt>
      <trkpt lat="46.23309" lon="6.76609">
        <ele>1541.3</ele>
        <time>2023-09-10T14:23:24.612Z</time>
      </trkpt>
      <trkpt lat="46.23328" lon="6.76596">
        <ele>1541.9</ele>
        <time>2023-09-10T14:23:25.612Z</time>
      </trkpt>
      <trkpt lat="46.23345" lon="6.76579">
        <ele>1542.6</ele>
        <time>2023-09-10T14:23:26.612Z</time>
      </trkpt>
      <trkpt lat="46.2338" lon="6.76529">
        <ele>1548.6</ele>
        <time>2023-09-10T14:23:27.612Z</time>
      </trkpt>
      <trkpt lat="46.23393" lon="6.76509">
        <ele>1549</ele>
        <time>2023-09-10T14:23:28.612Z</time>
      </trkpt>
      <trkpt lat="46.23397" lon="6.76497">
        <ele>1549.3</ele>
        <time>2023-09-10T14:23:29.612Z</time>
      </trkpt>
      <trkpt lat="46.23396" lon="6.76485">
        <ele>1550.4</ele>
        <time>2023-09-10T14:23:30.612Z</time>
      </trkpt>
      <trkpt lat="46.23386" lon="6.76482">
        <ele>1554.2</ele>
        <time>2023-09-10T14:23:31.612Z</time>
      </trkpt>
      <trkpt lat="46.23373" lon="6.76502">
        <ele>1554.5</ele>
        <time>2023-09-10T14:23:32.612Z</time>
      </trkpt>
      <trkpt lat="46.23365" lon="6.7651">
        <ele>1554.8</ele>
        <time>2023-09-10T14:23:33.612Z</time>
      </trkpt>
      <trkpt lat="46.23355" lon="6.76514">
        <ele>1555.9</ele>
        <time>2023-09-10T14:23:34.612Z</time>
      </trkpt>
      <trkpt lat="46.23346" lon="6.76515">
        <ele>1557</ele>
        <time>2023-09-10T14:23:35.612Z</time>
      </trkpt>
      <trkpt lat="46.23327" lon="6.7651">
        <ele>1560</ele>
        <time>2023-09-10T14:23:36.612Z</time>
      </trkpt>
      <trkpt lat="46.23307" lon="6.76507">
        <ele>1561.7</ele>
        <time>2023-09-10T14:23:37.612Z</time>
      </trkpt>
      <trkpt lat="46.23298" lon="6.76502">
        <ele>1562.2</ele>
        <time>2023-09-10T14:23:38.612Z</time>
      </trkpt>
      <trkpt lat="46.23283" lon="6.76488">
        <ele>1564.6</ele>
        <time>2023-09-10T14:23:39.612Z</time>
      </trkpt>
      <trkpt lat="46.23237" lon="6.76437">
        <ele>1570.4</ele>
        <time>2023-09-10T14:23:40.612Z</time>
      </trkpt>
      <trkpt lat="46.23231" lon="6.76428">
        <ele>1571.7</ele>
        <time>2023-09-10T14:23:41.612Z</time>
      </trkpt>
      <trkpt lat="46.23226" lon="6.76416">
        <ele>1573.3</ele>
        <time>2023-09-10T14:23:42.612Z</time>
      </trkpt>
      <trkpt lat="46.23222" lon="6.76395">
        <ele>1573.8</ele>
        <time>2023-09-10T14:23:43.612Z</time>
      </trkpt>
      <trkpt lat="46.23212" lon="6.76396">
        <ele>1573.9</ele>
        <time>2023-09-10T14:23:44.612Z</time>
      </trkpt>
      <trkpt lat="46.23201" lon="6.76405">
        <ele>1573.3</ele>
        <time>2023-09-10T14:23:45.612Z</time>
      </trkpt>
      <trkpt lat="46.2319" lon="6.76409">
        <ele>1573.4</ele>
        <time>2023-09-10T14:23:46.612Z</time>
      </trkpt>
      <trkpt lat="46.23181" lon="6.76408">
        <ele>1574.8</ele>
        <time>2023-09-10T14:23:47.612Z</time>
      </trkpt>
      <trkpt lat="46.23171" lon="6.76411">
        <ele>1575.7</ele>
        <time>2023-09-10T14:23:48.612Z</time>
      </trkpt>
      <trkpt lat="46.23165" lon="6.7643">
        <ele>1576</ele>
        <time>2023-09-10T14:23:49.612Z</time>
      </trkpt>
      <trkpt lat="46.23163" lon="6.76474">
        <ele>1579.8</ele>
        <time>2023-09-10T14:23:50.612Z</time>
      </trkpt>
      <trkpt lat="46.23159" lon="6.76496">
        <ele>1582.7</ele>
        <time>2023-09-10T14:23:51.612Z</time>
      </trkpt>
      <trkpt lat="46.23131" lon="6.76574">
        <ele>1592.7</ele>
        <time>2023-09-10T14:23:52.612Z</time>
      </trkpt>
      <trkpt lat="46.23122" lon="6.76612">
        <ele>1595.6</ele>
        <time>2023-09-10T14:23:53.612Z</time>
      </trkpt>
      <trkpt lat="46.23122" lon="6.76662">
        <ele>1599.3</ele>
        <time>2023-09-10T14:23:54.612Z</time>
      </trkpt>
      <trkpt lat="46.23124" lon="6.76681">
        <ele>1600.4</ele>
        <time>2023-09-10T14:23:55.612Z</time>
      </trkpt>
      <trkpt lat="46.23118" lon="6.76728">
        <ele>1607.4</ele>
        <time>2023-09-10T14:23:56.612Z</time>
      </trkpt>
      <trkpt lat="46.23117" lon="6.76775">
        <ele>1613.6</ele>
        <time>2023-09-10T14:23:57.612Z</time>
      </trkpt>
      <trkpt lat="46.23114" lon="6.76804">
        <ele>1618.7</ele>
        <time>2023-09-10T14:23:58.612Z</time>
      </trkpt>
      <trkpt lat="46.23115" lon="6.76823">
        <ele>1620.7</ele>
        <time>2023-09-10T14:23:59.612Z</time>
      </trkpt>
      <trkpt lat="46.23128" lon="6.76841">
        <ele>1620.1</ele>
        <time>2023-09-10T14:24:00.612Z</time>
      </trkpt>
      <trkpt lat="46.23138" lon="6.76868">
        <ele>1623.6</ele>
        <time>2023-09-10T14:24:01.612Z</time>
      </trkpt>
      <trkpt lat="46.23141" lon="6.76898">
        <ele>1624.3</ele>
        <time>2023-09-10T14:24:02.612Z</time>
      </trkpt>
      <trkpt lat="46.23136" lon="6.76935">
        <ele>1627</ele>
        <time>2023-09-10T14:24:03.612Z</time>
      </trkpt>
      <trkpt lat="46.23117" lon="6.76975">
        <ele>1631.4</ele>
        <time>2023-09-10T14:24:04.612Z</time>
      </trkpt>
      <trkpt lat="46.23117" lon="6.76986">
        <ele>1632.8</ele>
        <time>2023-09-10T14:24:05.612Z</time>
      </trkpt>
      <trkpt lat="46.23136" lon="6.76997">
        <ele>1632.3</ele>
        <time>2023-09-10T14:24:06.612Z</time>
      </trkpt>
      <trkpt lat="46.23142" lon="6.77008">
        <ele>1633.6</ele>
        <time>2023-09-10T14:24:07.612Z</time>
      </trkpt>
      <trkpt lat="46.23151" lon="6.77031">
        <ele>1634.1</ele>
        <time>2023-09-10T14:24:08.612Z</time>
      </trkpt>
      <trkpt lat="46.23149" lon="6.7705">
        <ele>1635.2</ele>
        <time>2023-09-10T14:24:09.612Z</time>
      </trkpt>
      <trkpt lat="46.23144" lon="6.7706">
        <ele>1636.6</ele>
        <time>2023-09-10T14:24:10.612Z</time>
      </trkpt>
      <trkpt lat="46.23113" lon="6.77089">
        <ele>1641.5</ele>
        <time>2023-09-10T14:24:11.612Z</time>
      </trkpt>
      <trkpt lat="46.23095" lon="6.77102">
        <ele>1643.2</ele>
        <time>2023-09-10T14:24:12.612Z</time>
      </trkpt>
      <trkpt lat="46.23076" lon="6.77111">
        <ele>1646.1</ele>
        <time>2023-09-10T14:24:13.612Z</time>
      </trkpt>
      <trkpt lat="46.23057" lon="6.77137">
        <ele>1645.9</ele>
        <time>2023-09-10T14:24:14.612Z</time>
      </trkpt>
      <trkpt lat="46.23042" lon="6.77151">
        <ele>1646.8</ele>
        <time>2023-09-10T14:24:15.612Z</time>
      </trkpt>
      <trkpt lat="46.23023" lon="6.77161">
        <ele>1649.2</ele>
        <time>2023-09-10T14:24:16.612Z</time>
      </trkpt>
      <trkpt lat="46.23003" lon="6.77174">
        <ele>1651</ele>
        <time>2023-09-10T14:24:17.612Z</time>
      </trkpt>
      <trkpt lat="46.22973" lon="6.77188">
        <ele>1654.8</ele>
        <time>2023-09-10T14:24:18.612Z</time>
      </trkpt>
      <trkpt lat="46.22967" lon="6.77195">
        <ele>1655.7</ele>
        <time>2023-09-10T14:24:19.612Z</time>
      </trkpt>
      <trkpt lat="46.2296" lon="6.77214">
        <ele>1657.6</ele>
        <time>2023-09-10T14:24:20.612Z</time>
      </trkpt>
      <trkpt lat="46.22956" lon="6.77234">
        <ele>1659.1</ele>
        <time>2023-09-10T14:24:21.612Z</time>
      </trkpt>
      <trkpt lat="46.22955" lon="6.77263">
        <ele>1660.5</ele>
        <time>2023-09-10T14:24:22.612Z</time>
      </trkpt>
      <trkpt lat="46.2295" lon="6.77318">
        <ele>1663.4</ele>
        <time>2023-09-10T14:24:23.612Z</time>
      </trkpt>
      <trkpt lat="46.22951" lon="6.77329">
        <ele>1662.9</ele>
        <time>2023-09-10T14:24:24.612Z</time>
      </trkpt>
      <trkpt lat="46.22966" lon="6.77357">
        <ele>1663.4</ele>
        <time>2023-09-10T14:24:25.612Z</time>
      </trkpt>
      <trkpt lat="46.22956" lon="6.77358">
        <ele>1662.8</ele>
        <time>2023-09-10T14:24:26.612Z</time>
      </trkpt>
      <trkpt lat="46.22948" lon="6.77353">
        <ele>1662.4</ele>
        <time>2023-09-10T14:24:27.612Z</time>
      </trkpt>
      <trkpt lat="46.22941" lon="6.77344">
        <ele>1662.5</ele>
        <time>2023-09-10T14:24:28.612Z</time>
      </trkpt>
      <trkpt lat="46.22932" lon="6.77326">
        <ele>1664</ele>
        <time>2023-09-10T14:24:29.612Z</time>
      </trkpt>
      <trkpt lat="46.22926" lon="6.77318">
        <ele>1665.6</ele>
        <time>2023-09-10T14:24:30.612Z</time>
      </trkpt>
      <trkpt lat="46.22917" lon="6.7731">
        <ele>1668</ele>
        <time>2023-09-10T14:24:31.612Z</time>
      </trkpt>
      <trkpt lat="46.22904" lon="6.77293">
        <ele>1672.1</ele>
        <time>2023-09-10T14:24:32.612Z</time>
      </trkpt>
      <trkpt lat="46.22874" lon="6.77292">
        <ele>1672.6</ele>
        <time>2023-09-10T14:24:33.612Z</time>
      </trkpt>
      <trkpt lat="46.22863" lon="6.77289">
        <ele>1673.4</ele>
        <time>2023-09-10T14:24:34.612Z</time>
      </trkpt>
      <trkpt lat="46.22834" lon="6.77287">
        <ele>1674.3</ele>
        <time>2023-09-10T14:24:35.612Z</time>
      </trkpt>
      <trkpt lat="46.22825" lon="6.77284">
        <ele>1675.2</ele>
        <time>2023-09-10T14:24:36.612Z</time>
      </trkpt>
      <trkpt lat="46.22816" lon="6.77267">
        <ele>1677.8</ele>
        <time>2023-09-10T14:24:37.612Z</time>
      </trkpt>
      <trkpt lat="46.2281" lon="6.77259">
        <ele>1678.4</ele>
        <time>2023-09-10T14:24:38.612Z</time>
      </trkpt>
      <trkpt lat="46.228" lon="6.77262">
        <ele>1678.7</ele>
        <time>2023-09-10T14:24:39.612Z</time>
      </trkpt>
      <trkpt lat="46.22793" lon="6.77268">
        <ele>1679.2</ele>
        <time>2023-09-10T14:24:40.612Z</time>
      </trkpt>
      <trkpt lat="46.22774" lon="6.77291">
        <ele>1678.6</ele>
        <time>2023-09-10T14:24:41.612Z</time>
      </trkpt>
      <trkpt lat="46.22764" lon="6.77299">
        <ele>1678.7</ele>
        <time>2023-09-10T14:24:42.612Z</time>
      </trkpt>
      <trkpt lat="46.22731" lon="6.77299">
        <ele>1682.5</ele>
        <time>2023-09-10T14:24:43.612Z</time>
      </trkpt>
      <trkpt lat="46.22722" lon="6.77302">
        <ele>1682.8</ele>
        <time>2023-09-10T14:24:44.612Z</time>
      </trkpt>
      <trkpt lat="46.22714" lon="6.77307">
        <ele>1682.8</ele>
        <time>2023-09-10T14:24:45.612Z</time>
      </trkpt>
      <trkpt lat="46.22705" lon="6.77309">
        <ele>1683.9</ele>
        <time>2023-09-10T14:24:46.612Z</time>
      </trkpt>
      <trkpt lat="46.22699" lon="6.77316">
        <ele>1685</ele>
        <time>2023-09-10T14:24:47.612Z</time>
      </trkpt>
      <trkpt lat="46.22673" lon="6.77329">
        <ele>1686.8</ele>
        <time>2023-09-10T14:24:48.612Z</time>
      </trkpt>
      <trkpt lat="46.22666" lon="6.77335">
        <ele>1686.9</ele>
        <time>2023-09-10T14:24:49.612Z</time>
      </trkpt>
      <trkpt lat="46.22654" lon="6.77352">
        <ele>1685.4</ele>
        <time>2023-09-10T14:24:50.612Z</time>
      </trkpt>
      <trkpt lat="46.22645" lon="6.77359">
        <ele>1684.5</ele>
        <time>2023-09-10T14:24:51.612Z</time>
      </trkpt>
      <trkpt lat="46.22634" lon="6.77364">
        <ele>1683.3</ele>
        <time>2023-09-10T14:24:52.612Z</time>
      </trkpt>
      <trkpt lat="46.22624" lon="6.77371">
        <ele>1681.7</ele>
        <time>2023-09-10T14:24:53.612Z</time>
      </trkpt>
      <trkpt lat="46.22617" lon="6.77377">
        <ele>1680.4</ele>
        <time>2023-09-10T14:24:54.612Z</time>
      </trkpt>
      <trkpt lat="46.22606" lon="6.77392">
        <ele>1678.7</ele>
        <time>2023-09-10T14:24:55.612Z</time>
      </trkpt>
      <trkpt lat="46.2259" lon="6.77403">
        <ele>1677.9</ele>
        <time>2023-09-10T14:24:56.612Z</time>
      </trkpt>
      <trkpt lat="46.22584" lon="6.77411">
        <ele>1677.4</ele>
        <time>2023-09-10T14:24:57.612Z</time>
      </trkpt>
      <trkpt lat="46.22577" lon="6.77417">
        <ele>1677.6</ele>
        <time>2023-09-10T14:24:58.612Z</time>
      </trkpt>
      <trkpt lat="46.22569" lon="6.77412">
        <ele>1678.9</ele>
        <time>2023-09-10T14:24:59.612Z</time>
      </trkpt>
      <trkpt lat="46.22551" lon="6.77418">
        <ele>1680.8</ele>
        <time>2023-09-10T14:25:00.612Z</time>
      </trkpt>
      <trkpt lat="46.22524" lon="6.7742">
        <ele>1686</ele>
        <time>2023-09-10T14:25:01.612Z</time>
      </trkpt>
      <trkpt lat="46.22506" lon="6.77416">
        <ele>1689.2</ele>
        <time>2023-09-10T14:25:02.612Z</time>
      </trkpt>
      <trkpt lat="46.22491" lon="6.77405">
        <ele>1692.7</ele>
        <time>2023-09-10T14:25:03.612Z</time>
      </trkpt>
      <trkpt lat="46.22473" lon="6.77401">
        <ele>1696.1</ele>
        <time>2023-09-10T14:25:04.612Z</time>
      </trkpt>
      <trkpt lat="46.22464" lon="6.77404">
        <ele>1698.7</ele>
        <time>2023-09-10T14:25:05.612Z</time>
      </trkpt>
      <trkpt lat="46.224" lon="6.77411">
        <ele>1712.6</ele>
        <time>2023-09-10T14:25:06.612Z</time>
      </trkpt>
      <trkpt lat="46.22373" lon="6.77421">
        <ele>1712.3</ele>
        <time>2023-09-10T14:25:07.612Z</time>
      </trkpt>
      <trkpt lat="46.22364" lon="6.77422">
        <ele>1712.7</ele>
        <time>2023-09-10T14:25:08.612Z</time>
      </trkpt>
      <trkpt lat="46.22355" lon="6.77427">
        <ele>1714.1</ele>
        <time>2023-09-10T14:25:09.612Z</time>
      </trkpt>
      <trkpt lat="46.22347" lon="6.77432">
        <ele>1715.7</ele>
        <time>2023-09-10T14:25:10.612Z</time>
      </trkpt>
      <trkpt lat="46.22328" lon="6.77452">
        <ele>1720</ele>
        <time>2023-09-10T14:25:11.612Z</time>
      </trkpt>
      <trkpt lat="46.22299" lon="6.77469">
        <ele>1730</ele>
        <time>2023-09-10T14:25:12.612Z</time>
      </trkpt>
      <trkpt lat="46.2229" lon="6.77483">
        <ele>1733.2</ele>
        <time>2023-09-10T14:25:13.612Z</time>
      </trkpt>
      <trkpt lat="46.22281" lon="6.77484">
        <ele>1736</ele>
        <time>2023-09-10T14:25:14.612Z</time>
      </trkpt>
      <trkpt lat="46.22264" lon="6.77473">
        <ele>1740.5</ele>
        <time>2023-09-10T14:25:15.612Z</time>
      </trkpt>
      <trkpt lat="46.2226" lon="6.77464">
        <ele>1741.6</ele>
        <time>2023-09-10T14:25:16.612Z</time>
      </trkpt>
      <trkpt lat="46.22152" lon="6.77432">
        <ele>1772.8</ele>
        <time>2023-09-10T14:25:17.612Z</time>
      </trkpt>
      <trkpt lat="46.22148" lon="6.77419">
        <ele>1775.7</ele>
        <time>2023-09-10T14:25:18.612Z</time>
      </trkpt>
      <trkpt lat="46.22147" lon="6.7741">
        <ele>1777.6</ele>
        <time>2023-09-10T14:25:19.612Z</time>
      </trkpt>
      <trkpt lat="46.22149" lon="6.77391">
        <ele>1780.3</ele>
        <time>2023-09-10T14:25:20.612Z</time>
      </trkpt>
      <trkpt lat="46.22154" lon="6.77382">
        <ele>1780.1</ele>
        <time>2023-09-10T14:25:21.612Z</time>
      </trkpt>
      <trkpt lat="46.22168" lon="6.77365">
        <ele>1779</ele>
        <time>2023-09-10T14:25:22.612Z</time>
      </trkpt>
      <trkpt lat="46.22184" lon="6.7735">
        <ele>1779.1</ele>
        <time>2023-09-10T14:25:23.612Z</time>
      </trkpt>
      <trkpt lat="46.22202" lon="6.77336">
        <ele>1779</ele>
        <time>2023-09-10T14:25:24.612Z</time>
      </trkpt>
      <trkpt lat="46.22225" lon="6.77311">
        <ele>1779.3</ele>
        <time>2023-09-10T14:25:25.612Z</time>
      </trkpt>
      <trkpt lat="46.22249" lon="6.77273">
        <ele>1780.7</ele>
        <time>2023-09-10T14:25:26.612Z</time>
      </trkpt>
      <trkpt lat="46.22258" lon="6.77253">
        <ele>1780.9</ele>
        <time>2023-09-10T14:25:27.612Z</time>
      </trkpt>
      <trkpt lat="46.22258" lon="6.77241">
        <ele>1781.5</ele>
        <time>2023-09-10T14:25:28.612Z</time>
      </trkpt>
      <trkpt lat="46.22256" lon="6.77231">
        <ele>1782</ele>
        <time>2023-09-10T14:25:29.612Z</time>
      </trkpt>
      <trkpt lat="46.22251" lon="6.77223">
        <ele>1782.9</ele>
        <time>2023-09-10T14:25:30.612Z</time>
      </trkpt>
      <trkpt lat="46.22242" lon="6.77216">
        <ele>1782.3</ele>
        <time>2023-09-10T14:25:31.612Z</time>
      </trkpt>
      <trkpt lat="46.22231" lon="6.77214">
        <ele>1782.3</ele>
        <time>2023-09-10T14:25:32.612Z</time>
      </trkpt>
      <trkpt lat="46.22218" lon="6.77219">
        <ele>1782.6</ele>
        <time>2023-09-10T14:25:33.612Z</time>
      </trkpt>
      <trkpt lat="46.22199" lon="6.77233">
        <ele>1781.2</ele>
        <time>2023-09-10T14:25:34.612Z</time>
      </trkpt>
      <trkpt lat="46.22159" lon="6.77267">
        <ele>1782.7</ele>
        <time>2023-09-10T14:25:35.612Z</time>
      </trkpt>
      <trkpt lat="46.22138" lon="6.77279">
        <ele>1784.1</ele>
        <time>2023-09-10T14:25:36.612Z</time>
      </trkpt>
      <trkpt lat="46.22108" lon="6.77291">
        <ele>1785.6</ele>
        <time>2023-09-10T14:25:37.612Z</time>
      </trkpt>
      <trkpt lat="46.22071" lon="6.77312">
        <ele>1787</ele>
        <time>2023-09-10T14:25:38.612Z</time>
      </trkpt>
      <trkpt lat="46.22045" lon="6.77332">
        <ele>1788.7</ele>
        <time>2023-09-10T14:25:39.612Z</time>
      </trkpt>
      <trkpt lat="46.2202" lon="6.77357">
        <ele>1791.1</ele>
        <time>2023-09-10T14:25:40.612Z</time>
      </trkpt>
      <trkpt lat="46.21993" lon="6.77389">
        <ele>1795.3</ele>
        <time>2023-09-10T14:25:41.612Z</time>
      </trkpt>
      <trkpt lat="46.21964" lon="6.77417">
        <ele>1795.7</ele>
        <time>2023-09-10T14:25:42.612Z</time>
      </trkpt>
      <trkpt lat="46.21943" lon="6.7744">
        <ele>1795.5</ele>
        <time>2023-09-10T14:25:43.612Z</time>
      </trkpt>
      <trkpt lat="46.21914" lon="6.77485">
        <ele>1798.3</ele>
        <time>2023-09-10T14:25:44.612Z</time>
      </trkpt>
      <trkpt lat="46.21894" lon="6.77513">
        <ele>1797.4</ele>
        <time>2023-09-10T14:25:45.612Z</time>
      </trkpt>
      <trkpt lat="46.21882" lon="6.77544">
        <ele>1799.3</ele>
        <time>2023-09-10T14:25:46.612Z</time>
      </trkpt>
      <trkpt lat="46.21872" lon="6.77577">
        <ele>1803.5</ele>
        <time>2023-09-10T14:25:47.612Z</time>
      </trkpt>
      <trkpt lat="46.21854" lon="6.77616">
        <ele>1806</ele>
        <time>2023-09-10T14:25:48.612Z</time>
      </trkpt>
      <trkpt lat="46.21846" lon="6.77639">
        <ele>1810</ele>
        <time>2023-09-10T14:25:49.612Z</time>
      </trkpt>
      <trkpt lat="46.21807" lon="6.77721">
        <ele>1814.3</ele>
        <time>2023-09-10T14:25:50.612Z</time>
      </trkpt>
      <trkpt lat="46.21793" lon="6.77741">
        <ele>1815</ele>
        <time>2023-09-10T14:25:51.612Z</time>
      </trkpt>
      <trkpt lat="46.21768" lon="6.77771">
        <ele>1816</ele>
        <time>2023-09-10T14:25:52.612Z</time>
      </trkpt>
      <trkpt lat="46.21742" lon="6.77795">
        <ele>1816.9</ele>
        <time>2023-09-10T14:25:53.612Z</time>
      </trkpt>
      <trkpt lat="46.21674" lon="6.77843">
        <ele>1820.9</ele>
        <time>2023-09-10T14:25:54.612Z</time>
      </trkpt>
      <trkpt lat="46.21633" lon="6.77864">
        <ele>1822.2</ele>
        <time>2023-09-10T14:25:55.612Z</time>
      </trkpt>
      <trkpt lat="46.21618" lon="6.7788">
        <ele>1823.1</ele>
        <time>2023-09-10T14:25:56.612Z</time>
      </trkpt>
      <trkpt lat="46.21572" lon="6.77944">
        <ele>1825.4</ele>
        <time>2023-09-10T14:25:57.612Z</time>
      </trkpt>
      <trkpt lat="46.21564" lon="6.77965">
        <ele>1824.3</ele>
        <time>2023-09-10T14:25:58.612Z</time>
      </trkpt>
      <trkpt lat="46.21552" lon="6.78008">
        <ele>1824.2</ele>
        <time>2023-09-10T14:25:59.612Z</time>
      </trkpt>
      <trkpt lat="46.21541" lon="6.78037">
        <ele>1822.6</ele>
        <time>2023-09-10T14:26:00.612Z</time>
      </trkpt>
      <trkpt lat="46.21515" lon="6.78152">
        <ele>1822.3</ele>
        <time>2023-09-10T14:26:01.612Z</time>
      </trkpt>
      <trkpt lat="46.21514" lon="6.78182">
        <ele>1824.7</ele>
        <time>2023-09-10T14:26:02.612Z</time>
      </trkpt>
      <trkpt lat="46.21511" lon="6.78202">
        <ele>1825.7</ele>
        <time>2023-09-10T14:26:03.612Z</time>
      </trkpt>
      <trkpt lat="46.21483" lon="6.7827">
        <ele>1825.4</ele>
        <time>2023-09-10T14:26:04.612Z</time>
      </trkpt>
      <trkpt lat="46.2147" lon="6.78292">
        <ele>1825</ele>
        <time>2023-09-10T14:26:05.612Z</time>
      </trkpt>
      <trkpt lat="46.21426" lon="6.78347">
        <ele>1826</ele>
        <time>2023-09-10T14:26:06.612Z</time>
      </trkpt>
      <trkpt lat="46.21411" lon="6.78362">
        <ele>1826.9</ele>
        <time>2023-09-10T14:26:07.612Z</time>
      </trkpt>
      <trkpt lat="46.21394" lon="6.78374">
        <ele>1826.2</ele>
        <time>2023-09-10T14:26:08.612Z</time>
      </trkpt>
      <trkpt lat="46.21387" lon="6.78381">
        <ele>1826.6</ele>
        <time>2023-09-10T14:26:09.612Z</time>
      </trkpt>
      <trkpt lat="46.21358" lon="6.78416">
        <ele>1826.1</ele>
        <time>2023-09-10T14:26:10.612Z</time>
      </trkpt>
      <trkpt lat="46.21327" lon="6.78445">
        <ele>1825.7</ele>
        <time>2023-09-10T14:26:11.612Z</time>
      </trkpt>
      <trkpt lat="46.21314" lon="6.78461">
        <ele>1826.2</ele>
        <time>2023-09-10T14:26:12.612Z</time>
      </trkpt>
      <trkpt lat="46.21306" lon="6.78468">
        <ele>1826.2</ele>
        <time>2023-09-10T14:26:13.612Z</time>
      </trkpt>
      <trkpt lat="46.21294" lon="6.78474">
        <ele>1826.1</ele>
        <time>2023-09-10T14:26:14.612Z</time>
      </trkpt>
      <trkpt lat="46.21284" lon="6.78475">
        <ele>1825.3</ele>
        <time>2023-09-10T14:26:15.612Z</time>
      </trkpt>
      <trkpt lat="46.21274" lon="6.78481">
        <ele>1825.4</ele>
        <time>2023-09-10T14:26:16.612Z</time>
      </trkpt>
      <trkpt lat="46.21265" lon="6.78484">
        <ele>1824.7</ele>
        <time>2023-09-10T14:26:17.612Z</time>
      </trkpt>
      <trkpt lat="46.21247" lon="6.78482">
        <ele>1821.5</ele>
        <time>2023-09-10T14:26:18.612Z</time>
      </trkpt>
      <trkpt lat="46.21246" lon="6.78491">
        <ele>1823.2</ele>
        <time>2023-09-10T14:26:19.612Z</time>
      </trkpt>
      <trkpt lat="46.2124" lon="6.78499">
        <ele>1823.6</ele>
        <time>2023-09-10T14:26:20.612Z</time>
      </trkpt>
      <trkpt lat="46.21225" lon="6.78511">
        <ele>1822.9</ele>
        <time>2023-09-10T14:26:21.612Z</time>
      </trkpt>
      <trkpt lat="46.21212" lon="6.78529">
        <ele>1824.7</ele>
        <time>2023-09-10T14:26:22.612Z</time>
      </trkpt>
      <trkpt lat="46.21205" lon="6.78536">
        <ele>1824.5</ele>
        <time>2023-09-10T14:26:23.612Z</time>
      </trkpt>
      <trkpt lat="46.21185" lon="6.78541">
        <ele>1820</ele>
        <time>2023-09-10T14:26:24.612Z</time>
      </trkpt>
      <trkpt lat="46.2118" lon="6.78532">
        <ele>1817.3</ele>
        <time>2023-09-10T14:26:25.612Z</time>
      </trkpt>
      <trkpt lat="46.21186" lon="6.78504">
        <ele>1814.4</ele>
        <time>2023-09-10T14:26:26.612Z</time>
      </trkpt>
      <trkpt lat="46.21188" lon="6.78482">
        <ele>1810.6</ele>
        <time>2023-09-10T14:26:27.612Z</time>
      </trkpt>
      <trkpt lat="46.21186" lon="6.78473">
        <ele>1807.8</ele>
        <time>2023-09-10T14:26:28.612Z</time>
      </trkpt>
      <trkpt lat="46.2118" lon="6.78466">
        <ele>1803.8</ele>
        <time>2023-09-10T14:26:29.612Z</time>
      </trkpt>
      <trkpt lat="46.2119" lon="6.78426">
        <ele>1798.5</ele>
        <time>2023-09-10T14:26:30.612Z</time>
      </trkpt>
      <trkpt lat="46.21184" lon="6.78418">
        <ele>1794.2</ele>
        <time>2023-09-10T14:26:31.612Z</time>
      </trkpt>
      <trkpt lat="46.21183" lon="6.78408">
        <ele>1790.8</ele>
        <time>2023-09-10T14:26:32.612Z</time>
      </trkpt>
      <trkpt lat="46.21187" lon="6.78397">
        <ele>1788.9</ele>
        <time>2023-09-10T14:26:33.612Z</time>
      </trkpt>
      <trkpt lat="46.21193" lon="6.78389">
        <ele>1788.5</ele>
        <time>2023-09-10T14:26:34.612Z</time>
      </trkpt>
      <trkpt lat="46.21201" lon="6.78383">
        <ele>1787.8</ele>
        <time>2023-09-10T14:26:35.612Z</time>
      </trkpt>
      <trkpt lat="46.212" lon="6.78374">
        <ele>1784.4</ele>
        <time>2023-09-10T14:26:36.612Z</time>
      </trkpt>
      <trkpt lat="46.21191" lon="6.78373">
        <ele>1782.2</ele>
        <time>2023-09-10T14:26:37.612Z</time>
      </trkpt>
      <trkpt lat="46.21192" lon="6.78364">
        <ele>1779.3</ele>
        <time>2023-09-10T14:26:38.612Z</time>
      </trkpt>
      <trkpt lat="46.21206" lon="6.78351">
        <ele>1777.3</ele>
        <time>2023-09-10T14:26:39.612Z</time>
      </trkpt>
      <trkpt lat="46.21213" lon="6.78342">
        <ele>1775.7</ele>
        <time>2023-09-10T14:26:40.612Z</time>
      </trkpt>
      <trkpt lat="46.21221" lon="6.78321">
        <ele>1771.2</ele>
        <time>2023-09-10T14:26:41.612Z</time>
      </trkpt>
      <trkpt lat="46.21237" lon="6.78295">
        <ele>1767</ele>
        <time>2023-09-10T14:26:42.612Z</time>
      </trkpt>
      <trkpt lat="46.21251" lon="6.78265">
        <ele>1761.1</ele>
        <time>2023-09-10T14:26:43.612Z</time>
      </trkpt>
      <trkpt lat="46.21268" lon="6.78234">
        <ele>1755.6</ele>
        <time>2023-09-10T14:26:44.612Z</time>
      </trkpt>
      <trkpt lat="46.21279" lon="6.78209">
        <ele>1750.6</ele>
        <time>2023-09-10T14:26:45.612Z</time>
      </trkpt>
      <trkpt lat="46.21282" lon="6.78198">
        <ele>1748.4</ele>
        <time>2023-09-10T14:26:46.612Z</time>
      </trkpt>
      <trkpt lat="46.21288" lon="6.78173">
        <ele>1744.7</ele>
        <time>2023-09-10T14:26:47.612Z</time>
      </trkpt>
      <trkpt lat="46.21291" lon="6.78139">
        <ele>1739.8</ele>
        <time>2023-09-10T14:26:48.612Z</time>
      </trkpt>
      <trkpt lat="46.21291" lon="6.78081">
        <ele>1730</ele>
        <time>2023-09-10T14:26:49.612Z</time>
      </trkpt>
      <trkpt lat="46.21294" lon="6.7807">
        <ele>1729.7</ele>
        <time>2023-09-10T14:26:50.612Z</time>
      </trkpt>
      <trkpt lat="46.21299" lon="6.78062">
        <ele>1730.2</ele>
        <time>2023-09-10T14:26:51.612Z</time>
      </trkpt>
      <trkpt lat="46.21305" lon="6.78042">
        <ele>1729.9</ele>
        <time>2023-09-10T14:26:52.612Z</time>
      </trkpt>
      <trkpt lat="46.21303" lon="6.78021">
        <ele>1726.9</ele>
        <time>2023-09-10T14:26:53.612Z</time>
      </trkpt>
      <trkpt lat="46.21293" lon="6.78023">
        <ele>1724</ele>
        <time>2023-09-10T14:26:54.612Z</time>
      </trkpt>
      <trkpt lat="46.21288" lon="6.78012">
        <ele>1720.1</ele>
        <time>2023-09-10T14:26:55.612Z</time>
      </trkpt>
      <trkpt lat="46.21281" lon="6.78005">
        <ele>1716.2</ele>
        <time>2023-09-10T14:26:56.612Z</time>
      </trkpt>
      <trkpt lat="46.21278" lon="6.77996">
        <ele>1713.1</ele>
        <time>2023-09-10T14:26:57.612Z</time>
      </trkpt>
      <trkpt lat="46.21284" lon="6.77986">
        <ele>1712.6</ele>
        <time>2023-09-10T14:26:58.612Z</time>
      </trkpt>
      <trkpt lat="46.21291" lon="6.77979">
        <ele>1713.1</ele>
        <time>2023-09-10T14:26:59.612Z</time>
      </trkpt>
      <trkpt lat="46.21305" lon="6.77953">
        <ele>1710.3</ele>
        <time>2023-09-10T14:27:00.612Z</time>
      </trkpt>
      <trkpt lat="46.21312" lon="6.77932">
        <ele>1706.9</ele>
        <time>2023-09-10T14:27:01.612Z</time>
      </trkpt>
      <trkpt lat="46.2132" lon="6.77914">
        <ele>1705.4</ele>
        <time>2023-09-10T14:27:02.612Z</time>
      </trkpt>
      <trkpt lat="46.2132" lon="6.77896">
        <ele>1700.3</ele>
        <time>2023-09-10T14:27:03.612Z</time>
      </trkpt>
      <trkpt lat="46.21325" lon="6.77878">
        <ele>1696.5</ele>
        <time>2023-09-10T14:27:04.612Z</time>
      </trkpt>
      <trkpt lat="46.21352" lon="6.77815">
        <ele>1685.9</ele>
        <time>2023-09-10T14:27:05.612Z</time>
      </trkpt>
      <trkpt lat="46.21364" lon="6.77793">
        <ele>1683.9</ele>
        <time>2023-09-10T14:27:06.612Z</time>
      </trkpt>
      <trkpt lat="46.21379" lon="6.7776">
        <ele>1679.2</ele>
        <time>2023-09-10T14:27:07.612Z</time>
      </trkpt>
      <trkpt lat="46.21395" lon="6.77718">
        <ele>1672.5</ele>
        <time>2023-09-10T14:27:08.612Z</time>
      </trkpt>
      <trkpt lat="46.21386" lon="6.77716">
        <ele>1667.8</ele>
        <time>2023-09-10T14:27:09.612Z</time>
      </trkpt>
      <trkpt lat="46.21361" lon="6.77735">
        <ele>1663.1</ele>
        <time>2023-09-10T14:27:10.612Z</time>
      </trkpt>
      <trkpt lat="46.21359" lon="6.77726">
        <ele>1659.3</ele>
        <time>2023-09-10T14:27:11.612Z</time>
      </trkpt>
      <trkpt lat="46.21376" lon="6.77676">
        <ele>1651.2</ele>
        <time>2023-09-10T14:27:12.612Z</time>
      </trkpt>
      <trkpt lat="46.21381" lon="6.77657">
        <ele>1647.1</ele>
        <time>2023-09-10T14:27:13.612Z</time>
      </trkpt>
      <trkpt lat="46.21368" lon="6.77663">
        <ele>1644.4</ele>
        <time>2023-09-10T14:27:14.612Z</time>
      </trkpt>
      <trkpt lat="46.21345" lon="6.77682">
        <ele>1640.7</ele>
        <time>2023-09-10T14:27:15.612Z</time>
      </trkpt>
      <trkpt lat="46.21337" lon="6.77676">
        <ele>1635.8</ele>
        <time>2023-09-10T14:27:16.612Z</time>
      </trkpt>
      <trkpt lat="46.21356" lon="6.77625">
        <ele>1628.7</ele>
        <time>2023-09-10T14:27:17.612Z</time>
      </trkpt>
      <trkpt lat="46.21344" lon="6.7763">
        <ele>1625.7</ele>
        <time>2023-09-10T14:27:18.612Z</time>
      </trkpt>
      <trkpt lat="46.21319" lon="6.77652">
        <ele>1622.6</ele>
        <time>2023-09-10T14:27:19.612Z</time>
      </trkpt>
      <trkpt lat="46.21281" lon="6.77677">
        <ele>1616.2</ele>
        <time>2023-09-10T14:27:20.612Z</time>
      </trkpt>
      <trkpt lat="46.21271" lon="6.77682">
        <ele>1614.1</ele>
        <time>2023-09-10T14:27:21.612Z</time>
      </trkpt>
      <trkpt lat="46.21252" lon="6.77696">
        <ele>1610.9</ele>
        <time>2023-09-10T14:27:22.612Z</time>
      </trkpt>
      <trkpt lat="46.21235" lon="6.77711">
        <ele>1609.3</ele>
        <time>2023-09-10T14:27:23.612Z</time>
      </trkpt>
      <trkpt lat="46.21226" lon="6.77706">
        <ele>1605.9</ele>
        <time>2023-09-10T14:27:24.612Z</time>
      </trkpt>
      <trkpt lat="46.21227" lon="6.77697">
        <ele>1604</ele>
        <time>2023-09-10T14:27:25.612Z</time>
      </trkpt>
      <trkpt lat="46.21222" lon="6.77689">
        <ele>1600.4</ele>
        <time>2023-09-10T14:27:26.612Z</time>
      </trkpt>
      <trkpt lat="46.21206" lon="6.77684">
        <ele>1594.9</ele>
        <time>2023-09-10T14:27:27.612Z</time>
      </trkpt>
      <trkpt lat="46.21186" lon="6.77684">
        <ele>1590.3</ele>
        <time>2023-09-10T14:27:28.612Z</time>
      </trkpt>
      <trkpt lat="46.21176" lon="6.77687">
        <ele>1589</ele>
        <time>2023-09-10T14:27:29.612Z</time>
      </trkpt>
      <trkpt lat="46.21165" lon="6.77694">
        <ele>1588.6</ele>
        <time>2023-09-10T14:27:30.612Z</time>
      </trkpt>
      <trkpt lat="46.21154" lon="6.77698">
        <ele>1587.5</ele>
        <time>2023-09-10T14:27:31.612Z</time>
      </trkpt>
      <trkpt lat="46.21133" lon="6.77694">
        <ele>1582.9</ele>
        <time>2023-09-10T14:27:32.612Z</time>
      </trkpt>
      <trkpt lat="46.21124" lon="6.77694">
        <ele>1581.3</ele>
        <time>2023-09-10T14:27:33.612Z</time>
      </trkpt>
      <trkpt lat="46.21115" lon="6.77697">
        <ele>1580.1</ele>
        <time>2023-09-10T14:27:34.612Z</time>
      </trkpt>
      <trkpt lat="46.21106" lon="6.77703">
        <ele>1579.2</ele>
        <time>2023-09-10T14:27:35.612Z</time>
      </trkpt>
      <trkpt lat="46.2107" lon="6.77741">
        <ele>1577.6</ele>
        <time>2023-09-10T14:27:36.612Z</time>
      </trkpt>
      <trkpt lat="46.21058" lon="6.77749">
        <ele>1576.3</ele>
        <time>2023-09-10T14:27:37.612Z</time>
      </trkpt>
      <trkpt lat="46.21037" lon="6.77752">
        <ele>1575.4</ele>
        <time>2023-09-10T14:27:38.612Z</time>
      </trkpt>
      <trkpt lat="46.2103" lon="6.77746">
        <ele>1574.4</ele>
        <time>2023-09-10T14:27:39.612Z</time>
      </trkpt>
      <trkpt lat="46.21026" lon="6.77736">
        <ele>1572.3</ele>
        <time>2023-09-10T14:27:40.612Z</time>
      </trkpt>
      <trkpt lat="46.21023" lon="6.77717">
        <ele>1568.3</ele>
        <time>2023-09-10T14:27:41.612Z</time>
      </trkpt>
      <trkpt lat="46.21026" lon="6.77706">
        <ele>1566.2</ele>
        <time>2023-09-10T14:27:42.612Z</time>
      </trkpt>
      <trkpt lat="46.2104" lon="6.77681">
        <ele>1562.1</ele>
        <time>2023-09-10T14:27:43.612Z</time>
      </trkpt>
      <trkpt lat="46.21043" lon="6.77672">
        <ele>1560.2</ele>
        <time>2023-09-10T14:27:44.612Z</time>
      </trkpt>
      <trkpt lat="46.21036" lon="6.77666">
        <ele>1557.3</ele>
        <time>2023-09-10T14:27:45.612Z</time>
      </trkpt>
      <trkpt lat="46.21021" lon="6.77668">
        <ele>1554.9</ele>
        <time>2023-09-10T14:27:46.612Z</time>
      </trkpt>
      <trkpt lat="46.21002" lon="6.77662">
        <ele>1549.1</ele>
        <time>2023-09-10T14:27:47.612Z</time>
      </trkpt>
      <trkpt lat="46.20971" lon="6.7767">
        <ele>1543.6</ele>
        <time>2023-09-10T14:27:48.612Z</time>
      </trkpt>
      <trkpt lat="46.20949" lon="6.77671">
        <ele>1537.3</ele>
        <time>2023-09-10T14:27:49.612Z</time>
      </trkpt>
      <trkpt lat="46.20923" lon="6.77692">
        <ele>1533</ele>
        <time>2023-09-10T14:27:50.612Z</time>
      </trkpt>
      <trkpt lat="46.20919" lon="6.77682">
        <ele>1530.8</ele>
        <time>2023-09-10T14:27:51.612Z</time>
      </trkpt>
      <trkpt lat="46.20921" lon="6.77661">
        <ele>1529.6</ele>
        <time>2023-09-10T14:27:52.612Z</time>
      </trkpt>
      <trkpt lat="46.2092" lon="6.77652">
        <ele>1529</ele>
        <time>2023-09-10T14:27:53.612Z</time>
      </trkpt>
      <trkpt lat="46.2091" lon="6.77651">
        <ele>1526</ele>
        <time>2023-09-10T14:27:54.612Z</time>
      </trkpt>
      <trkpt lat="46.20901" lon="6.77658">
        <ele>1523.5</ele>
        <time>2023-09-10T14:27:55.612Z</time>
      </trkpt>
      <trkpt lat="46.20887" lon="6.77674">
        <ele>1520.3</ele>
        <time>2023-09-10T14:27:56.612Z</time>
      </trkpt>
      <trkpt lat="46.20869" lon="6.77703">
        <ele>1516.8</ele>
        <time>2023-09-10T14:27:57.612Z</time>
      </trkpt>
      <trkpt lat="46.20855" lon="6.77718">
        <ele>1514.5</ele>
        <time>2023-09-10T14:27:58.612Z</time>
      </trkpt>
      <trkpt lat="46.20849" lon="6.77728">
        <ele>1513.8</ele>
        <time>2023-09-10T14:27:59.612Z</time>
      </trkpt>
      <trkpt lat="46.20843" lon="6.77748">
        <ele>1514.8</ele>
        <time>2023-09-10T14:28:00.612Z</time>
      </trkpt>
      <trkpt lat="46.20834" lon="6.77767">
        <ele>1514.4</ele>
        <time>2023-09-10T14:28:01.612Z</time>
      </trkpt>
      <trkpt lat="46.20825" lon="6.77794">
        <ele>1515</ele>
        <time>2023-09-10T14:28:02.612Z</time>
      </trkpt>
      <trkpt lat="46.20809" lon="6.77824">
        <ele>1512.3</ele>
        <time>2023-09-10T14:28:03.612Z</time>
      </trkpt>
      <trkpt lat="46.20804" lon="6.77845">
        <ele>1512.4</ele>
        <time>2023-09-10T14:28:04.612Z</time>
      </trkpt>
      <trkpt lat="46.208" lon="6.77855">
        <ele>1512.2</ele>
        <time>2023-09-10T14:28:05.612Z</time>
      </trkpt>
      <trkpt lat="46.2078" lon="6.77877">
        <ele>1509.2</ele>
        <time>2023-09-10T14:28:06.612Z</time>
      </trkpt>
      <trkpt lat="46.20767" lon="6.77898">
        <ele>1508.8</ele>
        <time>2023-09-10T14:28:07.612Z</time>
      </trkpt>
      <trkpt lat="46.2076" lon="6.77904">
        <ele>1508.2</ele>
        <time>2023-09-10T14:28:08.612Z</time>
      </trkpt>
      <trkpt lat="46.20754" lon="6.77897">
        <ele>1506.6</ele>
        <time>2023-09-10T14:28:09.612Z</time>
      </trkpt>
      <trkpt lat="46.20755" lon="6.77883">
        <ele>1505.4</ele>
        <time>2023-09-10T14:28:10.612Z</time>
      </trkpt>
      <trkpt lat="46.20773" lon="6.77799">
        <ele>1501.2</ele>
        <time>2023-09-10T14:28:11.612Z</time>
      </trkpt>
      <trkpt lat="46.2078" lon="6.77775">
        <ele>1500.1</ele>
        <time>2023-09-10T14:28:12.612Z</time>
      </trkpt>
      <trkpt lat="46.20812" lon="6.77685">
        <ele>1497.2</ele>
        <time>2023-09-10T14:28:13.612Z</time>
      </trkpt>
      <trkpt lat="46.20831" lon="6.77638">
        <ele>1495</ele>
        <time>2023-09-10T14:28:14.612Z</time>
      </trkpt>
      <trkpt lat="46.20851" lon="6.77575">
        <ele>1494.6</ele>
        <time>2023-09-10T14:28:15.612Z</time>
      </trkpt>
      <trkpt lat="46.20856" lon="6.77565">
        <ele>1494.8</ele>
        <time>2023-09-10T14:28:16.612Z</time>
      </trkpt>
      <trkpt lat="46.20864" lon="6.77554">
        <ele>1495.4</ele>
        <time>2023-09-10T14:28:17.612Z</time>
      </trkpt>
      <trkpt lat="46.20873" lon="6.77547">
        <ele>1496.6</ele>
        <time>2023-09-10T14:28:18.612Z</time>
      </trkpt>
      <trkpt lat="46.20884" lon="6.77543">
        <ele>1497.9</ele>
        <time>2023-09-10T14:28:19.612Z</time>
      </trkpt>
      <trkpt lat="46.20893" lon="6.77537">
        <ele>1499</ele>
        <time>2023-09-10T14:28:20.612Z</time>
      </trkpt>
      <trkpt lat="46.20901" lon="6.77529">
        <ele>1498.7</ele>
        <time>2023-09-10T14:28:21.612Z</time>
      </trkpt>
      <trkpt lat="46.20914" lon="6.77495">
        <ele>1489.1</ele>
        <time>2023-09-10T14:28:22.612Z</time>
      </trkpt>
      <trkpt lat="46.20922" lon="6.7748">
        <ele>1487.1</ele>
        <time>2023-09-10T14:28:23.612Z</time>
      </trkpt>
      <trkpt lat="46.20951" lon="6.77446">
        <ele>1482.4</ele>
        <time>2023-09-10T14:28:24.612Z</time>
      </trkpt>
      <trkpt lat="46.20961" lon="6.77438">
        <ele>1480.6</ele>
        <time>2023-09-10T14:28:25.612Z</time>
      </trkpt>
      <trkpt lat="46.20973" lon="6.77436">
        <ele>1480.4</ele>
        <time>2023-09-10T14:28:26.612Z</time>
      </trkpt>
      <trkpt lat="46.21005" lon="6.77442">
        <ele>1477.7</ele>
        <time>2023-09-10T14:28:27.612Z</time>
      </trkpt>
      <trkpt lat="46.21014" lon="6.77442">
        <ele>1477.4</ele>
        <time>2023-09-10T14:28:28.612Z</time>
      </trkpt>
      <trkpt lat="46.21023" lon="6.77439">
        <ele>1476.8</ele>
        <time>2023-09-10T14:28:29.612Z</time>
      </trkpt>
      <trkpt lat="46.21056" lon="6.77424">
        <ele>1474.3</ele>
        <time>2023-09-10T14:28:30.612Z</time>
      </trkpt>
      <trkpt lat="46.21076" lon="6.77413">
        <ele>1472.8</ele>
        <time>2023-09-10T14:28:31.612Z</time>
      </trkpt>
      <trkpt lat="46.21089" lon="6.774">
        <ele>1472</ele>
        <time>2023-09-10T14:28:32.612Z</time>
      </trkpt>
      <trkpt lat="46.21096" lon="6.77389">
        <ele>1471</ele>
        <time>2023-09-10T14:28:33.612Z</time>
      </trkpt>
      <trkpt lat="46.21098" lon="6.77379">
        <ele>1470.3</ele>
        <time>2023-09-10T14:28:34.612Z</time>
      </trkpt>
      <trkpt lat="46.21094" lon="6.77363">
        <ele>1468.9</ele>
        <time>2023-09-10T14:28:35.612Z</time>
      </trkpt>
      <trkpt lat="46.21085" lon="6.77356">
        <ele>1466.5</ele>
        <time>2023-09-10T14:28:36.612Z</time>
      </trkpt>
      <trkpt lat="46.21076" lon="6.77353">
        <ele>1465</ele>
        <time>2023-09-10T14:28:37.612Z</time>
      </trkpt>
      <trkpt lat="46.2104" lon="6.77355">
        <ele>1463.7</ele>
        <time>2023-09-10T14:28:38.612Z</time>
      </trkpt>
      <trkpt lat="46.2103" lon="6.77352">
        <ele>1462.8</ele>
        <time>2023-09-10T14:28:39.612Z</time>
      </trkpt>
      <trkpt lat="46.21019" lon="6.77344">
        <ele>1461.2</ele>
        <time>2023-09-10T14:28:40.612Z</time>
      </trkpt>
      <trkpt lat="46.21012" lon="6.77335">
        <ele>1459.7</ele>
        <time>2023-09-10T14:28:41.612Z</time>
      </trkpt>
      <trkpt lat="46.2101" lon="6.77323">
        <ele>1457.3</ele>
        <time>2023-09-10T14:28:42.612Z</time>
      </trkpt>
      <trkpt lat="46.21015" lon="6.77312">
        <ele>1455.8</ele>
        <time>2023-09-10T14:28:43.612Z</time>
      </trkpt>
      <trkpt lat="46.21024" lon="6.77304">
        <ele>1455.6</ele>
        <time>2023-09-10T14:28:44.612Z</time>
      </trkpt>
      <trkpt lat="46.21047" lon="6.77293">
        <ele>1451.5</ele>
        <time>2023-09-10T14:28:45.612Z</time>
      </trkpt>
      <trkpt lat="46.21056" lon="6.77291">
        <ele>1451.3</ele>
        <time>2023-09-10T14:28:46.612Z</time>
      </trkpt>
      <trkpt lat="46.21065" lon="6.77284">
        <ele>1449.8</ele>
        <time>2023-09-10T14:28:47.612Z</time>
      </trkpt>
      <trkpt lat="46.21072" lon="6.77277">
        <ele>1448.8</ele>
        <time>2023-09-10T14:28:48.612Z</time>
      </trkpt>
      <trkpt lat="46.21064" lon="6.77282">
        <ele>1449.4</ele>
        <time>2023-09-10T14:28:49.612Z</time>
      </trkpt>
      <trkpt lat="46.21064" lon="6.77268">
        <ele>1443.3</ele>
        <time>2023-09-10T14:28:50.612Z</time>
      </trkpt>
      <trkpt lat="46.2107" lon="6.77261">
        <ele>1440.7</ele>
        <time>2023-09-10T14:28:51.612Z</time>
      </trkpt>
      <trkpt lat="46.21081" lon="6.77256">
        <ele>1440.8</ele>
        <time>2023-09-10T14:28:52.612Z</time>
      </trkpt>
      <trkpt lat="46.21091" lon="6.77254">
        <ele>1440.3</ele>
        <time>2023-09-10T14:28:53.612Z</time>
      </trkpt>
      <trkpt lat="46.21108" lon="6.77243">
        <ele>1434.6</ele>
        <time>2023-09-10T14:28:54.612Z</time>
      </trkpt>
      <trkpt lat="46.21123" lon="6.77228">
        <ele>1430.7</ele>
        <time>2023-09-10T14:28:55.612Z</time>
      </trkpt>
      <trkpt lat="46.21143" lon="6.77203">
        <ele>1427.1</ele>
        <time>2023-09-10T14:28:56.612Z</time>
      </trkpt>
      <trkpt lat="46.21166" lon="6.77181">
        <ele>1425</ele>
        <time>2023-09-10T14:28:57.612Z</time>
      </trkpt>
      <trkpt lat="46.21172" lon="6.77173">
        <ele>1423</ele>
        <time>2023-09-10T14:28:58.612Z</time>
      </trkpt>
      <trkpt lat="46.21206" lon="6.77147">
        <ele>1414.6</ele>
        <time>2023-09-10T14:28:59.612Z</time>
      </trkpt>
      <trkpt lat="46.21232" lon="6.77132">
        <ele>1405.8</ele>
        <time>2023-09-10T14:29:00.612Z</time>
      </trkpt>
      <trkpt lat="46.21242" lon="6.77128">
        <ele>1403.3</ele>
        <time>2023-09-10T14:29:01.612Z</time>
      </trkpt>
      <trkpt lat="46.21296" lon="6.77115">
        <ele>1394.5</ele>
        <time>2023-09-10T14:29:02.612Z</time>
      </trkpt>
      <trkpt lat="46.21294" lon="6.77106">
        <ele>1389.3</ele>
        <time>2023-09-10T14:29:03.612Z</time>
      </trkpt>
      <trkpt lat="46.21295" lon="6.77097">
        <ele>1385.3</ele>
        <time>2023-09-10T14:29:04.612Z</time>
      </trkpt>
      <trkpt lat="46.21303" lon="6.77091">
        <ele>1383.2</ele>
        <time>2023-09-10T14:29:05.612Z</time>
      </trkpt>
      <trkpt lat="46.21322" lon="6.77068">
        <ele>1380.3</ele>
        <time>2023-09-10T14:29:06.612Z</time>
      </trkpt>
      <trkpt lat="46.21334" lon="6.77051">
        <ele>1378</ele>
        <time>2023-09-10T14:29:07.612Z</time>
      </trkpt>
      <trkpt lat="46.21344" lon="6.77033">
        <ele>1375.5</ele>
        <time>2023-09-10T14:29:08.612Z</time>
      </trkpt>
      <trkpt lat="46.21363" lon="6.77011">
        <ele>1371.8</ele>
        <time>2023-09-10T14:29:09.612Z</time>
      </trkpt>
      <trkpt lat="46.21374" lon="6.76995">
        <ele>1368.6</ele>
        <time>2023-09-10T14:29:10.612Z</time>
      </trkpt>
      <trkpt lat="46.2135" lon="6.76983">
        <ele>1360.8</ele>
        <time>2023-09-10T14:29:11.612Z</time>
      </trkpt>
      <trkpt lat="46.2134" lon="6.76983">
        <ele>1359.8</ele>
        <time>2023-09-10T14:29:12.612Z</time>
      </trkpt>
      <trkpt lat="46.21327" lon="6.76984">
        <ele>1358.4</ele>
        <time>2023-09-10T14:29:13.612Z</time>
      </trkpt>
      <trkpt lat="46.21295" lon="6.7699">
        <ele>1355.1</ele>
        <time>2023-09-10T14:29:14.612Z</time>
      </trkpt>
      <trkpt lat="46.21264" lon="6.77002">
        <ele>1354.5</ele>
        <time>2023-09-10T14:29:15.612Z</time>
      </trkpt>
      <trkpt lat="46.21256" lon="6.76994">
        <ele>1351.9</ele>
        <time>2023-09-10T14:29:16.612Z</time>
      </trkpt>
      <trkpt lat="46.21251" lon="6.76986">
        <ele>1350.5</ele>
        <time>2023-09-10T14:29:17.612Z</time>
      </trkpt>
      <trkpt lat="46.21242" lon="6.76982">
        <ele>1353.7</ele>
        <time>2023-09-10T14:29:18.612Z</time>
      </trkpt>
      <trkpt lat="46.21234" lon="6.76934">
        <ele>1353.4</ele>
        <time>2023-09-10T14:29:19.612Z</time>
      </trkpt>
      <trkpt lat="46.21231" lon="6.76924">
        <ele>1353.5</ele>
        <time>2023-09-10T14:29:20.612Z</time>
      </trkpt>
      <trkpt lat="46.21221" lon="6.76903">
        <ele>1353.9</ele>
        <time>2023-09-10T14:29:21.612Z</time>
      </trkpt>
      <trkpt lat="46.2121" lon="6.76885">
        <ele>1353.4</ele>
        <time>2023-09-10T14:29:22.612Z</time>
      </trkpt>
      <trkpt lat="46.21209" lon="6.76875">
        <ele>1352</ele>
        <time>2023-09-10T14:29:23.612Z</time>
      </trkpt>
      <trkpt lat="46.21222" lon="6.76861">
        <ele>1345.1</ele>
        <time>2023-09-10T14:29:24.612Z</time>
      </trkpt>
      <trkpt lat="46.2122" lon="6.76849">
        <ele>1343.1</ele>
        <time>2023-09-10T14:29:25.612Z</time>
      </trkpt>
      <trkpt lat="46.21203" lon="6.76819">
        <ele>1340</ele>
        <time>2023-09-10T14:29:26.612Z</time>
      </trkpt>
      <trkpt lat="46.2119" lon="6.76802">
        <ele>1336.9</ele>
        <time>2023-09-10T14:29:27.612Z</time>
      </trkpt>
      <trkpt lat="46.21167" lon="6.76778">
        <ele>1331</ele>
        <time>2023-09-10T14:29:28.612Z</time>
      </trkpt>
      <trkpt lat="46.21157" lon="6.76779">
        <ele>1329</ele>
        <time>2023-09-10T14:29:29.612Z</time>
      </trkpt>
      <trkpt lat="46.21145" lon="6.76783">
        <ele>1327.9</ele>
        <time>2023-09-10T14:29:30.612Z</time>
      </trkpt>
      <trkpt lat="46.21144" lon="6.76765">
        <ele>1319.5</ele>
        <time>2023-09-10T14:29:31.612Z</time>
      </trkpt>
      <trkpt lat="46.21151" lon="6.76758">
        <ele>1316.4</ele>
        <time>2023-09-10T14:29:32.612Z</time>
      </trkpt>
      <trkpt lat="46.21169" lon="6.76754">
        <ele>1314.3</ele>
        <time>2023-09-10T14:29:33.612Z</time>
      </trkpt>
      <trkpt lat="46.21162" lon="6.76738">
        <ele>1308.7</ele>
        <time>2023-09-10T14:29:34.612Z</time>
      </trkpt>
      <trkpt lat="46.21153" lon="6.76732">
        <ele>1306.8</ele>
        <time>2023-09-10T14:29:35.612Z</time>
      </trkpt>
      <trkpt lat="46.21145" lon="6.76723">
        <ele>1303.2</ele>
        <time>2023-09-10T14:29:36.612Z</time>
      </trkpt>
      <trkpt lat="46.21127" lon="6.76685">
        <ele>1297.2</ele>
        <time>2023-09-10T14:29:37.612Z</time>
      </trkpt>
      <trkpt lat="46.21122" lon="6.76667">
        <ele>1292.3</ele>
        <time>2023-09-10T14:29:38.612Z</time>
      </trkpt>
      <trkpt lat="46.21127" lon="6.76654">
        <ele>1289</ele>
        <time>2023-09-10T14:29:39.612Z</time>
      </trkpt>
      <trkpt lat="46.21135" lon="6.76648">
        <ele>1287.6</ele>
        <time>2023-09-10T14:29:40.612Z</time>
      </trkpt>
      <trkpt lat="46.21162" lon="6.76638">
        <ele>1282.5</ele>
        <time>2023-09-10T14:29:41.612Z</time>
      </trkpt>
      <trkpt lat="46.2117" lon="6.76633">
        <ele>1279.8</ele>
        <time>2023-09-10T14:29:42.612Z</time>
      </trkpt>
      <trkpt lat="46.21183" lon="6.7662">
        <ele>1274.6</ele>
        <time>2023-09-10T14:29:43.612Z</time>
      </trkpt>
      <trkpt lat="46.21189" lon="6.76611">
        <ele>1272.8</ele>
        <time>2023-09-10T14:29:44.612Z</time>
      </trkpt>
      <trkpt lat="46.21208" lon="6.7649">
        <ele>1248.3</ele>
        <time>2023-09-10T14:29:45.612Z</time>
      </trkpt>
      <trkpt lat="46.21218" lon="6.76458">
        <ele>1242.8</ele>
        <time>2023-09-10T14:29:46.612Z</time>
      </trkpt>
      <trkpt lat="46.2123" lon="6.76433">
        <ele>1238.9</ele>
        <time>2023-09-10T14:29:47.612Z</time>
      </trkpt>
      <trkpt lat="46.21254" lon="6.76375">
        <ele>1231.7</ele>
        <time>2023-09-10T14:29:48.612Z</time>
      </trkpt>
      <trkpt lat="46.21279" lon="6.76306">
        <ele>1222.9</ele>
        <time>2023-09-10T14:29:49.612Z</time>
      </trkpt>
      <trkpt lat="46.21305" lon="6.76285">
        <ele>1218.6</ele>
        <time>2023-09-10T14:29:50.612Z</time>
      </trkpt>
      <trkpt lat="46.21318" lon="6.76267">
        <ele>1215.7</ele>
        <time>2023-09-10T14:29:51.612Z</time>
      </trkpt>
      <trkpt lat="46.21332" lon="6.76239">
        <ele>1213.7</ele>
        <time>2023-09-10T14:29:52.612Z</time>
      </trkpt>
      <trkpt lat="46.21333" lon="6.76202">
        <ele>1213</ele>
        <time>2023-09-10T14:29:53.612Z</time>
      </trkpt>
      <trkpt lat="46.21345" lon="6.76131">
        <ele>1211.6</ele>
        <time>2023-09-10T14:29:54.612Z</time>
      </trkpt>
      <trkpt lat="46.21363" lon="6.76081">
        <ele>1209</ele>
        <time>2023-09-10T14:29:55.612Z</time>
      </trkpt>
      <trkpt lat="46.21372" lon="6.76063">
        <ele>1208.9</ele>
        <time>2023-09-10T14:29:56.612Z</time>
      </trkpt>
      <trkpt lat="46.21376" lon="6.76044">
        <ele>1209</ele>
        <time>2023-09-10T14:29:57.612Z</time>
      </trkpt>
      <trkpt lat="46.21392" lon="6.76014">
        <ele>1206</ele>
        <time>2023-09-10T14:29:58.612Z</time>
      </trkpt>
      <trkpt lat="46.21398" lon="6.75999">
        <ele>1204.8</ele>
        <time>2023-09-10T14:29:59.612Z</time>
      </trkpt>
      <trkpt lat="46.21401" lon="6.7599">
        <ele>1204.2</ele>
        <time>2023-09-10T14:30:00.612Z</time>
      </trkpt>
      <trkpt lat="46.21401" lon="6.75979">
        <ele>1204.9</ele>
        <time>2023-09-10T14:30:01.612Z</time>
      </trkpt>
      <trkpt lat="46.21404" lon="6.75959">
        <ele>1205.1</ele>
        <time>2023-09-10T14:30:02.612Z</time>
      </trkpt>
      <trkpt lat="46.21417" lon="6.75922">
        <ele>1199.8</ele>
        <time>2023-09-10T14:30:03.612Z</time>
      </trkpt>
      <trkpt lat="46.21428" lon="6.75907">
        <ele>1198.6</ele>
        <time>2023-09-10T14:30:04.612Z</time>
      </trkpt>
      <trkpt lat="46.21428" lon="6.75888">
        <ele>1199.1</ele>
        <time>2023-09-10T14:30:05.612Z</time>
      </trkpt>
      <trkpt lat="46.21432" lon="6.7587">
        <ele>1198.1</ele>
        <time>2023-09-10T14:30:06.612Z</time>
      </trkpt>
      <trkpt lat="46.21432" lon="6.75861">
        <ele>1198</ele>
        <time>2023-09-10T14:30:07.612Z</time>
      </trkpt>
      <trkpt lat="46.21451" lon="6.75785">
        <ele>1193.6</ele>
        <time>2023-09-10T14:30:08.612Z</time>
      </trkpt>
      <trkpt lat="46.21458" lon="6.75734">
        <ele>1193.5</ele>
        <time>2023-09-10T14:30:09.612Z</time>
      </trkpt>
      <trkpt lat="46.21464" lon="6.75705">
        <ele>1192</ele>
        <time>2023-09-10T14:30:10.612Z</time>
      </trkpt>
      <trkpt lat="46.21467" lon="6.75659">
        <ele>1189.7</ele>
        <time>2023-09-10T14:30:11.612Z</time>
      </trkpt>
      <trkpt lat="46.21466" lon="6.7565">
        <ele>1189.5</ele>
        <time>2023-09-10T14:30:12.612Z</time>
      </trkpt>
      <trkpt lat="46.21462" lon="6.75639">
        <ele>1189.5</ele>
        <time>2023-09-10T14:30:13.612Z</time>
      </trkpt>
      <trkpt lat="46.21449" lon="6.75617">
        <ele>1189</ele>
        <time>2023-09-10T14:30:14.612Z</time>
      </trkpt>
      <trkpt lat="46.21434" lon="6.75579">
        <ele>1186.5</ele>
        <time>2023-09-10T14:30:15.612Z</time>
      </trkpt>
      <trkpt lat="46.21431" lon="6.75566">
        <ele>1185.5</ele>
        <time>2023-09-10T14:30:16.612Z</time>
      </trkpt>
      <trkpt lat="46.21433" lon="6.75474">
        <ele>1166</ele>
        <time>2023-09-10T14:30:17.612Z</time>
      </trkpt>
      <trkpt lat="46.2143" lon="6.75456">
        <ele>1158.7</ele>
        <time>2023-09-10T14:30:18.612Z</time>
      </trkpt>
      <trkpt lat="46.21419" lon="6.75437">
        <ele>1158.9</ele>
        <time>2023-09-10T14:30:19.612Z</time>
      </trkpt>
      <trkpt lat="46.214" lon="6.75423">
        <ele>1158.4</ele>
        <time>2023-09-10T14:30:20.612Z</time>
      </trkpt>
      <trkpt lat="46.21383" lon="6.75413">
        <ele>1159.5</ele>
        <time>2023-09-10T14:30:21.612Z</time>
      </trkpt>
      <trkpt lat="46.21352" lon="6.75413">
        <ele>1153.4</ele>
        <time>2023-09-10T14:30:22.612Z</time>
      </trkpt>
      <trkpt lat="46.21331" lon="6.75421">
        <ele>1151.6</ele>
        <time>2023-09-10T14:30:23.612Z</time>
      </trkpt>
      <trkpt lat="46.2131" lon="6.75418">
        <ele>1147.4</ele>
        <time>2023-09-10T14:30:24.612Z</time>
      </trkpt>
      <trkpt lat="46.21289" lon="6.75409">
        <ele>1143.7</ele>
        <time>2023-09-10T14:30:25.612Z</time>
      </trkpt>
      <trkpt lat="46.21281" lon="6.75403">
        <ele>1142</ele>
        <time>2023-09-10T14:30:26.612Z</time>
      </trkpt>
      <trkpt lat="46.21273" lon="6.75394">
        <ele>1140.7</ele>
        <time>2023-09-10T14:30:27.612Z</time>
      </trkpt>
      <trkpt lat="46.21261" lon="6.75374">
        <ele>1137.8</ele>
        <time>2023-09-10T14:30:28.612Z</time>
      </trkpt>
      <trkpt lat="46.21253" lon="6.75352">
        <ele>1133.2</ele>
        <time>2023-09-10T14:30:29.612Z</time>
      </trkpt>
      <trkpt lat="46.21247" lon="6.75341">
        <ele>1131.2</ele>
        <time>2023-09-10T14:30:30.612Z</time>
      </trkpt>
      <trkpt lat="46.2124" lon="6.75331">
        <ele>1128.9</ele>
        <time>2023-09-10T14:30:31.612Z</time>
      </trkpt>
      <trkpt lat="46.21232" lon="6.75324">
        <ele>1127.9</ele>
        <time>2023-09-10T14:30:32.612Z</time>
      </trkpt>
      <trkpt lat="46.21219" lon="6.75305">
        <ele>1126.9</ele>
        <time>2023-09-10T14:30:33.612Z</time>
      </trkpt>
      <trkpt lat="46.21211" lon="6.75284">
        <ele>1125.6</ele>
        <time>2023-09-10T14:30:34.612Z</time>
      </trkpt>
      <trkpt lat="46.21203" lon="6.75247">
        <ele>1123.7</ele>
        <time>2023-09-10T14:30:35.612Z</time>
      </trkpt>
      <trkpt lat="46.212" lon="6.7518">
        <ele>1120.3</ele>
        <time>2023-09-10T14:30:36.612Z</time>
      </trkpt>
      <trkpt lat="46.21197" lon="6.75164">
        <ele>1119.8</ele>
        <time>2023-09-10T14:30:37.612Z</time>
      </trkpt>
      <trkpt lat="46.21186" lon="6.75131">
        <ele>1118</ele>
        <time>2023-09-10T14:30:38.612Z</time>
      </trkpt>
      <trkpt lat="46.21181" lon="6.75107">
        <ele>1116.2</ele>
        <time>2023-09-10T14:30:39.612Z</time>
      </trkpt>
      <trkpt lat="46.21169" lon="6.75084">
        <ele>1114.7</ele>
        <time>2023-09-10T14:30:40.612Z</time>
      </trkpt>
      <trkpt lat="46.21141" lon="6.75045">
        <ele>1113.1</ele>
        <time>2023-09-10T14:30:41.612Z</time>
      </trkpt>
      <trkpt lat="46.21133" lon="6.75031">
        <ele>1113.2</ele>
        <time>2023-09-10T14:30:42.612Z</time>
      </trkpt>
      <trkpt lat="46.21092" lon="6.74915">
        <ele>1107.3</ele>
        <time>2023-09-10T14:30:43.612Z</time>
      </trkpt>
      <trkpt lat="46.21085" lon="6.7487">
        <ele>1104.8</ele>
        <time>2023-09-10T14:30:44.612Z</time>
      </trkpt>
      <trkpt lat="46.21075" lon="6.74831">
        <ele>1105.7</ele>
        <time>2023-09-10T14:30:45.612Z</time>
      </trkpt>
      <trkpt lat="46.2107" lon="6.74799">
        <ele>1107.1</ele>
        <time>2023-09-10T14:30:46.612Z</time>
      </trkpt>
      <trkpt lat="46.2106" lon="6.74753">
        <ele>1106.6</ele>
        <time>2023-09-10T14:30:47.612Z</time>
      </trkpt>
      <trkpt lat="46.21038" lon="6.74677">
        <ele>1107.3</ele>
        <time>2023-09-10T14:30:48.612Z</time>
      </trkpt>
      <trkpt lat="46.21033" lon="6.74636">
        <ele>1107.6</ele>
        <time>2023-09-10T14:30:49.612Z</time>
      </trkpt>
      <trkpt lat="46.21032" lon="6.74571">
        <ele>1105.7</ele>
        <time>2023-09-10T14:30:50.612Z</time>
      </trkpt>
      <trkpt lat="46.2104" lon="6.7451">
        <ele>1106.4</ele>
        <time>2023-09-10T14:30:51.612Z</time>
      </trkpt>
      <trkpt lat="46.21049" lon="6.74466">
        <ele>1104.7</ele>
        <time>2023-09-10T14:30:52.612Z</time>
      </trkpt>
      <trkpt lat="46.21053" lon="6.74457">
        <ele>1103.9</ele>
        <time>2023-09-10T14:30:53.612Z</time>
      </trkpt>
      <trkpt lat="46.21062" lon="6.74448">
        <ele>1103.1</ele>
        <time>2023-09-10T14:30:54.612Z</time>
      </trkpt>
      <trkpt lat="46.21071" lon="6.74445">
        <ele>1102.3</ele>
        <time>2023-09-10T14:30:55.612Z</time>
      </trkpt>
      <trkpt lat="46.21091" lon="6.74445">
        <ele>1101</ele>
        <time>2023-09-10T14:30:56.612Z</time>
      </trkpt>
      <trkpt lat="46.21102" lon="6.74442">
        <ele>1101</ele>
        <time>2023-09-10T14:30:57.612Z</time>
      </trkpt>
      <trkpt lat="46.21107" lon="6.74434">
        <ele>1101</ele>
        <time>2023-09-10T14:30:58.612Z</time>
      </trkpt>
      <trkpt lat="46.211" lon="6.74415">
        <ele>1100.9</ele>
        <time>2023-09-10T14:30:59.612Z</time>
      </trkpt>
      <trkpt lat="46.21089" lon="6.74396">
        <ele>1100</ele>
        <time>2023-09-10T14:31:00.612Z</time>
      </trkpt>
      <trkpt lat="46.21077" lon="6.74359">
        <ele>1100.5</ele>
        <time>2023-09-10T14:31:01.612Z</time>
      </trkpt>
      <trkpt lat="46.21065" lon="6.7431">
        <ele>1101.6</ele>
        <time>2023-09-10T14:31:02.612Z</time>
      </trkpt>
      <trkpt lat="46.21051" lon="6.74223">
        <ele>1099.4</ele>
        <time>2023-09-10T14:31:03.612Z</time>
      </trkpt>
      <trkpt lat="46.21036" lon="6.74096">
        <ele>1091.3</ele>
        <time>2023-09-10T14:31:04.612Z</time>
      </trkpt>
      <trkpt lat="46.21026" lon="6.74041">
        <ele>1088.1</ele>
        <time>2023-09-10T14:31:05.612Z</time>
      </trkpt>
      <trkpt lat="46.21026" lon="6.74032">
        <ele>1087.4</ele>
        <time>2023-09-10T14:31:06.612Z</time>
      </trkpt>
      <trkpt lat="46.21031" lon="6.74001">
        <ele>1084.1</ele>
        <time>2023-09-10T14:31:07.612Z</time>
      </trkpt>
      <trkpt lat="46.2103" lon="6.73989">
        <ele>1083.1</ele>
        <time>2023-09-10T14:31:08.612Z</time>
      </trkpt>
      <trkpt lat="46.21027" lon="6.73975">
        <ele>1082.1</ele>
        <time>2023-09-10T14:31:09.612Z</time>
      </trkpt>
      <trkpt lat="46.21019" lon="6.73951">
        <ele>1078.5</ele>
        <time>2023-09-10T14:31:10.612Z</time>
      </trkpt>
      <trkpt lat="46.20981" lon="6.7387">
        <ele>1074.6</ele>
        <time>2023-09-10T14:31:11.612Z</time>
      </trkpt>
      <trkpt lat="46.20978" lon="6.73855">
        <ele>1074.3</ele>
        <time>2023-09-10T14:31:12.612Z</time>
      </trkpt>
      <trkpt lat="46.20975" lon="6.73804">
        <ele>1073.9</ele>
        <time>2023-09-10T14:31:13.612Z</time>
      </trkpt>
      <trkpt lat="46.20968" lon="6.73761">
        <ele>1071.5</ele>
        <time>2023-09-10T14:31:14.612Z</time>
      </trkpt>
      <trkpt lat="46.20966" lon="6.73714">
        <ele>1067.9</ele>
        <time>2023-09-10T14:31:15.612Z</time>
      </trkpt>
      <trkpt lat="46.20964" lon="6.73705">
        <ele>1067.3</ele>
        <time>2023-09-10T14:31:16.612Z</time>
      </trkpt>
      <trkpt lat="46.20957" lon="6.73695">
        <ele>1066.6</ele>
        <time>2023-09-10T14:31:17.612Z</time>
      </trkpt>
      <trkpt lat="46.20945" lon="6.73672">
        <ele>1064.6</ele>
        <time>2023-09-10T14:31:18.612Z</time>
      </trkpt>
      <trkpt lat="46.20933" lon="6.73656">
        <ele>1063.9</ele>
        <time>2023-09-10T14:31:19.612Z</time>
      </trkpt>
      <trkpt lat="46.20904" lon="6.73628">
        <ele>1063.2</ele>
        <time>2023-09-10T14:31:20.612Z</time>
      </trkpt>
      <trkpt lat="46.2088" lon="6.73599">
        <ele>1063.7</ele>
        <time>2023-09-10T14:31:21.612Z</time>
      </trkpt>
      <trkpt lat="46.20851" lon="6.73542">
        <ele>1063.9</ele>
        <time>2023-09-10T14:31:22.612Z</time>
      </trkpt>
      <trkpt lat="46.20847" lon="6.73531">
        <ele>1064.2</ele>
        <time>2023-09-10T14:31:23.612Z</time>
      </trkpt>
      <trkpt lat="46.20835" lon="6.73481">
        <ele>1063.8</ele>
        <time>2023-09-10T14:31:24.612Z</time>
      </trkpt>
      <trkpt lat="46.20832" lon="6.73462">
        <ele>1063.2</ele>
        <time>2023-09-10T14:31:25.612Z</time>
      </trkpt>
      <trkpt lat="46.20832" lon="6.73452">
        <ele>1062.7</ele>
        <time>2023-09-10T14:31:26.612Z</time>
      </trkpt>
      <trkpt lat="46.20836" lon="6.73433">
        <ele>1062.3</ele>
        <time>2023-09-10T14:31:27.612Z</time>
      </trkpt>
      <trkpt lat="46.20836" lon="6.73421">
        <ele>1062.7</ele>
        <time>2023-09-10T14:31:28.612Z</time>
      </trkpt>
      <trkpt lat="46.2085" lon="6.73358">
        <ele>1063</ele>
        <time>2023-09-10T14:31:29.612Z</time>
      </trkpt>
      <trkpt lat="46.20847" lon="6.73315">
        <ele>1063.7</ele>
        <time>2023-09-10T14:31:30.612Z</time>
      </trkpt>
      <trkpt lat="46.20843" lon="6.73293">
        <ele>1063.7</ele>
        <time>2023-09-10T14:31:31.612Z</time>
      </trkpt>
      <trkpt lat="46.20814" lon="6.73206">
        <ele>1063.1</ele>
        <time>2023-09-10T14:31:32.612Z</time>
      </trkpt>
      <trkpt lat="46.20808" lon="6.73196">
        <ele>1062.2</ele>
        <time>2023-09-10T14:31:33.612Z</time>
      </trkpt>
      <trkpt lat="46.20776" lon="6.73158">
        <ele>1063</ele>
        <time>2023-09-10T14:31:34.612Z</time>
      </trkpt>
      <trkpt lat="46.2077" lon="6.73148">
        <ele>1064.6</ele>
        <time>2023-09-10T14:31:35.612Z</time>
      </trkpt>
      <trkpt lat="46.20766" lon="6.73136">
        <ele>1065.7</ele>
        <time>2023-09-10T14:31:36.612Z</time>
      </trkpt>
      <trkpt lat="46.20765" lon="6.73111">
        <ele>1066.5</ele>
        <time>2023-09-10T14:31:37.612Z</time>
      </trkpt>
      <trkpt lat="46.20773" lon="6.73071">
        <ele>1063.6</ele>
        <time>2023-09-10T14:31:38.612Z</time>
      </trkpt>
      <trkpt lat="46.20776" lon="6.73047">
        <ele>1062.1</ele>
        <time>2023-09-10T14:31:39.612Z</time>
      </trkpt>
      <trkpt lat="46.20769" lon="6.72969">
        <ele>1065.1</ele>
        <time>2023-09-10T14:31:40.612Z</time>
      </trkpt>
      <trkpt lat="46.20767" lon="6.72904">
        <ele>1065.3</ele>
        <time>2023-09-10T14:31:41.612Z</time>
      </trkpt>
      <trkpt lat="46.20762" lon="6.72852">
        <ele>1065.5</ele>
        <time>2023-09-10T14:31:42.612Z</time>
      </trkpt>
      <trkpt lat="46.20763" lon="6.72823">
        <ele>1065.5</ele>
        <time>2023-09-10T14:31:43.612Z</time>
      </trkpt>
      <trkpt lat="46.20762" lon="6.72781">
        <ele>1066.1</ele>
        <time>2023-09-10T14:31:44.612Z</time>
      </trkpt>
      <trkpt lat="46.20761" lon="6.72746">
        <ele>1065.7</ele>
        <time>2023-09-10T14:31:45.612Z</time>
      </trkpt>
      <trkpt lat="46.20759" lon="6.72735">
        <ele>1065.7</ele>
        <time>2023-09-10T14:31:46.612Z</time>
      </trkpt>
      <trkpt lat="46.2076" lon="6.72671">
        <ele>1064.4</ele>
        <time>2023-09-10T14:31:47.612Z</time>
      </trkpt>
      <trkpt lat="46.20749" lon="6.72615">
        <ele>1062.8</ele>
        <time>2023-09-10T14:31:48.612Z</time>
      </trkpt>
      <trkpt lat="46.20749" lon="6.72602">
        <ele>1062.7</ele>
        <time>2023-09-10T14:31:49.612Z</time>
      </trkpt>
      <trkpt lat="46.20752" lon="6.72544">
        <ele>1062.7</ele>
        <time>2023-09-10T14:31:50.612Z</time>
      </trkpt>
      <trkpt lat="46.20756" lon="6.7252">
        <ele>1064.2</ele>
        <time>2023-09-10T14:31:51.612Z</time>
      </trkpt>
      <trkpt lat="46.20765" lon="6.72484">
        <ele>1064.7</ele>
        <time>2023-09-10T14:31:52.612Z</time>
      </trkpt>
      <trkpt lat="46.2077" lon="6.72473">
        <ele>1063.5</ele>
        <time>2023-09-10T14:31:53.612Z</time>
      </trkpt>
      <trkpt lat="46.20778" lon="6.72447">
        <ele>1061.9</ele>
        <time>2023-09-10T14:31:54.612Z</time>
      </trkpt>
      <trkpt lat="46.20784" lon="6.72422">
        <ele>1062.4</ele>
        <time>2023-09-10T14:31:55.612Z</time>
      </trkpt>
      <trkpt lat="46.20788" lon="6.72381">
        <ele>1062.9</ele>
        <time>2023-09-10T14:31:56.612Z</time>
      </trkpt>
      <trkpt lat="46.20786" lon="6.72357">
        <ele>1062.9</ele>
        <time>2023-09-10T14:31:57.612Z</time>
      </trkpt>
      <trkpt lat="46.20783" lon="6.72344">
        <ele>1062.4</ele>
        <time>2023-09-10T14:31:58.612Z</time>
      </trkpt>
      <trkpt lat="46.2078" lon="6.72332">
        <ele>1061.9</ele>
        <time>2023-09-10T14:31:59.612Z</time>
      </trkpt>
      <trkpt lat="46.20771" lon="6.7231">
        <ele>1063.7</ele>
        <time>2023-09-10T14:32:00.612Z</time>
      </trkpt>
      <trkpt lat="46.20761" lon="6.72273">
        <ele>1063.9</ele>
        <time>2023-09-10T14:32:01.612Z</time>
      </trkpt>
      <trkpt lat="46.20759" lon="6.7226">
        <ele>1063.9</ele>
        <time>2023-09-10T14:32:02.612Z</time>
      </trkpt>
      <trkpt lat="46.20758" lon="6.72233">
        <ele>1063.6</ele>
        <time>2023-09-10T14:32:03.612Z</time>
      </trkpt>
      <trkpt lat="46.20743" lon="6.72169">
        <ele>1067.4</ele>
        <time>2023-09-10T14:32:04.612Z</time>
      </trkpt>
      <trkpt lat="46.20741" lon="6.72126">
        <ele>1066.3</ele>
        <time>2023-09-10T14:32:05.612Z</time>
      </trkpt>
      <trkpt lat="46.20746" lon="6.72077">
        <ele>1067</ele>
        <time>2023-09-10T14:32:06.612Z</time>
      </trkpt>
      <trkpt lat="46.20751" lon="6.72068">
        <ele>1066.5</ele>
        <time>2023-09-10T14:32:07.612Z</time>
      </trkpt>
      <trkpt lat="46.20761" lon="6.72063">
        <ele>1066.6</ele>
        <time>2023-09-10T14:32:08.612Z</time>
      </trkpt>
      <trkpt lat="46.20797" lon="6.72055">
        <ele>1067.1</ele>
        <time>2023-09-10T14:32:09.612Z</time>
      </trkpt>
      <trkpt lat="46.20816" lon="6.72049">
        <ele>1066.7</ele>
        <time>2023-09-10T14:32:10.612Z</time>
      </trkpt>
      <trkpt lat="46.20823" lon="6.72043">
        <ele>1066.6</ele>
        <time>2023-09-10T14:32:11.612Z</time>
      </trkpt>
      <trkpt lat="46.20834" lon="6.72027">
        <ele>1067</ele>
        <time>2023-09-10T14:32:12.612Z</time>
      </trkpt>
      <trkpt lat="46.20867" lon="6.72001">
        <ele>1066.2</ele>
        <time>2023-09-10T14:32:13.612Z</time>
      </trkpt>
      <trkpt lat="46.20873" lon="6.71992">
        <ele>1066.5</ele>
        <time>2023-09-10T14:32:14.612Z</time>
      </trkpt>
      <trkpt lat="46.20875" lon="6.71982">
        <ele>1066.5</ele>
        <time>2023-09-10T14:32:15.612Z</time>
      </trkpt>
      <trkpt lat="46.20874" lon="6.71971">
        <ele>1066.6</ele>
        <time>2023-09-10T14:32:16.612Z</time>
      </trkpt>
      <trkpt lat="46.20875" lon="6.71961">
        <ele>1067.1</ele>
        <time>2023-09-10T14:32:17.612Z</time>
      </trkpt>
      <trkpt lat="46.20882" lon="6.71932">
        <ele>1068.4</ele>
        <time>2023-09-10T14:32:18.612Z</time>
      </trkpt>
      <trkpt lat="46.20884" lon="6.7191">
        <ele>1068.9</ele>
        <time>2023-09-10T14:32:19.612Z</time>
      </trkpt>
      <trkpt lat="46.20883" lon="6.71883">
        <ele>1069.1</ele>
        <time>2023-09-10T14:32:20.612Z</time>
      </trkpt>
      <trkpt lat="46.20873" lon="6.71825">
        <ele>1068.7</ele>
        <time>2023-09-10T14:32:21.612Z</time>
      </trkpt>
      <trkpt lat="46.2086" lon="6.71786">
        <ele>1065.5</ele>
        <time>2023-09-10T14:32:22.612Z</time>
      </trkpt>
      <trkpt lat="46.20854" lon="6.71746">
        <ele>1066.5</ele>
        <time>2023-09-10T14:32:23.612Z</time>
      </trkpt>
      <trkpt lat="46.20852" lon="6.71719">
        <ele>1065</ele>
        <time>2023-09-10T14:32:24.612Z</time>
      </trkpt>
      <trkpt lat="46.20844" lon="6.7167">
        <ele>1059.5</ele>
        <time>2023-09-10T14:32:25.612Z</time>
      </trkpt>
      <trkpt lat="46.20841" lon="6.71661">
        <ele>1058.1</ele>
        <time>2023-09-10T14:32:26.612Z</time>
      </trkpt>
      <trkpt lat="46.20829" lon="6.71645">
        <ele>1054.8</ele>
        <time>2023-09-10T14:32:27.612Z</time>
      </trkpt>
      <trkpt lat="46.20812" lon="6.7163">
        <ele>1050.1</ele>
        <time>2023-09-10T14:32:28.612Z</time>
      </trkpt>
      <trkpt lat="46.20771" lon="6.71587">
        <ele>1046.1</ele>
        <time>2023-09-10T14:32:29.612Z</time>
      </trkpt>
      <trkpt lat="46.20763" lon="6.71581">
        <ele>1044.5</ele>
        <time>2023-09-10T14:32:30.612Z</time>
      </trkpt>
      <trkpt lat="46.20742" lon="6.71574">
        <ele>1038.7</ele>
        <time>2023-09-10T14:32:31.612Z</time>
      </trkpt>
      <trkpt lat="46.20733" lon="6.71567">
        <ele>1037.2</ele>
        <time>2023-09-10T14:32:32.612Z</time>
      </trkpt>
      <trkpt lat="46.2072" lon="6.71551">
        <ele>1035.4</ele>
        <time>2023-09-10T14:32:33.612Z</time>
      </trkpt>
      <trkpt lat="46.20714" lon="6.71539">
        <ele>1033.1</ele>
        <time>2023-09-10T14:32:34.612Z</time>
      </trkpt>
      <trkpt lat="46.20712" lon="6.71517">
        <ele>1031.1</ele>
        <time>2023-09-10T14:32:35.612Z</time>
      </trkpt>
      <trkpt lat="46.20704" lon="6.71474">
        <ele>1022</ele>
        <time>2023-09-10T14:32:36.612Z</time>
      </trkpt>
      <trkpt lat="46.20701" lon="6.71462">
        <ele>1021.1</ele>
        <time>2023-09-10T14:32:37.612Z</time>
      </trkpt>
      <trkpt lat="46.20687" lon="6.71429">
        <ele>1016.8</ele>
        <time>2023-09-10T14:32:38.612Z</time>
      </trkpt>
      <trkpt lat="46.20682" lon="6.71405">
        <ele>1012.2</ele>
        <time>2023-09-10T14:32:39.612Z</time>
      </trkpt>
      <trkpt lat="46.20681" lon="6.71392">
        <ele>1010.1</ele>
        <time>2023-09-10T14:32:40.612Z</time>
      </trkpt>
      <trkpt lat="46.2068" lon="6.71365">
        <ele>1010.3</ele>
        <time>2023-09-10T14:32:41.612Z</time>
      </trkpt>
      <trkpt lat="46.20683" lon="6.7134">
        <ele>1011.6</ele>
        <time>2023-09-10T14:32:42.612Z</time>
      </trkpt>
      <trkpt lat="46.20681" lon="6.7129">
        <ele>1006.3</ele>
        <time>2023-09-10T14:32:43.612Z</time>
      </trkpt>
      <trkpt lat="46.2069" lon="6.71235">
        <ele>1001.8</ele>
        <time>2023-09-10T14:32:44.612Z</time>
      </trkpt>
      <trkpt lat="46.20692" lon="6.71214">
        <ele>1000.4</ele>
        <time>2023-09-10T14:32:45.612Z</time>
      </trkpt>
      <trkpt lat="46.20691" lon="6.71205">
        <ele>1000</ele>
        <time>2023-09-10T14:32:46.612Z</time>
      </trkpt>
      <trkpt lat="46.20688" lon="6.71194">
        <ele>999.3</ele>
        <time>2023-09-10T14:32:47.612Z</time>
      </trkpt>
      <trkpt lat="46.20667" lon="6.71147">
        <ele>995.3</ele>
        <time>2023-09-10T14:32:48.612Z</time>
      </trkpt>
      <trkpt lat="46.20665" lon="6.71116">
        <ele>994</ele>
        <time>2023-09-10T14:32:49.612Z</time>
      </trkpt>
      <trkpt lat="46.20663" lon="6.71107">
        <ele>993.6</ele>
        <time>2023-09-10T14:32:50.612Z</time>
      </trkpt>
      <trkpt lat="46.20654" lon="6.71102">
        <ele>992.5</ele>
        <time>2023-09-10T14:32:51.612Z</time>
      </trkpt>
      <trkpt lat="46.20631" lon="6.71102">
        <ele>990</ele>
        <time>2023-09-10T14:32:52.612Z</time>
      </trkpt>
      <trkpt lat="46.2062" lon="6.711">
        <ele>989.1</ele>
        <time>2023-09-10T14:32:53.612Z</time>
      </trkpt>
      <trkpt lat="46.20611" lon="6.71096">
        <ele>988.5</ele>
        <time>2023-09-10T14:32:54.612Z</time>
      </trkpt>
      <trkpt lat="46.20575" lon="6.71048">
        <ele>985.4</ele>
        <time>2023-09-10T14:32:55.612Z</time>
      </trkpt>
      <trkpt lat="46.20547" lon="6.71002">
        <ele>982.5</ele>
        <time>2023-09-10T14:32:56.612Z</time>
      </trkpt>
      <trkpt lat="46.20535" lon="6.70976">
        <ele>981</ele>
        <time>2023-09-10T14:32:57.612Z</time>
      </trkpt>
      <trkpt lat="46.20521" lon="6.70925">
        <ele>978.4</ele>
        <time>2023-09-10T14:32:58.612Z</time>
      </trkpt>
      <trkpt lat="46.20509" lon="6.70895">
        <ele>977.5</ele>
        <time>2023-09-10T14:32:59.612Z</time>
      </trkpt>
      <trkpt lat="46.20484" lon="6.70842">
        <ele>974.6</ele>
        <time>2023-09-10T14:33:00.612Z</time>
      </trkpt>
      <trkpt lat="46.20459" lon="6.70806">
        <ele>972.5</ele>
        <time>2023-09-10T14:33:01.612Z</time>
      </trkpt>
      <trkpt lat="46.20451" lon="6.70787">
        <ele>970.7</ele>
        <time>2023-09-10T14:33:02.612Z</time>
      </trkpt>
      <trkpt lat="46.20445" lon="6.70749">
        <ele>967.3</ele>
        <time>2023-09-10T14:33:03.612Z</time>
      </trkpt>
      <trkpt lat="46.20441" lon="6.70737">
        <ele>969.4</ele>
        <time>2023-09-10T14:33:04.612Z</time>
      </trkpt>
      <trkpt lat="46.20425" lon="6.70704">
        <ele>966.5</ele>
        <time>2023-09-10T14:33:05.612Z</time>
      </trkpt>
      <trkpt lat="46.20418" lon="6.70683">
        <ele>961.8</ele>
        <time>2023-09-10T14:33:06.612Z</time>
      </trkpt>
      <trkpt lat="46.20412" lon="6.70618">
        <ele>958.8</ele>
        <time>2023-09-10T14:33:07.612Z</time>
      </trkpt>
      <trkpt lat="46.20396" lon="6.70563">
        <ele>953.9</ele>
        <time>2023-09-10T14:33:08.612Z</time>
      </trkpt>
      <trkpt lat="46.20395" lon="6.70512">
        <ele>952.1</ele>
        <time>2023-09-10T14:33:09.612Z</time>
      </trkpt>
      <trkpt lat="46.20389" lon="6.70483">
        <ele>950.5</ele>
        <time>2023-09-10T14:33:10.612Z</time>
      </trkpt>
      <trkpt lat="46.20376" lon="6.70456">
        <ele>951.5</ele>
        <time>2023-09-10T14:33:11.612Z</time>
      </trkpt>
      <trkpt lat="46.2035" lon="6.7042">
        <ele>945.9</ele>
        <time>2023-09-10T14:33:12.612Z</time>
      </trkpt>
      <trkpt lat="46.20342" lon="6.70394">
        <ele>942.9</ele>
        <time>2023-09-10T14:33:13.612Z</time>
      </trkpt>
      <trkpt lat="46.2034" lon="6.70355">
        <ele>941.3</ele>
        <time>2023-09-10T14:33:14.612Z</time>
      </trkpt>
      <trkpt lat="46.20335" lon="6.70329">
        <ele>939.3</ele>
        <time>2023-09-10T14:33:15.612Z</time>
      </trkpt>
      <trkpt lat="46.20323" lon="6.70295">
        <ele>940.3</ele>
        <time>2023-09-10T14:33:16.612Z</time>
      </trkpt>
      <trkpt lat="46.2032" lon="6.70278">
        <ele>939</ele>
        <time>2023-09-10T14:33:17.612Z</time>
      </trkpt>
      <trkpt lat="46.20321" lon="6.7026">
        <ele>938.1</ele>
        <time>2023-09-10T14:33:18.612Z</time>
      </trkpt>
      <trkpt lat="46.20328" lon="6.70225">
        <ele>938.4</ele>
        <time>2023-09-10T14:33:19.612Z</time>
      </trkpt>
      <trkpt lat="46.20329" lon="6.70215">
        <ele>938.3</ele>
        <time>2023-09-10T14:33:20.612Z</time>
      </trkpt>
      <trkpt lat="46.20328" lon="6.70205">
        <ele>937.8</ele>
        <time>2023-09-10T14:33:21.612Z</time>
      </trkpt>
      <trkpt lat="46.20322" lon="6.7018">
        <ele>935.7</ele>
        <time>2023-09-10T14:33:22.612Z</time>
      </trkpt>
      <trkpt lat="46.20302" lon="6.70123">
        <ele>932.9</ele>
        <time>2023-09-10T14:33:23.612Z</time>
      </trkpt>
      <trkpt lat="46.20278" lon="6.70066">
        <ele>930.6</ele>
        <time>2023-09-10T14:33:24.612Z</time>
      </trkpt>
      <trkpt lat="46.20275" lon="6.70048">
        <ele>930.7</ele>
        <time>2023-09-10T14:33:25.612Z</time>
      </trkpt>
      <trkpt lat="46.20271" lon="6.69998">
        <ele>931.6</ele>
        <time>2023-09-10T14:33:26.612Z</time>
      </trkpt>
      <trkpt lat="46.20268" lon="6.69984">
        <ele>933.2</ele>
        <time>2023-09-10T14:33:27.612Z</time>
      </trkpt>
      <trkpt lat="46.20256" lon="6.69947">
        <ele>929.3</ele>
        <time>2023-09-10T14:33:28.612Z</time>
      </trkpt>
      <trkpt lat="46.20246" lon="6.69901">
        <ele>925.9</ele>
        <time>2023-09-10T14:33:29.612Z</time>
      </trkpt>
      <trkpt lat="46.20232" lon="6.69865">
        <ele>924.8</ele>
        <time>2023-09-10T14:33:30.612Z</time>
      </trkpt>
      <trkpt lat="46.20226" lon="6.69845">
        <ele>923.7</ele>
        <time>2023-09-10T14:33:31.612Z</time>
      </trkpt>
      <trkpt lat="46.20224" lon="6.69823">
        <ele>922.9</ele>
        <time>2023-09-10T14:33:32.612Z</time>
      </trkpt>
      <trkpt lat="46.2023" lon="6.69777">
        <ele>922.4</ele>
        <time>2023-09-10T14:33:33.612Z</time>
      </trkpt>
      <trkpt lat="46.2023" lon="6.69753">
        <ele>922</ele>
        <time>2023-09-10T14:33:34.612Z</time>
      </trkpt>
      <trkpt lat="46.20222" lon="6.69719">
        <ele>920.1</ele>
        <time>2023-09-10T14:33:35.612Z</time>
      </trkpt>
      <trkpt lat="46.2021" lon="6.69683">
        <ele>919.8</ele>
        <time>2023-09-10T14:33:36.612Z</time>
      </trkpt>
      <trkpt lat="46.20197" lon="6.69635">
        <ele>917.3</ele>
        <time>2023-09-10T14:33:37.612Z</time>
      </trkpt>
      <trkpt lat="46.20185" lon="6.696">
        <ele>915.9</ele>
        <time>2023-09-10T14:33:38.612Z</time>
      </trkpt>
      <trkpt lat="46.20176" lon="6.69564">
        <ele>914.5</ele>
        <time>2023-09-10T14:33:39.612Z</time>
      </trkpt>
      <trkpt lat="46.20172" lon="6.69539">
        <ele>913.1</ele>
        <time>2023-09-10T14:33:40.612Z</time>
      </trkpt>
      <trkpt lat="46.20167" lon="6.69479">
        <ele>911</ele>
        <time>2023-09-10T14:33:41.612Z</time>
      </trkpt>
      <trkpt lat="46.20163" lon="6.69456">
        <ele>911.9</ele>
        <time>2023-09-10T14:33:42.612Z</time>
      </trkpt>
      <trkpt lat="46.20156" lon="6.69434">
        <ele>913.2</ele>
        <time>2023-09-10T14:33:43.612Z</time>
      </trkpt>
      <trkpt lat="46.20147" lon="6.69414">
        <ele>912.4</ele>
        <time>2023-09-10T14:33:44.612Z</time>
      </trkpt>
      <trkpt lat="46.20129" lon="6.69391">
        <ele>912.5</ele>
        <time>2023-09-10T14:33:45.612Z</time>
      </trkpt>
      <trkpt lat="46.20101" lon="6.69366">
        <ele>908</ele>
        <time>2023-09-10T14:33:46.612Z</time>
      </trkpt>
      <trkpt lat="46.20086" lon="6.69342">
        <ele>906.9</ele>
        <time>2023-09-10T14:33:47.612Z</time>
      </trkpt>
      <trkpt lat="46.20064" lon="6.69283">
        <ele>908</ele>
        <time>2023-09-10T14:33:48.612Z</time>
      </trkpt>
      <trkpt lat="46.20056" lon="6.69251">
        <ele>906.1</ele>
        <time>2023-09-10T14:33:49.612Z</time>
      </trkpt>
      <trkpt lat="46.2005" lon="6.69223">
        <ele>904.4</ele>
        <time>2023-09-10T14:33:50.612Z</time>
      </trkpt>
      <trkpt lat="46.20046" lon="6.69168">
        <ele>901.7</ele>
        <time>2023-09-10T14:33:51.612Z</time>
      </trkpt>
      <trkpt lat="46.20037" lon="6.69109">
        <ele>900</ele>
        <time>2023-09-10T14:33:52.612Z</time>
      </trkpt>
      <trkpt lat="46.2001" lon="6.68979">
        <ele>897</ele>
        <time>2023-09-10T14:33:53.612Z</time>
      </trkpt>
      <trkpt lat="46.2001" lon="6.68939">
        <ele>895.6</ele>
        <time>2023-09-10T14:33:54.612Z</time>
      </trkpt>
      <trkpt lat="46.2002" lon="6.68898">
        <ele>894.1</ele>
        <time>2023-09-10T14:33:55.612Z</time>
      </trkpt>
      <trkpt lat="46.20012" lon="6.6889">
        <ele>894</ele>
        <time>2023-09-10T14:33:56.612Z</time>
      </trkpt>
      <trkpt lat="46.1999" lon="6.68887">
        <ele>894</ele>
        <time>2023-09-10T14:33:57.612Z</time>
      </trkpt>
      <trkpt lat="46.19977" lon="6.68887">
        <ele>894</ele>
        <time>2023-09-10T14:33:58.612Z</time>
      </trkpt>
      <trkpt lat="46.19944" lon="6.68908">
        <ele>894.7</ele>
        <time>2023-09-10T14:33:59.612Z</time>
      </trkpt>
      <trkpt lat="46.19933" lon="6.68898">
        <ele>894.3</ele>
        <time>2023-09-10T14:34:00.612Z</time>
      </trkpt>
      <trkpt lat="46.19923" lon="6.68882">
        <ele>894</ele>
        <time>2023-09-10T14:34:01.612Z</time>
      </trkpt>
      <trkpt lat="46.19914" lon="6.68863">
        <ele>894</ele>
        <time>2023-09-10T14:34:02.612Z</time>
      </trkpt>
      <trkpt lat="46.19907" lon="6.68842">
        <ele>893.6</ele>
        <time>2023-09-10T14:34:03.612Z</time>
      </trkpt>
      <trkpt lat="46.1991" lon="6.68831">
        <ele>893.2</ele>
        <time>2023-09-10T14:34:04.612Z</time>
      </trkpt>
      <trkpt lat="46.19926" lon="6.68811">
        <ele>892.7</ele>
        <time>2023-09-10T14:34:05.612Z</time>
      </trkpt>
      <trkpt lat="46.19929" lon="6.688">
        <ele>892.8</ele>
        <time>2023-09-10T14:34:06.612Z</time>
      </trkpt>
      <trkpt lat="46.19904" lon="6.68758">
        <ele>893.6</ele>
        <time>2023-09-10T14:34:07.612Z</time>
      </trkpt>
      <trkpt lat="46.19888" lon="6.68727">
        <ele>893.1</ele>
        <time>2023-09-10T14:34:08.612Z</time>
      </trkpt>
      <trkpt lat="46.19876" lon="6.68711">
        <ele>891</ele>
        <time>2023-09-10T14:34:09.612Z</time>
      </trkpt>
      <trkpt lat="46.19872" lon="6.68723">
        <ele>891.2</ele>
        <time>2023-09-10T14:34:10.612Z</time>
      </trkpt>
      <trkpt lat="46.19865" lon="6.68736">
        <ele>890.9</ele>
        <time>2023-09-10T14:34:11.612Z</time>
      </trkpt>
      <trkpt lat="46.19857" lon="6.68745">
        <ele>890.7</ele>
        <time>2023-09-10T14:34:12.612Z</time>
      </trkpt>
      <trkpt lat="46.19836" lon="6.68778">
        <ele>891.2</ele>
        <time>2023-09-10T14:34:13.612Z</time>
      </trkpt>
      <trkpt lat="46.19821" lon="6.68795">
        <ele>892.1</ele>
        <time>2023-09-10T14:34:14.612Z</time>
      </trkpt>
      <trkpt lat="46.19783" lon="6.68832">
        <ele>892.3</ele>
        <time>2023-09-10T14:34:15.612Z</time>
      </trkpt>
      <trkpt lat="46.19763" lon="6.68855">
        <ele>893.1</ele>
        <time>2023-09-10T14:34:16.612Z</time>
      </trkpt>
      <trkpt lat="46.19738" lon="6.6889">
        <ele>894</ele>
        <time>2023-09-10T14:34:17.612Z</time>
      </trkpt>
      <trkpt lat="46.19712" lon="6.68913">
        <ele>894</ele>
        <time>2023-09-10T14:34:18.612Z</time>
      </trkpt>
      <trkpt lat="46.19667" lon="6.68943">
        <ele>895.8</ele>
        <time>2023-09-10T14:34:19.612Z</time>
      </trkpt>
      <trkpt lat="46.19622" lon="6.68978">
        <ele>895.9</ele>
        <time>2023-09-10T14:34:20.612Z</time>
      </trkpt>
      <trkpt lat="46.19615" lon="6.68986">
        <ele>896.5</ele>
        <time>2023-09-10T14:34:21.612Z</time>
      </trkpt>
      <trkpt lat="46.1961" lon="6.68996">
        <ele>897.5</ele>
        <time>2023-09-10T14:34:22.612Z</time>
      </trkpt>
      <trkpt lat="46.19607" lon="6.69021">
        <ele>897.9</ele>
        <time>2023-09-10T14:34:23.612Z</time>
      </trkpt>
      <trkpt lat="46.19601" lon="6.6903">
        <ele>898.1</ele>
        <time>2023-09-10T14:34:24.612Z</time>
      </trkpt>
      <trkpt lat="46.19574" lon="6.69055">
        <ele>898.3</ele>
        <time>2023-09-10T14:34:25.612Z</time>
      </trkpt>
      <trkpt lat="46.19557" lon="6.69066">
        <ele>899.3</ele>
        <time>2023-09-10T14:34:26.612Z</time>
      </trkpt>
      <trkpt lat="46.19546" lon="6.69071">
        <ele>899.6</ele>
        <time>2023-09-10T14:34:27.612Z</time>
      </trkpt>
      <trkpt lat="46.19532" lon="6.69084">
        <ele>900.8</ele>
        <time>2023-09-10T14:34:28.612Z</time>
      </trkpt>
      <trkpt lat="46.19526" lon="6.69094">
        <ele>900.9</ele>
        <time>2023-09-10T14:34:29.612Z</time>
      </trkpt>
      <trkpt lat="46.19513" lon="6.69134">
        <ele>901.3</ele>
        <time>2023-09-10T14:34:30.612Z</time>
      </trkpt>
      <trkpt lat="46.195" lon="6.69158">
        <ele>901.7</ele>
        <time>2023-09-10T14:34:31.612Z</time>
      </trkpt>
      <trkpt lat="46.19486" lon="6.69197">
        <ele>901.6</ele>
        <time>2023-09-10T14:34:32.612Z</time>
      </trkpt>
      <trkpt lat="46.1947" lon="6.69222">
        <ele>901.9</ele>
        <time>2023-09-10T14:34:33.612Z</time>
      </trkpt>
      <trkpt lat="46.19446" lon="6.6925">
        <ele>903</ele>
        <time>2023-09-10T14:34:34.612Z</time>
      </trkpt>
      <trkpt lat="46.19407" lon="6.69286">
        <ele>904.3</ele>
        <time>2023-09-10T14:34:35.612Z</time>
      </trkpt>
      <trkpt lat="46.19389" lon="6.69299">
        <ele>904.8</ele>
        <time>2023-09-10T14:34:36.612Z</time>
      </trkpt>
      <trkpt lat="46.19381" lon="6.69307">
        <ele>904.8</ele>
        <time>2023-09-10T14:34:37.612Z</time>
      </trkpt>
      <trkpt lat="46.19375" lon="6.69318">
        <ele>904.9</ele>
        <time>2023-09-10T14:34:38.612Z</time>
      </trkpt>
      <trkpt lat="46.19356" lon="6.69376">
        <ele>906.6</ele>
        <time>2023-09-10T14:34:39.612Z</time>
      </trkpt>
      <trkpt lat="46.19347" lon="6.69419">
        <ele>906.5</ele>
        <time>2023-09-10T14:34:40.612Z</time>
      </trkpt>
      <trkpt lat="46.19339" lon="6.69441">
        <ele>906.9</ele>
        <time>2023-09-10T14:34:41.612Z</time>
      </trkpt>
      <trkpt lat="46.19327" lon="6.69463">
        <ele>907.5</ele>
        <time>2023-09-10T14:34:42.612Z</time>
      </trkpt>
      <trkpt lat="46.19312" lon="6.69484">
        <ele>908</ele>
        <time>2023-09-10T14:34:43.612Z</time>
      </trkpt>
      <trkpt lat="46.19302" lon="6.69495">
        <ele>908.5</ele>
        <time>2023-09-10T14:34:44.612Z</time>
      </trkpt>
      <trkpt lat="46.19283" lon="6.69509">
        <ele>908.2</ele>
        <time>2023-09-10T14:34:45.612Z</time>
      </trkpt>
      <trkpt lat="46.19235" lon="6.69557">
        <ele>909.6</ele>
        <time>2023-09-10T14:34:46.612Z</time>
      </trkpt>
      <trkpt lat="46.19225" lon="6.69563">
        <ele>910</ele>
        <time>2023-09-10T14:34:47.612Z</time>
      </trkpt>
      <trkpt lat="46.19214" lon="6.69566">
        <ele>910.1</ele>
        <time>2023-09-10T14:34:48.612Z</time>
      </trkpt>
      <trkpt lat="46.1918" lon="6.69585">
        <ele>911.5</ele>
        <time>2023-09-10T14:34:49.612Z</time>
      </trkpt>
      <trkpt lat="46.19169" lon="6.69589">
        <ele>911.9</ele>
        <time>2023-09-10T14:34:50.612Z</time>
      </trkpt>
      <trkpt lat="46.19162" lon="6.69595">
        <ele>911.8</ele>
        <time>2023-09-10T14:34:51.612Z</time>
      </trkpt>
      <trkpt lat="46.19152" lon="6.69618">
        <ele>911.9</ele>
        <time>2023-09-10T14:34:52.612Z</time>
      </trkpt>
      <trkpt lat="46.19145" lon="6.6963">
        <ele>912.4</ele>
        <time>2023-09-10T14:34:53.612Z</time>
      </trkpt>
      <trkpt lat="46.1912" lon="6.69656">
        <ele>913.4</ele>
        <time>2023-09-10T14:34:54.612Z</time>
      </trkpt>
      <trkpt lat="46.19108" lon="6.69666">
        <ele>913.1</ele>
        <time>2023-09-10T14:34:55.612Z</time>
      </trkpt>
      <trkpt lat="46.19086" lon="6.69678">
        <ele>914</ele>
        <time>2023-09-10T14:34:56.612Z</time>
      </trkpt>
      <trkpt lat="46.19055" lon="6.697">
        <ele>914.4</ele>
        <time>2023-09-10T14:34:57.612Z</time>
      </trkpt>
      <trkpt lat="46.19034" lon="6.69712">
        <ele>915.1</ele>
        <time>2023-09-10T14:34:58.612Z</time>
      </trkpt>
      <trkpt lat="46.19012" lon="6.69716">
        <ele>915.6</ele>
        <time>2023-09-10T14:34:59.612Z</time>
      </trkpt>
      <trkpt lat="46.18989" lon="6.69716">
        <ele>916.2</ele>
        <time>2023-09-10T14:35:00.612Z</time>
      </trkpt>
      <trkpt lat="46.18978" lon="6.69718">
        <ele>916.6</ele>
        <time>2023-09-10T14:35:01.612Z</time>
      </trkpt>
      <trkpt lat="46.18969" lon="6.69723">
        <ele>917</ele>
        <time>2023-09-10T14:35:02.612Z</time>
      </trkpt>
      <trkpt lat="46.18948" lon="6.69746">
        <ele>918.8</ele>
        <time>2023-09-10T14:35:03.612Z</time>
      </trkpt>
      <trkpt lat="46.18907" lon="6.69779">
        <ele>918.7</ele>
        <time>2023-09-10T14:35:04.612Z</time>
      </trkpt>
      <trkpt lat="46.18874" lon="6.69795">
        <ele>919</ele>
        <time>2023-09-10T14:35:05.612Z</time>
      </trkpt>
      <trkpt lat="46.18833" lon="6.69807">
        <ele>920.1</ele>
        <time>2023-09-10T14:35:06.612Z</time>
      </trkpt>
      <trkpt lat="46.1881" lon="6.69818">
        <ele>920.1</ele>
        <time>2023-09-10T14:35:07.612Z</time>
      </trkpt>
      <trkpt lat="46.188" lon="6.69826">
        <ele>920.5</ele>
        <time>2023-09-10T14:35:08.612Z</time>
      </trkpt>
      <trkpt lat="46.18762" lon="6.69865">
        <ele>922.6</ele>
        <time>2023-09-10T14:35:09.612Z</time>
      </trkpt>
      <trkpt lat="46.18752" lon="6.69873">
        <ele>923</ele>
        <time>2023-09-10T14:35:10.612Z</time>
      </trkpt>
      <trkpt lat="46.18744" lon="6.69883">
        <ele>922.8</ele>
        <time>2023-09-10T14:35:11.612Z</time>
      </trkpt>
      <trkpt lat="46.18741" lon="6.69893">
        <ele>922.8</ele>
        <time>2023-09-10T14:35:12.612Z</time>
      </trkpt>
      <trkpt lat="46.18741" lon="6.69908">
        <ele>923.1</ele>
        <time>2023-09-10T14:35:13.612Z</time>
      </trkpt>
      <trkpt lat="46.18747" lon="6.69951">
        <ele>924.1</ele>
        <time>2023-09-10T14:35:14.612Z</time>
      </trkpt>
      <trkpt lat="46.18746" lon="6.69967">
        <ele>924.7</ele>
        <time>2023-09-10T14:35:15.612Z</time>
      </trkpt>
      <trkpt lat="46.18742" lon="6.69982">
        <ele>925.3</ele>
        <time>2023-09-10T14:35:16.612Z</time>
      </trkpt>
      <trkpt lat="46.18734" lon="6.70009">
        <ele>926.7</ele>
        <time>2023-09-10T14:35:17.612Z</time>
      </trkpt>
      <trkpt lat="46.18725" lon="6.70032">
        <ele>928.2</ele>
        <time>2023-09-10T14:35:18.612Z</time>
      </trkpt>
      <trkpt lat="46.18696" lon="6.70087">
        <ele>929</ele>
        <time>2023-09-10T14:35:19.612Z</time>
      </trkpt>
      <trkpt lat="46.18685" lon="6.70118">
        <ele>928.5</ele>
        <time>2023-09-10T14:35:20.612Z</time>
      </trkpt>
      <trkpt lat="46.18638" lon="6.70182">
        <ele>929.6</ele>
        <time>2023-09-10T14:35:21.612Z</time>
      </trkpt>
      <trkpt lat="46.1863" lon="6.70189">
        <ele>929.8</ele>
        <time>2023-09-10T14:35:22.612Z</time>
      </trkpt>
      <trkpt lat="46.18599" lon="6.702">
        <ele>930.2</ele>
        <time>2023-09-10T14:35:23.612Z</time>
      </trkpt>
      <trkpt lat="46.1859" lon="6.70205">
        <ele>930.4</ele>
        <time>2023-09-10T14:35:24.612Z</time>
      </trkpt>
      <trkpt lat="46.18562" lon="6.70239">
        <ele>932.7</ele>
        <time>2023-09-10T14:35:25.612Z</time>
      </trkpt>
      <trkpt lat="46.18546" lon="6.70255">
        <ele>933.6</ele>
        <time>2023-09-10T14:35:26.612Z</time>
      </trkpt>
      <trkpt lat="46.18522" lon="6.70275">
        <ele>934.4</ele>
        <time>2023-09-10T14:35:27.612Z</time>
      </trkpt>
      <trkpt lat="46.1851" lon="6.70292">
        <ele>934.6</ele>
        <time>2023-09-10T14:35:28.612Z</time>
      </trkpt>
      <trkpt lat="46.18494" lon="6.70323">
        <ele>936</ele>
        <time>2023-09-10T14:35:29.612Z</time>
      </trkpt>
      <trkpt lat="46.1846" lon="6.70372">
        <ele>935.9</ele>
        <time>2023-09-10T14:35:30.612Z</time>
      </trkpt>
      <trkpt lat="46.1843" lon="6.70405">
        <ele>937.1</ele>
        <time>2023-09-10T14:35:31.612Z</time>
      </trkpt>
      <trkpt lat="46.18411" lon="6.7045">
        <ele>938.4</ele>
        <time>2023-09-10T14:35:32.612Z</time>
      </trkpt>
      <trkpt lat="46.1839" lon="6.70477">
        <ele>939.2</ele>
        <time>2023-09-10T14:35:33.612Z</time>
      </trkpt>
      <trkpt lat="46.1837" lon="6.70498">
        <ele>939.9</ele>
        <time>2023-09-10T14:35:34.612Z</time>
      </trkpt>
      <trkpt lat="46.18356" lon="6.70497">
        <ele>939.9</ele>
        <time>2023-09-10T14:35:35.612Z</time>
      </trkpt>
    </trkseg>
  </trk>
</gpx>